# Wetter Temperatur Luftdruck Luftfeuchtigkeit Sichtweite Windgeschwindigkeit Windrichtung Zeit
1 Clouds 21 1020 56 10000 6.7 10 20:37 17.10.2019
2 Clouds 22 1020 56 10000 6.7 10 20:18 17.10.2019
3 Clouds 22 1020 53 10000 7.7 20 19:42 17.10.2019
4 Clouds 22 1020 53 10000 7.7 20 19:42 17.10.2019
5 -273 0 0 0 0 0 19:42 17.10.2019
6 Clouds 22 1020 53 10000 7.7 20 19:20 17.10.2019
7 Clouds 23 1020 53 10000 8.2 30 18:59 17.10.2019
8 Clouds 23 1020 53 10000 8.7 30 18:39 17.10.2019
9 Clouds 23 1020 53 10000 8.7 30 18:21 17.10.2019
10 Clouds 23 1020 53 10000 9.8 20 17:44 17.10.2019
11 Clouds 24 1020 47 10000 9.8 30 17:25 17.10.2019
12 Clouds 23 1020 57 10000 9.8 30 16:59 17.10.2019
13 Clouds 24 1020 50 10000 9.8 30 16:41 17.10.2019
14 Clouds 23 1020 50 10000 9.8 30 16:19 17.10.2019
15 Clouds 24 1020 50 10000 10.3 30 15:57 17.10.2019
16 Clouds 24 1021 53 10000 9.3 30 15:39 17.10.2019
17 Clouds 24 1021 53 10000 9.3 30 15:20 17.10.2019
18 Clouds 24 1022 50 10000 9.8 30 14:57 17.10.2019
19 Clouds 24 1022 57 10000 8.7 30 14:38 17.10.2019
20 -273 0 0 0 0 0 14:20 17.10.2019
21 Clouds 25 1022 57 10000 9.8 20 13:41 17.10.2019
22 Clouds 23 1022 57 10000 9.8 20 13:20 17.10.2019
23 Clouds 23 1022 57 10000 9.3 20 12:58 17.10.2019
24 Clouds 23 1022 57 10000 8.7 20 12:38 17.10.2019
25 Clouds 23 1022 57 10000 8.7 20 12:19 17.10.2019
26 Clouds 22 1022 60 10000 8.2 10 11:55 17.10.2019
27 Clouds 22 1022 60 10000 8.2 10 11:55 17.10.2019
28 Clouds 22 1022 60 10000 8.2 10 11:55 17.10.2019
29 Clouds 22 1021 60 10000 8.7 20 11:37 17.10.2019
30 Clouds 22 1021 60 10000 8.7 20 11:18 17.10.2019
31 Clouds 22 1020 64 10000 7.7 10 10:42 17.10.2019
32 Clouds 22 1020 64 10000 7.7 10 10:42 17.10.2019
33 Clouds 21 1020 64 10000 7.7 10 10:20 17.10.2019
34 Clouds 20 1020 68 10000 5.1 10 09:57 17.10.2019
35 Clouds 20 1021 68 10000 3.6 360 09:38 17.10.2019
36 Clouds 20 1021 68 10000 3.6 360 09:19 17.10.2019
37 -273 0 0 0 0 0 08:49 17.10.2019
38 Clouds 21 1020 64 10000 4.6 350 08:27 17.10.2019
39 Clouds 21 1020 73 10000 4.1 350 07:59 17.10.2019
40 Clouds 21 1020 68 10000 4.1 340 07:41 17.10.2019
41 Clouds 21 1020 68 10000 4.1 340 07:21 17.10.2019
42 Clouds 21 1020 68 10000 4.6 340 06:51 17.10.2019
43 Clouds 21 1020 64 10000 4.6 350 06:31 17.10.2019
44 Clouds 22 1020 64 10000 4.6 350 05:59 17.10.2019
45 Clouds 22 1020 68 10000 6.2 10 05:37 17.10.2019
46 Clouds 21 1020 68 10000 6.2 10 05:19 17.10.2019
47 Clouds 20 1020 68 10000 6.2 10 04:46 17.10.2019
48 Clouds 20 1020 68 10000 7.7 10 03:45 17.10.2019
49 Clouds 22 1021 73 10000 6.2 20 01:57 17.10.2019
50 Clouds 22 1021 73 10000 6.2 20 01:57 17.10.2019
51 Clouds 20 1022 73 10000 4.1 10 00:42 17.10.2019
52 Clouds 22 1022 73 10000 4.1 10 00:21 17.10.2019
53 Clouds 22 1022 68 10000 3.6 10 23:59 16.10.2019
54 Clouds 22 1022 68 10000 4.1 10 23:40 16.10.2019
55 Clouds 22 1022 68 10000 4.1 10 23:18 16.10.2019
56 Clouds 22 1021 73 10000 4.1 10 22:54 16.10.2019
57 Clouds 22 1021 73 10000 5.1 20 22:36 16.10.2019
58 Clouds 22 1021 73 10000 5.1 20 22:18 16.10.2019
59 Clouds 22 1020 73 10000 5.7 20 21:54 16.10.2019
60 Clouds 22 1020 73 10000 5.7 20 21:54 16.10.2019
61 -273 0 0 0 0 0 21:54 16.10.2019
62 Clouds 21 1020 73 10000 5.7 10 21:36 16.10.2019
63 Clouds 21 1020 73 10000 5.7 10 21:18 16.10.2019
64 Clouds 22 1020 69 10000 5.7 20 20:56 16.10.2019
65 Clouds 22 1020 69 10000 5.7 20 20:55 16.10.2019
66 Clouds 21 1020 64 10000 4.6 10 20:37 16.10.2019
67 Clouds 21 1020 64 10000 4.6 10 20:37 16.10.2019
68 Clouds 21 1020 64 10000 4.6 10 20:37 16.10.2019
69 Clouds 21 1020 64 10000 4.6 10 20:19 16.10.2019
70 Clouds 23 1020 64 10000 5.7 20 19:40 16.10.2019
71 Clouds 23 1020 64 10000 5.7 20 19:21 16.10.2019
72 Clouds 23 1020 69 10000 5.1 20 18:58 16.10.2019
73 Clouds 23 1020 69 10000 5.1 20 18:58 16.10.2019
74 Clouds 23 1020 69 10000 6.2 20 18:38 16.10.2019
75 Clouds 23 1020 69 10000 6.2 20 18:18 16.10.2019
76 Clouds 23 1020 69 10000 6.2 20 18:18 16.10.2019
77 Clouds 23 1020 69 10000 6.2 20 18:18 16.10.2019
78 Clouds 23 1020 64 10000 6.2 20 17:55 16.10.2019
79 Clouds 23 1020 69 10000 6.7 20 17:37 16.10.2019
80 Clouds 23 1020 69 10000 6.7 20 17:37 16.10.2019
81 Clouds 23 1020 69 10000 6.7 20 17:37 16.10.2019
82 Clouds 23 1020 69 10000 6.7 20 17:19 16.10.2019
83 Clouds 21 1020 73 10000 7.2 30 16:56 16.10.2019
84 Clouds 23 1020 69 10000 5.7 40 16:38 16.10.2019
85 Clouds 24 1020 69 10000 5.7 40 16:19 16.10.2019
86 -273 0 0 0 0 0 15:40 16.10.2019
87 Clouds 23 1021 73 10000 6.7 30 15:40 16.10.2019
88 Clouds 22 1021 73 10000 6.7 30 15:19 16.10.2019
89 Clouds 22 1021 73 10000 6.7 30 15:19 16.10.2019
90 Rain 22 1022 69 10000 7.2 30 14:58 16.10.2019
91 Rain 23 1022 69 10000 7.2 30 14:40 16.10.2019
92 Rain 23 1022 69 10000 7.2 30 14:21 16.10.2019
93 Rain 21 1022 69 10000 6.7 30 13:58 16.10.2019
94 Clouds 22 1022 64 10000 7.7 30 13:39 16.10.2019
95 Clouds 23 1022 64 10000 7.7 30 13:21 16.10.2019
96 Clouds 22 1022 69 10000 8.2 30 12:44 16.10.2019
97 Clouds 23 1022 69 10000 7.2 20 12:20 16.10.2019
98 Clouds 23 1021 64 10000 7.7 20 11:55 16.10.2019
99 Clouds 23 1021 69 10000 7.2 20 11:37 16.10.2019
100 Clouds 21 1021 69 10000 7.2 20 11:18 16.10.2019
101 Clouds 20 1020 73 10000 5.7 10 10:36 16.10.2019
102 Clouds 22 1020 73 10000 5.7 10 10:18 16.10.2019
103 -273 0 0 0 0 0 09:41 16.10.2019
104 -273 0 0 0 0 0 09:40 16.10.2019
105 Clouds 21 1020 73 10000 5.1 10 09:22 16.10.2019
106 Clouds 21 1020 73 10000 4.6 10 08:56 16.10.2019
107 Clouds 21 1020 73 10000 4.6 10 08:56 16.10.2019
108 Clouds 19 1020 73 10000 4.6 350 08:38 16.10.2019
109 Clouds 19 1020 73 10000 4.6 350 08:19 16.10.2019
110 Clouds 21 1020 73 10000 4.1 350 07:41 16.10.2019
111 Clouds 21 1020 73 10000 4.1 350 07:23 16.10.2019
112 Clouds 21 1020 73 10000 4.1 10 06:48 16.10.2019
113 Clouds 20 1020 73 10000 4.6 20 06:29 16.10.2019
114 Clouds 22 1021 68 10000 5.7 30 04:31 16.10.2019
115 Clouds 22 1021 73 10000 6.7 30 02:51 16.10.2019
116 Clouds 21 1022 68 10000 6.7 20 01:20 16.10.2019
117 Clouds 22 1021 68 10000 7.7 20 00:59 16.10.2019
118 Clouds 22 1021 68 10000 7.7 20 00:40 16.10.2019
119 Clouds 20 1021 68 10000 7.2 30 23:58 15.10.2019
120 Clouds 20 1021 68 10000 7.2 30 23:38 15.10.2019
121 Clouds 20 1021 68 10000 7.2 30 23:19 15.10.2019
122 Clouds 22 1021 68 10000 6.2 20 22:55 15.10.2019
123 Clouds 22 1021 68 10000 6.2 20 22:55 15.10.2019
124 Clouds 22 1021 68 10000 6.2 20 22:37 15.10.2019
125 Clouds 21 1021 68 10000 6.2 20 22:18 15.10.2019
126 Clouds 22 1021 68 10000 6.2 20 21:54 15.10.2019
127 Clouds 21 1020 64 10000 7.2 20 21:36 15.10.2019
128 Clouds 21 1020 64 10000 7.2 20 21:18 15.10.2019
129 Clouds 23 1020 64 10000 6.7 20 20:54 15.10.2019
130 Clouds 22 1020 60 10000 7.7 20 20:36 15.10.2019
131 Clouds 22 1020 60 10000 7.7 20 20:18 15.10.2019
132 Clouds 23 1020 60 10000 7.7 20 19:41 15.10.2019
133 Clouds 23 1020 60 10000 7.7 20 19:41 15.10.2019
134 Clouds 22 1020 60 10000 7.7 20 19:20 15.10.2019
135 Clouds 22 1020 60 10000 7.7 20 19:20 15.10.2019
136 Clouds 23 1020 56 10000 8.2 20 18:57 15.10.2019
137 Clouds 23 1020 53 10000 9.3 20 18:39 15.10.2019
138 Clouds 23 1020 53 10000 9.3 20 18:20 15.10.2019
139 Clouds 24 1020 53 10000 8.7 20 17:43 15.10.2019
140 Clouds 24 1020 57 10000 9.8 20 17:21 15.10.2019
141 Clouds 24 1020 57 10000 7.7 20 16:59 15.10.2019
142 Clouds 24 1020 60 10000 5.1 40 16:41 15.10.2019
143 Clouds 25 1020 60 10000 5.1 40 16:21 15.10.2019
144 Clouds 23 1021 69 10000 4.6 50 15:56 15.10.2019
145 Clouds 23 1022 69 10000 4.6 80 15:37 15.10.2019
146 Clouds 23 1022 69 10000 4.6 80 15:19 15.10.2019
147 Clouds 24 1022 64 10000 5.1 70 14:55 15.10.2019
148 Clouds 23 1022 64 10000 5.1 60 14:36 15.10.2019
149 Clouds 23 1022 64 10000 5.1 60 14:18 15.10.2019
150 Clouds 25 1022 61 10000 5.7 50 13:43 15.10.2019
151 Clouds 23 1022 60 10000 6.2 40 13:20 15.10.2019
152 Clouds 25 1022 60 10000 6.7 30 12:46 15.10.2019
153 Clouds 22 1022 60 10000 6.7 20 12:23 15.10.2019
154 Clouds 24 1022 60 10000 7.2 30 11:59 15.10.2019
155 Clouds 24 1022 57 10000 6.2 30 11:41 15.10.2019
156 Clouds 22 1022 57 10000 6.2 30 11:20 15.10.2019
157 Clouds 23 1021 60 10000 6.7 30 10:46 15.10.2019
158 Clouds 21 1021 68 10000 6.2 30 10:24 15.10.2019
159 Clouds 21 1021 68 10000 5.7 10 09:59 15.10.2019
160 Clouds 21 1021 77 10000 4.6 10 09:40 15.10.2019
161 Clouds 21 1021 77 10000 4.6 10 09:21 15.10.2019
162 Clouds 21 1021 77 10000 4.6 10 09:21 15.10.2019
163 Clouds 20 1021 77 10000 4.6 20 08:58 15.10.2019
164 Clouds 19 1021 77 10000 4.6 20 08:39 15.10.2019
165 Clouds 21 1021 77 10000 5.7 360 08:19 15.10.2019
166 Clouds 21 1020 73 10000 5.7 360 07:43 15.10.2019
167 Clouds 21 1020 73 10000 4.1 360 07:23 15.10.2019
168 Clouds 21 1020 68 10000 5.1 360 06:57 15.10.2019
169 Clouds 21 1020 73 10000 5.1 360 06:39 15.10.2019
170 Clouds 21 1020 77 10000 5.7 10 05:56 15.10.2019
171 Clouds 21 1020 73 10000 6.2 350 05:36 15.10.2019
172 Clouds 21 1020 73 10000 6.2 360 04:48 15.10.2019
173 Clouds 20 1021 73 10000 6.7 350 04:18 15.10.2019
174 Clouds 21 1021 73 10000 6.2 350 03:35 15.10.2019
175 Clouds 21 1021 73 10000 6.2 350 03:35 15.10.2019
176 Clouds 21 1022 73 10000 6.2 350 01:52 15.10.2019
177 Clouds 21 1022 73 10000 6.2 350 01:52 15.10.2019
178 Clouds 20 1022 73 10000 5.7 360 01:31 15.10.2019
179 Clouds 22 1022 68 10000 5.7 360 00:59 15.10.2019
180 Clouds 22 1022 64 10000 7.2 350 00:25 15.10.2019
181 Clouds 20 1021 68 10000 6.2 350 23:58 14.10.2019
182 Clouds 22 1022 68 10000 5.1 360 23:37 14.10.2019
183 Clouds 22 1022 68 10000 5.1 360 23:37 14.10.2019
184 Clouds 20 1022 68 10000 5.1 360 23:18 14.10.2019
185 Clouds 20 1021 68 10000 7.7 10 22:39 14.10.2019
186 Clouds 21 1021 68 10000 7.7 10 22:20 14.10.2019
187 Clouds 21 1020 68 10000 7.7 10 21:57 14.10.2019
188 Clouds 21 1020 73 10000 7.7 10 21:39 14.10.2019
189 Clouds 20 1020 73 10000 7.7 10 21:20 14.10.2019
190 Clouds 23 1020 69 10000 8.2 20 20:57 14.10.2019
191 Clouds 23 1020 69 10000 8.2 10 20:38 14.10.2019
192 Clouds 23 1020 69 10000 8.2 10 20:19 14.10.2019
193 Clouds 24 1019 64 10000 10.3 10 19:44 14.10.2019
194 Clouds 24 1019 64 10000 11.3 10 19:25 14.10.2019
195 Clouds 23 1020 64 10000 10.3 10 18:59 14.10.2019
196 Clouds 25 1020 61 10000 10.3 20 18:40 14.10.2019
197 Clouds 24 1020 61 10000 10.3 20 18:21 14.10.2019
198 Clouds 24 1020 64 10000 11.3 20 17:59 14.10.2019
199 Clouds 25 1020 61 10000 10.8 20 17:41 14.10.2019
200 Clouds 25 1020 61 10000 10.8 20 17:22 14.10.2019
201 Clouds 24 1020 61 10000 10.8 20 16:45 14.10.2019
202 Clouds 24 1020 61 10000 11.3 30 16:22 14.10.2019
203 Clouds 25 1020 57 10000 11.3 30 15:58 14.10.2019
204 Clouds 25 1021 57 10000 11.3 30 15:38 14.10.2019
205 Clouds 23 1021 57 10000 11.3 30 15:20 14.10.2019
206 Clouds 24 1021 61 10000 10.3 30 14:43 14.10.2019
207 Clouds 25 1021 61 10000 10.3 30 14:24 14.10.2019
208 Clouds 23 1021 61 10000 9.8 30 13:57 14.10.2019
209 Clouds 25 1021 65 10000 9.3 10 13:39 14.10.2019
210 Clouds 24 1021 65 10000 9.3 10 13:20 14.10.2019
211 Clouds 22 1021 64 10000 9.3 20 12:41 14.10.2019
212 Clouds 24 1021 64 10000 9.3 20 12:19 14.10.2019
213 Clouds 23 1021 69 10000 8.7 20 11:48 14.10.2019
214 Clouds 23 1021 69 10000 9.3 20 11:27 14.10.2019
215 Clouds 23 1020 69 10000 8.7 20 10:59 14.10.2019
216 Clouds 22 1020 73 10000 8.2 10 10:41 14.10.2019
217 Clouds 21 1020 73 10000 8.2 10 10:21 14.10.2019
218 Clouds 20 1019 77 10000 5.7 360 09:57 14.10.2019
219 Clouds 21 1019 73 10000 5.7 10 09:38 14.10.2019
220 Clouds 19 1019 73 10000 5.7 10 09:19 14.10.2019
221 Clouds 20 1019 77 10000 6.2 350 08:45 14.10.2019
222 Clouds 20 1019 77 10000 6.2 350 08:22 14.10.2019
223 Clouds 19 1019 77 10000 7.2 360 07:44 14.10.2019
224 Clouds 19 1018 73 10000 5.7 10 07:19 14.10.2019
225 Clouds 20 1018 73 10000 4.6 360 06:54 14.10.2019
226 -273 0 0 0 0 0 06:27 14.10.2019
227 Clouds 20 1018 73 10000 5.7 10 05:50 14.10.2019
228 Clouds 20 1018 68 10000 4.1 10 04:49 14.10.2019
229 Clear 20 1019 68 10000 3.6 350 03:28 14.10.2019
230 Clear 21 1019 64 10000 3.1 350 02:56 14.10.2019
231 Clear 21 1019 64 10000 3.1 350 01:25 14.10.2019
232 Clear 21 1019 68 10000 2.6 330 00:59 14.10.2019
233 Clear 21 1019 68 10000 2.6 330 00:21 14.10.2019
234 Clear 21 1019 68 10000 2.6 330 00:21 14.10.2019
235 Clouds 22 1019 68 10000 2.6 330 23:46 13.10.2019
236 Clouds 21 1019 68 10000 2.1 340 23:21 13.10.2019
237 Clouds 22 1018 64 10000 1.5 350 22:59 13.10.2019
238 Clouds 22 1018 68 10000 2.1 30 22:41 13.10.2019
239 Clouds 22 1018 68 10000 2.1 30 22:21 13.10.2019
240 Clouds 23 1018 64 10000 2.6 50 21:58 13.10.2019
241 Clouds 23 1018 64 10000 1.5 60 21:38 13.10.2019
242 Clouds 21 1018 64 10000 1.5 60 21:19 13.10.2019
243 Clouds 23 1017 64 10000 2.1 50 20:58 13.10.2019
244 Clouds 23 1017 64 10000 2.1 50 20:58 13.10.2019
245 Clouds 23 1017 64 10000 2.1 50 20:58 13.10.2019
246 Clouds 23 1017 64 10000 2.6 60 20:39 13.10.2019
247 Clouds 23 1017 64 10000 2.6 60 20:39 13.10.2019
248 Clouds 22 1017 64 10000 2.6 60 20:21 13.10.2019
249 Clouds 22 1017 60 10000 3.1 60 19:59 13.10.2019
250 Clouds 24 1017 60 10000 3.6 50 19:39 13.10.2019
251 Clouds 24 1017 60 10000 3.6 50 19:39 13.10.2019
252 Clouds 22 1017 60 10000 3.6 50 19:21 13.10.2019
253 Clouds 24 1017 60 10000 3.6 50 18:58 13.10.2019
254 Clouds 24 1017 60 10000 2.6 70 18:37 13.10.2019
255 Clouds 22 1017 60 10000 2.6 70 18:19 13.10.2019
256 Clouds 24 1017 64 10000 1.5 100 17:57 13.10.2019
257 Clouds 23 1017 64 10000 2.1 110 17:39 13.10.2019
258 Clouds 23 1017 64 10000 2.1 110 17:21 13.10.2019
259 Clouds 23 1016 60 10000 3.1 100 16:43 13.10.2019
260 Clouds 23 1016 57 10000 3.1 100 16:19 13.10.2019
261 Clouds 25 1016 53 10000 3.1 100 15:57 13.10.2019
262 Clouds 25 1016 53 10000 3.1 100 15:57 13.10.2019
263 Clouds 24 1017 57 10000 3.1 100 15:38 13.10.2019
264 Clouds 24 1017 57 10000 3.1 100 15:18 13.10.2019
265 Clouds 24 1017 57 10000 3.1 90 14:57 13.10.2019
266 Clouds 23 1017 53 10000 3.6 110 14:38 13.10.2019
267 Clouds 24 1017 53 10000 3.6 110 14:19 13.10.2019
268 Clouds 24 1017 53 10000 3.6 80 13:41 13.10.2019
269 Clouds 24 1017 53 10000 3.6 80 13:23 13.10.2019
270 Clouds 24 1017 53 10000 3.6 80 13:23 13.10.2019
271 Clouds 24 1017 53 10000 3.6 90 12:59 13.10.2019
272 Clouds 24 1017 53 10000 3.1 70 12:39 13.10.2019
273 Clouds 21 1017 53 10000 3.1 70 12:21 13.10.2019
274 Clouds 23 1017 50 10000 2.1 350 11:58 13.10.2019
275 Clouds 23 1016 53 10000 2.6 360 11:39 13.10.2019
276 Clouds 23 1016 53 10000 2.6 360 11:20 13.10.2019
277 Clouds 22 1016 56 10000 3.1 340 10:56 13.10.2019
278 Clouds 21 1016 56 10000 2.6 300 10:38 13.10.2019
279 Clouds 21 1016 56 10000 2.6 300 10:19 13.10.2019
280 Clouds 21 1016 60 10000 3.6 300 09:39 13.10.2019
281 Clouds 21 1016 60 10000 3.6 300 09:21 13.10.2019
282 Clouds 21 1015 64 10000 3.1 300 08:43 13.10.2019
283 Clouds 21 1015 60 10000 1.5 310 08:25 13.10.2019
284 Clouds 21 1015 60 10000 1 0 07:51 13.10.2019
285 Clouds 21 1015 64 10000 1.47 348.415 07:33 13.10.2019
286 Clouds 21 1015 64 10000 1.5 340 06:53 13.10.2019
287 Clouds 21 1015 64 10000 1.5 310 06:23 13.10.2019
288 Clouds 22 1015 68 10000 2.1 340 05:19 13.10.2019
289 Clouds 21 1015 68 10000 2.6 360 04:34 13.10.2019
290 Clouds 21 1015 68 10000 2.6 360 04:34 13.10.2019
291 Clouds 21 1016 73 10000 3.1 10 02:53 13.10.2019
292 Clouds 21 1016 73 10000 3.6 10 02:30 13.10.2019
293 Clouds 21 1016 73 10000 5.7 30 01:36 13.10.2019
294 Clouds 21 1016 73 10000 5.7 30 01:36 13.10.2019
295 Clouds 22 1016 73 10000 4.6 20 00:55 13.10.2019
296 Clouds 22 1016 69 10000 5.1 10 00:37 13.10.2019
297 Clouds 22 1016 69 10000 5.1 10 00:37 13.10.2019
298 Clouds 22 1016 69 10000 5.1 10 00:18 13.10.2019
299 Clouds 23 1016 69 10000 5.7 20 23:41 12.10.2019
300 Clouds 22 1016 69 10000 5.7 20 23:22 12.10.2019
301 Clouds 22 1016 69 10000 5.7 10 22:58 12.10.2019
302 Clouds 22 1016 69 10000 5.7 10 22:58 12.10.2019
303 Clouds 23 1015 69 10000 6.2 10 22:40 12.10.2019
304 Clouds 23 1015 69 10000 6.2 10 22:40 12.10.2019
305 Clouds 20 1015 69 10000 6.2 10 22:22 12.10.2019
306 Clouds 20 1015 69 10000 6.7 20 21:57 12.10.2019
307 Clouds 20 1015 69 10000 7.2 30 21:39 12.10.2019
308 Clouds 23 1015 69 10000 7.2 30 21:20 12.10.2019
309 Clouds 21 1015 69 10000 7.2 20 20:45 12.10.2019
310 Clouds 21 1015 69 10000 7.2 20 20:45 12.10.2019
311 Clouds 21 1015 69 10000 7.7 30 20:27 12.10.2019
312 Clouds 23 1015 69 10000 7.7 30 19:56 12.10.2019
313 Clouds 21 1015 64 10000 7.7 30 19:36 12.10.2019
314 Clouds 23 1015 64 10000 7.7 30 19:18 12.10.2019
315 Clouds 22 1015 64 10000 6.7 20 18:41 12.10.2019
316 Clouds 22 1015 64 10000 6.7 20 18:23 12.10.2019
317 Clouds 23 1015 61 10000 5.1 40 17:45 12.10.2019
318 Clouds 23 1015 61 10000 5.1 40 17:21 12.10.2019
319 Clouds 23 1015 57 10000 5.1 60 16:58 12.10.2019
320 Clouds 24 1015 61 10000 5.1 60 16:40 12.10.2019
321 Clouds 23 1015 61 10000 5.1 60 16:19 12.10.2019
322 Clouds 23 1016 61 10000 5.1 60 15:45 12.10.2019
323 Clouds 23 1016 61 10000 5.1 60 15:26 12.10.2019
324 Clouds 24 1017 65 10000 6.2 60 14:59 12.10.2019
325 Clouds 23 1017 65 10000 5.1 50 14:38 12.10.2019
326 Clouds 23 1017 65 10000 5.1 50 14:20 12.10.2019
327 Clouds 23 1017 61 10000 5.1 40 13:49 12.10.2019
328 Clouds 24 1017 65 10000 5.7 60 13:31 12.10.2019
329 Clouds 22 1018 61 10000 6.2 50 12:55 12.10.2019
330 Clouds 24 1018 61 10000 6.2 50 12:37 12.10.2019
331 Clouds 22 1018 61 10000 6.2 50 12:18 12.10.2019
332 Clouds 23 1017 64 10000 6.2 40 11:40 12.10.2019
333 Clouds 23 1017 64 10000 6.2 40 11:22 12.10.2019
334 Clouds 23 1017 69 10000 6.2 30 10:57 12.10.2019
335 Clouds 22 1017 64 10000 4.1 20 10:37 12.10.2019
336 Clouds 22 1017 64 10000 4.1 20 10:19 12.10.2019
337 Clouds 21 1016 73 10000 3.6 10 09:56 12.10.2019
338 Clouds 21 1016 73 10000 3.6 10 09:55 12.10.2019
339 Clouds 21 1016 68 10000 4.1 10 09:37 12.10.2019
340 Clouds 21 1016 68 10000 4.1 10 09:19 12.10.2019
341 Clouds 21 1016 73 10000 3.6 350 08:42 12.10.2019
342 Clouds 21 1016 73 10000 3.6 350 08:22 12.10.2019
343 Clouds 20 1016 77 10000 3.6 360 07:37 12.10.2019
344 Clouds 20 1016 77 10000 3.6 360 07:18 12.10.2019
345 Clouds 21 1016 73 10000 5.7 10 05:53 12.10.2019
346 Clouds 21 1016 73 10000 5.7 10 05:25 12.10.2019
347 Clouds 21 1017 73 10000 3.6 360 04:29 12.10.2019
348 Clouds 21 1017 64 10000 4.1 360 03:42 12.10.2019
349 Clouds 21 1017 68 10000 4.1 350 02:37 12.10.2019
350 Clouds 22 1018 68 10000 5.1 350 01:30 12.10.2019
351 Clouds 22 1018 73 10000 5.7 350 00:44 12.10.2019
352 Clouds 22 1018 69 10000 5.7 350 00:24 12.10.2019
353 Clouds 22 1017 69 10000 6.2 10 23:40 11.10.2019
354 Clouds 22 1017 69 10000 6.2 10 23:40 11.10.2019
355 Clouds 22 1017 69 10000 6.2 10 23:21 11.10.2019
356 Clouds 20 1017 69 10000 6.2 10 22:56 11.10.2019
357 Clouds 21 1017 69 10000 6.7 360 22:37 11.10.2019
358 Clouds 23 1017 69 10000 6.7 360 22:18 11.10.2019
359 Clouds 23 1016 69 10000 8.7 20 21:40 11.10.2019
360 Clouds 21 1016 69 10000 8.7 20 21:21 11.10.2019
361 Clouds 23 1016 69 10000 8.7 20 20:54 11.10.2019
362 Clouds 24 1016 69 10000 9.3 20 20:36 11.10.2019
363 Clouds 22 1016 69 10000 9.3 20 20:18 11.10.2019
364 Clouds 22 1015 69 10000 10.3 30 19:54 11.10.2019
365 Clouds 22 1015 69 10000 10.3 30 19:54 11.10.2019
366 Clouds 24 1015 69 10000 9.8 30 19:36 11.10.2019
367 Clouds 23 1015 69 10000 9.8 30 19:18 11.10.2019
368 Clouds 23 1015 69 10000 9.8 30 19:18 11.10.2019
369 Clouds 23 1015 61 10000 10.3 30 18:39 11.10.2019
370 Clouds 23 1015 61 10000 10.3 30 18:19 11.10.2019
371 Clouds 24 1015 61 10000 9.3 30 17:59 11.10.2019
372 Clouds 24 1015 61 10000 8.7 30 17:38 11.10.2019
373 Clouds 25 1015 61 10000 8.7 30 17:19 11.10.2019
374 Clouds 25 1016 65 10000 8.2 30 16:59 11.10.2019
375 Clouds 25 1016 57 10000 7.2 40 16:39 11.10.2019
376 Clouds 25 1016 57 10000 7.2 40 16:39 11.10.2019
377 Clouds 25 1016 57 10000 7.2 40 16:19 11.10.2019
378 Clouds 25 1016 65 10000 6.7 40 15:55 11.10.2019
379 Clouds 25 1017 61 10000 8.2 40 15:36 11.10.2019
380 Clouds 25 1017 61 10000 8.2 40 15:18 11.10.2019
381 Clouds 25 1017 65 10000 8.2 30 14:41 11.10.2019
382 Clouds 25 1017 65 10000 8.2 30 14:21 11.10.2019
383 Clouds 25 1018 61 10000 7.7 30 13:46 11.10.2019
384 Clouds 25 1018 61 10000 7.7 30 13:26 11.10.2019
385 Clouds 24 1018 61 10000 7.7 30 12:58 11.10.2019
386 Clouds 24 1018 61 10000 7.7 30 12:40 11.10.2019
387 Clouds 24 1018 61 10000 7.7 30 12:21 11.10.2019
388 Clouds 24 1018 53 10000 6.7 10 11:59 11.10.2019
389 Clouds 24 1018 57 10000 6.7 10 11:39 11.10.2019
390 Clouds 24 1018 57 10000 6.7 10 11:21 11.10.2019
391 Clouds 23 1017 56 10000 5.7 10 10:56 11.10.2019
392 Clouds 23 1017 56 10000 5.7 10 10:56 11.10.2019
393 Clouds 22 1017 60 10000 3.6 360 10:36 11.10.2019
394 Clouds 22 1017 60 10000 3.6 360 10:18 11.10.2019
395 Clouds 21 1016 60 10000 4.1 350 09:42 11.10.2019
396 Clouds 20 1016 60 10000 4.1 350 09:21 11.10.2019
397 Clouds 20 1016 60 10000 4.6 360 08:59 11.10.2019
398 Clear 20 1016 64 10000 4.1 350 08:38 11.10.2019
399 Clear 20 1016 64 10000 4.1 350 08:20 11.10.2019
400 Clear 20 1016 64 10000 3.6 360 07:53 11.10.2019
401 Clear 21 1016 60 10000 3.6 360 07:34 11.10.2019
402 Clear 20 1016 60 10000 3.6 350 06:50 11.10.2019
403 Clear 20 1016 60 10000 4.1 360 06:25 11.10.2019
404 Clear 21 1016 64 10000 3.1 360 05:47 11.10.2019
405 Clear 21 1016 64 10000 3.1 360 05:47 11.10.2019
406 Clouds 20 1016 64 10000 2.6 340 05:29 11.10.2019
407 Clouds 21 1016 64 10000 2.1 350 04:58 11.10.2019
408 Clouds 21 1017 77 10000 3.1 350 03:40 11.10.2019
409 Clouds 22 1017 78 10000 5.1 10 01:26 11.10.2019
410 Clouds 23 1017 73 10000 4.6 10 00:31 11.10.2019
411 Clouds 23 1017 73 10000 6.2 10 23:58 10.10.2019
412 Clouds 23 1017 73 10000 5.7 20 23:40 10.10.2019
413 Clouds 23 1017 73 10000 5.7 20 23:19 10.10.2019
414 Clouds 23 1016 73 10000 5.7 20 22:56 10.10.2019
415 Clouds 21 1016 78 10000 6.2 20 22:36 10.10.2019
416 Clouds 21 1016 78 10000 6.2 20 22:18 10.10.2019
417 Clouds 21 1016 78 10000 6.2 20 22:18 10.10.2019
418 Clouds 21 1015 78 10000 6.2 20 21:42 10.10.2019
419 Clouds 23 1015 78 10000 6.2 20 21:42 10.10.2019
420 Clouds 21 1015 78 10000 6.2 20 21:22 10.10.2019
421 Clouds 24 1016 73 10000 6.2 30 20:59 10.10.2019
422 Clouds 24 1015 73 10000 6.2 20 20:40 10.10.2019
423 Clouds 24 1015 73 10000 6.2 20 20:20 10.10.2019
424 Clouds 23 1015 73 10000 7.2 30 19:57 10.10.2019
425 Clouds 23 1015 73 10000 7.7 30 19:39 10.10.2019
426 Clouds 24 1015 73 10000 7.7 30 19:19 10.10.2019
427 Clouds 24 1015 73 10000 7.7 30 19:19 10.10.2019
428 Clouds 25 1015 69 10000 8.2 30 18:42 10.10.2019
429 Clouds 24 1015 69 10000 8.2 30 18:21 10.10.2019
430 Clouds 25 1015 69 10000 8.7 30 17:59 10.10.2019
431 Clouds 25 1015 69 10000 8.7 30 17:40 10.10.2019
432 Clouds 25 1015 69 10000 8.7 30 17:19 10.10.2019
433 Clouds 25 1015 65 10000 8.2 40 16:57 10.10.2019
434 Clouds 26 1015 65 10000 8.2 40 16:37 10.10.2019
435 Clouds 25 1015 65 10000 8.2 40 16:19 10.10.2019
436 Clouds 24 1016 69 10000 8.2 30 15:42 10.10.2019
437 Clouds 24 1016 69 10000 8.2 30 15:23 10.10.2019
438 Clouds 25 1017 61 10000 7.7 30 14:58 10.10.2019
439 Clouds 24 1017 65 10000 8.2 30 14:37 10.10.2019
440 Clouds 24 1017 65 10000 8.2 30 14:19 10.10.2019
441 Clouds 24 1017 65 10000 7.2 40 13:58 10.10.2019
442 Clouds 24 1018 69 10000 7.2 30 13:39 10.10.2019
443 Clouds 23 1018 69 10000 7.2 30 13:18 10.10.2019
444 Clouds 25 1017 69 10000 8.2 20 12:42 10.10.2019
445 Clouds 25 1017 69 10000 8.2 20 12:21 10.10.2019
446 Clouds 24 1017 61 10000 7.7 20 11:58 10.10.2019
447 Clouds 23 1017 60 10000 7.2 360 11:40 10.10.2019
448 Clouds 23 1017 60 10000 7.2 360 11:19 10.10.2019
449 Clouds 22 1016 60 10000 5.7 360 10:47 10.10.2019
450 Clouds 22 1016 60 10000 4.6 350 10:28 10.10.2019
451 Clouds 22 1016 60 10000 4.6 350 10:28 10.10.2019
452 Clouds 21 1016 64 10000 4.6 350 09:59 10.10.2019
453 Clouds 21 1016 64 10000 4.6 350 09:41 10.10.2019
454 Clouds 21 1016 64 10000 4.6 350 09:23 10.10.2019
455 Clouds 20 1016 68 10000 4.6 350 08:59 10.10.2019
456 Clouds 20 1016 73 10000 4.6 350 08:40 10.10.2019
457 Clouds 19 1016 73 10000 4.6 350 08:20 10.10.2019
458 Clouds 20 1015 68 10000 5.7 350 07:47 10.10.2019
459 Clouds 21 1015 68 10000 5.7 350 07:26 10.10.2019
460 Clouds 21 1015 64 10000 4.6 350 06:55 10.10.2019
461 Clouds 20 1015 68 10000 5.1 350 06:36 10.10.2019
462 Clouds 20 1016 68 10000 5.1 360 05:39 10.10.2019
463 Clouds 21 1016 68 10000 5.1 360 05:18 10.10.2019
464 Clouds 21 1016 68 10000 5.1 360 04:34 10.10.2019
465 Clouds 21 1017 73 10000 6.2 360 02:29 10.10.2019
466 Clouds 22 1017 69 10000 6.7 10 01:37 10.10.2019
467 Clouds 22 1017 69 10000 6.7 10 01:37 10.10.2019
468 Clouds 22 1017 69 10000 6.7 10 01:18 10.10.2019
469 Clouds 22 1017 64 10000 6.2 10 00:29 10.10.2019
470 Clouds 22 1017 64 10000 6.2 360 23:42 09.10.2019
471 Clouds 22 1017 64 10000 6.2 360 23:24 09.10.2019
472 Clouds 22 1017 64 10000 7.2 360 22:59 09.10.2019
473 Clouds 23 1017 64 10000 6.7 10 22:41 09.10.2019
474 Clouds 22 1017 64 10000 6.7 10 22:22 09.10.2019
475 Clouds 22 1017 64 10000 6.7 10 22:22 09.10.2019
476 Clouds 22 1016 64 10000 7.7 350 21:56 09.10.2019
477 Clouds 22 1016 64 10000 7.2 360 21:38 09.10.2019
478 Clouds 22 1016 64 10000 7.2 360 21:38 09.10.2019
479 Clouds 22 1016 64 10000 7.2 360 21:18 09.10.2019
480 Clouds 22 1016 64 10000 8.2 10 20:54 09.10.2019
481 Clouds 23 1016 69 10000 10.3 20 20:36 09.10.2019
482 Clouds 23 1016 69 10000 10.3 20 20:18 09.10.2019
483 Clouds 24 1015 64 10000 10.8 20 19:43 09.10.2019
484 Clouds 24 1015 57 10000 11.3 20 19:22 09.10.2019
485 Clouds 24 1015 61 10000 11.8 30 18:39 09.10.2019
486 Clouds 25 1015 61 10000 11.8 30 18:21 09.10.2019
487 Clouds 25 1016 61 10000 10.8 30 17:58 09.10.2019
488 Clouds 25 1016 57 10000 11.3 30 17:40 09.10.2019
489 Clouds 25 1016 57 10000 11.3 30 17:22 09.10.2019
490 Clouds 25 1016 57 10000 11.3 20 16:57 09.10.2019
491 Clouds 25 1016 61 10000 11.3 30 16:38 09.10.2019
492 Clouds 25 1016 61 10000 11.3 30 16:20 09.10.2019
493 Clouds 25 1016 61 10000 11.3 30 15:55 09.10.2019
494 Clouds 25 1016 57 10000 11.3 30 15:37 09.10.2019
495 Clouds 25 1016 57 10000 11.3 30 15:18 09.10.2019
496 Clouds 25 1017 61 10000 11.8 30 14:44 09.10.2019
497 Clouds 25 1017 57 10000 11.8 30 14:19 09.10.2019
498 Clouds 25 1017 57 10000 12.3 30 13:59 09.10.2019
499 Clouds 25 1017 57 10000 11.8 20 13:38 09.10.2019
500 Clouds 25 1017 57 10000 11.8 20 13:18 09.10.2019
501 Clouds 24 1017 60 10000 11.8 10 12:44 09.10.2019
502 Clouds 24 1017 60 10000 11.8 10 12:44 09.10.2019
503 Clouds 24 1017 60 10000 11.8 10 12:23 09.10.2019
504 Clouds 24 1017 60 10000 10.8 10 11:58 09.10.2019
505 Clouds 23 1016 64 10000 12.3 10 11:40 09.10.2019
506 Clouds 23 1016 64 10000 12.3 10 11:20 09.10.2019
507 Clouds 23 1016 64 10000 9.3 360 10:58 09.10.2019
508 Clouds 22 1016 68 10000 10.3 10 10:40 09.10.2019
509 Clouds 22 1016 68 10000 10.3 10 10:40 09.10.2019
510 Clouds 21 1016 68 10000 10.3 10 10:18 09.10.2019
511 Clouds 21 1016 68 10000 8.2 360 09:43 09.10.2019
512 Clouds 20 1016 73 10000 7.7 360 09:20 09.10.2019
513 Clouds 21 1016 68 10000 8.2 360 08:58 09.10.2019
514 Clouds 21 1016 68 10000 8.2 360 08:38 09.10.2019
515 Clouds 21 1016 68 10000 8.2 360 08:19 09.10.2019
516 Clouds 21 1016 68 10000 9.3 10 07:47 09.10.2019
517 Clouds 21 1016 68 10000 9.3 10 07:47 09.10.2019
518 Clouds 21 1016 68 10000 10.3 10 07:24 09.10.2019
519 Clouds 21 1016 73 10000 9.3 10 06:57 09.10.2019
520 Clouds 21 1016 68 10000 8.7 360 06:34 09.10.2019
521 Clouds 21 1016 68 10000 8.7 10 05:51 09.10.2019
522 Clouds 21 1016 68 10000 8.7 10 04:50 09.10.2019
523 Clouds 21 1016 68 10000 8.7 10 03:43 09.10.2019
524 Clouds 22 1017 73 10000 7.7 360 02:27 09.10.2019
525 Clouds 21 1017 73 10000 7.7 20 01:22 09.10.2019
526 Clouds 22 1017 73 10000 8.2 10 00:59 09.10.2019
527 Clouds 22 1017 73 10000 9.8 10 00:40 09.10.2019
528 Clouds 22 1017 73 10000 9.8 10 00:22 09.10.2019
529 Clouds 22 1017 73 10000 8.2 360 23:58 08.10.2019
530 Clouds 22 1017 73 10000 8.2 360 23:37 08.10.2019
531 Clouds 22 1017 73 10000 8.2 360 23:18 08.10.2019
532 Clouds 22 1016 69 10000 8.2 360 22:41 08.10.2019
533 Clouds 22 1016 69 10000 8.2 360 22:41 08.10.2019
534 Clouds 23 1016 69 10000 8.2 360 22:21 08.10.2019
535 Clouds 23 1016 69 10000 8.2 360 21:58 08.10.2019
536 Clouds 23 1016 69 10000 7.7 10 21:39 08.10.2019
537 Clouds 23 1016 69 10000 7.7 10 21:20 08.10.2019
538 Clouds 23 1015 69 10000 9.3 20 20:57 08.10.2019
539 Clouds 23 1016 64 10000 9.8 20 20:39 08.10.2019
540 Clouds 24 1016 64 10000 9.8 20 20:21 08.10.2019
541 Clouds 24 1016 64 10000 9.8 20 19:58 08.10.2019
542 Clouds 24 1016 64 10000 9.8 20 19:58 08.10.2019
543 Clouds 24 1016 65 10000 9.8 20 19:40 08.10.2019
544 Clouds 24 1016 65 10000 9.8 20 19:22 08.10.2019
545 Clouds 25 1015 65 10000 10.8 10 18:55 08.10.2019
546 -273 0 0 0 0 0 18:55 08.10.2019
547 Clouds 25 1015 65 10000 12.9 20 18:36 08.10.2019
548 Clouds 25 1015 65 10000 12.9 20 18:18 08.10.2019
549 Clouds 25 1015 65 10000 11.3 30 17:40 08.10.2019
550 Clouds 25 1015 65 10000 11.3 30 17:21 08.10.2019
551 Clouds 25 1016 65 10000 9.8 30 16:58 08.10.2019
552 Clouds 25 1016 65 10000 10.3 30 16:39 08.10.2019
553 Clouds 25 1016 65 10000 10.3 30 16:21 08.10.2019
554 Clouds 25 1016 65 10000 11.3 30 15:41 08.10.2019
555 Clouds 25 1016 65 10000 11.3 30 15:41 08.10.2019
556 Clouds 25 1016 65 10000 11.3 30 15:21 08.10.2019
557 Clouds 25 1017 61 10000 11.8 30 14:58 08.10.2019
558 Clouds 25 1017 61 10000 11.8 30 14:58 08.10.2019
559 Clouds 25 1017 61 10000 11.8 30 14:39 08.10.2019
560 Clouds 25 1017 61 10000 11.8 30 14:20 08.10.2019
561 Clouds 25 1017 65 10000 11.8 20 13:57 08.10.2019
562 Clouds 25 1017 65 10000 12.3 20 13:38 08.10.2019
563 Clouds 25 1017 65 10000 12.3 20 13:19 08.10.2019
564 Clouds 25 1017 65 10000 12.3 20 13:19 08.10.2019
565 Clouds 25 1017 65 10000 12.3 20 12:58 08.10.2019
566 Clouds 24 1017 69 10000 11.8 20 12:37 08.10.2019
567 Clouds 24 1017 69 10000 11.8 20 12:37 08.10.2019
568 Clouds 24 1017 69 10000 11.8 20 12:18 08.10.2019
569 Clouds 23 1017 73 10000 11.3 10 11:41 08.10.2019
570 Clouds 23 1017 73 10000 11.3 10 11:41 08.10.2019
571 Clouds 23 1017 73 10000 11.3 10 11:23 08.10.2019
572 Clouds 23 1017 69 10000 9.3 360 10:56 08.10.2019
573 Clouds 23 1017 73 10000 8.2 360 10:36 08.10.2019
574 Clouds 22 1017 73 10000 8.2 360 10:18 08.10.2019
575 Clouds 22 1016 73 10000 8.2 360 09:41 08.10.2019
576 Clouds 22 1016 73 10000 8.2 360 09:23 08.10.2019
577 Clouds 21 1016 73 10000 8.2 360 08:59 08.10.2019
578 Clouds 21 1016 78 10000 8.2 360 08:41 08.10.2019
579 Clouds 21 1016 78 10000 8.2 360 08:22 08.10.2019
580 Clouds 21 1016 78 10000 8.2 10 07:42 08.10.2019
581 Clouds 22 1016 78 10000 8.2 10 07:21 08.10.2019
582 Clouds 22 1016 78 10000 8.2 10 07:21 08.10.2019
583 Clouds 22 1015 78 10000 6.2 360 06:49 08.10.2019
584 Clouds 21 1016 73 10000 6.7 360 06:28 08.10.2019
585 Clouds 21 1016 78 10000 8.7 10 05:45 08.10.2019
586 Clouds 21 1016 78 10000 8.7 10 05:45 08.10.2019
587 Clouds 22 1016 73 10000 6.7 360 05:25 08.10.2019
588 Clouds 22 1016 78 10000 7.2 10 03:33 08.10.2019
589 Clouds 22 1016 78 10000 8.2 360 02:48 08.10.2019
590 Clouds 22 1017 73 10000 7.2 360 02:29 08.10.2019
591 Clouds 22 1017 73 10000 7.7 10 01:43 08.10.2019
592 Clouds 22 1017 73 10000 8.2 360 01:25 08.10.2019
593 Clouds 22 1017 69 10000 9.8 10 00:38 08.10.2019
594 Clouds 22 1017 69 10000 9.8 10 00:19 08.10.2019
595 Clouds 23 1017 69 10000 10.8 10 23:39 07.10.2019
596 Clouds 23 1017 69 10000 10.8 10 23:19 07.10.2019
597 Clouds 23 1016 73 10000 9.8 10 22:55 07.10.2019
598 Clouds 23 1016 73 10000 9.8 10 22:55 07.10.2019
599 Clouds 23 1016 73 10000 9.8 360 22:37 07.10.2019
600 Clouds 23 1016 73 10000 9.8 360 22:19 07.10.2019
601 Clouds 23 1016 73 10000 9.3 360 21:55 07.10.2019
602 Clouds 23 1016 73 10000 10.3 10 21:37 07.10.2019
603 Clouds 23 1016 73 10000 10.3 10 21:18 07.10.2019
604 Clouds 23 1015 73 10000 10.8 10 20:56 07.10.2019
605 Clouds 23 1015 73 10000 10.8 10 20:56 07.10.2019
606 Clouds 24 1015 69 10000 10.8 20 20:38 07.10.2019
607 Clouds 24 1015 69 10000 10.8 20 20:18 07.10.2019
608 Clouds 24 1015 69 10000 11.8 20 19:54 07.10.2019
609 Clouds 24 1015 69 10000 11.8 20 19:54 07.10.2019
610 Clouds 25 1015 65 10000 11.3 20 19:36 07.10.2019
611 Clouds 25 1015 65 10000 11.3 20 19:18 07.10.2019
612 Clouds 25 1015 69 10000 11.3 20 18:41 07.10.2019
613 Clouds 25 1015 69 10000 11.3 20 18:19 07.10.2019
614 Clear 25 1016 65 10000 10.8 20 17:58 07.10.2019
615 Clear 25 1016 69 10000 10.8 30 17:40 07.10.2019
616 Clear 25 1016 69 10000 10.8 30 17:18 07.10.2019
617 Clear 25 1016 65 10000 9.8 30 16:44 07.10.2019
618 Clouds 25 1016 65 10000 9.3 30 16:26 07.10.2019
619 Clouds 26 1016 65 10000 8.2 30 15:57 07.10.2019
620 Clouds 26 1016 65 10000 8.2 30 15:57 07.10.2019
621 Clouds 25 1017 69 10000 8.2 30 15:38 07.10.2019
622 Clouds 25 1017 69 10000 8.2 30 15:20 07.10.2019
623 Clouds 25 1017 61 10000 8.2 30 14:41 07.10.2019
624 Clouds 25 1017 61 10000 8.2 30 14:23 07.10.2019
625 Clouds 25 1018 65 10000 9.3 30 13:45 07.10.2019
626 Clouds 25 1018 65 10000 9.3 30 13:21 07.10.2019
627 Clouds 25 1018 65 10000 8.7 30 12:58 07.10.2019
628 Clouds 25 1018 65 10000 8.7 30 12:58 07.10.2019
629 Clouds 25 1018 61 10000 8.2 30 12:39 07.10.2019
630 Clouds 24 1018 61 10000 8.2 30 12:20 07.10.2019
631 Clouds 24 1018 69 10000 7.7 10 11:59 07.10.2019
632 Clouds 23 1018 69 10000 9.3 20 11:40 07.10.2019
633 Clouds 23 1018 69 10000 9.3 20 11:40 07.10.2019
634 Clouds 23 1018 69 10000 9.3 20 11:21 07.10.2019
635 Clouds 22 1017 73 10000 9.3 10 10:44 07.10.2019
636 Clouds 23 1017 69 10000 7.2 10 10:23 07.10.2019
637 Clouds 22 1017 73 10000 8.2 360 09:58 07.10.2019
638 Clouds 22 1016 73 10000 9.3 360 09:38 07.10.2019
639 Clouds 21 1016 73 10000 9.3 360 09:20 07.10.2019
640 Clouds 21 1016 73 10000 10.3 10 08:43 07.10.2019
641 Clouds 21 1016 73 10000 9.3 360 08:20 07.10.2019
642 Clouds 21 1016 73 10000 7.7 360 07:49 07.10.2019
643 Clouds 21 1016 73 10000 9.8 10 07:28 07.10.2019
644 Clouds 21 1016 73 10000 8.7 350 06:58 07.10.2019
645 Clouds 21 1016 73 10000 9.8 10 06:39 07.10.2019
646 Clouds 21 1016 73 10000 9.8 10 06:19 07.10.2019
647 Clouds 21 1016 73 10000 9.8 10 05:26 07.10.2019
648 Clouds 21 1016 73 10000 9.8 10 04:50 07.10.2019
649 Clouds 23 1017 69 10000 9.3 10 03:48 07.10.2019
650 Clouds 22 1017 69 10000 10.3 10 03:30 07.10.2019
651 Clouds 22 1017 73 10000 10.3 10 02:37 07.10.2019
652 Clouds 22 1017 73 10000 10.3 10 02:19 07.10.2019
653 Clouds 22 1017 73 10000 10.3 10 02:19 07.10.2019
654 Clouds 23 1018 69 10000 10.3 350 01:23 07.10.2019
655 Clouds 22 1018 73 10000 9.3 10 00:51 07.10.2019
656 Clouds 23 1018 73 10000 10.8 10 00:26 07.10.2019
657 Clouds 23 1018 69 10000 9.8 10 23:59 06.10.2019
658 Clouds 22 1018 69 10000 9.8 10 23:40 06.10.2019
659 Clouds 23 1018 69 10000 9.8 10 23:20 06.10.2019
660 Clouds 23 1017 64 10000 9.3 360 22:56 06.10.2019
661 Clouds 22 1017 69 10000 9.8 360 22:37 06.10.2019
662 Clouds 22 1017 69 10000 9.8 360 22:18 06.10.2019
663 Clouds 22 1017 69 10000 10.3 10 21:55 06.10.2019
664 Clouds 22 1017 69 10000 10.8 10 21:36 06.10.2019
665 Clouds 22 1017 69 10000 10.8 10 21:18 06.10.2019
666 Clouds 24 1017 69 10000 10.3 10 20:54 06.10.2019
667 Clouds 23 1017 69 10000 11.8 20 20:36 06.10.2019
668 Clouds 23 1017 69 10000 11.8 20 20:36 06.10.2019
669 Clouds 23 1017 69 10000 11.8 20 20:36 06.10.2019
670 Clouds 24 1017 69 10000 11.8 20 20:18 06.10.2019
671 Clouds 24 1017 69 10000 12.3 20 19:55 06.10.2019
672 Clouds 24 1017 69 10000 12.3 20 19:55 06.10.2019
673 Clouds 25 1017 65 10000 12.3 20 19:36 06.10.2019
674 Clouds 25 1017 65 10000 12.3 20 19:18 06.10.2019
675 Clouds 25 1017 61 10000 12.3 20 18:55 06.10.2019
676 Clouds 25 1017 61 10000 12.3 20 18:55 06.10.2019
677 Clouds 25 1017 61 10000 12.3 20 18:36 06.10.2019
678 Clouds 25 1017 61 10000 12.3 20 18:18 06.10.2019
679 Clouds 25 1017 65 10000 11.8 20 17:42 06.10.2019
680 Clouds 25 1017 65 10000 11.8 20 17:20 06.10.2019
681 Clouds 26 1017 61 10000 11.8 20 16:55 06.10.2019
682 Clouds 26 1017 61 10000 11.8 20 16:55 06.10.2019
683 Clouds 26 1017 61 10000 11.8 30 16:37 06.10.2019
684 Clouds 26 1017 61 10000 11.8 30 16:18 06.10.2019
685 Clouds 26 1018 61 10000 12.3 20 15:42 06.10.2019
686 Clouds 26 1018 61 10000 12.3 20 15:21 06.10.2019
687 Clouds 26 1018 61 10000 11.3 20 14:44 06.10.2019
688 Clouds 26 1018 61 10000 10.8 30 14:26 06.10.2019
689 Clouds 26 1018 57 10000 10.8 20 13:59 06.10.2019
690 Clouds 26 1018 54 10000 11.8 20 13:40 06.10.2019
691 Clouds 25 1018 54 10000 11.8 20 13:21 06.10.2019
692 Clouds 25 1018 57 10000 11.8 10 12:58 06.10.2019
693 Clouds 25 1018 61 10000 12.3 10 12:39 06.10.2019
694 Clouds 25 1018 61 10000 12.3 10 12:21 06.10.2019
695 Clouds 24 1018 64 10000 11.3 360 11:58 06.10.2019
696 Clouds 24 1018 64 10000 10.3 360 11:39 06.10.2019
697 Clouds 24 1018 64 10000 10.3 360 11:20 06.10.2019
698 Clouds 23 1017 69 10000 9.3 360 10:46 06.10.2019
699 Clouds 23 1017 69 10000 9.3 360 10:27 06.10.2019
700 Clouds 22 1017 69 10000 8.2 360 09:58 06.10.2019
701 Clouds 22 1017 69 10000 10.3 10 09:40 06.10.2019
702 Clouds 21 1017 69 10000 10.3 10 09:19 06.10.2019
703 Clouds 21 1017 69 10000 10.3 10 09:19 06.10.2019
704 Clouds 21 1017 78 10000 9.8 10 08:45 06.10.2019
705 Clouds 21 1016 78 10000 9.3 350 08:21 06.10.2019
706 Clouds 21 1016 78 10000 9.3 360 07:57 06.10.2019
707 Clouds 21 1016 78 10000 9.3 360 07:38 06.10.2019
708 Clouds 21 1016 78 10000 10.3 360 06:32 06.10.2019
709 Clouds 21 1017 78 10000 9.8 360 05:35 06.10.2019
710 Clouds 22 1017 73 10000 10.8 360 04:27 06.10.2019
711 Clouds 22 1017 73 10000 10.3 10 02:47 06.10.2019
712 Clouds 22 1017 73 10000 9.3 360 02:27 06.10.2019
713 Clouds 22 1017 73 10000 9.3 360 01:46 06.10.2019
714 Clouds 22 1018 69 10000 9.8 360 01:27 06.10.2019
715 Clouds 22 1018 73 10000 9.3 360 00:57 06.10.2019
716 Clouds 22 1018 73 10000 9.3 360 00:57 06.10.2019
717 Clouds 22 1018 69 10000 9.3 360 00:28 06.10.2019
718 Clouds 23 1017 73 10000 10.8 10 23:45 05.10.2019
719 Clouds 22 1017 73 10000 11.8 10 23:23 05.10.2019
720 Clouds 23 1017 73 10000 11.3 10 22:59 05.10.2019
721 Clouds 23 1016 69 10000 9.8 360 22:40 05.10.2019
722 Clouds 24 1016 69 10000 9.8 360 22:20 05.10.2019
723 Clouds 24 1016 64 10000 10.3 360 21:57 05.10.2019
724 Clouds 23 1016 73 10000 12.3 10 21:39 05.10.2019
725 Clouds 23 1016 73 10000 12.3 10 21:39 05.10.2019
726 Clouds 23 1016 73 10000 12.3 10 21:20 05.10.2019
727 Clouds 24 1016 73 10000 13.4 10 20:56 05.10.2019
728 Clouds 24 1016 73 10000 13.9 20 20:38 05.10.2019
729 Clouds 24 1016 73 10000 13.9 20 20:19 05.10.2019
730 Clouds 24 1016 73 10000 13.9 20 20:19 05.10.2019
731 Clouds 25 1015 69 10000 13.9 20 19:38 05.10.2019
732 Clouds 25 1015 69 10000 13.9 20 19:20 05.10.2019
733 Clouds 26 1015 65 10000 12.9 10 18:56 05.10.2019
734 Clouds 26 1015 61 10000 13.4 10 18:38 05.10.2019
735 Clouds 26 1015 61 10000 13.4 10 18:20 05.10.2019
736 Clouds 26 1015 65 10000 14.4 10 17:46 05.10.2019
737 Clouds 26 1016 65 10000 14.4 10 17:27 05.10.2019
738 Clouds 27 1016 57 10000 14.9 10 16:59 05.10.2019
739 Clouds 27 1016 61 10000 14.9 20 16:41 05.10.2019
740 Clouds 26 1016 61 10000 14.9 20 16:21 05.10.2019
741 Clouds 27 1016 61 10000 14.9 20 15:57 05.10.2019
742 Clouds 27 1016 57 10000 14.4 10 15:39 05.10.2019
743 Clouds 27 1016 57 10000 14.4 10 15:21 05.10.2019
744 Clouds 27 1016 57 10000 14.9 10 14:56 05.10.2019
745 Clouds 26 1016 57 10000 14.9 10 14:56 05.10.2019
746 Clouds 26 1017 61 10000 13.4 10 14:38 05.10.2019
747 Clouds 26 1017 61 10000 13.4 10 14:19 05.10.2019
748 Clouds 26 1017 61 10000 12.9 360 13:41 05.10.2019
749 Clouds 26 1017 61 10000 12.9 360 13:21 05.10.2019
750 Clouds 25 1017 61 10000 13.4 10 12:46 05.10.2019
751 Clouds 25 1017 61 10000 13.9 10 12:20 05.10.2019
752 Clouds 25 1017 69 10000 12.3 360 11:54 05.10.2019
753 Clouds 24 1017 73 10000 12.3 360 11:36 05.10.2019
754 Clouds 24 1017 73 10000 12.3 360 11:18 05.10.2019
755 Clouds 24 1016 73 10000 10.8 360 10:44 05.10.2019
756 Clouds 23 1016 78 10000 11.8 360 10:24 05.10.2019
757 Clouds 22 1016 78 10000 11.8 10 09:57 05.10.2019
758 Clouds 22 1015 73 10000 9.8 10 09:38 05.10.2019
759 Clouds 22 1015 73 10000 9.8 10 09:38 05.10.2019
760 Clouds 22 1015 73 10000 9.8 10 09:20 05.10.2019
761 Clouds 22 1015 73 10000 11.3 350 08:39 05.10.2019
762 Clouds 22 1015 73 10000 11.3 350 08:19 05.10.2019
763 Clouds 22 1015 73 10000 10.8 350 07:53 05.10.2019
764 Clouds 22 1015 73 10000 10.3 360 07:32 05.10.2019
765 Clouds 22 1015 78 10000 10.8 10 06:57 05.10.2019
766 Clouds 22 1015 73 10000 10.3 350 06:26 05.10.2019
767 Clouds 22 1015 73 10000 11.3 10 05:40 05.10.2019
768 Clouds 22 1016 69 10000 9.8 360 03:39 05.10.2019
769 Clouds 22 1016 69 10000 9.8 360 03:39 05.10.2019
770 Clouds 22 1016 69 10000 9.8 360 03:20 05.10.2019
771 Clouds 22 1016 73 10000 11.8 360 01:30 05.10.2019
772 Clouds 23 1016 69 10000 11.8 360 00:51 05.10.2019
773 Clouds 23 1016 69 10000 11.8 360 00:51 05.10.2019
774 Clouds 23 1016 73 10000 11.8 10 00:28 05.10.2019
775 Clouds 23 1016 69 10000 12.3 10 23:59 04.10.2019
776 Clouds 23 1016 69 10000 13.4 10 23:41 04.10.2019
777 Clouds 23 1016 69 10000 13.4 10 23:23 04.10.2019
778 Clouds 23 1016 69 10000 12.3 360 22:58 04.10.2019
779 Clouds 23 1016 69 10000 12.9 360 22:38 04.10.2019
780 Clouds 23 1016 69 10000 12.9 360 22:38 04.10.2019
781 Clouds 23 1016 69 10000 12.9 360 22:19 04.10.2019
782 Clouds 23 1016 69 10000 12.9 360 21:55 04.10.2019
783 Clouds 23 1015 73 10000 11.8 10 21:36 04.10.2019
784 Clouds 24 1015 73 10000 11.8 10 21:18 04.10.2019
785 Clouds 24 1015 69 10000 12.9 10 20:42 04.10.2019
786 Clouds 25 1015 69 10000 12.9 10 20:23 04.10.2019
787 Clouds 26 1016 65 10000 13.4 10 19:57 04.10.2019
788 Clouds 25 1015 65 10000 13.9 10 19:39 04.10.2019
789 Clouds 26 1015 65 10000 13.9 10 19:20 04.10.2019
790 Clouds 26 1015 61 10000 13.4 10 18:56 04.10.2019
791 Clouds 26 1015 61 10000 13.9 10 18:37 04.10.2019
792 Clouds 26 1015 61 10000 13.9 10 18:18 04.10.2019
793 Clouds 26 1015 61 10000 14.4 10 17:40 04.10.2019
794 Clouds 27 1015 61 10000 14.4 10 17:22 04.10.2019
795 Clouds 27 1015 61 10000 14.4 10 17:22 04.10.2019
796 Clouds 27 1015 57 10000 15.4 10 16:58 04.10.2019
797 Clouds 27 1016 65 10000 14.4 20 16:39 04.10.2019
798 Clouds 27 1016 65 10000 14.4 20 16:39 04.10.2019
799 Clouds 27 1016 65 10000 14.4 20 16:18 04.10.2019
800 Clouds 27 1016 65 10000 14.4 20 16:18 04.10.2019
801 Clouds 27 1016 61 10000 15.4 20 15:56 04.10.2019
802 Clouds 28 1017 57 10000 14.4 20 15:38 04.10.2019
803 Clouds 27 1017 57 10000 14.4 20 15:19 04.10.2019
804 Clouds 26 1017 65 10000 13.9 10 14:55 04.10.2019
805 Clouds 26 1018 65 10000 14.9 20 14:37 04.10.2019
806 Clouds 26 1018 65 10000 14.9 20 14:19 04.10.2019
807 Clouds 27 1018 57 10000 13.9 10 13:44 04.10.2019
808 Clouds 27 1018 57 10000 13.9 10 13:44 04.10.2019
809 Clouds 26 1018 61 10000 14.4 10 13:21 04.10.2019
810 Clouds 25 1018 65 10000 13.9 360 12:49 04.10.2019
811 Clouds 25 1018 69 10000 13.4 10 12:30 04.10.2019
812 Clouds 25 1018 65 10000 13.4 10 12:00 04.10.2019
813 Clouds 24 1018 73 10000 11.3 360 11:41 04.10.2019
814 Clouds 24 1018 73 10000 11.3 360 11:41 04.10.2019
815 Clouds 24 1018 73 10000 11.3 360 11:41 04.10.2019
816 Clouds 24 1018 73 10000 11.3 360 11:21 04.10.2019
817 Clouds 23 1018 73 10000 11.8 10 10:41 04.10.2019
818 Clouds 23 1018 73 10000 11.8 10 10:21 04.10.2019
819 Clouds 23 1018 73 10000 11.8 10 10:21 04.10.2019
820 Clouds 22 1017 78 10000 11.8 360 09:50 04.10.2019
821 Clouds 22 1017 78 10000 11.8 10 09:32 04.10.2019
822 Clouds 22 1017 78 10000 11.3 360 08:59 04.10.2019
823 Clouds 21 1017 78 10000 11.8 360 08:41 04.10.2019
824 Clouds 22 1017 78 10000 11.8 360 08:23 04.10.2019
825 Clouds 21 1017 78 10000 11.8 360 07:47 04.10.2019
826 Clouds 22 1017 78 10000 11.8 360 07:23 04.10.2019
827 Clouds 22 1017 78 10000 11.3 10 06:48 04.10.2019
828 Clouds 22 1017 78 10000 11.8 360 06:27 04.10.2019
829 Clouds 22 1017 78 10000 11.8 360 06:27 04.10.2019
830 Clouds 22 1017 78 10000 11.3 360 05:52 04.10.2019
831 Clouds 21 1017 83 10000 11.3 10 05:19 04.10.2019
832 Clouds 22 1017 83 10000 11.3 10 03:56 04.10.2019
833 Clouds 22 1018 78 10000 10.8 360 02:54 04.10.2019
834 Clouds 22 1018 78 10000 10.8 10 02:21 04.10.2019
835 Clouds 23 1019 73 10000 10.8 10 01:43 04.10.2019
836 Clouds 23 1019 78 10000 10.3 10 01:24 04.10.2019
837 Clouds 23 1019 78 10000 9.8 10 00:18 04.10.2019
838 Clouds 23 1018 78 10000 10.3 10 23:37 03.10.2019
839 Clouds 23 1018 78 10000 10.3 10 23:18 03.10.2019
840 Clouds 23 1018 78 10000 10.3 10 23:18 03.10.2019
841 Clouds 23 1018 78 10000 10.8 10 22:56 03.10.2019
842 Clouds 23 1018 78 10000 11.3 10 22:38 03.10.2019
843 Clouds 23 1018 78 10000 11.3 10 22:38 03.10.2019
844 Clouds 23 1018 78 10000 11.3 10 22:20 03.10.2019
845 Clouds 23 1018 78 10000 11.8 20 21:56 03.10.2019
846 Clouds 24 1018 73 10000 10.8 10 21:37 03.10.2019
847 Clouds 24 1018 73 10000 10.8 10 21:19 03.10.2019
848 Clouds 24 1018 73 10000 11.3 10 20:56 03.10.2019
849 Clouds 24 1018 73 10000 12.3 10 20:37 03.10.2019
850 Clouds 24 1018 73 10000 12.3 10 20:37 03.10.2019
851 Clouds 24 1018 73 10000 12.3 10 20:19 03.10.2019
852 Clouds 25 1018 69 10000 12.9 20 19:41 03.10.2019
853 Clouds 26 1018 69 10000 12.9 20 19:22 03.10.2019
854 Clouds 26 1018 69 10000 12.9 20 18:59 03.10.2019
855 Clouds 26 1018 73 10000 13.9 30 18:39 03.10.2019
856 Clouds 26 1018 73 10000 13.9 30 18:39 03.10.2019
857 Clouds 26 1018 73 10000 13.9 30 18:19 03.10.2019
858 Clouds 26 1018 69 10000 12.9 20 17:59 03.10.2019
859 Clouds 26 1018 69 10000 12.9 20 17:59 03.10.2019
860 Clouds 26 1019 69 10000 13.9 30 17:41 03.10.2019
861 Clouds 27 1019 69 10000 13.9 30 17:19 03.10.2019
862 Clouds 26 1019 65 10000 13.9 30 16:44 03.10.2019
863 Clouds 26 1019 69 10000 13.9 30 16:26 03.10.2019
864 Clouds 26 1020 65 10000 13.4 20 15:56 03.10.2019
865 Clouds 26 1020 69 10000 12.9 30 15:38 03.10.2019
866 Clouds 26 1020 69 10000 12.9 30 15:20 03.10.2019
867 Clouds 27 1020 69 10000 12.3 30 14:46 03.10.2019
868 Clouds 26 1020 69 10000 12.3 30 14:26 03.10.2019
869 Clouds 26 1021 65 10000 12.9 30 13:59 03.10.2019
870 Clouds 26 1021 73 10000 13.4 30 13:41 03.10.2019
871 Clouds 26 1021 73 10000 13.4 30 13:19 03.10.2019
872 Clouds 26 1021 69 10000 10.8 20 12:56 03.10.2019
873 Clouds 26 1021 69 10000 10.3 20 12:37 03.10.2019
874 Clouds 26 1021 69 10000 10.3 20 12:19 03.10.2019
875 Clouds 26 1021 69 10000 10.3 20 12:19 03.10.2019
876 Clouds 25 1021 78 10000 10.8 10 11:41 03.10.2019
877 Clouds 25 1021 78 10000 10.8 10 11:41 03.10.2019
878 Clouds 25 1021 78 10000 10.8 10 11:23 03.10.2019
879 Clouds 25 1020 78 10000 9.8 20 10:58 03.10.2019
880 Clouds 25 1020 73 10000 9.3 20 10:40 03.10.2019
881 Clouds 25 1020 73 10000 9.3 20 10:19 03.10.2019
882 Clouds 25 1020 57 10000 8.2 360 09:58 03.10.2019
883 Clouds 24 1019 53 10000 7.7 360 09:39 03.10.2019
884 Clouds 24 1019 53 10000 7.7 360 09:20 03.10.2019
885 Clouds 24 1019 53 10000 7.2 360 08:45 03.10.2019
886 Clear 24 1019 53 10000 7.2 360 08:27 03.10.2019
887 Clear 23 1019 53 10000 7.2 360 07:57 03.10.2019
888 Clear 23 1019 50 10000 6.2 360 07:39 03.10.2019
889 Clear 24 1019 50 10000 6.2 360 07:19 03.10.2019
890 Clear 23 1019 69 10000 7.2 10 06:46 03.10.2019
891 Clear 23 1018 73 10000 7.7 10 06:20 03.10.2019
892 Clear 23 1018 73 10000 6.2 360 05:43 03.10.2019
893 Clear 23 1019 69 10000 8.7 10 04:51 03.10.2019
894 Clear 24 1019 69 10000 7.7 10 04:25 03.10.2019
895 Clear 23 1019 69 10000 7.7 350 03:23 03.10.2019
896 Clouds 24 1019 83 10000 9.3 10 02:37 03.10.2019
897 Clouds 23 1019 83 10000 10.3 10 01:51 03.10.2019
898 Clouds 24 1019 88 10000 8.7 10 01:32 03.10.2019
899 Clear 23 1019 83 10000 8.7 10 00:47 03.10.2019
900 Clear 25 1019 78 10000 8.7 10 00:18 03.10.2019
901 Clear 24 1018 73 10000 7.2 10 23:43 02.10.2019
902 Clear 25 1018 73 10000 7.2 10 23:21 02.10.2019
903 Clear 25 1018 65 10000 7.2 360 22:44 02.10.2019
904 Clear 26 1018 57 10000 7.7 360 22:21 02.10.2019
905 Clear 25 1018 57 10000 7.2 10 21:56 02.10.2019
906 Clear 25 1018 57 10000 7.2 10 21:56 02.10.2019
907 Clear 26 1017 57 10000 6.2 10 21:38 02.10.2019
908 Clear 26 1017 57 10000 6.2 10 21:20 02.10.2019
909 Clear 26 1017 57 10000 6.2 10 20:56 02.10.2019
910 Clear 26 1017 61 10000 6.7 20 20:38 02.10.2019
911 Clear 27 1017 61 10000 6.7 20 20:20 02.10.2019
912 Clear 28 1017 57 10000 7.7 10 19:47 02.10.2019
913 Clear 26 1017 69 10000 8.7 20 19:25 02.10.2019
914 Clear 28 1017 61 10000 8.2 20 18:59 02.10.2019
915 Clear 27 1017 61 10000 8.2 10 18:40 02.10.2019
916 Clear 28 1017 61 10000 8.2 10 18:22 02.10.2019
917 Clear 27 1017 69 10000 8.7 30 17:59 02.10.2019
918 Clear 28 1017 69 10000 8.2 20 17:40 02.10.2019
919 Clear 27 1017 69 10000 8.2 20 17:21 02.10.2019
920 Clear 27 1018 69 10000 8.2 30 16:57 02.10.2019
921 Clear 27 1018 69 10000 9.3 30 16:38 02.10.2019
922 Clear 27 1018 69 10000 9.3 30 16:20 02.10.2019
923 Clear 26 1018 74 10000 9.3 30 15:56 02.10.2019
924 Clear 27 1018 74 10000 8.7 30 15:37 02.10.2019
925 Clear 27 1018 74 10000 8.7 30 15:18 02.10.2019
926 Clear 27 1018 74 10000 8.7 30 14:43 02.10.2019
927 Clear 26 1018 78 10000 9.3 30 14:25 02.10.2019
928 Clear 28 1018 74 10000 9.8 30 13:57 02.10.2019
929 Clear 28 1018 74 10000 9.3 30 13:39 02.10.2019
930 Clear 28 1018 74 10000 9.3 30 13:20 02.10.2019
931 Clouds 26 1019 69 10000 9.3 20 12:40 02.10.2019
932 Clouds 26 1018 73 10000 9.3 30 12:22 02.10.2019
933 Clouds 27 1018 73 10000 9.3 20 11:59 02.10.2019
934 Clouds 26 1018 73 10000 9.3 20 11:41 02.10.2019
935 Clouds 26 1018 78 10000 8.7 20 11:18 02.10.2019
936 Clouds 25 1018 83 10000 8.2 10 10:38 02.10.2019
937 Clouds 24 1017 83 10000 8.2 10 10:19 02.10.2019
938 Clouds 23 1017 83 10000 8.2 10 09:40 02.10.2019
939 Clouds 22 1017 78 10000 8.2 10 09:20 02.10.2019
940 Clouds 22 1017 78 10000 7.7 10 08:56 02.10.2019
941 Clouds 23 1017 78 10000 7.7 10 08:37 02.10.2019
942 Clouds 23 1017 78 10000 7.7 10 08:37 02.10.2019
943 Clear 24 1017 78 10000 7.7 10 08:19 02.10.2019
944 Clear 24 1017 78 10000 8.7 10 07:39 02.10.2019
945 Clear 23 1017 78 10000 9.3 10 07:21 02.10.2019
946 -273 0 0 0 0 0 06:54 02.10.2019
947 Clouds 22 1017 78 10000 9.3 10 05:56 02.10.2019
948 Clear 22 1017 83 10000 9.3 10 05:25 02.10.2019
949 Clear 23 1017 83 10000 9.3 360 04:58 02.10.2019
950 Clouds 24 1017 83 10000 8.7 10 03:53 02.10.2019
951 Clouds 23 1017 78 10000 8.7 10 03:19 02.10.2019
952 Clouds 23 1018 83 10000 7.7 360 02:24 02.10.2019
953 Clouds 23 1018 83 10000 7.7 360 02:24 02.10.2019
954 Clouds 23 1018 83 10000 8.2 360 01:52 02.10.2019
955 Clouds 24 1018 78 10000 8.2 10 00:51 02.10.2019
956 Clouds 24 1018 78 10000 7.7 360 00:29 02.10.2019
957 Clear 24 1018 78 10000 7.7 360 23:46 01.10.2019
958 Clear 24 1017 78 10000 8.7 10 23:27 01.10.2019
959 Clear 24 1017 78 10000 8.7 10 22:59 01.10.2019
960 Clear 24 1017 78 10000 8.7 10 22:59 01.10.2019
961 Clear 24 1017 73 10000 8.2 10 22:41 01.10.2019
962 Clear 24 1017 73 10000 8.2 10 22:20 01.10.2019
963 Clear 25 1016 69 10000 7.7 10 21:59 01.10.2019
964 Clear 25 1016 69 10000 7.7 10 21:40 01.10.2019
965 Clear 25 1016 69 10000 8.2 360 21:22 01.10.2019
966 Clear 25 1016 69 10000 8.2 360 21:22 01.10.2019
967 Clear 25 1016 73 10000 8.7 10 20:57 01.10.2019
968 Clear 25 1016 73 10000 8.7 10 20:38 01.10.2019
969 Clear 26 1016 69 10000 9.3 10 20:20 01.10.2019
970 Clear 27 1016 61 10000 9.8 20 19:56 01.10.2019
971 Clear 27 1016 61 10000 9.3 20 19:38 01.10.2019
972 Clear 27 1016 61 10000 9.3 20 19:19 01.10.2019
973 Clear 28 1016 58 10000 9.8 20 18:41 01.10.2019
974 Clouds 28 1016 58 10000 9.8 10 18:22 01.10.2019
975 Clouds 28 1016 61 10000 10.8 20 17:59 01.10.2019
976 Clouds 28 1016 61 10000 10.8 20 17:40 01.10.2019
977 Clouds 29 1016 51 10000 10.3 10 17:20 01.10.2019
978 Clouds 29 1016 48 10000 9.8 10 16:58 01.10.2019
979 Clouds 29 1016 48 10000 9.8 10 16:40 01.10.2019
980 Clouds 29 1017 48 10000 11.3 10 16:21 01.10.2019
981 Clouds 29 1017 58 10000 12.3 10 15:46 01.10.2019
982 Clouds 28 1017 58 10000 10.8 10 15:23 01.10.2019
983 Clouds 28 1017 61 10000 10.8 10 14:55 01.10.2019
984 Clouds 28 1017 61 10000 10.8 10 14:37 01.10.2019
985 Clouds 28 1018 61 10000 10.8 10 14:18 01.10.2019
986 Clouds 27 1018 65 10000 12.3 20 13:40 01.10.2019
987 Clouds 26 1018 74 10000 12.9 20 13:21 01.10.2019
988 Clouds 26 1018 73 10000 12.3 20 12:59 01.10.2019
989 Clouds 26 1018 73 10000 12.3 20 12:59 01.10.2019
990 Clouds 26 1018 73 10000 12.3 20 12:40 01.10.2019
991 Clouds 26 1018 74 10000 11.3 20 12:19 01.10.2019
992 Clouds 27 1017 73 10000 10.8 20 11:58 01.10.2019
993 Clouds 28 1017 65 10000 9.3 10 11:38 01.10.2019
994 Clouds 25 1017 65 10000 9.3 10 11:19 01.10.2019
995 Clouds 24 1016 78 10000 8.7 10 10:58 01.10.2019
996 Clouds 24 1016 78 10000 8.7 10 10:40 01.10.2019
997 Clouds 23 1016 83 10000 9.3 10 10:21 01.10.2019
998 Clouds 22 1016 88 10000 9.3 20 09:40 01.10.2019
999 Clouds 22 1015 88 10000 9.3 10 09:21 01.10.2019
1000 Clouds 22 1015 88 10000 9.3 20 08:42 01.10.2019
1001 Clouds 22 1015 88 10000 8.7 10 08:24 01.10.2019
1002 Clouds 22 1015 88 10000 9.3 10 07:48 01.10.2019
1003 Clouds 22 1015 88 10000 9.3 360 07:25 01.10.2019
1004 Clouds 22 1014 88 10000 9.8 20 06:48 01.10.2019
1005 Clouds 23 1014 73 10000 8.7 10 06:20 01.10.2019
1006 Clouds 23 1014 69 10000 8.2 10 05:46 01.10.2019
1007 Clouds 23 1015 44 10000 7.2 10 05:18 01.10.2019
1008 Clear 23 1015 36 10000 7.7 10 04:29 01.10.2019
1009 Clouds 24 1016 50 10000 7.2 10 02:29 01.10.2019
1010 Clouds 23 1016 73 10000 8.2 10 01:59 01.10.2019
1011 Clouds 24 1016 64 10000 9.3 10 00:57 01.10.2019
1012 Clouds 23 1015 78 10000 9.8 10 00:29 01.10.2019
1013 Clouds 23 1016 78 10000 9.3 10 23:57 30.09.2019
1014 Clouds 23 1016 78 10000 9.3 10 23:39 30.09.2019
1015 Clouds 23 1015 78 10000 10.8 10 23:20 30.09.2019
1016 Clouds 23 1015 78 10000 11.3 10 22:43 30.09.2019
1017 Clouds 23 1015 78 10000 12.3 10 22:25 30.09.2019
1018 Clouds 23 1015 83 10000 11.8 20 21:58 30.09.2019
1019 Clouds 23 1015 83 10000 11.8 20 21:38 30.09.2019
1020 Clouds 23 1015 83 10000 11.8 20 21:38 30.09.2019
1021 Clouds 24 1014 73 10000 10.8 20 21:19 30.09.2019
1022 Clouds 24 1014 73 10000 13.4 10 20:57 30.09.2019
1023 Clouds 25 1013 69 10000 13.4 10 20:39 30.09.2019
1024 Clouds 25 1013 69 10000 13.4 10 20:20 30.09.2019
1025 Clouds 25 1013 73 10000 13.9 20 19:56 30.09.2019
1026 Clouds 25 1013 69 10000 13.4 20 19:38 30.09.2019
1027 Clouds 26 1013 69 10000 13.4 20 19:19 30.09.2019
1028 Clouds 26 1013 65 10000 13.4 20 18:57 30.09.2019
1029 Clouds 26 1013 65 10000 13.4 20 18:57 30.09.2019
1030 Clouds 27 1013 65 10000 12.9 20 18:37 30.09.2019
1031 Clouds 27 1013 65 10000 12.9 20 18:19 30.09.2019
1032 Clouds 28 1013 65 10000 13.4 20 17:42 30.09.2019
1033 Clouds 26 1014 74 10000 13.4 30 17:22 30.09.2019
1034 Clouds 26 1014 69 10000 12.3 30 16:57 30.09.2019
1035 Clouds 27 1014 69 10000 12.3 30 16:39 30.09.2019
1036 Clouds 27 1014 74 10000 12.9 30 16:19 30.09.2019
1037 Clouds 27 1014 69 10000 12.3 30 15:57 30.09.2019
1038 Clouds 27 1014 69 10000 12.3 30 15:57 30.09.2019
1039 Clouds 26 1014 69 10000 12.3 30 15:37 30.09.2019
1040 Clouds 26 1014 69 10000 12.3 30 15:19 30.09.2019
1041 Clouds 26 1015 69 10000 11.8 30 14:57 30.09.2019
1042 Clouds 26 1015 69 10000 11.8 30 14:37 30.09.2019
1043 Clouds 26 1015 69 10000 11.8 30 14:18 30.09.2019
1044 Clouds 26 1015 65 10000 11.3 20 13:56 30.09.2019
1045 Clouds 26 1015 65 10000 11.3 20 13:37 30.09.2019
1046 Clouds 26 1015 69 10000 10.8 20 13:19 30.09.2019
1047 Clouds 26 1015 65 10000 10.8 20 12:41 30.09.2019
1048 Clouds 26 1015 69 10000 9.8 20 12:21 30.09.2019
1049 Clouds 26 1015 69 10000 9.8 10 11:56 30.09.2019
1050 -273 0 0 0 0 0 11:56 30.09.2019
1051 Clouds 25 1015 73 10000 10.8 20 11:37 30.09.2019
1052 Clouds 25 1015 73 10000 10.8 20 11:18 30.09.2019
1053 Clouds 24 1014 73 10000 9.3 10 10:40 30.09.2019
1054 Clouds 23 1014 78 10000 9.8 10 10:19 30.09.2019
1055 Clouds 22 1014 78 10000 9.3 10 09:58 30.09.2019
1056 Clouds 22 1014 78 10000 9.3 10 09:58 30.09.2019
1057 Clouds 22 1014 78 10000 9.3 10 09:39 30.09.2019
1058 Clouds 22 1014 78 10000 8.2 360 09:20 30.09.2019
1059 Clouds 22 1014 78 10000 9.3 10 08:46 30.09.2019
1060 Clouds 22 1013 78 10000 10.3 10 08:28 30.09.2019
1061 Clouds 22 1013 78 10000 9.8 10 07:45 30.09.2019
1062 Clouds 22 1013 78 10000 8.2 10 07:27 30.09.2019
1063 Clouds 22 1013 78 10000 8.7 10 06:56 30.09.2019
1064 Clouds 22 1013 78 10000 8.2 10 06:33 30.09.2019
1065 Clouds 22 1013 78 10000 8.2 360 05:47 30.09.2019
1066 Clouds 22 1013 78 10000 8.2 360 05:47 30.09.2019
1067 Clouds 22 1013 78 10000 8.2 360 05:47 30.09.2019
1068 Clouds 22 1014 83 10000 8.7 360 04:32 30.09.2019
1069 Clouds 22 1015 83 10000 9.3 360 02:48 30.09.2019
1070 Clouds 22 1016 83 10000 10.8 20 01:37 30.09.2019
1071 Clouds 23 1015 78 10000 11.8 10 00:42 30.09.2019
1072 Clouds 23 1015 78 10000 10.3 360 00:21 30.09.2019
1073 Clouds 23 1015 78 10000 11.8 10 23:47 29.09.2019
1074 Clouds 23 1015 78 10000 11.8 10 23:27 29.09.2019
1075 Clouds 23 1015 78 10000 12.3 10 22:59 29.09.2019
1076 Clouds 23 1015 78 10000 12.3 10 22:40 29.09.2019
1077 Clouds 23 1014 78 10000 12.3 20 22:22 29.09.2019
1078 Clouds 23 1014 78 10000 11.3 10 21:57 29.09.2019
1079 Clouds 23 1014 78 10000 11.3 10 21:37 29.09.2019
1080 Clouds 23 1014 83 10000 11.8 10 21:19 29.09.2019
1081 Clouds 24 1014 78 10000 11.8 10 20:45 29.09.2019
1082 Clouds 24 1014 78 10000 11.3 10 20:20 29.09.2019
1083 Clear 25 1014 78 10000 11.3 20 19:59 29.09.2019
1084 Clear 24 1014 78 10000 11.3 20 19:38 29.09.2019
1085 Clouds 25 1014 73 10000 11.3 20 19:19 29.09.2019
1086 Clouds 25 1014 73 10000 10.8 20 18:56 29.09.2019
1087 Clouds 25 1014 73 10000 10.8 20 18:38 29.09.2019
1088 Clouds 25 1014 73 10000 10.8 20 18:38 29.09.2019
1089 Clouds 25 1015 69 10000 11.8 20 18:19 29.09.2019
1090 Clouds 26 1015 69 10000 11.8 30 17:58 29.09.2019
1091 Clouds 26 1015 69 10000 11.8 30 17:40 29.09.2019
1092 Clear 25 1015 73 10000 10.8 20 17:19 29.09.2019
1093 Clear 26 1015 65 10000 11.3 30 16:58 29.09.2019
1094 Clear 26 1015 65 10000 11.3 30 16:40 29.09.2019
1095 Clouds 26 1016 65 10000 10.8 20 16:19 29.09.2019
1096 Clouds 26 1016 65 10000 10.8 30 15:57 29.09.2019
1097 Clouds 26 1016 65 10000 10.8 30 15:57 29.09.2019
1098 Clouds 26 1016 65 10000 11.3 20 15:36 29.09.2019
1099 Clouds 26 1016 65 10000 11.3 20 15:18 29.09.2019
1100 Clouds 25 1017 69 10000 11.3 30 14:55 29.09.2019
1101 Clouds 26 1017 65 10000 11.8 30 14:36 29.09.2019
1102 Clouds 25 1017 65 10000 11.8 30 14:18 29.09.2019
1103 Clouds 25 1017 69 10000 11.3 30 13:42 29.09.2019
1104 Clouds 25 1018 69 10000 10.8 30 13:19 29.09.2019
1105 Clouds 25 1018 69 10000 11.3 30 12:58 29.09.2019
1106 Clouds 25 1018 69 10000 11.3 30 12:40 29.09.2019
1107 Clouds 24 1017 69 10000 11.3 20 12:21 29.09.2019
1108 Clouds 24 1017 69 10000 10.3 360 11:57 29.09.2019
1109 Clouds 24 1017 69 10000 10.3 360 11:39 29.09.2019
1110 Clouds 24 1017 69 10000 9.3 10 11:18 29.09.2019
1111 Clouds 23 1017 73 10000 10.8 20 10:57 29.09.2019
1112 Clouds 23 1016 73 10000 10.8 10 10:36 29.09.2019
1113 Clouds 22 1016 73 10000 10.8 10 10:18 29.09.2019
1114 Clouds 21 1016 78 10000 9.8 10 09:45 29.09.2019
1115 Clouds 21 1016 78 10000 9.3 360 09:21 29.09.2019
1116 Clouds 22 1016 73 10000 8.7 10 08:58 29.09.2019
1117 Clouds 22 1016 73 10000 8.7 10 08:38 29.09.2019
1118 Clouds 21 1016 78 10000 9.8 10 08:20 29.09.2019
1119 Clouds 21 1016 78 10000 9.3 360 07:42 29.09.2019
1120 Clouds 21 1016 78 10000 9.3 360 07:42 29.09.2019
1121 Clouds 21 1016 78 10000 9.8 10 07:23 29.09.2019
1122 Clouds 21 1016 78 10000 9.3 360 06:42 29.09.2019
1123 Clouds 21 1016 78 10000 10.8 360 05:23 29.09.2019
1124 Clouds 21 1017 78 10000 9.3 10 04:25 29.09.2019
1125 Clouds 21 1017 78 10000 10.3 10 03:56 29.09.2019
1126 Clouds 22 1017 78 10000 9.3 360 02:47 29.09.2019
1127 Clouds 22 1017 78 10000 9.3 10 02:18 29.09.2019
1128 Clouds 22 1018 78 10000 9.8 360 01:31 29.09.2019
1129 Clouds 22 1018 78 10000 9.8 10 00:48 29.09.2019
1130 Clouds 22 1018 78 10000 9.3 360 00:20 29.09.2019
1131 Clouds 22 1018 78 10000 8.7 10 23:42 28.09.2019
1132 Clouds 23 1018 73 10000 9.3 360 23:22 28.09.2019
1133 Clouds 23 1017 73 10000 9.8 10 22:57 28.09.2019
1134 Clouds 23 1017 73 10000 9.8 10 22:38 28.09.2019
1135 Clouds 23 1017 73 10000 10.3 20 22:19 28.09.2019
1136 Clouds 23 1017 73 10000 9.3 360 21:56 28.09.2019
1137 Clouds 23 1017 73 10000 9.3 360 21:37 28.09.2019
1138 Clouds 23 1017 73 10000 10.3 10 21:19 28.09.2019
1139 Clouds 23 1017 73 10000 10.8 20 20:55 28.09.2019
1140 Clouds 24 1017 73 10000 10.8 20 20:37 28.09.2019
1141 Clouds 24 1017 69 10000 10.3 20 20:18 28.09.2019
1142 Clouds 24 1017 69 10000 10.8 30 19:54 28.09.2019
1143 Clouds 24 1017 73 10000 10.3 30 19:36 28.09.2019
1144 Clouds 24 1017 73 10000 10.3 30 19:18 28.09.2019
1145 Clouds 25 1017 65 10000 10.3 30 18:41 28.09.2019
1146 Clouds 25 1017 65 10000 10.3 30 18:22 28.09.2019
1147 Clouds 25 1017 65 10000 11.3 30 17:59 28.09.2019
1148 Clouds 25 1017 65 10000 11.3 30 17:40 28.09.2019
1149 Clouds 26 1018 65 10000 10.8 30 17:21 28.09.2019
1150 Clouds 25 1018 69 10000 10.3 20 16:49 28.09.2019
1151 Clouds 26 1018 61 10000 11.3 30 16:29 28.09.2019
1152 Clouds 26 1018 61 10000 10.8 30 15:59 28.09.2019
1153 Clouds 26 1018 61 10000 10.3 30 15:39 28.09.2019
1154 Clouds 26 1018 61 10000 10.3 30 15:21 28.09.2019
1155 Clouds 26 1019 61 10000 9.8 30 14:55 28.09.2019
1156 Clouds 26 1019 61 10000 10.3 30 14:36 28.09.2019
1157 Clouds 25 1019 61 10000 10.3 30 14:18 28.09.2019
1158 Clouds 25 1019 61 10000 10.3 30 14:18 28.09.2019
1159 Clouds 25 1019 65 10000 11.3 30 13:43 28.09.2019
1160 Clouds 25 1020 61 10000 10.3 30 13:20 28.09.2019
1161 Clouds 25 1020 65 10000 9.8 20 12:55 28.09.2019
1162 Clouds 25 1019 65 10000 10.3 20 12:36 28.09.2019
1163 Clouds 24 1019 65 10000 10.3 20 12:18 28.09.2019
1164 Clouds 24 1019 65 10000 9.8 10 11:40 28.09.2019
1165 Clouds 24 1019 69 10000 9.3 20 11:20 28.09.2019
1166 Clouds 23 1019 73 10000 7.2 360 10:44 28.09.2019
1167 Clouds 22 1018 78 10000 8.2 360 10:21 28.09.2019
1168 Clouds 22 1018 78 10000 8.7 360 09:59 28.09.2019
1169 Clouds 22 1018 78 10000 8.7 360 09:59 28.09.2019
1170 Clouds 21 1018 78 10000 8.7 360 09:40 28.09.2019
1171 Clouds 21 1018 78 10000 8.7 10 09:19 28.09.2019
1172 Clouds 21 1017 73 10000 8.7 360 08:48 28.09.2019
1173 Clouds 21 1017 73 10000 8.7 360 08:29 28.09.2019
1174 Clouds 21 1017 78 10000 8.2 360 07:57 28.09.2019
1175 Clouds 21 1017 78 10000 8.2 360 07:38 28.09.2019
1176 Clouds 21 1017 78 10000 8.2 360 07:19 28.09.2019
1177 Clouds 21 1017 78 10000 8.2 360 06:38 28.09.2019
1178 Clouds 21 1017 78 10000 7.2 360 06:20 28.09.2019
1179 Clouds 21 1018 78 10000 8.2 360 05:25 28.09.2019
1180 Clouds 22 1018 78 10000 9.3 360 04:54 28.09.2019
1181 Clouds 22 1018 78 10000 9.8 10 04:29 28.09.2019
1182 Clouds 22 1018 78 10000 8.2 360 03:41 28.09.2019
1183 Clouds 22 1019 78 10000 9.3 10 02:58 28.09.2019
1184 Clouds 22 1019 78 10000 9.3 10 02:40 28.09.2019
1185 Clouds 22 1019 73 10000 8.2 360 02:19 28.09.2019
1186 Clouds 22 1019 78 10000 7.7 360 01:42 28.09.2019
1187 Clouds 22 1020 78 10000 8.7 360 01:19 28.09.2019
1188 Clouds 22 1019 78 10000 8.7 10 00:45 28.09.2019
1189 Clouds 23 1020 78 10000 8.7 10 00:27 28.09.2019
1190 Clouds 23 1019 73 10000 8.2 10 23:39 27.09.2019
1191 Clouds 23 1019 73 10000 7.7 10 23:21 27.09.2019
1192 Clouds 23 1019 73 10000 7.7 360 22:49 27.09.2019
1193 Clouds 23 1018 73 10000 8.2 10 22:21 27.09.2019
1194 Clouds 23 1018 73 10000 9.8 10 22:00 27.09.2019
1195 Clouds 23 1018 73 10000 9.8 10 21:40 27.09.2019
1196 Clouds 23 1018 78 10000 9.8 20 21:21 27.09.2019
1197 Clouds 24 1018 69 10000 10.3 20 20:59 27.09.2019
1198 Clouds 24 1018 69 10000 10.3 20 20:40 27.09.2019
1199 Clouds 25 1018 64 10000 11.8 10 20:20 27.09.2019
1200 Clouds 25 1018 61 10000 11.8 20 19:57 27.09.2019
1201 Clouds 25 1018 61 10000 11.8 20 19:39 27.09.2019
1202 Clouds 26 1018 65 10000 12.3 20 19:20 27.09.2019
1203 Clouds 25 1018 65 10000 12.3 20 18:42 27.09.2019
1204 Clouds 25 1018 65 10000 12.3 20 18:24 27.09.2019
1205 Clouds 25 1018 65 10000 11.8 30 17:56 27.09.2019
1206 Clouds 25 1018 65 10000 11.8 30 17:38 27.09.2019
1207 Clouds 25 1018 61 10000 11.8 30 17:20 27.09.2019
1208 Clouds 26 1018 61 10000 12.3 30 16:57 27.09.2019
1209 Clouds 26 1018 61 10000 12.3 30 16:37 27.09.2019
1210 Clouds 26 1018 61 10000 12.3 30 16:37 27.09.2019
1211 Clouds 26 1018 61 10000 12.3 30 16:37 27.09.2019
1212 Clouds 26 1018 61 10000 12.3 30 16:18 27.09.2019
1213 Clouds 26 1018 61 10000 12.3 30 16:18 27.09.2019
1214 Clouds 26 1018 61 10000 12.3 30 16:18 27.09.2019
1215 Clouds 26 1019 61 10000 12.3 30 15:46 27.09.2019
1216 Clouds 26 1019 65 10000 12.3 30 15:21 27.09.2019
1217 Clouds 26 1019 61 10000 12.3 30 14:59 27.09.2019
1218 Clouds 26 1019 57 10000 11.8 20 14:41 27.09.2019
1219 Clouds 25 1019 57 10000 11.8 20 14:21 27.09.2019
1220 Clouds 26 1020 61 10000 11.3 20 13:58 27.09.2019
1221 Clouds 26 1020 61 10000 11.3 20 13:39 27.09.2019
1222 Clouds 26 1020 61 10000 11.3 20 13:21 27.09.2019
1223 Clouds 26 1020 61 10000 11.3 20 13:21 27.09.2019
1224 Clouds 25 1020 61 10000 11.3 20 12:54 27.09.2019
1225 Clouds 25 1020 65 10000 11.3 20 12:24 27.09.2019
1226 Clouds 25 1020 65 10000 11.3 20 11:58 27.09.2019
1227 Clouds 25 1020 65 10000 11.3 20 11:38 27.09.2019
1228 Clouds 23 1020 65 10000 10.8 20 11:20 27.09.2019
1229 Clouds 23 1019 69 10000 10.8 20 10:43 27.09.2019
1230 Clouds 23 1019 73 10000 9.3 360 10:23 27.09.2019
1231 Clouds 22 1019 69 10000 9.8 10 09:58 27.09.2019
1232 Clouds 22 1019 69 10000 9.8 10 09:40 27.09.2019
1233 Clouds 21 1019 78 10000 8.2 10 09:19 27.09.2019
1234 Clouds 21 1019 78 10000 9.8 10 08:42 27.09.2019
1235 Clouds 23 1019 73 10000 9.3 10 08:21 27.09.2019
1236 Clouds 22 1018 73 10000 8.2 10 07:55 27.09.2019
1237 Clouds 22 1018 73 10000 8.2 360 07:37 27.09.2019
1238 Clouds 22 1018 73 10000 8.2 360 07:18 27.09.2019
1239 Clouds 23 1018 69 10000 7.7 10 06:40 27.09.2019
1240 Clouds 23 1018 69 10000 7.7 10 06:21 27.09.2019
1241 Clouds 23 1018 69 10000 9.8 10 05:45 27.09.2019
1242 Clouds 22 1018 69 10000 10.3 10 05:26 27.09.2019
1243 Clouds 22 1019 73 10000 10.3 10 03:40 27.09.2019
1244 Clouds 22 1020 69 10000 8.7 10 01:56 27.09.2019
1245 Clouds 23 1020 69 10000 9.3 10 01:32 27.09.2019
1246 Clouds 23 1020 73 10000 8.7 10 00:41 27.09.2019
1247 Clouds 23 1020 73 10000 9.8 10 23:57 26.09.2019
1248 Clouds 24 1020 73 10000 9.8 10 23:39 26.09.2019
1249 Clouds 24 1019 73 10000 8.7 10 23:20 26.09.2019
1250 Clouds 24 1019 64 10000 7.7 360 22:58 26.09.2019
1251 Clouds 24 1019 64 10000 7.7 360 22:58 26.09.2019
1252 Clouds 24 1019 64 10000 7.7 360 22:39 26.09.2019
1253 Clouds 23 1019 69 10000 10.8 10 22:18 26.09.2019
1254 Clouds 23 1018 69 10000 10.3 10 21:58 26.09.2019
1255 Clouds 23 1018 69 10000 10.3 10 21:38 26.09.2019
1256 Clouds 23 1018 69 10000 10.3 20 21:19 26.09.2019
1257 Clouds 23 1018 69 10000 10.8 20 20:58 26.09.2019
1258 Clouds 24 1018 69 10000 10.8 20 20:39 26.09.2019
1259 Clouds 24 1018 64 10000 10.8 20 20:21 26.09.2019
1260 Clouds 24 1018 64 10000 11.8 20 19:58 26.09.2019
1261 Clouds 24 1018 64 10000 11.8 20 19:39 26.09.2019
1262 Clouds 25 1018 65 10000 11.8 20 19:18 26.09.2019
1263 Clouds 26 1018 65 10000 11.8 20 18:44 26.09.2019
1264 Clouds 26 1017 65 10000 11.8 20 18:22 26.09.2019
1265 Clouds 26 1017 65 10000 12.3 30 17:59 26.09.2019
1266 Clouds 26 1017 65 10000 12.3 30 17:38 26.09.2019
1267 Clouds 26 1017 61 10000 11.8 20 17:19 26.09.2019
1268 Clouds 26 1017 61 10000 11.8 20 17:19 26.09.2019
1269 Clouds 26 1018 61 10000 11.3 30 16:56 26.09.2019
1270 Clouds 26 1018 61 10000 11.3 30 16:37 26.09.2019
1271 Clouds 26 1018 61 10000 11.8 30 16:19 26.09.2019
1272 Clouds 26 1018 61 10000 12.3 30 15:55 26.09.2019
1273 Clouds 26 1019 61 10000 11.8 20 15:36 26.09.2019
1274 Clouds 26 1019 61 10000 11.8 20 15:18 26.09.2019
1275 Clouds 26 1019 57 10000 12.3 20 14:41 26.09.2019
1276 Clouds 26 1019 61 10000 12.3 10 14:22 26.09.2019
1277 Clouds 26 1019 57 10000 11.8 20 13:58 26.09.2019
1278 Clouds 26 1019 57 10000 11.8 20 13:39 26.09.2019
1279 Clouds 26 1019 65 10000 11.3 20 13:19 26.09.2019
1280 Clouds 26 1019 61 10000 10.8 20 12:55 26.09.2019
1281 Clouds 26 1019 61 10000 10.8 20 12:55 26.09.2019
1282 Clouds 26 1019 61 10000 10.8 20 12:55 26.09.2019
1283 Clouds 25 1019 61 10000 10.8 20 12:36 26.09.2019
1284 Clouds 25 1019 61 10000 10.8 20 12:18 26.09.2019
1285 Clouds 25 1019 65 10000 10.3 10 11:41 26.09.2019
1286 Clouds 24 1019 69 10000 10.3 10 11:20 26.09.2019
1287 Clouds 23 1019 78 10000 9.3 10 10:43 26.09.2019
1288 -273 0 0 0 0 0 10:24 26.09.2019
1289 Clouds 22 1018 78 10000 8.7 10 09:59 26.09.2019
1290 Clouds 22 1018 78 10000 8.7 10 09:41 26.09.2019
1291 Clouds 22 1018 73 10000 8.2 360 09:20 26.09.2019
1292 Clouds 22 1017 73 10000 8.2 360 08:53 26.09.2019
1293 Clouds 22 1017 73 10000 8.2 360 08:32 26.09.2019
1294 Clouds 22 1017 73 10000 8.7 10 07:57 26.09.2019
1295 Clouds 22 1017 73 10000 8.7 10 07:38 26.09.2019
1296 Clouds 22 1017 78 10000 9.8 10 07:18 26.09.2019
1297 Clouds 22 1016 73 10000 9.3 360 06:42 26.09.2019
1298 Clouds 22 1017 78 10000 9.3 10 06:23 26.09.2019
1299 Clouds 22 1017 73 10000 8.2 350 05:36 26.09.2019
1300 Clouds 22 1017 73 10000 8.2 360 04:56 26.09.2019
1301 Clouds 22 1018 78 10000 8.2 10 02:34 26.09.2019
1302 Clouds 22 1018 78 10000 9.3 10 01:49 26.09.2019
1303 Clouds 22 1018 78 10000 9.3 10 01:26 26.09.2019
1304 Clouds 22 1018 73 10000 8.7 360 00:46 26.09.2019
1305 Clouds 22 1018 78 10000 9.3 10 00:28 26.09.2019
1306 Clouds 23 1018 78 10000 9.8 10 23:44 25.09.2019
1307 Clouds 23 1017 78 10000 9.8 10 23:25 25.09.2019
1308 Clouds 23 1017 73 10000 8.2 360 22:56 25.09.2019
1309 Clouds 23 1017 73 10000 8.2 360 22:37 25.09.2019
1310 Clouds 23 1017 73 10000 8.2 360 22:37 25.09.2019
1311 Clouds 23 1017 69 10000 8.7 10 22:18 25.09.2019
1312 Clouds 23 1017 73 10000 11.3 10 21:56 25.09.2019
1313 Clouds 23 1017 73 10000 11.3 10 21:56 25.09.2019
1314 Clouds 23 1016 69 10000 12.3 10 21:37 25.09.2019
1315 Clouds 23 1016 69 10000 12.3 10 21:18 25.09.2019
1316 Clouds 24 1016 69 10000 11.8 10 20:56 25.09.2019
1317 Clouds 24 1016 69 10000 11.8 10 20:56 25.09.2019
1318 Clouds 23 1016 69 10000 11.8 10 20:37 25.09.2019
1319 Clouds 24 1016 69 10000 12.3 20 20:18 25.09.2019
1320 Clouds 25 1016 65 10000 11.8 20 19:40 25.09.2019
1321 Clouds 25 1016 65 10000 11.8 20 19:40 25.09.2019
1322 Clouds 25 1016 65 10000 11.8 20 19:40 25.09.2019
1323 Clouds 25 1016 65 10000 11.8 20 19:21 25.09.2019
1324 Clouds 25 1016 61 10000 12.9 20 18:56 25.09.2019
1325 Clouds 26 1016 61 10000 12.3 20 18:38 25.09.2019
1326 Clouds 25 1016 61 10000 12.3 20 18:20 25.09.2019
1327 Clouds 26 1016 61 10000 12.9 20 17:40 25.09.2019
1328 -273 0 0 0 0 0 17:22 25.09.2019
1329 Clouds 27 1017 57 10000 12.9 20 16:59 25.09.2019
1330 Clouds 27 1017 57 10000 12.9 20 16:41 25.09.2019
1331 Clouds 26 1017 61 10000 13.4 20 16:23 25.09.2019
1332 Clouds 26 1017 61 10000 13.4 20 15:56 25.09.2019
1333 Clouds 26 1017 61 10000 13.4 20 15:56 25.09.2019
1334 Clouds 26 1017 61 10000 13.4 20 15:38 25.09.2019
1335 Clouds 26 1018 61 10000 13.4 30 15:19 25.09.2019
1336 Clouds 25 1018 61 10000 13.4 30 14:42 25.09.2019
1337 Clouds 25 1018 61 10000 12.3 20 14:22 25.09.2019
1338 Clouds 25 1019 61 10000 12.9 20 13:58 25.09.2019
1339 Clouds 26 1019 61 10000 12.9 20 13:40 25.09.2019
1340 Clouds 26 1019 57 10000 12.9 20 13:20 25.09.2019
1341 Clouds 25 1019 61 10000 11.3 10 12:56 25.09.2019
1342 Clouds 25 1019 61 10000 11.3 360 12:37 25.09.2019
1343 Clouds 25 1019 61 10000 11.3 360 12:18 25.09.2019
1344 Clouds 24 1019 64 10000 10.8 10 11:40 25.09.2019
1345 Clouds 24 1019 64 10000 10.8 10 11:20 25.09.2019
1346 Clouds 23 1019 69 10000 10.3 360 10:48 25.09.2019
1347 Clouds 23 1018 69 10000 9.3 360 10:27 25.09.2019
1348 Clouds 22 1018 73 10000 8.2 360 09:59 25.09.2019
1349 Clouds 22 1018 73 10000 8.2 360 09:59 25.09.2019
1350 Clouds 21 1018 73 10000 8.2 360 09:41 25.09.2019
1351 Clouds 21 1018 73 10000 8.2 360 09:23 25.09.2019
1352 Clouds 21 1018 73 10000 8.7 360 08:57 25.09.2019
1353 Clouds 21 1018 73 10000 8.7 360 08:39 25.09.2019
1354 Clouds 21 1018 73 10000 8.2 360 08:19 25.09.2019
1355 Clouds 21 1018 73 10000 8.7 350 07:40 25.09.2019
1356 Clouds 21 1018 73 10000 8.2 360 07:22 25.09.2019
1357 Clouds 21 1017 73 10000 8.2 360 06:55 25.09.2019
1358 Clouds 21 1017 73 10000 8.2 360 06:34 25.09.2019
1359 Clouds 21 1018 73 10000 8.7 360 05:43 25.09.2019
1360 Clouds 22 1018 73 10000 8.7 360 04:58 25.09.2019
1361 Clouds 22 1019 68 10000 8.7 360 02:50 25.09.2019
1362 Clouds 22 1020 68 10000 9.8 10 01:29 25.09.2019
1363 Clouds 22 1020 64 10000 8.2 360 00:38 25.09.2019
1364 Clouds 23 1020 64 10000 8.2 360 00:20 25.09.2019
1365 Clouds 22 1020 64 10000 8.7 360 23:42 24.09.2019
1366 Clouds 23 1019 64 10000 7.7 360 23:22 24.09.2019
1367 Clouds 23 1019 64 10000 10.3 10 22:57 24.09.2019
1368 Clouds 23 1019 64 10000 10.3 10 22:38 24.09.2019
1369 Clouds 23 1019 64 10000 9.8 360 22:18 24.09.2019
1370 Clouds 23 1019 64 10000 10.3 10 21:55 24.09.2019
1371 Clouds 23 1019 64 10000 9.8 360 21:36 24.09.2019
1372 Clouds 23 1019 64 10000 9.8 360 21:18 24.09.2019
1373 Clouds 24 1019 60 10000 10.3 360 20:55 24.09.2019
1374 Clouds 24 1018 64 10000 12.3 20 20:37 24.09.2019
1375 Clouds 24 1018 64 10000 12.3 20 20:18 24.09.2019
1376 Clouds 24 1018 61 10000 12.9 20 19:42 24.09.2019
1377 Clouds 24 1018 61 10000 12.3 10 19:19 24.09.2019
1378 Clouds 24 1018 61 10000 12.3 10 19:19 24.09.2019
1379 Clouds 25 1018 54 10000 13.4 20 18:57 24.09.2019
1380 Clouds 25 1019 57 10000 13.4 20 18:39 24.09.2019
1381 Clouds 25 1019 57 10000 13.4 20 18:20 24.09.2019
1382 Clouds 26 1018 54 10000 13.4 20 17:56 24.09.2019
1383 Clouds 26 1019 57 10000 14.4 20 17:37 24.09.2019
1384 Clouds 26 1019 57 10000 14.4 20 17:19 24.09.2019
1385 Clouds 26 1019 61 10000 13.9 20 16:42 24.09.2019
1386 Clouds 26 1019 61 10000 12.9 30 16:21 24.09.2019
1387 Clouds 26 1019 61 10000 13.4 30 15:58 24.09.2019
1388 Clouds 25 1019 61 10000 13.4 30 15:39 24.09.2019
1389 Clouds 25 1020 57 10000 13.4 20 15:21 24.09.2019
1390 Clouds 25 1020 57 10000 13.9 30 14:40 24.09.2019
1391 Clouds 25 1020 61 10000 13.4 20 14:19 24.09.2019
1392 Clouds 25 1020 54 10000 13.4 20 13:45 24.09.2019
1393 Clouds 25 1021 61 10000 13.4 20 13:22 24.09.2019
1394 Clouds 25 1021 54 10000 12.3 10 12:57 24.09.2019
1395 Clouds 25 1021 54 10000 12.3 10 12:39 24.09.2019
1396 Clouds 24 1021 65 10000 12.3 20 12:18 24.09.2019
1397 Clouds 23 1020 57 10000 11.3 10 11:41 24.09.2019
1398 Clouds 23 1020 61 10000 10.3 10 11:21 24.09.2019
1399 Clouds 23 1020 73 10000 8.2 360 10:55 24.09.2019
1400 Clouds 23 1020 73 10000 7.2 350 10:36 24.09.2019
1401 Clouds 22 1020 73 10000 7.2 350 10:18 24.09.2019
1402 Clouds 22 1020 73 10000 7.2 350 10:18 24.09.2019
1403 Clouds 22 1020 73 10000 6.2 360 09:43 24.09.2019
1404 Clouds 22 1019 73 10000 8.2 360 09:21 24.09.2019
1405 Clouds 22 1019 73 10000 8.2 10 08:57 24.09.2019
1406 Clouds 22 1019 73 10000 8.2 10 08:57 24.09.2019
1407 Clouds 21 1019 73 10000 8.2 10 08:38 24.09.2019
1408 Clouds 21 1019 78 10000 9.3 10 08:19 24.09.2019
1409 Clouds 22 1019 73 10000 8.7 360 07:46 24.09.2019
1410 Clouds 22 1019 73 10000 8.7 10 07:25 24.09.2019
1411 Clouds 21 1019 78 10000 7.7 360 06:51 24.09.2019
1412 Clouds 22 1019 73 10000 7.2 360 06:32 24.09.2019
1413 Clouds 21 1019 73 10000 7.2 350 05:51 24.09.2019
1414 Clouds 21 1019 78 10000 6.7 350 05:18 24.09.2019
1415 Clouds 22 1019 73 10000 6.7 360 03:44 24.09.2019
1416 Clouds 21 1020 78 10000 7.7 360 02:47 24.09.2019
1417 Clouds 22 1020 69 10000 7.7 10 01:55 24.09.2019
1418 Clouds 22 1021 69 10000 8.2 360 00:43 24.09.2019
1419 Clouds 22 1021 69 10000 6.7 360 00:25 24.09.2019
1420 Clouds 23 1020 73 10000 8.2 360 23:56 23.09.2019
1421 Clouds 22 1020 73 10000 8.2 360 23:38 23.09.2019
1422 Clouds 22 1020 73 10000 9.3 360 23:20 23.09.2019
1423 Clouds 22 1020 73 10000 9.3 10 22:39 23.09.2019
1424 Clouds 22 1020 73 10000 9.3 10 22:20 23.09.2019
1425 Clouds 24 1019 69 10000 8.2 360 21:57 23.09.2019
1426 Clouds 23 1019 69 10000 8.2 360 21:39 23.09.2019
1427 Clouds 24 1019 64 10000 8.2 360 21:19 23.09.2019
1428 Clouds 24 1019 64 10000 10.3 10 20:41 23.09.2019
1429 Clouds 25 1019 61 10000 9.8 360 20:20 23.09.2019
1430 Clouds 25 1019 61 10000 9.8 360 20:20 23.09.2019
1431 Clouds 25 1019 61 10000 10.8 360 19:59 23.09.2019
1432 Clouds 24 1019 61 10000 10.8 360 19:39 23.09.2019
1433 Clouds 25 1019 65 10000 10.8 20 19:21 23.09.2019
1434 Clouds 26 1019 65 10000 12.3 20 18:55 23.09.2019
1435 Clouds 25 1019 65 10000 12.3 20 18:55 23.09.2019
1436 Clouds 26 1019 61 10000 12.3 30 18:36 23.09.2019
1437 Clouds 26 1019 61 10000 12.3 30 18:36 23.09.2019
1438 Clouds 25 1019 61 10000 12.3 30 18:18 23.09.2019
1439 Clouds 26 1019 61 10000 12.9 30 17:54 23.09.2019
1440 Clouds 25 1019 57 10000 12.3 30 17:36 23.09.2019
1441 Clouds 26 1019 57 10000 12.3 30 17:18 23.09.2019
1442 Clouds 26 1019 61 10000 13.4 20 16:39 23.09.2019
1443 Clouds 25 1019 61 10000 13.4 20 16:21 23.09.2019
1444 Clouds 26 1019 61 10000 11.8 30 15:58 23.09.2019
1445 Clouds 26 1019 57 10000 10.3 20 15:39 23.09.2019
1446 Clouds 26 1019 57 10000 10.3 20 15:19 23.09.2019
1447 Clouds 26 1020 57 10000 10.3 30 14:57 23.09.2019
1448 Clouds 26 1020 57 10000 10.3 20 14:36 23.09.2019
1449 Clouds 25 1020 57 10000 10.3 20 14:18 23.09.2019
1450 Clouds 25 1020 61 10000 11.3 20 13:40 23.09.2019
1451 Clouds 25 1020 57 10000 10.8 30 13:19 23.09.2019
1452 Clouds 25 1020 57 10000 10.8 30 13:19 23.09.2019
1453 Clouds 25 1020 61 10000 10.8 30 12:59 23.09.2019
1454 Clouds 24 1020 61 10000 10.8 30 12:40 23.09.2019
1455 Clouds 24 1020 65 10000 10.8 30 12:21 23.09.2019
1456 Clouds 24 1020 65 10000 10.8 20 11:45 23.09.2019
1457 Clouds 24 1020 65 10000 10.8 20 11:45 23.09.2019
1458 Clouds 24 1019 65 10000 9.3 10 11:26 23.09.2019
1459 Clouds 23 1019 73 10000 8.7 360 10:57 23.09.2019
1460 Clouds 23 1019 73 10000 8.2 360 10:39 23.09.2019
1461 Clouds 22 1019 73 10000 8.2 360 10:20 23.09.2019
1462 Clouds 22 1019 73 10000 8.2 360 10:20 23.09.2019
1463 Clouds 23 1019 69 10000 7.7 10 09:40 23.09.2019
1464 Clouds 22 1019 78 10000 6.7 360 09:21 23.09.2019
1465 Clouds 22 1018 78 10000 7.2 360 08:57 23.09.2019
1466 Clouds 21 1018 78 10000 7.2 360 08:38 23.09.2019
1467 Clouds 21 1018 78 10000 8.2 10 08:18 23.09.2019
1468 Clouds 21 1018 78 10000 8.2 10 08:18 23.09.2019
1469 Clouds 21 1018 78 10000 7.7 10 07:33 23.09.2019
1470 Clouds 21 1018 83 10000 7.7 10 06:52 23.09.2019
1471 Clouds 21 1018 88 10000 7.2 10 06:19 23.09.2019
1472 Clouds 22 1018 83 10000 8.2 10 05:22 23.09.2019
1473 Clouds 23 1018 83 10000 7.7 10 04:55 23.09.2019
1474 Clouds 23 1018 83 10000 7.7 20 03:56 23.09.2019
1475 Clouds 22 1019 88 10000 6.7 10 01:25 23.09.2019
1476 Clouds 22 1019 83 10000 6.7 360 00:24 23.09.2019
1477 Clouds 23 1019 88 10000 7.2 10 23:58 22.09.2019
1478 Clouds 23 1019 88 10000 7.2 10 23:58 22.09.2019
1479 Clouds 21 1019 88 10000 7.2 10 23:39 22.09.2019
1480 Clouds 23 1019 88 10000 8.2 10 23:20 22.09.2019
1481 Clouds 23 1018 88 10000 8.2 10 22:54 22.09.2019
1482 Drizzle 23 1018 88 4000 10.3 10 22:36 22.09.2019
1483 Drizzle 22 1018 88 4000 10.3 10 22:18 22.09.2019
1484 Clouds 24 1018 83 10000 9.3 20 21:40 22.09.2019
1485 Clouds 24 1018 83 10000 9.3 20 21:20 22.09.2019
1486 Clouds 24 1017 78 10000 9.3 20 20:44 22.09.2019
1487 Clouds 25 1017 74 10000 9.3 10 20:26 22.09.2019
1488 Clouds 25 1017 74 10000 9.8 30 19:56 22.09.2019
1489 Clouds 25 1017 74 10000 9.8 30 19:38 22.09.2019
1490 Clouds 25 1016 69 10000 10.3 30 19:20 22.09.2019
1491 Clouds 25 1016 69 10000 9.8 30 18:57 22.09.2019
1492 Clouds 26 1017 69 10000 8.7 30 18:37 22.09.2019
1493 Clouds 26 1017 69 10000 8.7 30 18:18 22.09.2019
1494 Clouds 27 1017 65 10000 7.7 30 17:42 22.09.2019
1495 Clouds 26 1017 69 10000 9.3 30 17:24 22.09.2019
1496 Clouds 26 1017 69 10000 10.3 30 16:56 22.09.2019
1497 Clouds 26 1017 69 10000 10.3 30 16:37 22.09.2019
1498 Clouds 26 1017 69 10000 10.8 30 16:18 22.09.2019
1499 Clouds 26 1017 69 10000 8.7 30 15:43 22.09.2019
1500 Clouds 26 1017 65 10000 8.2 40 15:24 22.09.2019
1501 Clouds 26 1018 65 10000 10.3 30 14:47 22.09.2019
1502 Clouds 26 1018 65 10000 10.8 30 14:27 22.09.2019
1503 Clouds 26 1018 65 10000 10.3 30 13:59 22.09.2019
1504 Clouds 26 1018 65 10000 10.3 30 13:41 22.09.2019
1505 Clouds 26 1018 65 10000 10.3 30 13:41 22.09.2019
1506 Clouds 26 1018 61 10000 9.3 30 13:23 22.09.2019
1507 Clouds 25 1018 69 10000 9.8 30 12:56 22.09.2019
1508 Clear 25 1018 65 10000 9.3 30 12:38 22.09.2019
1509 Clear 24 1018 65 10000 9.3 30 12:18 22.09.2019
1510 Clouds 24 1018 69 10000 8.2 30 11:43 22.09.2019
1511 Clouds 24 1018 69 10000 7.2 30 11:24 22.09.2019
1512 Clouds 24 1018 69 10000 6.2 30 10:56 22.09.2019
1513 Clouds 23 1018 69 10000 6.2 30 10:37 22.09.2019
1514 Clouds 22 1018 69 10000 5.7 360 10:19 22.09.2019
1515 Clouds 22 1018 69 10000 5.7 360 10:19 22.09.2019
1516 Clouds 22 1018 73 10000 5.7 10 09:42 22.09.2019
1517 Clouds 22 1018 73 10000 3.6 360 09:21 22.09.2019
1518 Clouds 22 1018 73 10000 3.6 360 09:21 22.09.2019
1519 Clouds 21 1017 69 10000 4.1 360 08:49 22.09.2019
1520 Clouds 21 1017 73 10000 4.1 350 08:30 22.09.2019
1521 Clouds 21 1017 78 10000 4.6 350 07:59 22.09.2019
1522 Clouds 22 1017 78 10000 4.6 350 07:40 22.09.2019
1523 Clouds 21 1017 78 10000 4.6 360 07:21 22.09.2019
1524 Clouds 21 1017 78 10000 3.6 10 06:56 22.09.2019
1525 Clear 22 1016 78 10000 3.1 20 05:45 22.09.2019
1526 Clear 21 1017 78 10000 5.7 20 03:53 22.09.2019
1527 Clouds 22 1017 78 10000 6.2 20 02:43 22.09.2019
1528 Clouds 21 1017 78 10000 5.7 20 02:23 22.09.2019
1529 Clouds 21 1018 78 10000 4.1 20 01:34 22.09.2019
1530 Clear 21 1018 78 10000 4.6 20 00:39 22.09.2019
1531 Clouds 22 1017 78 10000 4.6 10 00:20 22.09.2019
1532 Clouds 22 1017 78 10000 5.1 10 23:41 21.09.2019
1533 Clouds 21 1017 73 10000 4.6 10 23:22 21.09.2019
1534 Clouds 22 1017 78 10000 5.1 20 22:40 21.09.2019
1535 Clouds 22 1017 73 10000 5.7 30 22:21 21.09.2019
1536 Clouds 23 1016 69 10000 4.6 20 21:57 21.09.2019
1537 Clouds 22 1016 69 10000 4.6 20 21:38 21.09.2019
1538 Clouds 23 1016 69 10000 6.2 20 21:18 21.09.2019
1539 Clouds 24 1016 78 10000 8.7 30 20:40 21.09.2019
1540 Clouds 24 1015 73 10000 8.2 30 20:40 21.09.2019
1541 Clouds 24 1015 73 10000 8.2 30 20:22 21.09.2019
1542 Clouds 24 1015 73 10000 8.2 30 20:22 21.09.2019
1543 Clouds 24 1016 69 10000 9.8 30 19:55 21.09.2019
1544 Clouds 24 1016 69 10000 9.8 30 19:36 21.09.2019
1545 Clouds 25 1016 69 10000 9.8 30 19:18 21.09.2019
1546 Clouds 25 1016 69 10000 9.3 30 18:38 21.09.2019
1547 Clouds 25 1015 69 10000 8.7 40 18:20 21.09.2019
1548 Clouds 25 1016 69 10000 8.2 30 17:42 21.09.2019
1549 Clouds 25 1016 69 10000 7.7 40 17:23 21.09.2019
1550 Clouds 26 1016 65 10000 7.7 40 16:45 21.09.2019
1551 Clouds 26 1016 69 10000 8.2 40 16:25 21.09.2019
1552 Clouds 26 1016 65 10000 8.2 40 15:59 21.09.2019
1553 Clouds 25 1016 65 10000 8.2 40 15:40 21.09.2019
1554 Clouds 25 1016 65 10000 8.7 30 15:20 21.09.2019
1555 Clouds 25 1017 65 10000 9.3 30 14:44 21.09.2019
1556 Clouds 25 1017 65 10000 9.3 30 14:44 21.09.2019
1557 Clouds 25 1017 65 10000 9.3 30 14:44 21.09.2019
1558 Clouds 25 1017 65 10000 8.7 30 14:26 21.09.2019
1559 Clouds 25 1017 65 10000 8.7 30 13:43 21.09.2019
1560 Clouds 25 1017 65 10000 8.7 30 13:25 21.09.2019
1561 Clouds 25 1017 65 10000 8.7 30 13:25 21.09.2019
1562 Clouds 25 1017 69 10000 9.3 30 12:58 21.09.2019
1563 Clouds 25 1017 69 10000 9.3 30 12:39 21.09.2019
1564 Clouds 24 1017 65 10000 8.7 30 12:20 21.09.2019
1565 Clouds 24 1017 69 10000 8.2 30 11:57 21.09.2019
1566 Clouds 24 1017 69 10000 8.2 30 11:38 21.09.2019
1567 Clouds 23 1017 69 10000 7.2 30 11:18 21.09.2019
1568 Clouds 23 1016 69 10000 4.6 10 10:40 21.09.2019
1569 Clouds 22 1016 69 10000 4.6 10 10:20 21.09.2019
1570 Clouds 21 1016 73 10000 4.1 10 09:55 21.09.2019
1571 Clouds 21 1016 73 10000 3.6 350 09:37 21.09.2019
1572 Clouds 20 1016 73 10000 3.6 350 09:19 21.09.2019
1573 Clouds 20 1015 72 10000 2.6 340 08:45 21.09.2019
1574 Clouds 21 1015 73 10000 2.6 340 07:59 21.09.2019
1575 Clouds 20 1015 73 10000 2.6 340 07:40 21.09.2019
1576 Clouds 20 1015 68 10000 3.6 340 07:20 21.09.2019
1577 Clouds 20 1015 73 10000 5.7 330 06:36 21.09.2019
1578 Clouds 21 1015 73 10000 4.6 330 05:51 21.09.2019
1579 Clouds 21 1015 73 10000 4.6 340 04:39 21.09.2019
1580 Clouds 21 1015 73 10000 4.6 350 03:34 21.09.2019
1581 Clouds 22 1016 73 10000 4.1 360 02:25 21.09.2019
1582 Clouds 21 1016 78 10000 3.6 350 01:48 21.09.2019
1583 Clouds 22 1017 73 10000 3.6 360 01:25 21.09.2019
1584 Clouds 22 1017 78 10000 5.7 20 00:23 21.09.2019
1585 Clouds 23 1017 78 10000 6.7 20 23:56 20.09.2019
1586 Clouds 22 1016 78 10000 6.2 10 23:30 20.09.2019
1587 Clouds 22 1016 73 10000 7.2 10 22:56 20.09.2019
1588 Clouds 22 1016 73 10000 7.2 10 22:37 20.09.2019
1589 Clouds 23 1016 78 10000 8.2 20 22:19 20.09.2019
1590 Clouds 23 1015 73 10000 8.2 20 21:54 20.09.2019
1591 Clouds 23 1015 78 10000 8.2 20 21:36 20.09.2019
1592 Clouds 23 1015 78 10000 8.2 20 21:18 20.09.2019
1593 Clouds 24 1015 65 10000 8.2 10 20:41 20.09.2019
1594 Clouds 25 1015 65 10000 8.2 10 20:20 20.09.2019
1595 Clouds 25 1015 65 10000 8.2 10 20:20 20.09.2019
1596 Clouds 25 1015 65 10000 9.8 10 19:56 20.09.2019
1597 Clouds 25 1015 65 10000 10.8 20 19:37 20.09.2019
1598 Clouds 25 1015 65 10000 10.8 20 19:19 20.09.2019
1599 Clouds 26 1015 61 10000 11.3 30 18:39 20.09.2019
1600 Clouds 26 1015 61 10000 11.3 30 18:20 20.09.2019
1601 Clouds 26 1015 57 10000 12.3 30 17:57 20.09.2019
1602 Clouds 26 1015 57 10000 12.3 30 17:57 20.09.2019
1603 Clouds 26 1015 57 10000 12.3 30 17:57 20.09.2019
1604 Clouds 26 1015 61 10000 11.8 30 17:38 20.09.2019
1605 Clouds 26 1015 61 10000 11.8 30 17:18 20.09.2019
1606 Clouds 26 1016 61 10000 10.8 30 16:41 20.09.2019
1607 Clouds 26 1016 61 10000 10.8 30 16:41 20.09.2019
1608 Clouds 25 1016 61 10000 10.8 30 16:19 20.09.2019
1609 Clouds 25 1016 61 10000 10.8 30 15:43 20.09.2019
1610 Clouds 26 1017 57 10000 9.3 30 15:23 20.09.2019
1611 Clouds 26 1017 65 10000 10.3 20 14:57 20.09.2019
1612 Clouds 26 1017 65 10000 10.3 20 14:38 20.09.2019
1613 Clouds 26 1017 69 10000 9.8 30 14:18 20.09.2019
1614 Clouds 26 1017 57 10000 9.3 30 13:45 20.09.2019
1615 Clouds 26 1017 57 10000 9.3 30 13:27 20.09.2019
1616 Clouds 25 1018 65 10000 7.7 30 12:56 20.09.2019
1617 Clouds 25 1018 65 10000 7.2 30 12:36 20.09.2019
1618 Clouds 25 1018 65 10000 7.2 30 12:18 20.09.2019
1619 Clouds 25 1018 65 10000 7.2 30 12:18 20.09.2019
1620 Clouds 24 1018 61 10000 7.7 30 11:44 20.09.2019
1621 Clouds 24 1018 64 10000 6.2 10 11:19 20.09.2019
1622 Clouds 23 1018 69 10000 7.2 10 10:43 20.09.2019
1623 Clouds 23 1017 69 10000 5.7 360 10:22 20.09.2019
1624 Clouds 22 1016 69 10000 6.2 360 09:38 20.09.2019
1625 Clouds 22 1016 64 10000 6.7 360 09:19 20.09.2019
1626 Clouds 22 1015 64 10000 7.2 360 08:59 20.09.2019
1627 Clouds 22 1015 64 10000 7.2 360 08:59 20.09.2019
1628 Clouds 22 1015 69 10000 8.2 10 08:39 20.09.2019
1629 Clouds 22 1015 69 10000 8.2 10 08:39 20.09.2019
1630 Clouds 22 1015 69 10000 8.2 10 08:20 20.09.2019
1631 Clouds 22 1015 69 10000 8.2 350 07:41 20.09.2019
1632 Clouds 21 1015 73 10000 8.2 350 07:23 20.09.2019
1633 Clouds 21 1015 73 10000 6.2 360 06:43 20.09.2019
1634 Clouds 22 1016 73 10000 6.7 10 06:19 20.09.2019
1635 Clouds 22 1016 73 10000 7.2 360 05:22 20.09.2019
1636 Clouds 21 1017 78 10000 8.7 360 03:30 20.09.2019
1637 Clouds 22 1017 78 10000 7.2 360 02:44 20.09.2019
1638 Clouds 22 1017 78 10000 8.7 10 01:44 20.09.2019
1639 Clouds 22 1017 78 10000 8.7 10 01:44 20.09.2019
1640 Clouds 22 1017 73 10000 7.2 10 00:44 20.09.2019
1641 Clouds 23 1017 73 10000 7.7 360 23:59 19.09.2019
1642 Clouds 22 1017 73 10000 8.2 360 23:41 19.09.2019
1643 Clouds 22 1017 73 10000 8.2 360 23:18 19.09.2019
1644 Clouds 22 1016 73 10000 8.2 360 22:41 19.09.2019
1645 Clouds 23 1016 73 10000 8.2 360 22:23 19.09.2019
1646 Clouds 23 1016 78 10000 9.3 20 21:58 19.09.2019
1647 Clouds 22 1016 78 10000 9.3 20 21:39 19.09.2019
1648 Clouds 23 1016 69 10000 9.8 10 21:20 19.09.2019
1649 Clouds 24 1016 73 10000 10.3 20 20:59 19.09.2019
1650 Clouds 24 1016 73 10000 10.3 20 20:40 19.09.2019
1651 Clouds 24 1016 73 10000 11.3 20 20:19 19.09.2019
1652 Clouds 25 1016 69 10000 11.3 30 19:55 19.09.2019
1653 Clouds 25 1016 69 10000 10.8 20 19:37 19.09.2019
1654 Clouds 25 1016 69 10000 10.8 20 19:18 19.09.2019
1655 Clouds 24 1015 69 10000 12.3 30 18:42 19.09.2019
1656 Clouds 24 1015 69 10000 12.3 30 18:23 19.09.2019
1657 Clouds 25 1016 65 10000 11.3 30 17:44 19.09.2019
1658 Clouds 25 1016 57 10000 11.8 20 17:25 19.09.2019
1659 Clouds 26 1016 57 10000 10.8 10 16:59 19.09.2019
1660 Clouds 26 1016 57 10000 10.8 10 16:59 19.09.2019
1661 Clouds 25 1016 57 10000 10.8 10 16:40 19.09.2019
1662 Clouds 26 1016 54 10000 11.8 30 16:20 19.09.2019
1663 Clouds 26 1016 57 10000 11.8 30 15:41 19.09.2019
1664 Clouds 24 1017 65 10000 12.3 30 15:22 19.09.2019
1665 Clouds 24 1017 61 10000 11.8 30 14:58 19.09.2019
1666 Clouds 25 1017 61 10000 11.8 30 14:39 19.09.2019
1667 Clouds 25 1017 61 10000 12.3 30 14:20 19.09.2019
1668 Clouds 25 1017 57 10000 11.3 20 13:55 19.09.2019
1669 Clouds 26 1017 57 10000 9.8 20 13:36 19.09.2019
1670 Clouds 26 1017 57 10000 9.8 20 13:18 19.09.2019
1671 Clouds 25 1017 65 10000 9.8 20 12:36 19.09.2019
1672 Clouds 23 1017 65 10000 9.8 20 12:18 19.09.2019
1673 Clouds 24 1017 65 10000 9.8 20 11:41 19.09.2019
1674 Clouds 24 1017 64 10000 10.3 20 11:22 19.09.2019
1675 Clouds 23 1017 69 10000 9.3 10 10:58 19.09.2019
1676 Clouds 23 1016 73 10000 8.2 10 10:39 19.09.2019
1677 Clouds 22 1016 73 10000 8.2 10 10:21 19.09.2019
1678 Clouds 22 1016 78 10000 6.7 10 09:56 19.09.2019
1679 Clouds 21 1016 78 10000 6.7 10 09:38 19.09.2019
1680 Clouds 21 1016 78 10000 6.7 360 09:19 19.09.2019
1681 Clouds 21 1016 78 10000 6.7 360 08:49 19.09.2019
1682 Clouds 21 1016 78 10000 7.7 10 08:23 19.09.2019
1683 Clouds 21 1016 78 10000 7.2 10 07:44 19.09.2019
1684 Clouds 21 1016 73 10000 7.2 360 07:22 19.09.2019
1685 Clouds 21 1016 78 10000 8.7 10 06:54 19.09.2019
1686 Clouds 21 1016 78 10000 8.7 10 06:32 19.09.2019
1687 Clouds 21 1016 78 10000 8.2 10 05:53 19.09.2019
1688 Clouds 21 1016 78 10000 8.2 10 05:34 19.09.2019
1689 Clouds 21 1016 78 10000 8.2 10 05:34 19.09.2019
1690 Clouds 22 1016 78 10000 7.7 10 04:18 19.09.2019
1691 Clouds 22 1017 78 10000 8.2 10 03:19 19.09.2019
1692 Clouds 22 1017 78 10000 7.7 10 01:36 19.09.2019
1693 Clouds 22 1017 78 10000 8.2 10 00:53 19.09.2019
1694 Clouds 22 1017 78 10000 8.2 10 00:26 19.09.2019
1695 Clouds 22 1017 78 10000 7.7 10 23:57 18.09.2019
1696 Clouds 22 1017 78 10000 7.7 10 23:36 18.09.2019
1697 Clouds 22 1017 78 10000 7.7 10 23:18 18.09.2019
1698 Clouds 23 1017 78 10000 8.2 10 22:37 18.09.2019
1699 Clouds 23 1017 73 10000 8.7 10 22:19 18.09.2019
1700 Clouds 23 1017 73 10000 8.2 20 21:57 18.09.2019
1701 Clouds 23 1017 73 10000 8.2 20 21:38 18.09.2019
1702 Clouds 23 1016 73 10000 8.7 20 21:18 18.09.2019
1703 Clouds 24 1016 69 10000 9.3 10 20:56 18.09.2019
1704 Clouds 24 1016 69 10000 9.3 10 20:56 18.09.2019
1705 Clouds 24 1016 69 10000 9.3 10 20:38 18.09.2019
1706 Clouds 24 1016 69 10000 9.8 30 20:20 18.09.2019
1707 Clouds 25 1016 65 10000 9.3 30 19:55 18.09.2019
1708 Clouds 25 1016 61 10000 9.3 20 19:37 18.09.2019
1709 Clouds 25 1016 61 10000 9.3 20 19:18 18.09.2019
1710 Clouds 25 1016 65 10000 9.3 30 18:54 18.09.2019
1711 Clouds 25 1016 65 10000 9.3 30 18:54 18.09.2019
1712 Clouds 25 1016 65 10000 9.3 30 18:54 18.09.2019
1713 Clouds 26 1016 61 10000 9.8 30 18:36 18.09.2019
1714 Clouds 26 1016 61 10000 9.8 30 18:18 18.09.2019
1715 Clouds 25 1016 65 10000 9.8 30 17:41 18.09.2019
1716 Clouds 26 1016 65 10000 9.3 30 17:20 18.09.2019
1717 Clouds 26 1016 61 10000 9.8 30 16:59 18.09.2019
1718 Clouds 25 1016 61 10000 9.8 30 16:41 18.09.2019
1719 Clouds 25 1016 61 10000 10.3 30 16:22 18.09.2019
1720 Clouds 25 1017 61 10000 9.8 30 15:56 18.09.2019
1721 Clouds 25 1017 61 10000 9.8 30 15:56 18.09.2019
1722 Clouds 25 1017 61 10000 9.8 30 15:38 18.09.2019
1723 Clouds 25 1017 61 10000 10.8 30 15:20 18.09.2019
1724 Clouds 26 1017 57 10000 10.3 30 14:58 18.09.2019
1725 Clouds 26 1017 61 10000 10.8 30 14:39 18.09.2019
1726 Clouds 25 1017 61 10000 10.8 30 14:21 18.09.2019
1727 Clouds 25 1017 61 10000 10.3 20 13:57 18.09.2019
1728 Clouds 25 1017 61 10000 10.3 30 13:37 18.09.2019
1729 Clouds 25 1017 61 10000 10.3 30 13:18 18.09.2019
1730 Clouds 25 1017 61 10000 10.3 30 12:41 18.09.2019
1731 Clouds 25 1017 61 10000 10.3 30 12:22 18.09.2019
1732 Clouds 24 1017 61 10000 9.8 20 11:40 18.09.2019
1733 Clouds 24 1017 64 10000 10.3 20 11:20 18.09.2019
1734 Clouds 23 1017 69 10000 8.2 360 10:57 18.09.2019
1735 Clouds 23 1016 69 10000 7.7 10 10:39 18.09.2019
1736 Clouds 22 1016 69 10000 7.7 10 10:19 18.09.2019
1737 Clouds 22 1016 78 10000 7.2 10 09:54 18.09.2019
1738 Clouds 22 1016 73 10000 7.2 10 09:36 18.09.2019
1739 Clouds 22 1016 73 10000 7.2 10 09:18 18.09.2019
1740 Clouds 21 1016 73 10000 7.7 10 08:41 18.09.2019
1741 Clouds 22 1016 78 10000 7.2 10 08:21 18.09.2019
1742 Clouds 22 1016 78 10000 8.2 20 07:44 18.09.2019
1743 Clouds 22 1015 78 10000 7.7 360 07:23 18.09.2019
1744 Clouds 22 1015 78 10000 7.7 10 06:49 18.09.2019
1745 Clouds 22 1015 78 10000 8.7 20 06:26 18.09.2019
1746 Clouds 22 1015 78 10000 8.7 10 05:33 18.09.2019
1747 Clouds 22 1016 83 10000 7.7 10 03:42 18.09.2019
1748 Clouds 23 1016 73 10000 7.7 360 02:40 18.09.2019
1749 Clouds 22 1017 78 10000 7.7 20 01:50 18.09.2019
1750 Clouds 22 1017 78 10000 7.7 10 00:56 18.09.2019
1751 Clouds 22 1017 78 10000 8.2 20 00:33 18.09.2019
1752 Clouds 23 1017 78 10000 6.7 10 23:48 17.09.2019
1753 Clouds 23 1017 78 10000 6.7 10 23:48 17.09.2019
1754 Clouds 23 1017 78 10000 7.2 10 23:25 17.09.2019
1755 Clouds 23 1017 78 10000 7.2 10 23:25 17.09.2019
1756 Clouds 23 1017 78 10000 6.7 20 22:59 17.09.2019
1757 Clouds 23 1017 78 10000 6.7 20 22:41 17.09.2019
1758 Clouds 23 1016 78 10000 7.7 20 22:22 17.09.2019
1759 Clouds 23 1016 78 10000 8.2 20 21:54 17.09.2019
1760 Clouds 23 1016 78 10000 9.8 20 21:36 17.09.2019
1761 Clouds 23 1016 78 10000 9.8 20 21:18 17.09.2019
1762 Clouds 24 1016 73 10000 9.3 20 20:56 17.09.2019
1763 Clouds 24 1016 73 10000 9.3 20 20:38 17.09.2019
1764 Clouds 24 1016 73 10000 9.8 30 20:19 17.09.2019
1765 Clouds 24 1016 73 10000 9.8 30 19:54 17.09.2019
1766 Clouds 24 1016 73 10000 9.8 30 19:54 17.09.2019
1767 Clouds 24 1016 73 10000 10.3 30 19:36 17.09.2019
1768 Clouds 25 1016 73 10000 10.3 30 19:18 17.09.2019
1769 Clouds 25 1016 69 10000 10.8 30 18:42 17.09.2019
1770 Clouds 25 1016 69 10000 10.8 20 18:22 17.09.2019
1771 Clouds 25 1016 69 10000 10.3 20 17:56 17.09.2019
1772 Clouds 26 1016 61 10000 10.8 30 17:37 17.09.2019
1773 Clouds 25 1016 61 10000 10.8 30 17:18 17.09.2019
1774 Clouds 25 1016 61 10000 10.8 30 16:41 17.09.2019
1775 Clouds 25 1016 61 10000 10.8 30 16:41 17.09.2019
1776 Clouds 25 1016 69 10000 11.8 30 16:22 17.09.2019
1777 Clouds 25 1016 69 10000 11.3 30 15:58 17.09.2019
1778 Clouds 25 1016 69 10000 11.3 30 15:37 17.09.2019
1779 Clouds 25 1016 69 10000 10.8 30 15:19 17.09.2019
1780 Clouds 25 1017 69 10000 11.3 30 14:56 17.09.2019
1781 Clouds 25 1017 69 10000 10.8 30 14:37 17.09.2019
1782 Clouds 25 1017 69 10000 10.8 30 14:19 17.09.2019
1783 Clouds 25 1017 73 10000 10.8 30 13:42 17.09.2019
1784 Clouds 25 1017 73 10000 10.8 30 13:23 17.09.2019
1785 Clouds 25 1017 69 10000 10.8 30 12:56 17.09.2019
1786 Clouds 25 1017 69 10000 10.3 20 12:37 17.09.2019
1787 Clouds 25 1017 69 10000 10.3 20 12:18 17.09.2019
1788 Clouds 24 1017 78 10000 10.3 20 11:42 17.09.2019
1789 Clouds 24 1017 73 10000 9.8 20 11:24 17.09.2019
1790 Clouds 24 1017 73 10000 9.8 20 11:24 17.09.2019
1791 Clouds 23 1016 83 10000 9.3 10 10:43 17.09.2019
1792 Clouds 22 1016 78 10000 7.7 10 10:24 17.09.2019
1793 Clouds 22 1016 83 10000 8.2 10 09:59 17.09.2019
1794 Clouds 22 1016 83 10000 8.2 10 09:41 17.09.2019
1795 Clouds 22 1015 83 10000 8.2 10 09:21 17.09.2019
1796 Clouds 21 1015 83 10000 8.2 20 08:49 17.09.2019
1797 Clouds 21 1015 88 10000 8.2 10 08:30 17.09.2019
1798 Clouds 22 1015 88 10000 8.7 10 07:59 17.09.2019
1799 Clouds 22 1015 88 10000 8.7 10 07:39 17.09.2019
1800 Clouds 22 1015 88 10000 8.7 10 07:39 17.09.2019
1801 Clouds 22 1015 88 10000 8.7 10 07:39 17.09.2019
1802 Clouds 22 1015 88 10000 8.2 10 07:19 17.09.2019
1803 Clouds 22 1015 88 10000 8.7 10 06:45 17.09.2019
1804 Clouds 22 1015 88 10000 7.7 10 06:19 17.09.2019
1805 Clouds 22 1015 88 10000 6.7 20 05:44 17.09.2019
1806 Clouds 23 1016 83 10000 8.7 10 04:29 17.09.2019
1807 Clouds 22 1017 83 10000 9.8 10 02:57 17.09.2019
1808 Clouds 22 1017 83 10000 9.8 10 02:38 17.09.2019
1809 Clouds 23 1017 83 10000 8.7 360 01:24 17.09.2019
1810 Clouds 23 1017 88 10000 8.7 360 00:33 17.09.2019
1811 Clouds 23 1017 83 10000 6.7 20 23:38 16.09.2019
1812 Clouds 23 1017 83 10000 6.7 20 23:19 16.09.2019
1813 Clouds 23 1016 88 10000 7.2 10 22:43 16.09.2019
1814 Clouds 23 1015 88 10000 5.1 20 22:25 16.09.2019
1815 Clouds 24 1015 88 10000 7.7 20 21:59 16.09.2019
1816 Clouds 24 1016 83 10000 5.1 20 21:40 16.09.2019
1817 Clouds 23 1015 88 10000 7.7 20 21:40 16.09.2019
1818 Clouds 24 1016 83 10000 5.1 20 21:21 16.09.2019
1819 Clouds 24 1016 73 10000 3.1 50 20:59 16.09.2019
1820 Clouds 24 1016 73 10000 3.1 50 20:39 16.09.2019
1821 Clouds 25 1017 78 10000 1.5 50 20:19 16.09.2019
1822 Clouds 25 1016 78 10000 1.5 150 19:57 16.09.2019
1823 Clouds 25 1016 78 10000 1.5 150 19:38 16.09.2019
1824 Clouds 25 1016 69 10000 2.6 160 19:18 16.09.2019
1825 Clouds 25 1015 78 10000 2.6 60 18:45 16.09.2019
1826 Clouds 24 1016 65 10000 3.6 180 18:27 16.09.2019
1827 -273 0 0 0 0 0 17:57 16.09.2019
1828 Rain 24 1015 69 10000 3.1 160 17:38 16.09.2019
1829 Rain 24 1015 69 10000 3.1 160 17:19 16.09.2019
1830 Clouds 25 1016 61 10000 5.1 210 16:44 16.09.2019
1831 Thunderstorm 25 1016 57 10000 4.6 200 16:22 16.09.2019
1832 Clouds 25 1016 65 10000 2.6 210 15:57 16.09.2019
1833 Clouds 25 1016 65 10000 2.6 210 15:39 16.09.2019
1834 Clouds 24 1018 73 10000 4.1 210 15:20 16.09.2019
1835 Clouds 24 1017 83 10000 3.1 210 14:58 16.09.2019
1836 Rain 25 1017 83 10000 1.5 0 14:40 16.09.2019
1837 Rain 25 1017 83 10000 1.5 0 14:21 16.09.2019
1838 Clouds 24 1018 88 10000 2.1 220 13:43 16.09.2019
1839 Clouds 24 1017 88 10000 2.6 40 13:22 16.09.2019
1840 Clouds 24 1018 88 10000 4.1 20 12:59 16.09.2019
1841 Clouds 23 1018 88 10000 4.1 20 12:39 16.09.2019
1842 Rain 24 1017 88 10000 4.1 10 12:21 16.09.2019
1843 Clouds 23 1017 83 10000 8.7 10 11:46 16.09.2019
1844 Clouds 24 1017 83 10000 9.8 360 11:23 16.09.2019
1845 Clouds 23 1017 83 10000 8.7 30 10:56 16.09.2019
1846 Clouds 24 1017 83 10000 8.7 30 10:38 16.09.2019
1847 Clouds 23 1016 83 10000 12.9 30 10:19 16.09.2019
1848 -273 0 0 0 0 0 09:55 16.09.2019
1849 Clouds 23 1017 78 10000 9.8 20 09:36 16.09.2019
1850 Clouds 23 1017 78 10000 9.8 20 09:18 16.09.2019
1851 Clear 23 1016 73 10000 8.7 10 08:41 16.09.2019
1852 Clear 23 1017 78 10000 5.7 10 08:22 16.09.2019
1853 Clear 23 1017 78 10000 5.1 10 07:42 16.09.2019
1854 Clear 23 1016 83 10000 7.2 10 07:24 16.09.2019
1855 Clear 23 1016 83 10000 7.2 20 06:58 16.09.2019
1856 Clear 23 1016 83 10000 7.2 20 06:39 16.09.2019
1857 Clear 23 1016 78 10000 7.2 10 06:20 16.09.2019
1858 Clear 23 1016 78 10000 6.7 360 05:42 16.09.2019
1859 Clouds 23 1016 73 10000 8.7 350 05:21 16.09.2019
1860 Clear 23 1018 78 10000 5.7 20 03:37 16.09.2019
1861 Clear 24 1018 64 10000 5.1 360 01:20 16.09.2019
1862 Clear 24 1018 60 10000 6.7 350 00:38 16.09.2019
1863 Clear 24 1018 60 10000 6.7 350 00:20 16.09.2019
1864 Clear 24 1018 64 10000 6.7 360 23:39 15.09.2019
1865 Clear 24 1018 64 10000 6.7 360 23:20 15.09.2019
1866 Clear 24 1018 60 10000 6.7 10 22:40 15.09.2019
1867 Clear 24 1018 61 10000 5.7 360 22:21 15.09.2019
1868 Clear 24 1018 61 10000 5.7 360 22:21 15.09.2019
1869 Clear 24 1018 64 10000 5.7 360 21:58 15.09.2019
1870 Clear 24 1018 64 10000 5.7 360 21:39 15.09.2019
1871 Clear 24 1018 64 10000 5.7 360 21:39 15.09.2019
1872 Clear 24 1017 65 10000 7.2 360 21:39 15.09.2019
1873 Clear 25 1017 65 10000 7.2 360 21:21 15.09.2019
1874 Clear 25 1017 61 10000 6.7 10 20:57 15.09.2019
1875 Clear 25 1017 61 10000 6.7 10 20:57 15.09.2019
1876 Clear 25 1017 65 10000 6.7 10 20:38 15.09.2019
1877 Clear 26 1017 65 10000 6.7 10 20:20 15.09.2019
1878 Clear 27 1017 61 10000 7.2 20 19:42 15.09.2019
1879 Clear 27 1017 57 10000 7.2 30 19:22 15.09.2019
1880 Clear 26 1017 61 10000 7.7 30 18:42 15.09.2019
1881 Clear 27 1017 65 10000 7.2 30 18:24 15.09.2019
1882 Clear 28 1017 54 10000 6.7 20 17:56 15.09.2019
1883 Clouds 28 1017 54 10000 7.7 30 17:38 15.09.2019
1884 Clouds 27 1017 54 10000 7.7 30 17:20 15.09.2019
1885 Clouds 26 1017 54 10000 7.2 10 16:43 15.09.2019
1886 Clouds 27 1017 54 10000 7.7 10 16:25 15.09.2019
1887 Clouds 27 1018 54 10000 7.7 20 15:58 15.09.2019
1888 Clouds 27 1018 54 10000 7.7 20 15:40 15.09.2019
1889 Clouds 27 1018 54 10000 7.7 10 15:20 15.09.2019
1890 Clouds 26 1018 57 10000 9.3 10 14:57 15.09.2019
1891 Clouds 26 1018 57 10000 9.3 10 14:38 15.09.2019
1892 Clouds 27 1018 57 10000 9.3 10 14:20 15.09.2019
1893 Clouds 26 1018 65 10000 8.7 10 13:46 15.09.2019
1894 Clouds 26 1019 65 10000 9.3 20 13:24 15.09.2019
1895 Clouds 25 1019 65 10000 7.7 20 12:55 15.09.2019
1896 Clouds 26 1019 69 10000 7.7 20 12:36 15.09.2019
1897 Clouds 25 1019 69 10000 7.7 20 12:18 15.09.2019
1898 Clouds 24 1019 69 10000 7.7 20 11:42 15.09.2019
1899 Clouds 24 1018 69 10000 7.2 10 11:22 15.09.2019
1900 Clouds 23 1018 73 10000 6.2 360 10:56 15.09.2019
1901 Clouds 23 1018 73 10000 6.2 360 10:38 15.09.2019
1902 Clouds 22 1018 78 10000 5.1 350 10:19 15.09.2019
1903 Clouds 21 1018 77 10000 5.1 350 09:40 15.09.2019
1904 Clouds 21 1018 77 10000 5.7 350 09:20 15.09.2019
1905 Clouds 21 1018 77 10000 5.1 350 08:47 15.09.2019
1906 Clouds 21 1018 77 10000 5.1 350 08:47 15.09.2019
1907 Clouds 21 1018 77 10000 5.1 350 08:28 15.09.2019
1908 Clouds 21 1018 77 10000 5.1 350 07:49 15.09.2019
1909 Clouds 20 1017 77 10000 5.1 350 07:30 15.09.2019
1910 Clouds 21 1017 77 10000 4.6 360 06:43 15.09.2019
1911 Clouds 22 1018 83 10000 6.2 10 03:32 15.09.2019
1912 Clouds 22 1019 78 10000 5.7 360 02:42 15.09.2019
1913 Clouds 22 1019 83 10000 6.2 360 01:45 15.09.2019
1914 Clouds 22 1019 83 10000 6.2 360 01:45 15.09.2019
1915 Clouds 21 1019 83 10000 6.2 10 01:27 15.09.2019
1916 Clouds 22 1019 83 10000 7.2 20 00:46 15.09.2019
1917 Clouds 22 1019 78 10000 6.7 10 00:24 15.09.2019
1918 Clouds 23 1019 78 10000 6.7 10 23:59 14.09.2019
1919 Clouds 23 1019 78 10000 6.7 10 23:41 14.09.2019
1920 Clouds 23 1019 78 10000 7.7 10 23:21 14.09.2019
1921 Clouds 23 1018 78 10000 8.2 20 22:59 14.09.2019
1922 Clouds 23 1018 78 10000 8.2 20 22:40 14.09.2019
1923 Clouds 23 1018 78 10000 7.7 20 22:21 14.09.2019
1924 Clouds 22 1017 73 10000 7.7 10 21:57 14.09.2019
1925 Clouds 22 1017 73 10000 7.7 10 21:39 14.09.2019
1926 Clouds 23 1017 78 10000 8.2 20 21:19 14.09.2019
1927 Clouds 24 1017 73 10000 9.3 20 20:55 14.09.2019
1928 Clouds 24 1017 73 10000 9.3 20 20:36 14.09.2019
1929 Clouds 24 1017 73 10000 9.3 20 20:18 14.09.2019
1930 Clouds 25 1017 69 10000 9.3 30 19:44 14.09.2019
1931 Clouds 25 1017 69 10000 9.3 30 19:20 14.09.2019
1932 Clouds 26 1017 65 10000 9.8 30 18:54 14.09.2019
1933 Clouds 25 1017 65 10000 9.8 30 18:36 14.09.2019
1934 Clouds 25 1017 65 10000 9.8 30 18:18 14.09.2019
1935 Clouds 25 1017 65 10000 9.8 30 17:41 14.09.2019
1936 Clouds 26 1017 65 10000 9.3 30 17:22 14.09.2019
1937 Clouds 26 1017 61 10000 9.3 30 16:46 14.09.2019
1938 Clouds 25 1017 65 10000 8.7 30 16:26 14.09.2019
1939 Clouds 25 1018 69 10000 8.7 20 15:56 14.09.2019
1940 Clouds 25 1018 69 10000 8.7 20 15:56 14.09.2019
1941 Clouds 25 1018 69 10000 8.7 20 15:38 14.09.2019
1942 Clouds 26 1018 65 10000 8.7 30 15:19 14.09.2019
1943 Clouds 26 1018 69 10000 8.7 30 14:43 14.09.2019
1944 Clouds 25 1018 69 10000 9.3 30 14:19 14.09.2019
1945 Clouds 25 1018 69 10000 9.3 30 14:19 14.09.2019
1946 Clouds 25 1019 69 10000 9.3 30 13:48 14.09.2019
1947 Clouds 25 1019 65 10000 9.3 30 13:23 14.09.2019
1948 Clouds 25 1019 65 10000 8.7 30 12:58 14.09.2019
1949 Clouds 25 1019 69 10000 8.7 20 12:37 14.09.2019
1950 Clouds 24 1019 69 10000 8.7 20 12:18 14.09.2019
1951 Clouds 24 1018 61 10000 7.7 360 11:40 14.09.2019
1952 Clouds 23 1018 64 10000 6.7 10 11:19 14.09.2019
1953 Clouds 22 1018 73 10000 6.7 10 10:38 14.09.2019
1954 Clouds 23 1018 69 10000 6.2 360 10:20 14.09.2019
1955 Clouds 21 1018 68 10000 6.2 350 09:57 14.09.2019
1956 Clouds 21 1018 68 10000 6.2 350 09:39 14.09.2019
1957 Clouds 20 1017 73 10000 5.7 350 09:19 14.09.2019
1958 Clouds 20 1017 73 10000 5.1 360 08:46 14.09.2019
1959 Clouds 20 1017 68 10000 6.2 360 08:23 14.09.2019
1960 Clouds 20 1017 73 10000 5.7 360 07:47 14.09.2019
1961 Clouds 20 1017 68 10000 6.2 350 07:28 14.09.2019
1962 Clouds 20 1017 73 10000 5.7 360 06:52 14.09.2019
1963 Clouds 21 1017 68 10000 5.7 360 06:28 14.09.2019
1964 Clouds 21 1017 68 10000 5.7 360 06:28 14.09.2019
1965 Clouds 21 1017 78 10000 6.7 10 05:26 14.09.2019
1966 Clouds 21 1018 68 10000 6.7 360 03:46 14.09.2019
1967 Clouds 21 1018 68 10000 5.7 360 02:54 14.09.2019
1968 Clouds 21 1018 68 10000 5.7 360 02:54 14.09.2019
1969 Clouds 22 1018 64 10000 7.7 360 01:51 14.09.2019
1970 Clouds 22 1018 69 10000 8.2 350 01:23 14.09.2019
1971 Clouds 22 1018 69 10000 8.2 350 00:58 14.09.2019
1972 Clouds 22 1018 69 10000 8.2 350 00:38 14.09.2019
1973 Clouds 22 1018 73 10000 8.2 360 00:20 14.09.2019
1974 Clouds 22 1018 69 10000 7.7 360 23:38 13.09.2019
1975 Clouds 21 1018 69 10000 7.7 360 23:19 13.09.2019
1976 Clouds 21 1018 69 10000 7.7 360 23:19 13.09.2019
1977 Clouds 22 1018 69 10000 8.7 10 22:58 13.09.2019
1978 Clouds 22 1018 69 10000 8.7 10 22:38 13.09.2019
1979 Clouds 22 1018 69 10000 8.7 10 22:38 13.09.2019
1980 Clouds 22 1018 69 10000 8.7 10 22:20 13.09.2019
1981 Clouds 23 1017 69 10000 8.7 10 21:42 13.09.2019
1982 Clouds 24 1017 60 10000 9.3 10 21:20 13.09.2019
1983 Clouds 24 1017 61 10000 9.8 20 20:59 13.09.2019
1984 Clouds 24 1017 61 10000 9.8 20 20:40 13.09.2019
1985 Clouds 24 1017 69 10000 8.7 20 20:21 13.09.2019
1986 Clouds 25 1017 65 10000 10.3 30 19:56 13.09.2019
1987 Clouds 24 1017 61 10000 10.3 20 19:38 13.09.2019
1988 Clouds 24 1017 61 10000 10.3 20 19:19 13.09.2019
1989 Clouds 25 1017 61 10000 11.3 30 18:55 13.09.2019
1990 Clouds 25 1017 61 10000 12.3 30 18:36 13.09.2019
1991 Clouds 25 1017 61 10000 12.3 30 18:18 13.09.2019
1992 Clouds 27 1016 54 10000 12.3 20 17:38 13.09.2019
1993 Clouds 26 1016 54 10000 12.3 20 17:19 13.09.2019
1994 Clouds 26 1016 54 10000 12.3 20 17:19 13.09.2019
1995 Clouds 27 1016 54 10000 13.4 20 16:41 13.09.2019
1996 Clouds 26 1017 61 10000 13.9 20 16:21 13.09.2019
1997 Clouds 26 1017 61 10000 12.9 30 15:57 13.09.2019
1998 Clouds 26 1017 57 10000 12.9 20 15:39 13.09.2019
1999 Clouds 26 1017 57 10000 12.9 20 15:20 13.09.2019
2000 Clouds 25 1017 61 10000 12.9 30 14:41 13.09.2019
2001 Clouds 25 1017 61 10000 12.9 30 14:41 13.09.2019
2002 Clouds 25 1018 61 10000 12.3 30 14:22 13.09.2019
2003 Clouds 25 1018 61 10000 12.3 30 14:22 13.09.2019
2004 Clouds 25 1018 61 10000 12.3 20 13:54 13.09.2019
2005 Clouds 26 1018 57 10000 12.3 20 13:36 13.09.2019
2006 Clouds 25 1018 57 10000 12.3 20 13:18 13.09.2019
2007 Clouds 25 1018 57 10000 11.8 10 12:41 13.09.2019
2008 Clouds 24 1018 64 10000 10.8 10 12:22 13.09.2019
2009 Clouds 24 1018 64 10000 11.8 10 11:55 13.09.2019
2010 Clouds 23 1017 69 10000 9.8 360 11:19 13.09.2019
2011 Clouds 23 1017 69 10000 9.8 360 11:19 13.09.2019
2012 Clouds 23 1017 64 10000 9.8 360 10:39 13.09.2019
2013 Clouds 23 1017 64 10000 9.8 360 10:39 13.09.2019
2014 Clouds 23 1017 69 10000 7.2 360 10:19 13.09.2019
2015 Clouds 22 1017 73 10000 8.2 360 09:45 13.09.2019
2016 Clouds 22 1017 78 10000 8.7 10 09:24 13.09.2019
2017 Clouds 21 1016 73 10000 8.2 360 08:58 13.09.2019
2018 Clouds 21 1016 73 10000 8.2 360 08:40 13.09.2019
2019 Clouds 21 1016 73 10000 8.2 360 08:20 13.09.2019
2020 Clouds 20 1016 73 10000 8.7 360 07:46 13.09.2019
2021 Clouds 22 1016 69 10000 8.2 360 07:27 13.09.2019
2022 Clouds 22 1016 64 10000 8.2 360 06:47 13.09.2019
2023 Clouds 23 1016 64 10000 9.8 360 05:49 13.09.2019
2024 Clouds 23 1017 64 10000 8.7 360 04:57 13.09.2019
2025 Clouds 21 1017 60 10000 9.3 10 03:40 13.09.2019
2026 Clouds 23 1017 50 10000 8.7 360 02:20 13.09.2019
2027 Clouds 23 1018 50 10000 10.8 350 01:59 13.09.2019
2028 Clouds 22 1018 50 10000 10.3 350 01:33 13.09.2019
2029 Clouds 22 1018 47 10000 9.8 350 00:47 13.09.2019
2030 Clouds 22 1018 47 10000 10.8 340 00:21 13.09.2019
2031 Clouds 22 1018 47 10000 10.8 350 23:38 12.09.2019
2032 Clouds 23 1018 47 10000 10.8 350 23:19 12.09.2019
2033 Clouds 23 1017 50 10000 11.3 350 22:42 12.09.2019
2034 Clouds 22 1017 53 10000 10.3 350 22:23 12.09.2019
2035 Clouds 23 1017 64 10000 9.8 360 21:57 12.09.2019
2036 Clouds 23 1017 64 10000 12.3 360 21:38 12.09.2019
2037 Clouds 23 1017 64 10000 12.3 360 21:38 12.09.2019
2038 Clouds 23 1017 64 10000 12.3 360 21:19 12.09.2019
2039 Clouds 23 1016 64 10000 12.9 360 20:56 12.09.2019
2040 Clouds 23 1016 64 10000 12.9 360 20:37 12.09.2019
2041 Clouds 24 1017 57 10000 12.3 360 20:19 12.09.2019
2042 Clouds 24 1017 57 10000 12.3 360 20:19 12.09.2019
2043 Clouds 24 1017 57 10000 12.3 360 20:19 12.09.2019
2044 Clouds 24 1016 54 10000 13.4 10 19:42 12.09.2019
2045 Clouds 24 1016 54 10000 13.4 10 19:20 12.09.2019
2046 Clouds 26 1016 51 10000 12.3 10 18:58 12.09.2019
2047 Clouds 25 1016 50 10000 13.4 360 18:37 12.09.2019
2048 Clouds 25 1016 50 10000 13.4 360 18:18 12.09.2019
2049 -273 0 0 0 0 0 17:54 12.09.2019
2050 Clouds 25 1017 54 10000 13.4 10 17:36 12.09.2019
2051 Clouds 25 1017 54 10000 13.4 10 17:18 12.09.2019
2052 Clouds 26 1017 51 10000 12.9 10 16:41 12.09.2019
2053 Clouds 26 1017 47 10000 12.3 360 16:21 12.09.2019
2054 Clouds 25 1018 50 10000 13.4 10 15:43 12.09.2019
2055 Clouds 25 1018 54 10000 13.9 10 15:24 12.09.2019
2056 Clouds 25 1018 51 10000 12.9 360 14:58 12.09.2019
2057 Clouds 26 1018 51 10000 12.9 360 14:39 12.09.2019
2058 Clouds 25 1018 54 10000 13.4 360 14:20 12.09.2019
2059 Clouds 25 1019 50 10000 13.9 10 13:39 12.09.2019
2060 Clouds 24 1019 53 10000 13.4 10 13:21 12.09.2019
2061 Clouds 25 1019 50 10000 11.8 360 12:49 12.09.2019
2062 Clouds 24 1019 53 10000 11.8 360 12:20 12.09.2019
2063 Clouds 24 1018 57 10000 13.4 350 11:58 12.09.2019
2064 Clouds 24 1018 57 10000 13.4 350 11:40 12.09.2019
2065 Clouds 23 1018 60 10000 12.3 360 11:21 12.09.2019
2066 Clouds 22 1018 64 10000 11.3 350 10:54 12.09.2019
2067 Clouds 22 1017 64 10000 10.3 350 10:36 12.09.2019
2068 Clouds 22 1017 64 10000 10.3 350 10:18 12.09.2019
2069 Clouds 21 1017 68 10000 11.3 350 09:42 12.09.2019
2070 Clouds 21 1017 68 10000 11.3 350 09:20 12.09.2019
2071 Clouds 21 1016 68 10000 11.8 350 08:44 12.09.2019
2072 Clouds 21 1016 68 10000 11.3 360 08:23 12.09.2019
2073 Clouds 21 1016 68 10000 9.8 360 07:55 12.09.2019
2074 Clouds 20 1016 73 10000 10.8 360 07:36 12.09.2019
2075 Clouds 20 1016 73 10000 10.8 360 07:18 12.09.2019
2076 Clouds 21 1017 64 10000 9.3 360 06:45 12.09.2019
2077 Clouds 21 1017 60 10000 8.7 360 05:59 12.09.2019
2078 Clouds 21 1017 60 10000 8.7 360 05:39 12.09.2019
2079 Clouds 20 1017 60 10000 9.3 350 04:47 12.09.2019
2080 Clouds 20 1018 60 10000 9.3 360 03:46 12.09.2019
2081 Clouds 21 1018 68 10000 11.3 360 01:43 12.09.2019
2082 Clouds 21 1018 64 10000 10.8 360 01:24 12.09.2019
2083 Clouds 22 1018 64 10000 10.3 350 00:48 12.09.2019
2084 Clouds 22 1019 64 10000 10.3 360 00:29 12.09.2019
2085 Clouds 22 1019 68 10000 9.8 360 23:44 11.09.2019
2086 Clouds 23 1018 64 10000 11.3 360 23:25 11.09.2019
2087 Clouds 23 1018 64 10000 11.3 360 22:58 11.09.2019
2088 Clouds 23 1018 64 10000 11.3 360 22:38 11.09.2019
2089 Clouds 23 1017 64 10000 11.8 360 22:20 11.09.2019
2090 Clouds 23 1017 64 10000 11.8 350 21:58 11.09.2019
2091 Clouds 23 1017 64 10000 11.8 350 21:40 11.09.2019
2092 Clouds 23 1017 64 10000 12.3 10 21:22 11.09.2019
2093 Clouds 24 1017 60 10000 12.9 20 20:56 11.09.2019
2094 Clouds 24 1017 60 10000 12.9 20 20:37 11.09.2019
2095 Clouds 24 1017 60 10000 12.9 20 20:18 11.09.2019
2096 Clouds 24 1017 64 10000 13.9 20 19:55 11.09.2019
2097 Clouds 24 1017 64 10000 13.9 20 19:55 11.09.2019
2098 Clouds 25 1017 69 10000 13.9 20 19:37 11.09.2019
2099 Clouds 25 1017 69 10000 13.9 20 19:19 11.09.2019
2100 Clouds 25 1018 69 10000 13.4 10 18:42 11.09.2019
2101 Clouds 26 1018 65 10000 13.4 10 18:23 11.09.2019
2102 Clouds 26 1018 65 10000 13.4 10 18:23 11.09.2019
2103 Clouds 26 1018 69 10000 13.9 20 17:58 11.09.2019
2104 Clouds 26 1018 69 10000 13.9 20 17:40 11.09.2019
2105 Clouds 26 1018 73 10000 14.9 20 17:21 11.09.2019
2106 Clouds 26 1018 51 10000 11.8 10 16:56 11.09.2019
2107 Clouds 26 1019 51 10000 12.3 10 16:36 11.09.2019
2108 Clouds 26 1019 51 10000 12.3 10 16:18 11.09.2019
2109 Clouds 26 1019 51 10000 12.9 10 15:46 11.09.2019
2110 Clouds 26 1019 57 10000 14.4 20 15:23 11.09.2019
2111 Clouds 26 1020 51 10000 12.9 10 14:57 11.09.2019
2112 Clouds 26 1020 51 10000 12.9 10 14:38 11.09.2019
2113 Clouds 26 1020 50 10000 13.4 20 14:19 11.09.2019
2114 -273 0 0 0 0 0 13:55 11.09.2019
2115 Clouds 26 1020 54 10000 12.9 20 13:36 11.09.2019
2116 Clouds 25 1020 54 10000 12.9 20 13:18 11.09.2019
2117 Clouds 25 1020 53 10000 10.3 350 12:41 11.09.2019
2118 Clouds 25 1020 50 10000 10.8 10 12:21 11.09.2019
2119 Clouds 24 1020 57 10000 10.8 360 11:55 11.09.2019
2120 Clouds 23 1020 60 10000 11.3 10 11:36 11.09.2019
2121 Clouds 23 1020 60 10000 11.3 10 11:18 11.09.2019
2122 Clouds 23 1020 64 10000 11.3 10 10:40 11.09.2019
2123 Clouds 23 1020 64 10000 10.8 10 10:22 11.09.2019
2124 Clouds 22 1020 69 10000 9.3 10 09:41 11.09.2019
2125 Clouds 22 1019 69 10000 9.3 360 09:20 11.09.2019
2126 Clouds 22 1019 60 10000 8.7 360 08:59 11.09.2019
2127 Clouds 22 1019 60 10000 7.7 10 08:39 11.09.2019
2128 Clouds 22 1019 60 10000 7.7 10 08:21 11.09.2019
2129 Clouds 22 1019 60 10000 10.3 10 07:46 11.09.2019
2130 Clouds 22 1019 69 10000 8.2 10 07:23 11.09.2019
2131 Clouds 22 1019 64 10000 8.7 350 06:53 11.09.2019
2132 Clouds 22 1019 73 10000 8.7 350 06:35 11.09.2019
2133 Clouds 22 1019 73 10000 9.8 10 05:49 11.09.2019
2134 Clouds 22 1019 69 10000 8.2 360 05:28 11.09.2019
2135 Clouds 22 1019 69 10000 8.7 360 04:51 11.09.2019
2136 Clouds 22 1020 73 10000 7.7 360 03:36 11.09.2019
2137 Clouds 22 1020 73 10000 7.2 360 02:56 11.09.2019
2138 Clouds 23 1021 73 10000 7.7 360 02:26 11.09.2019
2139 Clouds 23 1021 73 10000 8.2 360 00:53 11.09.2019
2140 Clouds 23 1021 73 10000 8.2 360 00:29 11.09.2019
2141 Clouds 23 1021 73 10000 8.2 360 23:56 10.09.2019
2142 Clouds 23 1021 73 10000 8.7 10 23:38 10.09.2019
2143 Clouds 23 1021 73 10000 8.7 10 23:20 10.09.2019
2144 Clouds 23 1021 73 10000 9.3 10 22:41 10.09.2019
2145 Clouds 23 1020 78 10000 10.8 20 22:20 10.09.2019
2146 Clouds 23 1020 78 10000 10.3 10 21:56 10.09.2019
2147 Clouds 23 1020 78 10000 10.3 10 21:38 10.09.2019
2148 Clouds 24 1020 73 10000 10.8 10 21:20 10.09.2019
2149 Clouds 24 1020 73 10000 11.3 20 20:58 10.09.2019
2150 Clouds 25 1020 78 10000 11.3 20 20:39 10.09.2019
2151 Clouds 25 1020 78 10000 11.3 20 20:21 10.09.2019
2152 Clouds 25 1020 73 10000 12.3 20 19:57 10.09.2019
2153 Clouds 26 1020 69 10000 12.3 20 19:37 10.09.2019
2154 Clouds 26 1020 69 10000 12.3 20 19:19 10.09.2019
2155 Clouds 25 1019 65 10000 11.8 10 18:55 10.09.2019
2156 Clouds 26 1019 57 10000 12.3 10 18:37 10.09.2019
2157 Clouds 27 1019 57 10000 12.3 10 18:19 10.09.2019
2158 Clouds 26 1020 57 10000 11.3 30 17:43 10.09.2019
2159 Clouds 26 1020 61 10000 10.8 20 17:23 10.09.2019
2160 Clouds 26 1020 57 10000 10.8 20 16:59 10.09.2019
2161 Clouds 27 1020 57 10000 10.8 20 16:39 10.09.2019
2162 Clear 26 1020 61 10000 9.8 20 16:21 10.09.2019
2163 Clear 26 1021 61 10000 9.8 20 15:59 10.09.2019
2164 Clear 27 1021 57 10000 9.3 20 15:40 10.09.2019
2165 Clear 27 1021 57 10000 9.3 20 15:20 10.09.2019
2166 Clouds 27 1021 57 10000 9.3 20 14:41 10.09.2019
2167 Clear 27 1022 57 10000 8.2 10 14:23 10.09.2019
2168 Clouds 26 1022 54 10000 8.2 20 13:56 10.09.2019
2169 Clouds 26 1022 61 10000 9.3 30 13:37 10.09.2019
2170 Clouds 25 1022 61 10000 9.3 30 13:19 10.09.2019
2171 Clouds 25 1022 65 10000 8.7 20 12:43 10.09.2019
2172 Clouds 25 1022 65 10000 8.7 20 12:24 10.09.2019
2173 Clouds 24 1022 69 10000 9.8 20 11:56 10.09.2019
2174 Clouds 24 1022 73 10000 8.7 10 11:38 10.09.2019
2175 Clouds 23 1022 73 10000 8.7 10 11:20 10.09.2019
2176 Clouds 23 1021 73 10000 7.7 10 10:39 10.09.2019
2177 Clouds 23 1021 73 10000 7.7 10 10:19 10.09.2019
2178 Clouds 23 1021 73 10000 7.7 10 10:19 10.09.2019
2179 Clouds 22 1021 73 10000 7.2 10 09:55 10.09.2019
2180 Clouds 22 1020 73 10000 9.3 360 09:37 10.09.2019
2181 Clouds 22 1020 73 10000 9.3 360 09:18 10.09.2019
2182 Clouds 21 1020 73 10000 8.7 10 08:43 10.09.2019
2183 Clouds 22 1020 78 10000 6.7 360 08:24 10.09.2019
2184 Clouds 21 1020 78 10000 8.7 10 07:44 10.09.2019
2185 Clouds 22 1020 78 10000 7.7 10 07:26 10.09.2019
2186 Clouds 22 1020 78 10000 8.7 10 06:51 10.09.2019
2187 Clouds 22 1020 78 10000 8.2 10 06:32 10.09.2019
2188 Clouds 22 1019 78 10000 8.7 10 04:57 10.09.2019
2189 Clouds 22 1020 78 10000 6.7 360 03:48 10.09.2019
2190 Clouds 22 1021 83 10000 8.2 10 02:23 10.09.2019
2191 Clouds 22 1021 83 10000 8.2 10 02:23 10.09.2019
2192 Clouds 22 1021 83 10000 8.2 10 01:55 10.09.2019
2193 Clouds 22 1021 83 10000 7.7 10 01:37 10.09.2019
2194 Clouds 23 1021 78 10000 8.7 10 00:44 10.09.2019
2195 Clouds 23 1021 78 10000 8.7 10 00:24 10.09.2019
2196 Clouds 23 1020 78 10000 9.8 10 23:46 09.09.2019
2197 Clouds 23 1020 78 10000 9.8 10 23:20 09.09.2019
2198 Clouds 23 1020 78 10000 9.8 20 22:56 09.09.2019
2199 Clouds 23 1020 78 10000 9.3 20 22:38 09.09.2019
2200 Clouds 23 1020 78 10000 9.3 20 22:20 09.09.2019
2201 Clouds 23 1019 78 10000 9.3 10 21:56 09.09.2019
2202 Clouds 23 1019 78 10000 9.8 20 21:37 09.09.2019
2203 Clouds 23 1019 78 10000 9.8 20 21:19 09.09.2019
2204 Clouds 24 1019 73 10000 10.8 20 20:55 09.09.2019
2205 Clouds 24 1018 73 10000 10.8 20 20:37 09.09.2019
2206 Clouds 24 1018 73 10000 10.8 20 20:19 09.09.2019
2207 Clear 25 1018 69 10000 11.8 20 19:57 09.09.2019
2208 Clear 25 1018 69 10000 11.3 20 19:38 09.09.2019
2209 Clear 25 1018 69 10000 11.3 20 19:19 09.09.2019
2210 Clear 26 1018 61 10000 11.3 20 18:57 09.09.2019
2211 Clear 26 1018 69 10000 11.8 20 18:38 09.09.2019
2212 Clear 26 1018 69 10000 11.8 20 18:20 09.09.2019
2213 Clouds 26 1019 69 10000 11.8 30 17:57 09.09.2019
2214 Clouds 26 1019 65 10000 10.8 30 17:39 09.09.2019
2215 Clouds 26 1019 65 10000 10.8 30 17:20 09.09.2019
2216 Clouds 27 1019 65 10000 9.8 30 16:55 09.09.2019
2217 Clouds 26 1019 69 10000 10.3 30 16:37 09.09.2019
2218 Clouds 25 1019 69 10000 10.3 30 16:18 09.09.2019
2219 Clouds 26 1019 61 10000 11.3 30 15:44 09.09.2019
2220 Clear 25 1019 65 10000 11.3 20 15:24 09.09.2019
2221 Clear 26 1019 61 10000 10.8 20 14:59 09.09.2019
2222 Clouds 26 1020 65 10000 10.8 30 14:40 09.09.2019
2223 Clouds 26 1020 65 10000 10.8 30 14:21 09.09.2019
2224 Clouds 25 1020 61 10000 11.3 30 13:57 09.09.2019
2225 Clouds 25 1020 65 10000 11.3 30 13:39 09.09.2019
2226 Clouds 25 1020 65 10000 11.3 30 13:18 09.09.2019
2227 Clouds 25 1020 65 10000 9.8 30 12:54 09.09.2019
2228 Clouds 25 1020 69 10000 9.8 20 12:36 09.09.2019
2229 Clouds 25 1020 69 10000 9.8 20 12:18 09.09.2019
2230 Clouds 24 1019 69 10000 10.3 20 11:43 09.09.2019
2231 Clouds 24 1019 69 10000 10.3 20 11:20 09.09.2019
2232 Clouds 23 1019 78 10000 7.2 10 10:42 09.09.2019
2233 Clouds 23 1019 78 10000 7.2 10 10:24 09.09.2019
2234 Clouds 22 1018 78 10000 7.7 360 09:59 09.09.2019
2235 Clouds 21 1018 78 10000 7.2 360 09:40 09.09.2019
2236 Clouds 21 1018 78 10000 7.2 360 09:22 09.09.2019
2237 Clouds 21 1018 78 10000 7.2 360 08:55 09.09.2019
2238 Clouds 21 1017 83 10000 6.7 360 08:37 09.09.2019
2239 Clouds 21 1017 83 10000 6.7 360 08:18 09.09.2019
2240 Clouds 21 1017 83 10000 7.7 10 07:40 09.09.2019
2241 Clouds 21 1017 83 10000 7.7 10 07:20 09.09.2019
2242 Clouds 22 1017 78 10000 8.7 10 06:50 09.09.2019
2243 Clouds 22 1017 73 10000 8.2 10 05:56 09.09.2019
2244 Clouds 22 1018 73 10000 7.2 10 03:21 09.09.2019
2245 Clouds 22 1018 73 10000 7.7 10 02:41 09.09.2019
2246 Clouds 22 1018 78 10000 8.7 360 01:22 09.09.2019
2247 Clouds 23 1019 78 10000 7.2 10 00:24 09.09.2019
2248 Clouds 22 1018 78 10000 7.2 10 23:47 08.09.2019
2249 Clouds 23 1018 78 10000 8.7 10 23:29 08.09.2019
2250 Clouds 22 1018 78 10000 8.2 20 22:59 08.09.2019
2251 Clouds 23 1017 78 10000 9.8 10 22:39 08.09.2019
2252 Clouds 22 1017 78 10000 9.8 10 22:21 08.09.2019
2253 Clouds 23 1017 73 10000 9.3 10 21:58 08.09.2019
2254 Clouds 24 1016 73 10000 10.3 20 21:39 08.09.2019
2255 Clouds 24 1016 73 10000 10.3 20 21:39 08.09.2019
2256 Clouds 23 1016 73 10000 10.3 20 21:21 08.09.2019
2257 Clouds 24 1016 69 10000 10.8 20 20:41 08.09.2019
2258 Clouds 24 1016 69 10000 10.8 20 20:22 08.09.2019
2259 Clouds 24 1016 73 10000 12.3 30 19:59 08.09.2019
2260 Clouds 24 1016 73 10000 12.3 30 19:39 08.09.2019
2261 Clouds 25 1016 73 10000 12.3 30 19:21 08.09.2019
2262 Clouds 26 1016 69 10000 11.8 30 18:58 08.09.2019
2263 Clouds 26 1016 69 10000 11.8 20 18:39 08.09.2019
2264 Clouds 26 1016 69 10000 11.8 20 18:19 08.09.2019
2265 Clouds 26 1016 69 10000 12.3 30 17:58 08.09.2019
2266 Clouds 26 1016 69 10000 11.8 30 17:37 08.09.2019
2267 Clouds 27 1016 69 10000 11.8 30 17:18 08.09.2019
2268 Clouds 26 1017 69 10000 10.8 30 16:54 08.09.2019
2269 Clouds 26 1017 74 10000 9.8 30 16:36 08.09.2019
2270 Clouds 26 1017 74 10000 9.8 30 16:18 08.09.2019
2271 Clouds 26 1017 74 10000 9.3 40 15:41 08.09.2019
2272 Clouds 25 1017 74 10000 9.3 40 15:22 08.09.2019
2273 Clouds 25 1017 74 10000 9.3 30 14:59 08.09.2019
2274 Clouds 25 1017 74 10000 10.3 30 14:39 08.09.2019
2275 Clouds 25 1017 74 10000 10.3 30 14:20 08.09.2019
2276 Clouds 26 1017 74 10000 10.8 30 13:57 08.09.2019
2277 Clouds 25 1017 73 10000 10.8 30 13:38 08.09.2019
2278 Clouds 25 1017 73 10000 10.8 30 13:20 08.09.2019
2279 Clouds 24 1017 57 10000 5.7 10 12:43 08.09.2019
2280 Clouds 26 1017 57 10000 5.7 10 12:24 08.09.2019
2281 Clouds 26 1017 57 10000 5.7 10 12:24 08.09.2019
2282 Clouds 24 1017 54 10000 5.7 360 11:59 08.09.2019
2283 Clouds 23 1016 54 10000 5.7 10 11:40 08.09.2019
2284 Clouds 23 1016 54 10000 5.7 10 11:20 08.09.2019
2285 Clouds 23 1016 54 10000 5.1 340 10:58 08.09.2019
2286 Clouds 24 1016 57 10000 5.7 340 10:40 08.09.2019
2287 Clouds 22 1016 57 10000 5.7 340 10:22 08.09.2019
2288 Clouds 22 1016 64 10000 4.1 360 09:39 08.09.2019
2289 Clouds 21 1016 64 10000 4.1 360 09:21 08.09.2019
2290 Clouds 21 1016 64 10000 3.1 350 08:57 08.09.2019
2291 Clouds 21 1016 69 10000 4.1 350 08:39 08.09.2019
2292 Clouds 21 1016 69 10000 4.1 350 08:18 08.09.2019
2293 Clouds 22 1016 73 10000 5.7 360 07:40 08.09.2019
2294 Clouds 22 1016 73 10000 5.7 360 07:21 08.09.2019
2295 Clouds 22 1015 73 10000 5.1 10 06:53 08.09.2019
2296 Clouds 22 1015 73 10000 5.1 10 06:53 08.09.2019
2297 Clouds 22 1015 69 10000 5.1 360 06:33 08.09.2019
2298 Clouds 21 1016 68 10000 2.6 320 05:38 08.09.2019
2299 Clouds 22 1016 69 10000 4.6 360 04:18 08.09.2019
2300 Clouds 22 1016 69 10000 7.2 360 02:59 08.09.2019
2301 Clouds 21 1016 69 10000 8.7 350 02:29 08.09.2019
2302 Clouds 21 1016 64 10000 6.7 360 01:52 08.09.2019
2303 Clouds 21 1016 64 10000 6.2 360 01:22 08.09.2019
2304 Clouds 21 1017 64 10000 4.6 360 00:45 08.09.2019
2305 Clouds 23 1017 64 10000 6.2 350 00:27 08.09.2019
2306 Clouds 21 1017 64 10000 6.2 360 23:39 07.09.2019
2307 Clouds 22 1017 64 10000 6.2 360 23:21 07.09.2019
2308 Clouds 23 1017 64 10000 6.7 360 22:58 07.09.2019
2309 Clouds 22 1017 60 10000 6.7 360 22:39 07.09.2019
2310 Clouds 22 1017 60 10000 6.7 360 22:20 07.09.2019
2311 Clouds 22 1016 60 10000 6.7 360 21:43 07.09.2019
2312 Clouds 23 1016 53 10000 6.7 360 21:25 07.09.2019
2313 Clouds 23 1016 53 10000 8.2 10 20:58 07.09.2019
2314 Clouds 23 1016 57 10000 8.7 360 20:39 07.09.2019
2315 Clouds 23 1016 57 10000 8.7 360 20:20 07.09.2019
2316 Clouds 24 1015 54 10000 7.7 360 19:55 07.09.2019
2317 Clouds 24 1015 57 10000 3.6 300 19:37 07.09.2019
2318 Clouds 24 1015 57 10000 3.6 300 19:19 07.09.2019
2319 Clouds 25 1015 54 10000 6.2 350 18:56 07.09.2019
2320 Clouds 25 1015 51 10000 10.3 30 18:37 07.09.2019
2321 Clouds 25 1015 51 10000 10.3 30 18:18 07.09.2019
2322 Clouds 25 1015 51 10000 10.3 30 18:18 07.09.2019
2323 Clouds 25 1015 48 10000 7.7 10 17:56 07.09.2019
2324 Clouds 25 1015 48 10000 7.7 10 17:56 07.09.2019
2325 Clouds 25 1015 48 10000 7.7 10 17:56 07.09.2019
2326 Clouds 25 1016 45 10000 9.3 10 17:37 07.09.2019
2327 Clouds 25 1016 45 10000 9.3 10 17:18 07.09.2019
2328 Clouds 25 1016 45 10000 9.3 10 17:18 07.09.2019
2329 Clouds 25 1016 47 10000 10.3 20 16:43 07.09.2019
2330 Clouds 25 1016 45 10000 11.3 10 16:21 07.09.2019
2331 Clouds 26 1016 51 10000 12.9 30 15:55 07.09.2019
2332 Clouds 26 1016 51 10000 12.9 30 15:55 07.09.2019
2333 Clouds 25 1016 51 10000 12.9 30 15:36 07.09.2019
2334 Clouds 25 1016 51 10000 12.9 30 15:18 07.09.2019
2335 Clouds 25 1017 51 10000 11.8 20 14:54 07.09.2019
2336 Clouds 25 1017 51 10000 11.8 20 14:54 07.09.2019
2337 Clouds 26 1017 51 10000 11.8 20 14:36 07.09.2019
2338 Clouds 25 1017 51 10000 11.8 20 14:18 07.09.2019
2339 Clouds 25 1017 54 10000 11.3 20 13:43 07.09.2019
2340 Clouds 25 1017 54 10000 9.8 20 13:25 07.09.2019
2341 Clouds 24 1017 54 10000 8.2 10 12:46 07.09.2019
2342 Clouds 24 1017 50 10000 7.7 360 12:26 07.09.2019
2343 Clouds 23 1017 57 10000 8.2 350 11:59 07.09.2019
2344 Clouds 22 1017 60 10000 7.7 360 11:40 07.09.2019
2345 Clouds 22 1017 60 10000 7.7 360 11:21 07.09.2019
2346 Clouds 21 1016 57 10000 4.6 340 10:41 07.09.2019
2347 Clouds 21 1016 57 10000 4.6 340 10:41 07.09.2019
2348 Clouds 21 1016 57 10000 4.6 340 10:22 07.09.2019
2349 Clouds 23 1016 60 10000 4.1 330 09:58 07.09.2019
2350 Clouds 22 1016 60 10000 7.2 320 09:39 07.09.2019
2351 Clouds 21 1016 60 10000 7.2 320 09:20 07.09.2019
2352 Clouds 21 1016 60 10000 7.2 320 09:20 07.09.2019
2353 Clouds 21 1016 69 10000 5.7 360 08:45 07.09.2019
2354 Clouds 22 1016 69 10000 7.2 360 08:26 07.09.2019
2355 Clouds 20 1016 69 10000 7.7 360 07:48 07.09.2019
2356 Clouds 21 1016 69 10000 7.7 360 07:28 07.09.2019
2357 Clouds 21 1015 64 10000 7.7 330 06:55 07.09.2019
2358 Clouds 21 1015 69 10000 10.3 10 06:35 07.09.2019
2359 Clouds 21 1016 64 10000 7.2 350 05:32 07.09.2019
2360 Clouds 22 1016 64 10000 8.2 360 04:25 07.09.2019
2361 Clouds 22 1016 64 10000 7.7 10 03:27 07.09.2019
2362 Clouds 22 1017 64 10000 8.2 360 02:21 07.09.2019
2363 Clouds 21 1017 69 10000 6.7 360 01:27 07.09.2019
2364 Clouds 21 1017 64 10000 7.2 360 00:48 07.09.2019
2365 Clouds 21 1017 64 10000 8.2 350 00:21 07.09.2019
2366 Clouds 22 1017 69 10000 8.2 350 23:55 06.09.2019
2367 Clouds 22 1017 60 10000 7.7 350 23:37 06.09.2019
2368 Clouds 22 1017 60 10000 7.7 350 23:18 06.09.2019
2369 Clouds 23 1016 64 10000 9.8 10 22:42 06.09.2019
2370 Clouds 21 1016 64 10000 9.8 10 22:20 06.09.2019
2371 Clouds 23 1016 60 10000 9.3 360 21:59 06.09.2019
2372 Clouds 23 1016 60 10000 9.3 360 21:59 06.09.2019
2373 Clouds 23 1016 64 10000 9.3 360 21:40 06.09.2019
2374 Clouds 21 1016 64 10000 9.3 360 21:22 06.09.2019
2375 Clouds 23 1016 64 10000 9.8 360 20:59 06.09.2019
2376 Clouds 23 1016 65 10000 9.3 10 20:40 06.09.2019
2377 Clouds 23 1016 65 10000 9.3 10 20:21 06.09.2019
2378 Clouds 24 1016 61 10000 9.8 10 19:58 06.09.2019
2379 Clouds 23 1016 69 10000 9.8 20 19:39 06.09.2019
2380 Clouds 23 1016 69 10000 9.8 20 19:20 06.09.2019
2381 Clouds 23 1016 69 10000 9.8 20 19:20 06.09.2019
2382 Clouds 23 1016 65 10000 9.8 10 18:47 06.09.2019
2383 Clouds 24 1016 61 10000 10.8 20 18:28 06.09.2019
2384 Clouds 24 1016 61 10000 10.8 30 17:59 06.09.2019
2385 Clouds 24 1016 65 10000 11.8 30 17:38 06.09.2019
2386 Clouds 24 1016 65 10000 11.8 30 17:19 06.09.2019
2387 Clouds 25 1017 65 10000 11.8 30 16:42 06.09.2019
2388 Clouds 25 1017 65 10000 11.8 30 16:19 06.09.2019
2389 Clouds 25 1017 65 10000 11.8 30 15:56 06.09.2019
2390 Clouds 25 1017 61 10000 11.3 30 15:38 06.09.2019
2391 Clouds 25 1017 61 10000 11.3 30 15:20 06.09.2019
2392 Clouds 26 1017 65 10000 11.3 30 14:39 06.09.2019
2393 Clouds 26 1017 65 10000 11.3 30 14:18 06.09.2019
2394 Clouds 25 1017 69 10000 10.3 30 13:43 06.09.2019
2395 Clouds 25 1017 69 10000 10.8 30 13:22 06.09.2019
2396 Clouds 25 1017 65 10000 8.7 20 12:41 06.09.2019
2397 Clouds 25 1017 65 10000 8.7 20 12:23 06.09.2019
2398 Clouds 24 1017 65 10000 8.7 10 11:58 06.09.2019
2399 Clouds 24 1017 65 10000 8.2 360 11:40 06.09.2019
2400 Clouds 24 1017 65 10000 8.2 360 11:21 06.09.2019
2401 Clouds 24 1016 73 10000 8.2 360 10:43 06.09.2019
2402 Clouds 23 1016 78 10000 7.2 10 10:22 06.09.2019
2403 Clouds 22 1016 73 10000 7.7 350 09:58 06.09.2019
2404 Clouds 22 1016 73 10000 5.7 360 09:37 06.09.2019
2405 Clouds 21 1016 73 10000 5.7 360 09:19 06.09.2019
2406 Clouds 21 1016 69 10000 5.1 10 08:44 06.09.2019
2407 Clouds 22 1016 69 10000 5.7 20 08:26 06.09.2019
2408 Clouds 21 1016 64 10000 6.2 10 07:51 06.09.2019
2409 Clouds 21 1015 64 10000 5.7 10 07:28 06.09.2019
2410 Clouds 21 1015 64 10000 5.7 360 06:59 06.09.2019
2411 Clouds 21 1015 64 10000 6.7 360 06:33 06.09.2019
2412 Clouds 21 1015 60 10000 7.2 340 05:45 06.09.2019
2413 Clouds 21 1016 57 10000 8.2 340 04:54 06.09.2019
2414 Clouds 21 1016 64 10000 6.7 350 04:24 06.09.2019
2415 Clouds 21 1016 60 10000 6.2 350 02:44 06.09.2019
2416 Clouds 21 1016 64 10000 7.7 350 00:57 06.09.2019
2417 Clouds 21 1016 60 10000 6.7 350 00:20 06.09.2019
2418 Clouds 21 1016 60 10000 6.7 350 00:20 06.09.2019
2419 Clouds 23 1017 53 10000 6.2 340 23:41 05.09.2019
2420 Clouds 22 1017 53 10000 6.2 340 23:22 05.09.2019
2421 Clouds 21 1016 60 10000 7.7 360 22:45 05.09.2019
2422 Clouds 21 1016 64 10000 7.7 360 22:25 05.09.2019
2423 Clouds 23 1016 64 10000 7.2 360 21:57 05.09.2019
2424 Clouds 22 1016 65 10000 6.7 360 21:38 05.09.2019
2425 Clouds 22 1016 65 10000 6.7 360 21:20 05.09.2019
2426 Clouds 23 1016 65 10000 3.1 250 20:58 05.09.2019
2427 Clouds 23 1016 61 10000 8.2 30 20:38 05.09.2019
2428 Clouds 23 1016 61 10000 8.2 30 20:20 05.09.2019
2429 Clouds 24 1016 57 10000 8.2 30 19:57 05.09.2019
2430 Clouds 23 1016 61 10000 3.1 340 19:38 05.09.2019
2431 Clouds 24 1016 61 10000 3.1 340 19:19 05.09.2019
2432 Clouds 25 1016 61 10000 10.3 30 18:41 05.09.2019
2433 Clouds 25 1016 61 10000 10.3 30 18:22 05.09.2019
2434 Clouds 26 1016 57 10000 9.8 40 17:58 05.09.2019
2435 Clouds 26 1016 51 10000 11.3 30 17:39 05.09.2019
2436 Clouds 26 1016 51 10000 11.3 30 17:39 05.09.2019
2437 Clouds 26 1016 51 10000 11.3 30 17:20 05.09.2019
2438 Clouds 26 1016 51 10000 11.3 30 17:20 05.09.2019
2439 Clouds 26 1017 54 10000 10.8 30 16:42 05.09.2019
2440 Clouds 26 1017 54 10000 10.8 30 16:22 05.09.2019
2441 Clouds 26 1017 57 10000 10.8 30 16:00 05.09.2019
2442 Clouds 26 1017 54 10000 10.8 30 15:39 05.09.2019
2443 Clouds 26 1017 54 10000 10.8 30 15:19 05.09.2019
2444 Clouds 26 1017 54 10000 10.8 30 14:56 05.09.2019
2445 Clouds 26 1017 54 10000 11.3 20 14:38 05.09.2019
2446 Clouds 26 1017 54 10000 11.3 20 14:18 05.09.2019
2447 Clouds 26 1017 61 10000 10.8 30 13:42 05.09.2019
2448 Clouds 25 1017 61 10000 10.8 30 13:19 05.09.2019
2449 Clouds 24 1017 61 10000 9.8 30 12:43 05.09.2019
2450 Clouds 24 1017 61 10000 9.8 30 12:25 05.09.2019
2451 Clouds 24 1017 57 10000 8.7 10 11:57 05.09.2019
2452 Clouds 24 1017 61 10000 8.7 10 11:38 05.09.2019
2453 Clouds 23 1017 61 10000 8.7 10 11:18 05.09.2019
2454 Clouds 24 1018 64 10000 5.7 360 10:41 05.09.2019
2455 Clouds 22 1018 64 10000 5.7 360 10:22 05.09.2019
2456 Clouds 21 1017 78 10000 6.7 10 09:57 05.09.2019
2457 Clouds 21 1017 73 10000 5.7 350 09:38 05.09.2019
2458 Clouds 21 1017 73 10000 5.7 350 09:18 05.09.2019
2459 Clouds 21 1017 73 10000 5.7 350 09:18 05.09.2019
2460 Clouds 21 1017 78 10000 6.2 10 08:43 05.09.2019
2461 Clouds 21 1017 73 10000 5.7 360 08:25 05.09.2019
2462 Clouds 21 1017 73 10000 6.2 350 07:44 05.09.2019
2463 Clouds 21 1017 73 10000 5.7 360 07:26 05.09.2019
2464 Clouds 21 1017 73 10000 6.7 360 06:52 05.09.2019
2465 Clouds 21 1017 78 10000 7.2 360 06:29 05.09.2019
2466 Clouds 21 1017 73 10000 6.7 360 05:49 05.09.2019
2467 Clouds 21 1017 73 10000 6.7 360 05:30 05.09.2019
2468 Clouds 21 1017 68 10000 7.7 360 04:47 05.09.2019
2469 Clouds 21 1017 68 10000 7.7 350 04:19 05.09.2019
2470 Clouds 21 1018 68 10000 7.7 340 03:27 05.09.2019
2471 Clouds 22 1018 73 10000 7.2 360 02:42 05.09.2019
2472 Clouds 22 1018 73 10000 7.2 360 02:18 05.09.2019
2473 Clouds 21 1019 73 10000 6.7 360 01:19 05.09.2019
2474 Clouds 22 1019 69 10000 7.2 360 00:40 05.09.2019
2475 Clouds 21 1019 69 10000 7.2 360 00:20 05.09.2019
2476 Clouds 23 1019 73 10000 7.2 360 23:45 04.09.2019
2477 Clouds 22 1019 69 10000 6.7 360 23:23 04.09.2019
2478 Clouds 22 1019 69 10000 6.7 360 22:49 04.09.2019
2479 Clouds 23 1018 69 10000 6.7 10 22:22 04.09.2019
2480 Clouds 23 1018 73 10000 7.2 10 21:58 04.09.2019
2481 Clouds 22 1018 69 10000 9.8 20 21:39 04.09.2019
2482 Clouds 23 1018 69 10000 9.8 20 21:20 04.09.2019
2483 Clouds 23 1018 69 10000 9.8 20 20:56 04.09.2019
2484 Clouds 24 1018 64 10000 9.8 20 20:37 04.09.2019
2485 Clouds 24 1018 64 10000 9.8 20 20:18 04.09.2019
2486 Clouds 25 1018 65 10000 10.8 30 19:44 04.09.2019
2487 Clouds 24 1018 65 10000 10.8 30 19:24 04.09.2019
2488 Clouds 25 1018 65 10000 11.3 30 18:55 04.09.2019
2489 Clouds 25 1018 61 10000 11.3 30 18:37 04.09.2019
2490 Clouds 25 1018 61 10000 11.3 30 18:19 04.09.2019
2491 Clouds 25 1018 61 10000 11.3 30 17:41 04.09.2019
2492 Clouds 25 1018 61 10000 11.3 30 17:23 04.09.2019
2493 Clouds 25 1019 61 10000 11.8 30 16:57 04.09.2019
2494 Clouds 26 1019 61 10000 12.3 30 16:38 04.09.2019
2495 Clouds 26 1019 61 10000 12.3 30 16:19 04.09.2019
2496 Clouds 25 1019 61 10000 11.8 30 15:41 04.09.2019
2497 Clouds 25 1019 61 10000 11.8 30 15:22 04.09.2019
2498 Clouds 25 1020 61 10000 11.8 30 14:59 04.09.2019
2499 Clouds 25 1020 65 10000 11.8 30 14:39 04.09.2019
2500 Clouds 25 1020 65 10000 11.8 30 14:21 04.09.2019
2501 Clouds 25 1020 61 10000 10.8 30 14:00 04.09.2019
2502 Clouds 25 1020 61 10000 10.8 30 13:39 04.09.2019
2503 Clouds 24 1020 61 10000 10.8 30 13:21 04.09.2019
2504 Clouds 25 1020 61 10000 10.8 30 12:44 04.09.2019
2505 Clouds 23 1020 61 10000 9.8 30 12:26 04.09.2019
2506 Clouds 23 1020 61 10000 9.8 20 11:58 04.09.2019
2507 Clouds 23 1020 64 10000 9.8 10 11:39 04.09.2019
2508 Clouds 23 1020 64 10000 9.8 10 11:20 04.09.2019
2509 Clouds 23 1020 69 10000 8.7 20 10:56 04.09.2019
2510 Clouds 22 1020 73 10000 7.2 10 10:38 04.09.2019
2511 Clouds 21 1020 73 10000 7.2 10 10:19 04.09.2019
2512 Clouds 21 1019 78 10000 5.1 360 09:45 04.09.2019
2513 Clouds 21 1019 78 10000 5.1 360 09:21 04.09.2019
2514 Clouds 20 1019 73 10000 6.2 360 08:42 04.09.2019
2515 Clouds 20 1019 73 10000 6.2 360 08:24 04.09.2019
2516 Clouds 20 1019 68 10000 5.7 350 07:59 04.09.2019
2517 Clouds 20 1018 68 10000 6.2 350 07:36 04.09.2019
2518 Clouds 21 1018 68 10000 6.2 350 06:58 04.09.2019
2519 Clouds 21 1018 68 10000 6.2 350 06:38 04.09.2019
2520 -273 0 0 0 0 0 04:55 04.09.2019
2521 Clouds 21 1019 68 10000 6.2 360 04:22 04.09.2019
2522 Clouds 21 1020 68 10000 5.7 10 02:50 04.09.2019
2523 Clouds 22 1020 73 10000 6.2 360 01:20 04.09.2019
2524 Clouds 22 1019 73 10000 7.2 10 00:41 04.09.2019
2525 Clouds 22 1019 73 10000 7.2 10 00:22 04.09.2019
2526 Clouds 22 1019 73 10000 7.2 10 23:48 03.09.2019
2527 Clouds 23 1019 73 10000 7.7 10 23:26 03.09.2019
2528 Clouds 22 1018 69 10000 8.2 360 22:41 03.09.2019
2529 Clouds 22 1018 69 10000 8.2 360 22:23 03.09.2019
2530 Clouds 23 1018 69 10000 8.7 10 21:57 03.09.2019
2531 Clouds 23 1018 64 10000 9.8 10 21:38 03.09.2019
2532 Clouds 23 1018 64 10000 9.8 10 21:20 03.09.2019
2533 Clouds 24 1018 64 10000 10.3 20 20:56 03.09.2019
2534 Clouds 24 1018 65 10000 10.8 10 20:37 03.09.2019
2535 Clouds 24 1018 65 10000 10.8 10 20:19 03.09.2019
2536 Clouds 25 1018 65 10000 10.8 30 19:43 03.09.2019
2537 Clouds 25 1018 65 10000 10.8 30 19:20 03.09.2019
2538 Clouds 25 1018 65 10000 11.3 30 18:59 03.09.2019
2539 Clouds 25 1018 65 10000 11.3 30 18:59 03.09.2019
2540 Clouds 25 1018 65 10000 11.3 30 18:59 03.09.2019
2541 Clouds 25 1018 65 10000 11.3 30 18:40 03.09.2019
2542 Clouds 25 1018 65 10000 11.3 30 18:20 03.09.2019
2543 Clouds 25 1018 65 10000 10.8 30 17:56 03.09.2019
2544 Clouds 26 1019 61 10000 9.8 30 17:38 03.09.2019
2545 Clouds 26 1019 61 10000 9.8 30 17:18 03.09.2019
2546 Clouds 25 1019 65 10000 9.8 30 16:43 03.09.2019
2547 Clouds 26 1019 61 10000 9.8 30 16:22 03.09.2019
2548 Clouds 26 1019 61 10000 9.8 30 16:22 03.09.2019
2549 Clouds 26 1019 61 10000 9.3 30 15:56 03.09.2019
2550 Clouds 26 1019 61 10000 9.8 30 15:37 03.09.2019
2551 Clouds 26 1019 61 10000 9.8 30 15:19 03.09.2019
2552 Clouds 25 1020 61 10000 9.3 30 14:55 03.09.2019
2553 Clouds 24 1020 65 10000 8.7 30 14:36 03.09.2019
2554 Clouds 24 1020 65 10000 8.7 30 14:18 03.09.2019
2555 Clouds 25 1020 65 10000 7.7 30 13:55 03.09.2019
2556 Clouds 24 1020 69 10000 7.2 30 13:37 03.09.2019
2557 Clouds 24 1020 69 10000 7.2 30 13:18 03.09.2019
2558 Clouds 24 1020 65 10000 7.2 30 12:46 03.09.2019
2559 Clouds 24 1019 69 10000 6.7 30 12:28 03.09.2019
2560 Clouds 23 1019 64 10000 6.2 350 11:43 03.09.2019
2561 Clouds 23 1019 64 10000 6.2 350 11:24 03.09.2019
2562 Clouds 23 1018 69 10000 5.7 360 10:58 03.09.2019
2563 Clouds 22 1018 73 10000 5.1 360 10:40 03.09.2019
2564 Clouds 22 1018 73 10000 5.1 360 10:21 03.09.2019
2565 Clouds 21 1018 73 10000 4.6 360 09:50 03.09.2019
2566 Clouds 20 1018 73 10000 5.1 350 09:32 03.09.2019
2567 Clouds 21 1018 73 10000 4.6 360 08:57 03.09.2019
2568 Clouds 21 1017 73 10000 4.6 350 08:37 03.09.2019
2569 Clouds 21 1017 73 10000 4.6 350 08:19 03.09.2019
2570 Clouds 21 1017 68 10000 4.6 360 07:43 03.09.2019
2571 Clouds 20 1017 68 10000 4.6 360 07:24 03.09.2019
2572 Clouds 21 1017 68 10000 4.6 360 06:47 03.09.2019
2573 Clouds 20 1017 77 10000 5.1 360 06:28 03.09.2019
2574 Clouds 22 1017 73 10000 5.7 360 03:44 03.09.2019
2575 Clouds 22 1017 73 10000 6.7 360 02:48 03.09.2019
2576 Clouds 22 1017 73 10000 7.7 360 02:27 03.09.2019
2577 Clouds 22 1017 73 10000 7.2 360 01:53 03.09.2019
2578 Clouds 22 1017 64 10000 7.7 360 01:34 03.09.2019
2579 Clouds 22 1017 64 10000 7.2 360 00:57 03.09.2019
2580 Clouds 22 1017 60 10000 6.7 360 00:27 03.09.2019
2581 Clear 22 1016 60 10000 8.7 350 23:41 02.09.2019
2582 Clear 22 1016 60 10000 8.7 350 23:41 02.09.2019
2583 Clear 22 1016 60 10000 8.7 350 23:20 02.09.2019
2584 Clear 22 1016 60 10000 7.2 360 22:57 02.09.2019
2585 Clear 22 1016 57 10000 8.2 10 22:39 02.09.2019
2586 Clear 22 1016 57 10000 8.2 10 22:21 02.09.2019
2587 Clear 22 1016 57 10000 7.7 10 21:58 02.09.2019
2588 Clear 23 1016 60 10000 8.7 10 21:40 02.09.2019
2589 Clear 23 1016 60 10000 8.7 10 21:20 02.09.2019
2590 Clouds 23 1016 64 10000 9.8 20 20:59 02.09.2019
2591 Clouds 24 1015 61 10000 11.3 10 20:40 02.09.2019
2592 Clouds 24 1015 61 10000 11.3 10 20:40 02.09.2019
2593 Clouds 24 1015 61 10000 11.3 10 20:19 02.09.2019
2594 Clouds 25 1015 61 10000 11.3 10 19:57 02.09.2019
2595 Clouds 25 1015 61 10000 12.9 20 19:38 02.09.2019
2596 Clouds 25 1015 61 10000 12.9 20 19:19 02.09.2019
2597 Clouds 26 1015 61 10000 12.9 30 18:40 02.09.2019
2598 Clouds 26 1015 61 10000 12.9 30 18:22 02.09.2019
2599 Clouds 26 1015 54 10000 11.8 20 17:58 02.09.2019
2600 Clouds 26 1015 54 10000 11.8 20 17:58 02.09.2019
2601 Clouds 26 1016 57 10000 11.3 30 17:39 02.09.2019
2602 Clouds 26 1016 57 10000 11.3 30 17:20 02.09.2019
2603 Clouds 26 1016 57 10000 10.8 30 16:54 02.09.2019
2604 Clouds 26 1016 57 10000 10.8 30 16:36 02.09.2019
2605 Clouds 26 1016 57 10000 10.8 30 16:18 02.09.2019
2606 Clouds 26 1017 57 10000 9.8 30 15:44 02.09.2019
2607 Clouds 26 1017 61 10000 8.2 30 15:22 02.09.2019
2608 Clouds 26 1017 61 10000 8.2 30 15:22 02.09.2019
2609 Clouds 26 1017 57 10000 7.7 40 14:56 02.09.2019
2610 Clouds 26 1017 57 10000 7.7 40 14:56 02.09.2019
2611 Clouds 25 1017 61 10000 7.7 50 14:37 02.09.2019
2612 Clouds 25 1017 61 10000 7.7 50 14:19 02.09.2019
2613 Clouds 24 1017 61 10000 7.7 40 13:45 02.09.2019
2614 Clouds 24 1018 61 10000 7.7 40 13:25 02.09.2019
2615 Clouds 24 1018 61 10000 7.2 40 12:59 02.09.2019
2616 Clouds 24 1017 54 10000 6.7 40 12:40 02.09.2019
2617 Clouds 24 1017 54 10000 6.7 40 12:40 02.09.2019
2618 Clouds 23 1017 54 10000 6.7 40 12:22 02.09.2019
2619 Clouds 25 1017 57 10000 7.2 40 11:56 02.09.2019
2620 Clouds 23 1017 69 10000 7.2 30 11:37 02.09.2019
2621 Clouds 23 1017 69 10000 7.2 30 11:37 02.09.2019
2622 Clouds 23 1017 69 10000 7.2 30 11:19 02.09.2019
2623 Clouds 23 1016 69 10000 6.7 350 10:42 02.09.2019
2624 Clouds 21 1016 69 10000 6.7 350 10:22 02.09.2019
2625 Clouds 21 1016 68 10000 6.2 360 09:58 02.09.2019
2626 Clouds 21 1016 68 10000 6.2 360 09:58 02.09.2019
2627 Clouds 21 1016 68 10000 7.2 340 09:38 02.09.2019
2628 Clouds 20 1016 68 10000 7.2 340 09:20 02.09.2019
2629 Clouds 20 1016 73 10000 6.2 350 08:43 02.09.2019
2630 Clouds 21 1016 73 10000 5.7 360 08:22 02.09.2019
2631 Clouds 21 1015 78 10000 8.7 10 07:56 02.09.2019
2632 Clouds 21 1015 78 10000 7.7 10 07:37 02.09.2019
2633 Clouds 21 1015 78 10000 7.7 10 07:18 02.09.2019
2634 Clouds 21 1015 83 10000 8.7 10 06:41 02.09.2019
2635 Clouds 22 1015 83 10000 9.8 360 05:53 02.09.2019
2636 Clouds 22 1015 83 10000 9.8 360 05:53 02.09.2019
2637 Clouds 22 1015 83 10000 9.8 360 05:53 02.09.2019
2638 Clouds 22 1015 73 10000 8.7 360 05:24 02.09.2019
2639 Clouds 22 1016 69 10000 7.7 360 04:48 02.09.2019
2640 Clouds 22 1016 78 10000 9.8 10 02:20 02.09.2019
2641 Clouds 23 1016 69 10000 8.2 360 01:37 02.09.2019
2642 Clouds 23 1016 69 10000 9.3 360 00:39 02.09.2019
2643 Clouds 23 1016 69 10000 9.3 360 00:19 02.09.2019
2644 Clouds 23 1016 69 10000 10.3 360 23:39 01.09.2019
2645 Clouds 23 1016 69 10000 10.3 360 23:19 01.09.2019
2646 Clouds 23 1015 69 10000 10.3 360 22:56 01.09.2019
2647 Clouds 23 1015 69 10000 10.3 360 22:56 01.09.2019
2648 Clouds 23 1015 69 10000 8.7 360 22:38 01.09.2019
2649 Clouds 23 1015 69 10000 8.7 360 22:18 01.09.2019
2650 Clouds 24 1015 64 10000 9.8 10 21:42 01.09.2019
2651 Clouds 24 1015 64 10000 9.8 10 21:23 01.09.2019
2652 Clouds 25 1015 61 10000 11.3 10 20:58 01.09.2019
2653 Clouds 25 1015 53 10000 12.3 10 20:39 01.09.2019
2654 Clouds 26 1015 53 10000 12.3 10 20:19 01.09.2019
2655 Clouds 26 1015 57 10000 12.9 10 19:59 01.09.2019
2656 Clouds 26 1015 57 10000 12.9 10 19:59 01.09.2019
2657 Clouds 26 1015 54 10000 12.9 20 19:40 01.09.2019
2658 Clouds 26 1015 54 10000 12.9 20 19:21 01.09.2019
2659 Clouds 26 1015 54 10000 11.3 10 18:44 01.09.2019
2660 Clouds 26 1015 54 10000 11.3 10 18:44 01.09.2019
2661 Clouds 26 1015 54 10000 11.3 10 18:26 01.09.2019
2662 Clouds 26 1016 54 10000 10.3 10 17:58 01.09.2019
2663 Clouds 26 1016 50 10000 10.8 20 17:39 01.09.2019
2664 Clouds 26 1016 50 10000 10.8 20 17:19 01.09.2019
2665 Clouds 26 1017 61 10000 12.3 20 16:41 01.09.2019
2666 Clouds 26 1017 61 10000 12.3 20 16:21 01.09.2019
2667 Clouds 26 1017 61 10000 12.9 20 15:58 01.09.2019
2668 Clouds 26 1016 57 10000 13.4 20 15:39 01.09.2019
2669 Clouds 26 1016 57 10000 13.4 20 15:20 01.09.2019
2670 Clouds 26 1017 61 10000 13.4 20 14:42 01.09.2019
2671 Clouds 26 1017 61 10000 13.4 20 14:22 01.09.2019
2672 Clouds 26 1017 61 10000 13.4 20 13:59 01.09.2019
2673 Clouds 25 1017 61 10000 13.4 20 13:40 01.09.2019
2674 Clouds 25 1017 61 10000 13.4 20 13:21 01.09.2019
2675 Clouds 25 1017 65 10000 12.9 10 12:43 01.09.2019
2676 Clouds 25 1017 65 10000 12.9 10 12:25 01.09.2019
2677 Clouds 25 1017 65 10000 13.4 20 11:55 01.09.2019
2678 Clouds 24 1017 73 10000 11.8 10 11:37 01.09.2019
2679 Clouds 24 1017 73 10000 11.8 10 11:18 01.09.2019
2680 Clouds 24 1017 69 10000 10.8 10 10:43 01.09.2019
2681 Clouds 22 1016 78 10000 9.8 10 10:23 01.09.2019
2682 Clouds 22 1016 69 10000 9.3 360 09:47 01.09.2019
2683 Clouds 22 1016 69 10000 9.3 360 09:26 01.09.2019
2684 Clouds 22 1016 73 10000 10.3 360 08:46 01.09.2019
2685 Clouds 22 1016 73 10000 11.3 10 08:25 01.09.2019
2686 Clouds 22 1015 78 10000 11.3 10 07:59 01.09.2019
2687 Clouds 22 1015 73 10000 10.8 10 07:41 01.09.2019
2688 Clouds 22 1015 73 10000 10.8 10 07:18 01.09.2019
2689 Clouds 22 1015 73 10000 10.3 10 06:37 01.09.2019
2690 Clouds 22 1015 69 10000 9.8 360 05:57 01.09.2019
2691 Clouds 22 1015 69 10000 9.8 360 05:57 01.09.2019
2692 Clouds 22 1016 73 10000 9.3 360 04:36 01.09.2019
2693 Clouds 22 1016 73 10000 11.3 10 03:43 01.09.2019
2694 Clouds 22 1017 73 10000 10.3 10 02:59 01.09.2019
2695 Clouds 22 1016 73 10000 11.3 360 02:29 01.09.2019
2696 Clouds 22 1016 73 10000 13.9 10 01:52 01.09.2019
2697 Clouds 23 1016 78 10000 13.9 10 01:25 01.09.2019
2698 Clouds 23 1016 78 10000 12.9 10 00:47 01.09.2019
2699 Clouds 23 1017 83 10000 12.9 10 00:23 01.09.2019
2700 Clouds 23 1017 83 10000 12.3 10 23:56 31.08.2019
2701 Clouds 23 1016 83 10000 12.9 10 23:38 31.08.2019
2702 Clouds 23 1016 83 10000 12.9 10 23:18 31.08.2019
2703 Clouds 23 1016 83 10000 12.3 10 22:44 31.08.2019
2704 Clouds 23 1016 83 10000 11.8 10 22:26 31.08.2019
2705 Clouds 23 1016 83 10000 11.3 10 21:58 31.08.2019
2706 Clouds 23 1016 78 10000 12.9 20 21:39 31.08.2019
2707 Clouds 24 1016 78 10000 13.4 20 21:20 31.08.2019
2708 Clouds 24 1016 78 10000 13.4 20 20:49 31.08.2019
2709 Clouds 25 1015 69 10000 13.4 20 20:31 31.08.2019
2710 Clouds 25 1016 69 10000 14.4 20 19:57 31.08.2019
2711 Clouds 26 1016 61 10000 11.8 20 19:39 31.08.2019
2712 Clouds 26 1016 61 10000 11.8 20 19:39 31.08.2019
2713 Clouds 26 1016 61 10000 11.8 20 19:20 31.08.2019
2714 Clouds 26 1016 61 10000 12.3 20 18:40 31.08.2019
2715 Clouds 26 1016 61 10000 12.3 20 18:21 31.08.2019
2716 Clouds 26 1017 61 10000 12.3 30 17:58 31.08.2019
2717 Clouds 26 1017 65 10000 12.3 20 17:37 31.08.2019
2718 Clouds 26 1017 65 10000 12.3 20 17:19 31.08.2019
2719 Clouds 26 1017 65 10000 12.3 20 17:19 31.08.2019
2720 Clouds 26 1017 65 10000 12.3 20 17:19 31.08.2019
2721 Clouds 27 1017 57 10000 10.8 30 16:58 31.08.2019
2722 Clouds 27 1017 57 10000 10.8 30 16:58 31.08.2019
2723 Clouds 27 1018 57 10000 11.3 30 16:40 31.08.2019
2724 Clouds 26 1018 57 10000 11.3 30 16:21 31.08.2019
2725 Clouds 26 1018 57 10000 11.3 30 16:21 31.08.2019
2726 Clouds 26 1018 61 10000 12.3 20 15:57 31.08.2019
2727 Clouds 27 1018 57 10000 13.4 20 15:36 31.08.2019
2728 Clouds 27 1018 57 10000 13.4 20 15:18 31.08.2019
2729 Clouds 26 1018 61 10000 12.9 10 14:41 31.08.2019
2730 Clouds 26 1018 61 10000 12.9 10 14:22 31.08.2019
2731 Clouds 26 1018 65 10000 12.9 20 13:41 31.08.2019
2732 Clouds 26 1018 65 10000 12.9 20 13:23 31.08.2019
2733 Clouds 26 1017 61 10000 12.9 10 12:59 31.08.2019
2734 Clouds 25 1018 65 10000 13.9 10 12:39 31.08.2019
2735 Clouds 26 1018 65 10000 13.9 10 12:20 31.08.2019
2736 Clouds 26 1018 65 10000 13.9 10 12:20 31.08.2019
2737 Clouds 25 1017 65 10000 12.9 10 11:55 31.08.2019
2738 Clouds 24 1017 69 10000 11.8 10 11:36 31.08.2019
2739 Clouds 24 1017 69 10000 11.8 10 11:18 31.08.2019
2740 Clouds 24 1017 69 10000 11.8 10 11:18 31.08.2019
2741 Clouds 23 1017 73 10000 11.8 10 10:41 31.08.2019
2742 Clouds 23 1017 73 10000 11.8 10 10:19 31.08.2019
2743 Clouds 22 1017 73 10000 11.3 10 09:57 31.08.2019
2744 Clouds 22 1016 73 10000 11.3 10 09:38 31.08.2019
2745 Clouds 22 1016 73 10000 11.3 10 09:19 31.08.2019
2746 Clouds 21 1017 78 10000 10.3 360 08:43 31.08.2019
2747 Clouds 21 1016 78 10000 10.8 10 08:23 31.08.2019
2748 Clouds 21 1017 78 10000 10.8 10 07:41 31.08.2019
2749 Clouds 21 1017 78 10000 10.8 10 07:22 31.08.2019
2750 Clouds 22 1016 78 10000 9.8 10 06:41 31.08.2019
2751 Clouds 22 1016 78 10000 9.8 10 06:41 31.08.2019
2752 Clouds 22 1016 78 10000 9.8 10 06:18 31.08.2019
2753 Clouds 22 1016 78 10000 9.8 10 06:18 31.08.2019
2754 Clouds 22 1017 78 10000 10.8 10 05:33 31.08.2019
2755 Clouds 22 1017 78 10000 11.3 10 04:36 31.08.2019
2756 Clouds 22 1018 73 10000 9.8 10 03:45 31.08.2019
2757 Clouds 22 1018 78 10000 10.3 10 02:37 31.08.2019
2758 Clouds 22 1018 78 10000 10.8 360 01:55 31.08.2019
2759 Clouds 23 1018 78 10000 11.8 10 01:34 31.08.2019
2760 Clouds 23 1018 78 10000 11.3 10 00:52 31.08.2019
2761 Clouds 23 1018 78 10000 10.8 20 00:30 31.08.2019
2762 Clouds 23 1018 83 10000 11.3 10 23:58 30.08.2019
2763 Clouds 23 1017 83 10000 10.3 10 23:39 30.08.2019
2764 Clouds 23 1017 83 10000 10.3 10 23:18 30.08.2019
2765 Clouds 23 1017 83 10000 10.3 10 23:18 30.08.2019
2766 Clouds 23 1017 78 10000 11.8 10 22:42 30.08.2019
2767 Clouds 23 1017 78 10000 11.8 10 22:24 30.08.2019
2768 Clouds 23 1016 78 10000 11.8 10 21:58 30.08.2019
2769 Clouds 24 1016 73 10000 11.8 10 21:38 30.08.2019
2770 Clouds 24 1016 73 10000 11.8 10 21:19 30.08.2019
2771 Clouds 24 1016 78 10000 12.9 20 20:58 30.08.2019
2772 Clouds 24 1016 78 10000 12.9 20 20:39 30.08.2019
2773 Clouds 24 1016 78 10000 12.9 20 20:20 30.08.2019
2774 Clouds 25 1016 69 10000 11.8 20 19:57 30.08.2019
2775 Clouds 25 1016 73 10000 12.9 20 19:39 30.08.2019
2776 Clouds 25 1016 73 10000 12.9 20 19:19 30.08.2019
2777 Clouds 26 1016 73 10000 12.9 30 18:49 30.08.2019
2778 Clouds 26 1016 73 10000 12.9 20 18:25 30.08.2019
2779 Clouds 26 1016 78 10000 12.9 20 17:59 30.08.2019
2780 Clouds 26 1017 73 10000 11.8 30 17:40 30.08.2019
2781 Clouds 26 1017 73 10000 11.8 30 17:19 30.08.2019
2782 Clouds 26 1017 73 10000 13.4 30 16:59 30.08.2019
2783 Clouds 26 1016 73 10000 13.9 30 16:40 30.08.2019
2784 Clouds 26 1016 73 10000 13.9 30 16:40 30.08.2019
2785 Clouds 26 1016 73 10000 13.9 30 16:21 30.08.2019
2786 Clouds 26 1016 69 10000 13.9 20 15:43 30.08.2019
2787 Clouds 26 1017 65 10000 13.9 20 15:23 30.08.2019
2788 Clouds 26 1017 65 10000 13.9 20 15:23 30.08.2019
2789 Clouds 26 1017 65 10000 13.4 20 14:47 30.08.2019
2790 Clouds 26 1017 73 10000 12.9 20 14:29 30.08.2019
2791 Clouds 26 1017 69 10000 12.3 20 13:58 30.08.2019
2792 Clouds 25 1018 73 10000 12.3 20 13:40 30.08.2019
2793 Clouds 25 1018 73 10000 12.3 20 13:22 30.08.2019
2794 Clouds 25 1018 69 10000 11.8 20 12:46 30.08.2019
2795 Clear 25 1018 78 10000 10.3 20 12:26 30.08.2019
2796 Clear 24 1018 73 10000 9.8 20 11:58 30.08.2019
2797 Clouds 25 1018 78 10000 8.7 10 11:39 30.08.2019
2798 Clouds 23 1018 78 10000 8.7 10 11:21 30.08.2019
2799 Clouds 23 1018 78 10000 7.2 10 10:39 30.08.2019
2800 Clouds 22 1018 78 10000 7.2 10 10:20 30.08.2019
2801 Clouds 22 1019 83 10000 5.1 10 09:56 30.08.2019
2802 Clouds 22 1019 83 10000 5.1 10 09:56 30.08.2019
2803 Clouds 22 1018 83 10000 5.7 10 09:36 30.08.2019
2804 Clouds 22 1018 83 10000 5.7 10 09:36 30.08.2019
2805 Clouds 22 1018 83 10000 5.7 10 09:18 30.08.2019
2806 Clouds 22 1018 83 10000 5.7 10 09:18 30.08.2019
2807 Clouds 22 1018 83 10000 5.1 360 08:44 30.08.2019
2808 Clouds 22 1018 83 10000 7.7 10 08:24 30.08.2019
2809 Clouds 22 1017 83 10000 9.3 20 07:56 30.08.2019
2810 Clouds 22 1017 83 10000 9.8 20 07:37 30.08.2019
2811 Clouds 22 1017 83 10000 9.8 20 07:37 30.08.2019
2812 Clouds 22 1017 83 10000 9.8 20 07:18 30.08.2019
2813 Clouds 22 1016 83 10000 9.8 10 06:40 30.08.2019
2814 Clouds 22 1016 83 10000 9.8 10 06:21 30.08.2019
2815 Clouds 22 1016 83 10000 9.3 10 05:32 30.08.2019
2816 Clear 23 1016 73 10000 10.3 20 03:57 30.08.2019
2817 Clear 23 1017 78 10000 8.2 10 03:37 30.08.2019
2818 Clear 23 1017 78 10000 8.2 10 03:37 30.08.2019
2819 Clear 23 1017 78 10000 8.2 10 03:37 30.08.2019
2820 Clouds 23 1017 78 10000 9.8 10 02:44 30.08.2019
2821 Clouds 23 1017 78 10000 8.7 10 02:19 30.08.2019
2822 Clouds 23 1018 78 10000 10.3 20 00:57 30.08.2019
2823 Clouds 23 1017 83 10000 10.8 20 00:23 30.08.2019
2824 Clouds 23 1017 83 10000 10.8 20 23:49 29.08.2019
2825 Clouds 23 1016 83 10000 11.8 10 23:23 29.08.2019
2826 Clouds 24 1016 78 10000 12.3 10 22:58 29.08.2019
2827 Clouds 24 1016 73 10000 11.8 10 22:38 29.08.2019
2828 Clouds 25 1016 73 10000 11.8 10 22:20 29.08.2019
2829 Clouds 25 1015 73 10000 12.9 10 21:42 29.08.2019
2830 Clouds 25 1015 73 10000 12.9 10 21:21 29.08.2019
2831 Clouds 25 1015 69 10000 12.9 10 20:59 29.08.2019
2832 Clouds 26 1015 69 10000 13.4 10 20:41 29.08.2019
2833 Clouds 25 1015 69 10000 13.4 10 20:19 29.08.2019
2834 Clouds 26 1014 69 10000 13.9 10 19:56 29.08.2019
2835 Clouds 26 1014 65 10000 14.4 20 19:38 29.08.2019
2836 Clouds 26 1014 65 10000 14.4 20 19:19 29.08.2019
2837 Clouds 26 1015 65 10000 13.4 20 18:41 29.08.2019
2838 Clouds 26 1015 65 10000 13.4 20 18:20 29.08.2019
2839 Clouds 27 1015 61 10000 12.9 20 17:56 29.08.2019
2840 Clouds 27 1016 61 10000 11.8 10 17:36 29.08.2019
2841 Clouds 28 1016 61 10000 11.8 10 17:18 29.08.2019
2842 Clouds 27 1017 69 10000 13.4 30 16:43 29.08.2019
2843 Clouds 26 1017 69 10000 13.4 30 16:23 29.08.2019
2844 Clouds 26 1017 65 10000 11.8 20 15:57 29.08.2019
2845 Clouds 26 1017 69 10000 12.9 20 15:37 29.08.2019
2846 Clouds 26 1017 69 10000 12.9 20 15:18 29.08.2019
2847 Clouds 26 1017 65 10000 11.8 20 14:43 29.08.2019
2848 Clouds 26 1017 65 10000 11.8 20 14:21 29.08.2019
2849 Clouds 26 1017 65 10000 11.8 20 13:58 29.08.2019
2850 Clouds 26 1017 65 10000 11.8 20 13:58 29.08.2019
2851 Clouds 25 1017 73 10000 12.9 20 13:39 29.08.2019
2852 Clouds 25 1017 73 10000 12.9 20 13:20 29.08.2019
2853 Clouds 25 1017 69 10000 11.8 20 12:58 29.08.2019
2854 Clouds 25 1017 73 10000 12.3 20 12:39 29.08.2019
2855 Clouds 25 1017 73 10000 12.3 20 12:20 29.08.2019
2856 Clouds 24 1017 73 10000 11.3 10 11:57 29.08.2019
2857 Clouds 24 1017 78 10000 11.8 10 11:36 29.08.2019
2858 Clouds 24 1017 78 10000 11.8 10 11:18 29.08.2019
2859 Clouds 23 1016 78 10000 10.3 10 10:42 29.08.2019
2860 Clouds 23 1016 78 10000 10.3 10 10:23 29.08.2019
2861 Clouds 22 1015 68 10000 5.7 360 09:42 29.08.2019
2862 Clouds 21 1015 68 10000 5.7 360 09:20 29.08.2019
2863 Clouds 21 1015 83 10000 9.3 360 08:58 29.08.2019
2864 Clouds 21 1016 83 10000 10.3 10 08:39 29.08.2019
2865 Clouds 21 1016 83 10000 10.3 10 08:21 29.08.2019
2866 Clouds 21 1016 83 10000 8.7 10 07:43 29.08.2019
2867 Clouds 21 1016 83 10000 8.7 10 07:25 29.08.2019
2868 Clouds 21 1016 83 10000 8.7 10 06:43 29.08.2019
2869 Clouds 21 1016 83 10000 8.7 10 06:21 29.08.2019
2870 Clouds 21 1016 88 10000 10.3 20 05:38 29.08.2019
2871 Clouds 22 1016 78 10000 10.3 10 04:50 29.08.2019
2872 Clouds 22 1017 83 10000 10.3 10 04:28 29.08.2019
2873 Clouds 22 1017 88 10000 10.3 10 02:44 29.08.2019
2874 Clouds 23 1017 78 10000 11.3 10 01:42 29.08.2019
2875 Clouds 23 1017 78 10000 11.3 10 00:58 29.08.2019
2876 Clouds 23 1017 78 10000 10.3 360 00:40 29.08.2019
2877 Clouds 23 1017 78 10000 10.3 360 00:20 29.08.2019
2878 Clouds 23 1016 78 10000 10.8 10 23:42 28.08.2019
2879 Clouds 23 1016 78 10000 10.8 10 23:23 28.08.2019
2880 Clouds 23 1015 78 10000 12.3 10 22:58 28.08.2019
2881 Clouds 23 1015 78 10000 10.8 360 22:38 28.08.2019
2882 Clouds 23 1015 78 10000 10.8 360 22:18 28.08.2019
2883 Clouds 23 1015 78 10000 10.8 360 22:18 28.08.2019
2884 Clouds 24 1015 78 10000 12.3 10 21:57 28.08.2019
2885 Clouds 24 1015 78 10000 12.3 10 21:57 28.08.2019
2886 Clouds 24 1014 69 10000 12.3 10 21:38 28.08.2019
2887 Clouds 24 1014 69 10000 12.3 10 21:20 28.08.2019
2888 Clouds 24 1014 69 10000 12.3 20 20:41 28.08.2019
2889 Clouds 25 1014 69 10000 12.3 20 20:22 28.08.2019
2890 Clouds 25 1014 73 10000 11.8 20 19:55 28.08.2019
2891 Clouds 25 1014 65 10000 12.3 20 19:37 28.08.2019
2892 Clouds 26 1014 65 10000 12.3 20 19:18 28.08.2019
2893 Clouds 26 1014 69 10000 13.4 30 18:42 28.08.2019
2894 Clouds 26 1014 69 10000 13.4 30 18:21 28.08.2019
2895 Clouds 26 1014 65 10000 13.4 30 17:40 28.08.2019
2896 Clouds 26 1014 65 10000 13.4 30 17:21 28.08.2019
2897 Clouds 26 1015 65 10000 13.4 30 16:59 28.08.2019
2898 Clouds 26 1015 65 10000 12.3 20 16:41 28.08.2019
2899 Clouds 26 1015 65 10000 12.3 20 16:18 28.08.2019
2900 Clear 26 1016 54 10000 11.3 30 15:39 28.08.2019
2901 Clear 26 1016 54 10000 11.3 30 15:20 28.08.2019
2902 Clouds 26 1016 65 10000 10.8 30 14:59 28.08.2019
2903 Clouds 26 1016 61 10000 10.8 30 14:41 28.08.2019
2904 Clouds 26 1016 61 10000 10.8 30 14:21 28.08.2019
2905 Clouds 26 1016 65 10000 10.8 30 13:59 28.08.2019
2906 Clouds 26 1017 69 10000 9.8 10 13:39 28.08.2019
2907 Clouds 26 1017 69 10000 9.8 10 13:20 28.08.2019
2908 Clouds 26 1017 69 10000 9.8 30 12:56 28.08.2019
2909 Clouds 26 1016 69 10000 9.8 20 12:38 28.08.2019
2910 Clouds 25 1016 69 10000 9.8 20 12:20 28.08.2019
2911 Clouds 24 1016 69 10000 10.3 10 11:40 28.08.2019
2912 Clouds 24 1016 69 10000 10.3 10 11:22 28.08.2019
2913 Clouds 23 1016 78 10000 9.8 20 10:56 28.08.2019
2914 Clouds 23 1016 78 10000 9.8 20 10:56 28.08.2019
2915 Clouds 23 1016 78 10000 9.8 20 10:56 28.08.2019
2916 Clouds 23 1016 83 10000 9.8 10 10:37 28.08.2019
2917 Clouds 23 1016 83 10000 9.8 10 10:19 28.08.2019
2918 Clouds 22 1016 83 10000 9.3 10 09:41 28.08.2019
2919 Clouds 21 1016 83 10000 9.3 10 09:21 28.08.2019
2920 Clouds 21 1015 83 10000 9.3 10 08:40 28.08.2019
2921 Clouds 21 1015 83 10000 9.3 10 08:22 28.08.2019
2922 Clouds 21 1015 83 10000 9.3 360 07:59 28.08.2019
2923 Clouds 21 1015 83 10000 9.3 10 07:37 28.08.2019
2924 Clouds 21 1015 83 10000 9.3 10 07:18 28.08.2019
2925 Clouds 22 1015 83 10000 11.3 10 06:44 28.08.2019
2926 Clouds 21 1015 83 10000 9.8 10 05:52 28.08.2019
2927 Clouds 22 1015 83 10000 9.3 10 04:28 28.08.2019
2928 Clouds 22 1016 83 10000 9.8 10 01:56 28.08.2019
2929 Clouds 23 1016 78 10000 10.3 10 01:30 28.08.2019
2930 Clouds 23 1016 78 10000 10.3 10 00:43 28.08.2019
2931 Clouds 23 1016 78 10000 10.3 10 00:21 28.08.2019
2932 Clouds 23 1016 83 10000 9.8 10 23:43 27.08.2019
2933 Clouds 23 1016 83 10000 9.8 10 23:22 27.08.2019
2934 Clouds 23 1016 83 10000 9.8 10 23:22 27.08.2019
2935 Clouds 23 1016 83 10000 9.8 10 22:57 27.08.2019
2936 Clouds 23 1016 78 10000 9.8 10 22:38 27.08.2019
2937 Clouds 23 1016 78 10000 9.8 10 22:20 27.08.2019
2938 Clouds 23 1016 83 10000 10.8 10 21:56 27.08.2019
2939 Clouds 23 1015 83 10000 11.3 20 21:37 27.08.2019
2940 Clouds 23 1015 83 10000 11.3 20 21:18 27.08.2019
2941 Clouds 24 1015 73 10000 10.8 20 20:42 27.08.2019
2942 Clouds 25 1015 73 10000 10.8 20 20:22 27.08.2019
2943 Clouds 26 1015 73 10000 10.8 20 19:58 27.08.2019
2944 Clouds 26 1015 69 10000 10.8 20 19:40 27.08.2019
2945 Clouds 25 1015 69 10000 10.8 20 19:22 27.08.2019
2946 Clouds 24 1015 73 10000 10.3 10 18:54 27.08.2019
2947 Clouds 25 1016 73 10000 9.3 20 18:36 27.08.2019
2948 Clouds 25 1016 73 10000 9.3 20 18:18 27.08.2019
2949 Clouds 26 1016 65 10000 9.3 20 17:42 27.08.2019
2950 Clouds 26 1016 65 10000 9.3 20 17:22 27.08.2019
2951 Clouds 26 1016 65 10000 9.8 20 16:48 27.08.2019
2952 Clouds 27 1016 65 10000 9.8 20 16:28 27.08.2019
2953 Clouds 27 1016 65 10000 9.8 20 16:28 27.08.2019
2954 Clouds 26 1016 61 10000 12.3 30 15:58 27.08.2019
2955 Clouds 26 1016 65 10000 12.9 20 15:40 27.08.2019
2956 Clouds 25 1016 65 10000 12.9 20 15:21 27.08.2019
2957 Clouds 26 1016 65 10000 11.8 30 14:57 27.08.2019
2958 Clouds 26 1016 69 10000 12.3 30 14:39 27.08.2019
2959 Clouds 26 1016 69 10000 12.3 30 14:19 27.08.2019
2960 Clouds 26 1017 69 10000 9.8 30 13:42 27.08.2019
2961 Clouds 26 1017 69 10000 9.8 30 13:21 27.08.2019
2962 Clouds 24 1017 78 10000 10.3 20 12:55 27.08.2019
2963 Clouds 24 1016 73 10000 11.3 20 12:36 27.08.2019
2964 Clouds 24 1016 73 10000 11.3 20 12:18 27.08.2019
2965 Clouds 24 1016 73 10000 11.3 20 12:18 27.08.2019
2966 Clouds 24 1016 73 10000 11.3 20 12:18 27.08.2019
2967 Clouds 24 1016 73 10000 11.3 10 11:42 27.08.2019
2968 Clouds 24 1016 73 10000 11.3 10 11:22 27.08.2019
2969 Clouds 24 1016 78 10000 10.3 10 10:41 27.08.2019
2970 Clouds 24 1016 78 10000 10.3 10 10:20 27.08.2019
2971 Clouds 23 1015 78 10000 9.3 10 09:57 27.08.2019
2972 Clouds 22 1015 83 10000 9.3 10 09:38 27.08.2019
2973 Clouds 22 1015 83 10000 9.3 10 09:19 27.08.2019
2974 Clouds 22 1015 83 10000 9.3 10 08:46 27.08.2019
2975 Clouds 22 1015 83 10000 9.8 10 08:26 27.08.2019
2976 Clouds 22 1014 83 10000 8.7 10 07:56 27.08.2019
2977 Clouds 22 1014 83 10000 10.3 10 07:37 27.08.2019
2978 Clouds 22 1014 83 10000 10.3 10 07:18 27.08.2019
2979 Clouds 22 1014 83 10000 10.3 10 06:48 27.08.2019
2980 Clouds 22 1014 83 10000 10.3 10 06:19 27.08.2019
2981 Clouds 22 1014 83 10000 10.3 10 05:29 27.08.2019
2982 Clouds 22 1015 83 10000 11.3 20 03:45 27.08.2019
2983 Clouds 22 1015 78 10000 11.3 10 03:21 27.08.2019
2984 Clouds 22 1015 83 10000 10.8 10 01:48 27.08.2019
2985 Clouds 23 1016 78 10000 9.8 10 01:26 27.08.2019
2986 Clouds 23 1016 78 10000 9.3 360 00:49 27.08.2019
2987 Clouds 23 1016 78 10000 11.3 10 00:28 27.08.2019
2988 Clouds 23 1016 78 10000 10.8 10 23:44 26.08.2019
2989 Clouds 23 1015 83 10000 9.8 10 23:25 26.08.2019
2990 Clouds 23 1015 78 10000 10.3 360 22:59 26.08.2019
2991 Clouds 23 1015 83 10000 11.8 10 22:37 26.08.2019
2992 Clouds 23 1015 83 10000 11.8 10 22:18 26.08.2019
2993 Clouds 24 1014 73 10000 11.3 360 21:40 26.08.2019
2994 Clouds 24 1014 73 10000 11.3 360 21:22 26.08.2019
2995 Clouds 24 1014 78 10000 12.3 10 20:59 26.08.2019
2996 Clouds 24 1014 78 10000 11.8 20 20:40 26.08.2019
2997 Clouds 25 1014 78 10000 11.8 20 20:20 26.08.2019
2998 Clouds 25 1014 73 10000 12.9 20 19:58 26.08.2019
2999 Clouds 26 1014 69 10000 13.4 10 19:39 26.08.2019
3000 Clouds 26 1014 69 10000 13.4 10 19:19 26.08.2019
3001 Clouds 26 1014 73 10000 12.9 10 18:39 26.08.2019
3002 Clouds 27 1014 73 10000 12.9 10 18:21 26.08.2019
3003 Clouds 27 1014 73 10000 12.9 10 17:59 26.08.2019
3004 Clouds 27 1014 73 10000 12.9 20 17:41 26.08.2019
3005 Clouds 27 1014 73 10000 12.9 20 17:19 26.08.2019
3006 Clouds 27 1014 65 10000 13.4 20 16:56 26.08.2019
3007 Clouds 27 1014 65 10000 13.4 20 16:56 26.08.2019
3008 Clouds 27 1014 65 10000 12.3 20 16:38 26.08.2019
3009 Clouds 27 1015 65 10000 12.3 20 16:18 26.08.2019
3010 Clouds 26 1015 69 10000 11.8 20 15:42 26.08.2019
3011 Clouds 26 1015 69 10000 11.8 20 15:22 26.08.2019
3012 Clouds 26 1015 69 10000 10.8 20 14:56 26.08.2019
3013 Clouds 26 1016 69 10000 10.8 20 14:37 26.08.2019
3014 Clouds 27 1016 78 10000 10.8 20 14:18 26.08.2019
3015 Clouds 27 1016 73 10000 11.3 20 13:41 26.08.2019
3016 Clouds 26 1016 73 10000 11.3 20 13:21 26.08.2019
3017 Clouds 26 1016 78 10000 10.8 10 12:46 26.08.2019
3018 Clouds 24 1016 78 10000 10.8 10 12:28 26.08.2019
3019 Clouds 25 1016 83 10000 9.8 10 11:58 26.08.2019
3020 Clouds 24 1016 83 10000 9.3 360 11:37 26.08.2019
3021 Clouds 25 1016 83 10000 9.3 360 11:19 26.08.2019
3022 Clouds 25 1015 88 10000 9.3 10 10:54 26.08.2019
3023 Clouds 25 1015 88 10000 9.3 10 10:54 26.08.2019
3024 Clouds 25 1015 88 10000 9.8 10 10:36 26.08.2019
3025 Clouds 23 1015 83 10000 9.3 10 10:18 26.08.2019
3026 Clouds 23 1014 88 9000 10.8 340 09:41 26.08.2019
3027 Clouds 23 1014 88 9000 10.8 340 09:23 26.08.2019
3028 Clear 23 1015 94 10000 8.2 360 08:55 26.08.2019
3029 Clear 23 1015 94 10000 8.2 360 08:55 26.08.2019
3030 Clouds 23 1014 94 10000 6.7 360 08:37 26.08.2019
3031 Clouds 23 1015 94 10000 8.7 20 08:18 26.08.2019
3032 Clouds 23 1014 94 10000 8.2 30 07:42 26.08.2019
3033 Clouds 25 1014 94 10000 8.2 30 07:23 26.08.2019
3034 Clouds 25 1013 83 10000 7.7 10 06:48 26.08.2019
3035 Clouds 26 1013 83 10000 7.7 10 06:25 26.08.2019
3036 Clouds 25 1013 78 10000 7.2 30 05:51 26.08.2019
3037 Clouds 23 1014 88 10000 5.1 10 04:31 26.08.2019
3038 Clouds 25 1015 78 10000 5.7 20 03:19 26.08.2019
3039 Clouds 25 1015 54 10000 7.2 10 01:40 26.08.2019
3040 Clouds 26 1014 54 10000 8.2 360 01:21 26.08.2019
3041 Clouds 25 1014 57 10000 9.8 10 00:41 26.08.2019
3042 Clouds 25 1014 57 10000 9.8 10 00:22 26.08.2019
3043 Clouds 25 1013 51 10000 9.3 10 23:43 25.08.2019
3044 Clouds 26 1013 51 10000 9.3 10 23:19 25.08.2019
3045 Clouds 25 1013 57 10000 9.8 360 22:57 25.08.2019
3046 Clouds 25 1013 65 10000 10.3 10 22:38 25.08.2019
3047 Clouds 25 1013 65 10000 10.3 10 22:20 25.08.2019
3048 Clouds 25 1012 73 10000 10.8 360 21:57 25.08.2019
3049 Clouds 25 1012 78 10000 9.8 360 21:37 25.08.2019
3050 Clouds 26 1012 78 10000 9.8 10 21:18 25.08.2019
3051 Clouds 27 1013 78 10000 11.3 10 20:40 25.08.2019
3052 Clouds 27 1013 78 10000 11.3 10 20:20 25.08.2019
3053 Clouds 26 1013 78 10000 12.9 20 19:58 25.08.2019
3054 Clouds 28 1012 61 10000 11.3 10 19:38 25.08.2019
3055 Clouds 28 1012 61 10000 11.3 10 19:19 25.08.2019
3056 Clouds 29 1012 61 10000 11.3 20 18:57 25.08.2019
3057 Clouds 29 1012 61 10000 10.3 360 18:39 25.08.2019
3058 Clouds 28 1013 74 10000 12.3 350 18:20 25.08.2019
3059 Clouds 27 1013 74 10000 11.8 20 17:43 25.08.2019
3060 Clouds 27 1013 74 10000 11.8 20 17:25 25.08.2019
3061 Rain 27 1012 69 10000 14.4 20 16:54 25.08.2019
3062 Clouds 29 1012 65 10000 11.8 30 16:36 25.08.2019
3063 Clouds 30 1012 40 10000 8.7 10 16:18 25.08.2019
3064 Clouds 30 1013 51 10000 11.8 20 15:42 25.08.2019
3065 Clouds 29 1013 51 10000 11.8 20 15:23 25.08.2019
3066 Clouds 29 1013 48 10000 11.3 10 14:42 25.08.2019
3067 Clouds 30 1013 48 10000 11.3 10 14:24 25.08.2019
3068 Clouds 28 1013 54 10000 11.8 10 13:56 25.08.2019
3069 Clouds 30 1014 58 10000 11.3 10 13:37 25.08.2019
3070 Clouds 30 1014 61 10000 9.8 10 13:18 25.08.2019
3071 Clouds 27 1014 69 10000 9.8 360 12:41 25.08.2019
3072 Clouds 28 1014 69 10000 9.8 360 12:23 25.08.2019
3073 Clouds 26 1014 69 10000 10.8 20 11:57 25.08.2019
3074 Clouds 27 1013 69 10000 11.8 10 11:38 25.08.2019
3075 Clouds 26 1013 69 10000 11.8 10 11:20 25.08.2019
3076 Clouds 27 1013 73 10000 10.8 360 10:56 25.08.2019
3077 Clear 27 1013 83 10000 10.3 360 10:37 25.08.2019
3078 Clear 25 1013 83 10000 10.3 360 10:19 25.08.2019
3079 Clear 27 1013 78 10000 8.2 350 09:42 25.08.2019
3080 Clear 25 1013 78 10000 8.2 350 09:24 25.08.2019
3081 Clear 25 1013 78 10000 9.3 360 08:47 25.08.2019
3082 Clear 25 1013 78 10000 9.3 360 08:29 25.08.2019
3083 Clear 23 1013 88 10000 8.7 350 07:54 25.08.2019
3084 Clear 23 1013 88 10000 8.7 360 07:32 25.08.2019
3085 Clear 23 1013 88 10000 8.7 360 07:32 25.08.2019
3086 Clear 23 1012 88 10000 9.3 10 06:39 25.08.2019
3087 Clear 23 1013 94 10000 8.7 360 05:27 25.08.2019
3088 Clear 26 1013 73 10000 9.8 20 03:45 25.08.2019
3089 Clear 26 1013 73 10000 12.9 10 02:42 25.08.2019
3090 Clear 25 1012 73 10000 11.8 10 01:53 25.08.2019
3091 Clear 27 1013 61 10000 10.8 10 00:54 25.08.2019
3092 Clear 27 1014 51 10000 9.8 20 00:23 25.08.2019
3093 Clear 26 1013 39 10000 9.8 20 23:58 24.08.2019
3094 Clear 27 1012 28 10000 10.8 20 23:39 24.08.2019
3095 Clear 27 1012 28 10000 10.8 20 23:21 24.08.2019
3096 Clear 27 1012 37 10000 9.8 10 22:42 24.08.2019
3097 Clear 27 1012 37 10000 9.8 10 22:19 24.08.2019
3098 Clear 27 1011 45 10000 11.3 20 21:59 24.08.2019
3099 Clear 27 1011 37 10000 10.8 20 21:39 24.08.2019
3100 Clear 28 1011 37 10000 10.8 20 21:21 24.08.2019
3101 Clear 28 1011 39 10000 10.8 10 20:57 24.08.2019
3102 Clear 29 1012 37 10000 10.8 20 20:39 24.08.2019
3103 Clear 28 1012 37 10000 10.8 20 20:19 24.08.2019
3104 Clear 28 1011 42 10000 11.8 10 19:57 24.08.2019
3105 Clear 28 1012 48 10000 12.9 10 19:38 24.08.2019
3106 Clear 28 1011 48 10000 13.9 20 19:20 24.08.2019
3107 Clear 28 1012 58 10000 13.4 20 18:46 24.08.2019
3108 Clear 27 1012 58 10000 13.4 20 18:24 24.08.2019
3109 Clouds 27 1012 65 10000 12.9 20 17:46 24.08.2019
3110 Clouds 27 1012 65 10000 12.9 20 17:46 24.08.2019
3111 Clouds 28 1012 65 10000 12.9 20 17:28 24.08.2019
3112 Clouds 27 1012 69 10000 13.9 20 16:57 24.08.2019
3113 Clouds 27 1013 65 10000 12.9 20 16:38 24.08.2019
3114 Clouds 28 1013 65 10000 12.9 20 16:19 24.08.2019
3115 Clouds 28 1013 69 10000 12.9 30 15:44 24.08.2019
3116 Clouds 28 1013 69 10000 12.9 30 15:26 24.08.2019
3117 Clouds 30 1013 62 10000 11.8 20 14:57 24.08.2019
3118 Clouds 30 1014 69 10000 12.3 30 14:39 24.08.2019
3119 Clouds 29 1014 69 10000 12.3 30 14:18 24.08.2019
3120 Clouds 29 1014 69 10000 12.3 10 13:43 24.08.2019
3121 Clouds 28 1014 69 10000 12.3 10 13:23 24.08.2019
3122 Clouds 28 1014 69 10000 13.9 20 12:59 24.08.2019
3123 Clouds 27 1014 74 10000 13.4 10 12:40 24.08.2019
3124 Clear 26 1013 74 10000 12.3 20 12:22 24.08.2019
3125 Clouds 26 1014 74 10000 13.4 10 12:22 24.08.2019
3126 Clear 26 1013 74 10000 12.3 20 11:49 24.08.2019
3127 Clouds 26 1013 74 10000 10.8 20 11:31 24.08.2019
3128 Clouds 27 1013 61 10000 8.2 10 10:59 24.08.2019
3129 Clouds 26 1012 73 10000 9.8 10 10:38 24.08.2019
3130 Clouds 25 1012 73 10000 9.8 10 10:20 24.08.2019
3131 Clear 25 1012 73 10000 8.2 10 09:42 24.08.2019
3132 Clear 26 1012 73 10000 8.2 10 09:19 24.08.2019
3133 Clear 25 1012 73 10000 10.3 10 08:43 24.08.2019
3134 Clear 25 1012 73 10000 10.3 10 08:24 24.08.2019
3135 Clear 25 1012 73 10000 8.2 30 07:52 24.08.2019
3136 Clear 26 1012 61 10000 8.2 20 07:30 24.08.2019
3137 Clear 25 1012 57 10000 7.2 360 06:39 24.08.2019
3138 Clear 25 1012 57 10000 7.2 360 06:21 24.08.2019
3139 Clear 24 1013 83 10000 9.3 40 05:35 24.08.2019
3140 Clear 23 1013 83 10000 11.8 10 03:48 24.08.2019
3141 Clear 23 1013 83 10000 11.8 10 03:28 24.08.2019
3142 Clear 24 1013 73 10000 11.8 20 02:18 24.08.2019
3143 Clear 24 1013 73 10000 12.3 20 01:25 24.08.2019
3144 Clear 24 1013 73 10000 10.8 20 00:47 24.08.2019
3145 Clear 24 1013 73 10000 10.8 20 00:23 24.08.2019
3146 Clear 24 1013 73 10000 10.8 20 00:23 24.08.2019
3147 Clear 24 1012 65 10000 9.8 10 23:45 23.08.2019
3148 Clear 25 1012 65 10000 9.8 10 23:20 23.08.2019
3149 Clear 24 1012 73 10000 11.8 20 22:45 23.08.2019
3150 Clear 24 1012 73 10000 11.8 20 22:27 23.08.2019
3151 Clear 25 1012 65 10000 11.3 10 21:56 23.08.2019
3152 Clouds 25 1011 69 10000 11.3 20 21:37 23.08.2019
3153 Clouds 25 1011 69 10000 11.3 20 21:37 23.08.2019
3154 Clouds 25 1011 69 10000 11.3 20 21:19 23.08.2019
3155 Clouds 25 1011 65 10000 12.3 10 20:51 23.08.2019
3156 Clouds 26 1011 61 10000 11.8 10 20:33 23.08.2019
3157 Clouds 26 1012 69 10000 11.8 10 19:47 23.08.2019
3158 Clouds 26 1012 69 10000 11.8 10 19:19 23.08.2019
3159 Clouds 28 1012 65 10000 12.3 10 18:56 23.08.2019
3160 Clouds 28 1012 65 10000 13.9 20 18:37 23.08.2019
3161 Clouds 28 1012 65 10000 14.4 20 18:19 23.08.2019
3162 Clouds 28 1012 65 10000 14.4 10 17:42 23.08.2019
3163 Clouds 28 1012 65 10000 14.4 10 17:24 23.08.2019
3164 Clouds 28 1012 69 10000 13.9 20 16:56 23.08.2019
3165 Clouds 27 1012 69 10000 14.4 20 16:38 23.08.2019
3166 Clouds 27 1012 69 10000 14.4 20 16:20 23.08.2019
3167 Clouds 26 1013 69 10000 14.9 20 15:40 23.08.2019
3168 Clouds 26 1013 69 10000 14.9 20 15:22 23.08.2019
3169 Clouds 26 1013 69 10000 13.4 20 14:56 23.08.2019
3170 Clouds 26 1013 69 10000 11.8 10 14:38 23.08.2019
3171 Clouds 26 1013 69 10000 11.8 10 14:20 23.08.2019
3172 Clouds 26 1013 73 10000 13.9 20 13:42 23.08.2019
3173 Clouds 26 1013 73 10000 13.9 20 13:23 23.08.2019
3174 Clouds 26 1013 65 10000 10.8 10 13:00 23.08.2019
3175 Clouds 26 1013 69 10000 11.3 10 12:41 23.08.2019
3176 Clouds 25 1013 69 10000 11.8 10 12:22 23.08.2019
3177 Clouds 25 1013 69 10000 11.8 10 11:58 23.08.2019
3178 Clouds 25 1013 73 10000 11.3 10 11:39 23.08.2019
3179 Clouds 24 1013 73 10000 11.3 10 11:19 23.08.2019
3180 Clouds 24 1012 73 10000 12.9 20 10:56 23.08.2019
3181 Clouds 24 1012 83 10000 11.8 10 10:38 23.08.2019
3182 Clouds 23 1012 78 10000 9.3 10 10:18 23.08.2019
3183 Clouds 22 1012 78 10000 11.3 10 09:43 23.08.2019
3184 Clouds 22 1012 78 10000 11.3 10 09:20 23.08.2019
3185 Clouds 22 1012 83 10000 11.8 10 08:45 23.08.2019
3186 Clouds 22 1012 83 10000 11.8 10 08:22 23.08.2019
3187 Clouds 22 1012 83 10000 12.9 20 07:59 23.08.2019
3188 Clouds 22 1012 83 10000 10.8 10 07:40 23.08.2019
3189 Clouds 22 1012 83 10000 10.8 10 07:22 23.08.2019
3190 Clouds 22 1012 83 10000 12.3 10 06:41 23.08.2019
3191 Clouds 22 1012 83 10000 12.3 10 06:22 23.08.2019
3192 Clouds 22 1012 83 10000 10.3 10 05:44 23.08.2019
3193 Clouds 22 1012 83 10000 10.3 10 05:25 23.08.2019
3194 Clouds 22 1012 83 10000 12.9 20 03:46 23.08.2019
3195 Clouds 22 1012 83 10000 13.9 20 02:38 23.08.2019
3196 Clouds 22 1012 83 10000 13.9 20 02:20 23.08.2019
3197 Clouds 22 1012 73 10000 12.9 10 00:58 23.08.2019
3198 Clouds 23 1012 73 10000 13.4 10 00:39 23.08.2019
3199 Clouds 23 1012 73 10000 13.9 10 00:18 23.08.2019
3200 Clouds 23 1012 78 10000 13.9 20 23:41 22.08.2019
3201 Clouds 23 1012 78 10000 13.9 20 23:21 22.08.2019
3202 Clouds 23 1012 73 10000 12.9 10 22:42 22.08.2019
3203 Clouds 23 1012 73 10000 12.9 10 22:24 22.08.2019
3204 Clouds 23 1011 73 10000 13.4 10 21:58 22.08.2019
3205 Clouds 23 1012 69 10000 14.4 20 21:40 22.08.2019
3206 Clouds 24 1012 69 10000 13.4 20 21:22 22.08.2019
3207 Clouds 24 1012 69 10000 13.4 20 20:58 22.08.2019
3208 Clouds 24 1011 65 10000 13.4 20 20:39 22.08.2019
3209 Clouds 25 1011 65 10000 13.4 20 20:20 22.08.2019
3210 Clouds 26 1011 65 10000 13.4 20 19:56 22.08.2019
3211 Clouds 25 1011 61 10000 14.4 10 19:38 22.08.2019
3212 Clouds 26 1011 61 10000 14.4 20 19:20 22.08.2019
3213 Clouds 26 1011 61 10000 14.4 20 18:57 22.08.2019
3214 Clouds 27 1011 61 10000 14.9 20 18:39 22.08.2019
3215 Clouds 27 1012 61 10000 15.4 20 18:19 22.08.2019
3216 Clouds 27 1012 61 10000 15.4 20 17:43 22.08.2019
3217 Clouds 26 1012 61 10000 15.4 20 17:24 22.08.2019
3218 Clouds 27 1012 57 10000 13.9 10 16:59 22.08.2019
3219 Clouds 27 1012 57 10000 13.9 10 16:40 22.08.2019
3220 Clouds 27 1012 57 10000 14.9 20 16:21 22.08.2019
3221 Clouds 27 1012 57 10000 13.9 10 16:21 22.08.2019
3222 Clouds 27 1012 57 10000 14.9 20 16:21 22.08.2019
3223 Clouds 27 1012 57 10000 14.9 20 15:59 22.08.2019
3224 Clouds 27 1012 57 10000 14.9 20 15:59 22.08.2019
3225 Clouds 27 1012 57 10000 15.4 20 15:40 22.08.2019
3226 Clouds 27 1012 57 10000 15.4 20 15:21 22.08.2019
3227 Clouds 27 1012 57 10000 13.4 20 14:57 22.08.2019
3228 Clouds 27 1013 51 10000 13.4 10 14:38 22.08.2019
3229 Clouds 27 1013 65 10000 15.4 20 14:18 22.08.2019
3230 Clouds 26 1013 65 10000 15.4 20 13:56 22.08.2019
3231 Clouds 25 1013 65 10000 15.4 20 13:37 22.08.2019
3232 Clouds 25 1014 65 10000 14.9 20 13:18 22.08.2019
3233 Clouds 25 1013 61 10000 14.9 20 12:40 22.08.2019
3234 Clouds 25 1013 61 10000 14.9 20 12:21 22.08.2019
3235 Clouds 25 1013 61 10000 14.4 20 11:55 22.08.2019
3236 Clouds 24 1013 64 10000 13.4 10 11:36 22.08.2019
3237 Clouds 24 1013 69 10000 13.9 10 11:18 22.08.2019
3238 Clouds 24 1013 69 10000 13.9 10 11:18 22.08.2019
3239 Clouds 23 1013 69 10000 13.9 10 10:57 22.08.2019
3240 Clouds 23 1013 69 10000 13.9 10 10:36 22.08.2019
3241 Clouds 22 1013 73 10000 13.9 20 10:18 22.08.2019
3242 Clouds 22 1013 73 10000 13.4 10 09:40 22.08.2019
3243 Clouds 21 1013 73 10000 13.4 10 09:21 22.08.2019
3244 Clouds 21 1013 73 10000 12.3 10 08:58 22.08.2019
3245 Clouds 21 1013 73 10000 11.8 10 08:39 22.08.2019
3246 Clouds 21 1013 73 10000 11.3 360 08:20 22.08.2019
3247 Clouds 21 1012 73 10000 11.8 360 07:42 22.08.2019
3248 Clouds 21 1012 73 10000 11.8 360 07:23 22.08.2019
3249 Clouds 21 1012 73 10000 10.8 360 06:55 22.08.2019
3250 Clouds 22 1012 73 10000 11.3 360 06:37 22.08.2019
3251 Clouds 22 1013 73 10000 11.3 10 06:18 22.08.2019
3252 Clouds 21 1013 73 10000 11.8 10 04:42 22.08.2019
3253 Clouds 22 1014 73 10000 11.8 360 02:52 22.08.2019
3254 Clouds 22 1014 73 10000 12.9 360 02:34 22.08.2019
3255 Clouds 22 1015 73 10000 12.9 10 01:26 22.08.2019
3256 Clouds 22 1015 78 10000 12.9 10 00:47 22.08.2019
3257 Clouds 22 1015 78 10000 12.9 10 00:28 22.08.2019
3258 Clouds 23 1015 69 10000 12.3 360 23:58 21.08.2019
3259 Clouds 23 1015 69 10000 13.4 360 23:37 21.08.2019
3260 Clouds 23 1015 69 10000 13.4 360 23:19 21.08.2019
3261 Clouds 23 1015 69 10000 13.4 10 22:55 21.08.2019
3262 Clouds 23 1014 69 10000 12.9 360 22:37 21.08.2019
3263 Clouds 23 1014 69 10000 13.9 360 22:19 21.08.2019
3264 Clouds 23 1014 69 10000 13.9 360 21:55 21.08.2019
3265 Clouds 23 1014 69 10000 13.9 360 21:55 21.08.2019
3266 Clouds 24 1014 64 10000 13.9 360 21:36 21.08.2019
3267 Clouds 24 1014 61 10000 13.4 360 21:18 21.08.2019
3268 Clouds 25 1014 61 10000 13.4 360 20:42 21.08.2019
3269 Clouds 25 1014 61 10000 13.4 360 20:42 21.08.2019
3270 Clouds 25 1014 61 10000 13.4 360 20:23 21.08.2019
3271 Clouds 25 1014 61 10000 14.9 10 19:56 21.08.2019
3272 Clouds 25 1014 57 10000 13.4 360 19:38 21.08.2019
3273 Clouds 26 1014 57 10000 13.9 10 19:19 21.08.2019
3274 Clouds 26 1015 61 10000 14.9 10 18:43 21.08.2019
3275 Clouds 26 1015 61 10000 14.9 10 18:23 21.08.2019
3276 Clouds 26 1015 61 10000 14.4 10 17:56 21.08.2019
3277 Clouds 26 1015 61 10000 15.9 10 17:37 21.08.2019
3278 Clouds 26 1015 61 10000 15.9 10 17:19 21.08.2019
3279 Clouds 26 1015 61 10000 16.5 20 16:44 21.08.2019
3280 Clouds 26 1015 61 10000 16.5 20 16:44 21.08.2019
3281 Clouds 26 1015 61 10000 16.5 20 16:24 21.08.2019
3282 Clouds 26 1015 61 10000 17 20 15:59 21.08.2019
3283 Clouds 26 1015 57 10000 15.9 20 15:41 21.08.2019
3284 Clouds 26 1015 57 10000 15.9 20 15:21 21.08.2019
3285 Clouds 26 1016 61 10000 15.9 20 14:57 21.08.2019
3286 Clouds 26 1016 57 10000 15.4 10 14:39 21.08.2019
3287 Clouds 26 1016 57 10000 15.4 10 14:20 21.08.2019
3288 Clouds 26 1016 57 10000 14.9 10 13:55 21.08.2019
3289 Clouds 26 1016 57 10000 14.9 10 13:55 21.08.2019
3290 Clouds 26 1016 61 10000 13.9 360 13:37 21.08.2019
3291 Clouds 25 1016 61 10000 13.9 360 13:18 21.08.2019
3292 Clouds 25 1016 61 10000 13.9 360 13:18 21.08.2019
3293 Clouds 25 1016 61 10000 13.4 360 12:41 21.08.2019
3294 Clouds 25 1016 61 10000 13.4 360 12:23 21.08.2019
3295 Clouds 24 1016 61 10000 13.9 10 11:59 21.08.2019
3296 Clouds 24 1016 64 10000 14.9 10 11:40 21.08.2019
3297 Clouds 24 1016 64 10000 14.9 10 11:22 21.08.2019
3298 Clouds 24 1016 69 10000 12.9 360 10:57 21.08.2019
3299 Clouds 23 1016 69 10000 12.3 10 10:38 21.08.2019
3300 Clouds 22 1016 73 10000 10.8 360 10:19 21.08.2019
3301 Clouds 22 1016 73 10000 10.8 360 09:55 21.08.2019
3302 Clouds 22 1016 73 10000 10.3 360 09:37 21.08.2019
3303 Clouds 22 1016 73 10000 11.3 360 09:18 21.08.2019
3304 Clouds 21 1016 78 10000 10.8 360 08:41 21.08.2019
3305 Clouds 21 1016 78 10000 10.8 360 08:23 21.08.2019
3306 Clouds 21 1016 73 10000 10.8 360 07:41 21.08.2019
3307 Clouds 21 1016 73 10000 10.8 360 07:22 21.08.2019
3308 Clouds 22 1015 78 10000 11.3 10 06:49 21.08.2019
3309 Clouds 22 1015 78 10000 11.8 360 06:23 21.08.2019
3310 Clouds 22 1016 78 10000 10.8 360 05:42 21.08.2019
3311 Clouds 22 1016 78 10000 10.8 360 05:23 21.08.2019
3312 Clouds 22 1016 73 10000 11.8 10 03:39 21.08.2019
3313 Clouds 22 1017 73 10000 9.3 10 01:50 21.08.2019
3314 Clouds 23 1017 73 10000 9.8 10 00:46 21.08.2019
3315 Clouds 23 1017 73 10000 9.8 10 00:24 21.08.2019
3316 Clouds 23 1017 73 10000 10.3 10 23:59 20.08.2019
3317 Clouds 23 1017 73 10000 10.3 10 23:41 20.08.2019
3318 Clouds 23 1017 73 10000 10.3 10 23:19 20.08.2019
3319 Clouds 23 1017 73 10000 9.8 10 22:56 20.08.2019
3320 Clouds 24 1017 69 10000 8.7 360 22:37 20.08.2019
3321 Clouds 24 1017 69 10000 8.7 360 22:19 20.08.2019
3322 Clouds 24 1017 69 10000 9.8 10 21:57 20.08.2019
3323 Clouds 24 1017 73 10000 11.3 20 21:37 20.08.2019
3324 Clouds 25 1017 73 10000 11.3 20 21:19 20.08.2019
3325 Clouds 26 1016 65 10000 12.3 20 20:43 20.08.2019
3326 Clouds 27 1016 65 10000 12.3 20 20:24 20.08.2019
3327 Clouds 27 1016 57 10000 10.8 10 19:58 20.08.2019
3328 Clouds 27 1016 61 10000 11.8 10 19:38 20.08.2019
3329 Clouds 27 1016 61 10000 11.8 10 19:20 20.08.2019
3330 Clouds 29 1016 54 10000 10.3 20 18:55 20.08.2019
3331 Clouds 28 1016 48 10000 11.3 10 18:37 20.08.2019
3332 Clouds 29 1016 48 10000 11.3 10 18:18 20.08.2019
3333 Clouds 29 1017 42 10000 11.3 10 17:39 20.08.2019
3334 Clouds 29 1017 42 10000 11.3 10 17:21 20.08.2019
3335 Clouds 29 1017 48 10000 10.8 10 16:58 20.08.2019
3336 Clouds 29 1017 51 10000 11.3 20 16:40 20.08.2019
3337 Clouds 28 1017 51 10000 11.3 20 16:22 20.08.2019
3338 Clouds 27 1017 61 10000 12.3 20 15:41 20.08.2019
3339 Clouds 27 1017 61 10000 12.3 20 15:18 20.08.2019
3340 Clouds 27 1018 57 10000 12.3 20 14:56 20.08.2019
3341 Clouds 27 1018 61 10000 12.9 20 14:38 20.08.2019
3342 Clouds 27 1018 61 10000 12.9 20 14:18 20.08.2019
3343 Clouds 27 1018 61 10000 10.8 10 13:55 20.08.2019
3344 Clouds 25 1018 69 10000 12.9 20 13:36 20.08.2019
3345 Clouds 25 1018 69 10000 12.9 20 13:18 20.08.2019
3346 Clouds 25 1018 65 10000 12.9 20 12:45 20.08.2019
3347 Clouds 25 1018 65 10000 12.9 20 12:24 20.08.2019
3348 Clouds 25 1018 69 10000 12.3 10 11:55 20.08.2019
3349 Clouds 23 1018 73 10000 10.3 360 11:37 20.08.2019
3350 Clouds 23 1018 73 10000 10.3 360 11:18 20.08.2019
3351 Clouds 23 1017 73 10000 9.3 360 10:55 20.08.2019
3352 Clouds 23 1017 73 10000 9.3 360 10:37 20.08.2019
3353 Clouds 22 1017 73 10000 9.3 360 10:18 20.08.2019
3354 Clouds 22 1016 83 10000 10.3 10 09:40 20.08.2019
3355 Clouds 22 1016 83 10000 10.3 10 09:22 20.08.2019
3356 Clouds 21 1016 83 10000 8.7 360 08:42 20.08.2019
3357 Clouds 21 1016 83 10000 8.7 360 08:24 20.08.2019
3358 Clouds 21 1016 83 10000 11.3 10 07:58 20.08.2019
3359 Clouds 21 1016 78 10000 11.3 10 07:39 20.08.2019
3360 Clouds 21 1016 78 10000 11.3 10 07:21 20.08.2019
3361 Clouds 21 1016 78 10000 9.8 10 06:47 20.08.2019
3362 Clouds 21 1016 78 10000 9.8 10 06:21 20.08.2019
3363 Clouds 21 1016 83 10000 10.8 10 05:48 20.08.2019
3364 Clouds 21 1016 78 10000 12.3 20 04:42 20.08.2019
3365 Clouds 22 1017 83 10000 10.3 10 02:58 20.08.2019
3366 Clouds 22 1017 83 10000 10.8 20 02:18 20.08.2019
3367 Clouds 22 1018 78 10000 11.3 10 01:21 20.08.2019
3368 Clouds 22 1017 83 10000 11.8 10 00:45 20.08.2019
3369 Clouds 23 1017 83 10000 12.3 10 00:25 20.08.2019
3370 Clouds 23 1017 83 10000 9.8 10 23:50 19.08.2019
3371 Clouds 23 1017 83 10000 10.8 10 23:19 19.08.2019
3372 Clouds 23 1017 83 10000 9.8 10 22:59 19.08.2019
3373 Clouds 23 1016 83 10000 10.3 10 22:41 19.08.2019
3374 Clouds 23 1016 83 10000 10.3 10 22:21 19.08.2019
3375 Clouds 24 1016 78 10000 10.3 10 21:57 19.08.2019
3376 Clouds 24 1016 78 10000 10.3 10 21:38 19.08.2019
3377 Clouds 24 1016 78 10000 10.3 10 21:20 19.08.2019
3378 Clouds 24 1016 78 10000 10.3 20 20:56 19.08.2019
3379 Clouds 25 1015 78 10000 10.8 20 20:37 19.08.2019
3380 Clouds 25 1015 78 10000 10.8 20 20:19 19.08.2019
3381 Clouds 26 1015 78 10000 11.8 20 19:55 19.08.2019
3382 Clear 26 1015 78 10000 12.3 20 19:36 19.08.2019
3383 Clear 26 1015 78 10000 12.3 20 19:18 19.08.2019
3384 Clouds 26 1015 74 10000 12.9 30 18:41 19.08.2019
3385 Clouds 26 1015 74 10000 12.9 30 18:22 19.08.2019
3386 Clouds 27 1015 69 10000 12.9 30 17:57 19.08.2019
3387 Clouds 27 1015 69 10000 12.9 30 17:38 19.08.2019
3388 Clouds 27 1015 69 10000 12.9 30 17:19 19.08.2019
3389 Clouds 27 1015 69 10000 12.3 30 16:54 19.08.2019
3390 Clouds 27 1016 69 10000 11.8 30 16:36 19.08.2019
3391 Clouds 27 1016 69 10000 11.8 30 16:36 19.08.2019
3392 Clouds 27 1016 69 10000 12.3 30 16:18 19.08.2019
3393 Clouds 28 1016 65 10000 10.8 20 15:45 19.08.2019
3394 Clouds 28 1016 65 10000 10.8 20 15:19 19.08.2019
3395 Clouds 28 1016 65 10000 11.3 30 14:55 19.08.2019
3396 Clouds 27 1016 69 10000 11.8 30 14:36 19.08.2019
3397 Clouds 28 1016 69 10000 12.3 20 14:18 19.08.2019
3398 Clouds 27 1016 69 10000 12.3 20 13:54 19.08.2019
3399 Clouds 27 1017 69 10000 11.8 30 13:36 19.08.2019
3400 Clouds 27 1016 73 10000 11.8 20 13:18 19.08.2019
3401 Clouds 27 1016 73 10000 11.3 20 12:41 19.08.2019
3402 Clouds 26 1016 73 10000 11.3 20 12:22 19.08.2019
3403 Clouds 26 1015 73 10000 9.8 10 11:43 19.08.2019
3404 Clouds 26 1015 73 10000 9.8 10 11:25 19.08.2019
3405 Clouds 25 1015 73 10000 10.3 10 10:59 19.08.2019
3406 Clouds 24 1015 78 10000 9.3 10 10:39 19.08.2019
3407 Clouds 24 1015 78 10000 9.3 10 10:19 19.08.2019
3408 Clouds 24 1015 73 10000 9.8 10 09:54 19.08.2019
3409 Clouds 23 1015 69 10000 8.2 360 09:36 19.08.2019
3410 Clouds 23 1014 83 10000 9.8 10 09:18 19.08.2019
3411 Clouds 22 1014 83 10000 10.3 10 08:42 19.08.2019
3412 Clouds 22 1014 83 10000 10.3 10 08:22 19.08.2019
3413 Clear 22 1014 83 10000 12.3 20 07:54 19.08.2019
3414 Clear 22 1014 83 10000 10.8 20 07:34 19.08.2019
3415 Clear 22 1014 83 10000 12.3 20 06:59 19.08.2019
3416 Clear 22 1013 78 10000 11.3 20 06:36 19.08.2019
3417 Clear 23 1014 83 10000 11.8 20 05:27 19.08.2019
3418 Clear 23 1014 78 10000 11.8 10 04:33 19.08.2019
3419 Clear 25 1014 64 10000 10.8 10 03:27 19.08.2019
3420 Clear 26 1015 44 10000 9.8 10 02:30 19.08.2019
3421 Clear 27 1015 32 10000 9.8 360 01:37 19.08.2019
3422 Clear 27 1015 34 10000 11.3 10 00:48 19.08.2019
3423 Clear 26 1015 47 10000 10.8 20 00:24 19.08.2019
3424 Clear 27 1014 44 10000 10.3 10 23:56 18.08.2019
3425 Clear 28 1014 26 10000 9.8 360 23:36 18.08.2019
3426 Clear 27 1014 34 10000 9.8 360 23:18 18.08.2019
3427 Clear 27 1013 37 10000 9.8 10 22:40 18.08.2019
3428 Clear 27 1013 37 10000 9.8 10 22:21 18.08.2019
3429 Clear 27 1013 42 10000 11.8 360 21:57 18.08.2019
3430 Clear 27 1013 54 10000 10.3 360 21:38 18.08.2019
3431 Clear 26 1013 61 10000 11.8 10 21:20 18.08.2019
3432 Clear 27 1013 61 10000 13.4 10 20:45 18.08.2019
3433 Clear 27 1013 61 10000 13.4 10 20:45 18.08.2019
3434 Clear 27 1013 61 10000 13.4 10 20:45 18.08.2019
3435 Clear 27 1013 61 10000 13.4 10 20:26 18.08.2019
3436 Clear 27 1013 65 10000 13.4 10 19:59 18.08.2019
3437 Clear 27 1013 65 10000 12.3 20 19:41 18.08.2019
3438 Clear 27 1013 65 10000 12.3 20 19:41 18.08.2019
3439 Clear 27 1013 65 10000 12.3 20 19:22 18.08.2019
3440 Clouds 28 1013 61 10000 11.8 10 18:56 18.08.2019
3441 Clouds 27 1013 65 10000 12.9 10 18:38 18.08.2019
3442 Clouds 27 1014 69 10000 13.4 30 18:19 18.08.2019
3443 Clear 30 1014 65 10000 13.4 20 17:43 18.08.2019
3444 Clear 30 1014 61 10000 14.4 20 17:19 18.08.2019
3445 Clear 30 1014 61 10000 14.4 20 17:19 18.08.2019
3446 Clear 30 1014 61 10000 14.4 20 17:19 18.08.2019
3447 Clear 30 1014 61 10000 14.4 20 16:59 18.08.2019
3448 Clear 30 1014 61 10000 13.9 20 16:41 18.08.2019
3449 Clear 29 1014 61 10000 12.9 10 16:21 18.08.2019
3450 Clear 30 1014 61 10000 12.9 10 15:58 18.08.2019
3451 Clear 30 1014 58 10000 13.9 20 15:39 18.08.2019
3452 Clear 31 1014 51 10000 12.3 20 15:20 18.08.2019
3453 Clear 31 1014 51 10000 12.3 20 15:20 18.08.2019
3454 Clear 31 1014 51 10000 12.3 20 14:56 18.08.2019
3455 Clear 31 1014 54 10000 13.4 10 14:37 18.08.2019
3456 Clear 31 1014 54 10000 13.4 10 14:18 18.08.2019
3457 Clear 30 1015 54 10000 12.9 20 13:43 18.08.2019
3458 Clear 29 1015 54 10000 12.9 20 13:24 18.08.2019
3459 Clear 28 1014 54 10000 14.4 10 12:59 18.08.2019
3460 Clouds 28 1014 58 10000 12.3 20 12:40 18.08.2019
3461 Clouds 28 1014 58 10000 12.3 20 12:21 18.08.2019
3462 Clouds 27 1013 61 10000 11.3 10 11:44 18.08.2019
3463 Clouds 27 1013 61 10000 11.3 10 11:23 18.08.2019
3464 Clouds 26 1013 61 10000 10.3 10 10:59 18.08.2019
3465 Clear 26 1013 57 10000 8.7 360 10:40 18.08.2019
3466 Clear 26 1013 57 10000 8.7 360 10:40 18.08.2019
3467 Clear 26 1013 57 10000 8.7 360 10:19 18.08.2019
3468 Clear 24 1013 64 10000 9.3 360 09:45 18.08.2019
3469 Clear 24 1013 64 10000 9.3 360 09:21 18.08.2019
3470 Clear 25 1012 61 10000 9.8 360 08:45 18.08.2019
3471 Clear 25 1012 61 10000 9.8 360 08:25 18.08.2019
3472 Clear 24 1012 64 10000 11.3 20 07:59 18.08.2019
3473 Clear 25 1012 61 10000 11.8 20 07:41 18.08.2019
3474 Clear 25 1012 61 10000 11.8 20 07:22 18.08.2019
3475 Clear 28 1013 39 10000 10.3 10 05:46 18.08.2019
3476 Clear 29 1013 35 10000 9.8 360 04:51 18.08.2019
3477 Clear 29 1013 35 10000 9.3 360 03:22 18.08.2019
3478 Clear 29 1013 37 10000 9.8 360 02:45 18.08.2019
3479 Clear 29 1013 37 10000 10.3 360 02:18 18.08.2019
3480 Clear 29 1013 39 10000 9.8 10 01:30 18.08.2019
3481 Clear 29 1013 39 10000 10.3 10 00:44 18.08.2019
3482 Clear 29 1013 39 10000 10.3 10 00:24 18.08.2019
3483 Clear 29 1013 39 10000 10.8 10 23:58 17.08.2019
3484 Clear 29 1013 39 10000 10.8 10 23:58 17.08.2019
3485 Clear 28 1013 45 10000 10.8 20 23:39 17.08.2019
3486 Clear 28 1013 45 10000 10.8 20 23:21 17.08.2019
3487 Clear 29 1012 39 10000 9.8 10 22:59 17.08.2019
3488 Clear 29 1012 42 10000 10.3 10 22:41 17.08.2019
3489 Clear 29 1012 42 10000 10.3 10 22:23 17.08.2019
3490 Clear 28 1012 51 10000 11.3 10 21:55 17.08.2019
3491 Clear 28 1011 54 10000 10.8 10 21:37 17.08.2019
3492 Clear 28 1011 54 10000 10.8 10 21:19 17.08.2019
3493 Clear 28 1011 58 10000 12.3 10 20:39 17.08.2019
3494 Clear 30 1011 58 10000 12.3 10 20:20 17.08.2019
3495 Clear 29 1011 58 10000 12.9 20 19:56 17.08.2019
3496 Clear 30 1011 54 10000 12.9 20 19:38 17.08.2019
3497 Clear 30 1011 54 10000 12.9 20 19:19 17.08.2019
3498 Clear 31 1012 48 10000 11.8 10 18:39 17.08.2019
3499 Clear 31 1012 54 10000 13.4 10 18:19 17.08.2019
3500 Clear 31 1012 54 10000 13.4 10 18:19 17.08.2019
3501 Clear 31 1012 54 10000 13.4 10 18:19 17.08.2019
3502 Clear 31 1012 54 10000 13.4 10 17:56 17.08.2019
3503 Clear 30 1012 54 10000 12.9 20 17:37 17.08.2019
3504 Clear 30 1012 54 10000 12.9 20 17:19 17.08.2019
3505 Clear 29 1012 58 10000 12.3 10 16:43 17.08.2019
3506 Clear 29 1012 58 10000 12.3 10 16:25 17.08.2019
3507 Clear 29 1012 51 10000 11.8 10 15:58 17.08.2019
3508 Clear 29 1012 55 10000 12.9 10 15:39 17.08.2019
3509 Clear 30 1012 55 10000 12.3 10 15:20 17.08.2019
3510 Clear 29 1012 55 10000 12.3 20 14:41 17.08.2019
3511 Clear 29 1012 55 10000 12.3 20 14:22 17.08.2019
3512 Clear 30 1012 54 10000 13.4 10 13:48 17.08.2019
3513 Clear 28 1012 54 10000 13.4 10 13:23 17.08.2019
3514 Clear 28 1012 61 10000 13.9 10 12:58 17.08.2019
3515 Clear 29 1012 61 10000 13.4 10 12:40 17.08.2019
3516 Clear 28 1012 65 10000 12.9 10 12:19 17.08.2019
3517 Clear 27 1012 69 10000 13.4 10 11:45 17.08.2019
3518 Clear 26 1012 69 10000 13.4 10 11:21 17.08.2019
3519 Clear 25 1012 73 10000 11.8 360 10:57 17.08.2019
3520 Clear 25 1012 73 10000 11.8 360 10:57 17.08.2019
3521 Clouds 25 1012 78 10000 10.8 360 10:39 17.08.2019
3522 Clouds 25 1012 78 10000 10.8 360 10:19 17.08.2019
3523 Clouds 24 1012 78 10000 10.8 10 09:48 17.08.2019
3524 Clouds 24 1012 78 10000 10.8 10 09:29 17.08.2019
3525 Clouds 24 1012 78 10000 9.8 10 08:54 17.08.2019
3526 Clouds 24 1012 78 10000 9.8 360 08:25 17.08.2019
3527 Clear 24 1011 73 10000 9.8 360 07:51 17.08.2019
3528 Clear 24 1011 73 10000 9.8 360 07:21 17.08.2019
3529 Clear 24 1011 73 10000 8.7 360 06:54 17.08.2019
3530 Clouds 25 1012 69 10000 10.3 10 05:35 17.08.2019
3531 Clouds 24 1012 69 10000 10.3 10 04:29 17.08.2019
3532 Clouds 25 1013 69 10000 10.3 360 03:33 17.08.2019
3533 Clouds 25 1013 73 10000 12.3 360 01:47 17.08.2019
3534 Clouds 25 1013 73 10000 12.3 360 01:28 17.08.2019
3535 Clear 25 1013 73 10000 11.3 360 00:55 17.08.2019
3536 Clear 25 1013 78 10000 12.3 360 00:28 17.08.2019
3537 Clear 25 1013 73 10000 12.9 360 23:50 16.08.2019
3538 Clear 25 1012 73 10000 11.3 360 23:27 16.08.2019
3539 Clouds 26 1012 78 10000 11.3 360 22:56 16.08.2019
3540 Clouds 26 1012 78 10000 12.3 360 22:38 16.08.2019
3541 Clear 26 1012 78 10000 12.9 10 22:19 16.08.2019
3542 Clear 26 1012 74 10000 12.9 10 21:40 16.08.2019
3543 Clear 26 1012 74 10000 12.9 10 21:20 16.08.2019
3544 Clear 26 1012 69 10000 11.8 10 20:56 16.08.2019
3545 Clear 26 1012 69 10000 12.9 10 20:37 16.08.2019
3546 Clear 26 1011 65 10000 12.9 10 20:18 16.08.2019
3547 Clear 27 1011 61 10000 13.9 20 19:42 16.08.2019
3548 Clear 27 1011 61 10000 13.9 20 19:22 16.08.2019
3549 Clear 28 1012 61 10000 12.9 20 18:44 16.08.2019
3550 Clear 28 1012 61 10000 12.9 20 18:26 16.08.2019
3551 Clear 29 1012 55 10000 11.8 10 17:58 16.08.2019
3552 Clear 30 1012 55 10000 13.4 20 17:39 16.08.2019
3553 Clear 31 1012 55 10000 12.3 30 17:20 16.08.2019
3554 Clear 31 1012 52 10000 11.8 20 16:42 16.08.2019
3555 Clear 30 1012 52 10000 11.8 20 16:22 16.08.2019
3556 Clear 30 1012 48 10000 11.8 10 15:59 16.08.2019
3557 Clear 29 1013 48 10000 12.9 10 15:40 16.08.2019
3558 Clear 29 1013 48 10000 12.9 10 15:21 16.08.2019
3559 Clear 28 1013 54 10000 13.9 20 14:58 16.08.2019
3560 Clear 29 1013 48 10000 12.3 20 14:38 16.08.2019
3561 Clear 29 1013 54 10000 12.9 10 14:19 16.08.2019
3562 Clear 29 1013 51 10000 12.3 10 13:41 16.08.2019
3563 Clear 29 1013 51 10000 12.3 10 13:23 16.08.2019
3564 Clouds 27 1014 58 10000 12.9 10 12:56 16.08.2019
3565 Clouds 26 1013 61 10000 13.4 10 12:37 16.08.2019
3566 Clouds 26 1013 61 10000 13.4 10 12:37 16.08.2019
3567 Clouds 26 1014 65 10000 11.3 10 12:19 16.08.2019
3568 Clouds 26 1014 65 10000 11.3 10 12:19 16.08.2019
3569 Clouds 26 1013 69 10000 12.9 360 11:42 16.08.2019
3570 Clouds 25 1013 69 10000 12.9 360 11:24 16.08.2019
3571 Clouds 25 1013 69 10000 12.9 360 11:24 16.08.2019
3572 Clouds 23 1013 73 10000 10.8 360 10:43 16.08.2019
3573 Clouds 23 1013 73 10000 10.8 360 10:25 16.08.2019
3574 Clouds 23 1013 73 10000 11.3 360 09:56 16.08.2019
3575 Clouds 22 1013 83 10000 12.3 10 09:37 16.08.2019
3576 Clouds 22 1013 83 10000 12.3 10 09:37 16.08.2019
3577 Clouds 22 1013 78 10000 10.8 360 09:18 16.08.2019
3578 Clouds 22 1013 88 10000 11.8 10 08:41 16.08.2019
3579 Clouds 22 1013 88 10000 11.8 10 08:21 16.08.2019
3580 Clouds 22 1013 88 10000 12.3 10 07:54 16.08.2019
3581 Clouds 22 1013 88 10000 12.3 10 07:33 16.08.2019
3582 Clouds 22 1013 88 10000 11.3 360 06:57 16.08.2019
3583 Clouds 22 1013 88 10000 11.3 10 06:31 16.08.2019
3584 Clouds 22 1013 88 10000 11.8 10 05:41 16.08.2019
3585 Clouds 22 1014 83 10000 12.3 20 04:28 16.08.2019
3586 Clouds 23 1014 78 10000 11.8 10 02:40 16.08.2019
3587 Clouds 23 1015 78 10000 13.9 10 01:33 16.08.2019
3588 Clouds 23 1015 78 10000 13.9 10 00:59 16.08.2019
3589 Clouds 23 1015 83 10000 12.3 20 00:40 16.08.2019
3590 Clouds 23 1015 83 10000 12.3 20 00:20 16.08.2019
3591 Clouds 24 1015 73 10000 11.8 10 23:44 15.08.2019
3592 Clouds 24 1015 73 10000 11.8 10 23:21 15.08.2019
3593 Clouds 24 1014 73 10000 11.8 10 22:57 15.08.2019
3594 Clouds 24 1014 73 10000 12.3 10 22:39 15.08.2019
3595 Clouds 24 1014 73 10000 12.3 10 22:39 15.08.2019
3596 Clouds 24 1014 73 10000 12.3 10 22:39 15.08.2019
3597 Clouds 24 1014 73 10000 12.3 10 22:20 15.08.2019
3598 Clouds 24 1014 73 10000 11.8 10 21:54 15.08.2019
3599 Clouds 25 1014 69 10000 13.4 10 21:36 15.08.2019
3600 Clouds 25 1014 69 10000 13.9 10 21:18 15.08.2019
3601 Clouds 26 1014 65 10000 13.9 10 20:42 15.08.2019
3602 Clouds 26 1014 65 10000 13.9 10 20:21 15.08.2019
3603 Clouds 26 1014 65 10000 13.9 10 20:21 15.08.2019
3604 Clouds 26 1014 65 10000 13.9 10 20:21 15.08.2019
3605 Clouds 26 1014 65 10000 14.4 10 19:57 15.08.2019
3606 Clouds 26 1014 65 10000 14.9 10 19:38 15.08.2019
3607 Clouds 26 1014 65 10000 14.9 10 19:19 15.08.2019
3608 Clouds 27 1015 61 10000 15.4 20 18:46 15.08.2019
3609 Clouds 27 1015 61 10000 15.4 20 18:23 15.08.2019
3610 Clouds 27 1015 61 10000 15.4 20 17:57 15.08.2019
3611 Clouds 27 1015 61 10000 14.9 10 17:37 15.08.2019
3612 Clouds 27 1015 61 10000 14.9 10 17:19 15.08.2019
3613 Clouds 27 1015 61 10000 15.4 20 16:48 15.08.2019
3614 Clouds 27 1015 61 10000 15.4 20 16:27 15.08.2019
3615 Clouds 27 1015 61 10000 15.4 20 15:59 15.08.2019
3616 Clouds 27 1015 61 10000 14.9 20 15:38 15.08.2019
3617 Clouds 27 1015 61 10000 14.9 20 15:19 15.08.2019
3618 Clouds 26 1016 65 10000 13.4 10 14:43 15.08.2019
3619 Clouds 27 1016 65 10000 13.4 10 14:23 15.08.2019
3620 Clouds 26 1016 65 10000 14.9 20 13:58 15.08.2019
3621 Clouds 26 1016 65 10000 14.4 20 13:40 15.08.2019
3622 Clouds 26 1016 65 10000 14.4 20 13:21 15.08.2019
3623 Clouds 26 1016 65 10000 14.9 20 12:57 15.08.2019
3624 Clouds 26 1016 61 10000 13.4 20 12:39 15.08.2019
3625 Clouds 26 1016 61 10000 13.4 20 12:19 15.08.2019
3626 Clouds 26 1016 61 10000 12.9 20 11:57 15.08.2019
3627 Clouds 25 1016 57 10000 10.8 10 11:36 15.08.2019
3628 Clouds 24 1016 57 10000 9.8 360 11:18 15.08.2019
3629 Clouds 24 1016 57 10000 9.8 360 10:57 15.08.2019
3630 Clouds 24 1016 50 10000 9.3 360 10:36 15.08.2019
3631 Clouds 23 1016 64 10000 9.3 10 10:18 15.08.2019
3632 Clouds 22 1015 68 10000 9.8 360 09:41 15.08.2019
3633 Clouds 21 1015 73 10000 11.8 10 09:21 15.08.2019
3634 Clouds 21 1015 73 10000 11.3 20 08:38 15.08.2019
3635 Clouds 21 1015 73 10000 11.3 20 08:20 15.08.2019
3636 Clear 21 1015 73 10000 11.3 10 07:54 15.08.2019
3637 Clouds 21 1016 73 10000 11.8 10 07:36 15.08.2019
3638 Clouds 21 1016 73 10000 11.3 10 07:18 15.08.2019
3639 Clear 22 1016 73 10000 11.3 10 06:40 15.08.2019
3640 Clear 22 1016 73 10000 11.3 10 06:40 15.08.2019
3641 Clear 22 1016 73 10000 11.3 10 06:21 15.08.2019
3642 Clear 22 1016 73 10000 12.3 10 05:29 15.08.2019
3643 Clear 22 1016 73 10000 11.3 10 04:51 15.08.2019
3644 Clouds 22 1017 78 10000 12.3 10 03:49 15.08.2019
3645 Clouds 22 1017 78 10000 11.8 10 02:53 15.08.2019
3646 Clouds 22 1017 78 10000 11.8 10 02:24 15.08.2019
3647 Clouds 22 1017 78 10000 11.8 20 01:39 15.08.2019
3648 Clouds 23 1017 73 10000 11.3 10 00:54 15.08.2019
3649 Clear 23 1017 73 10000 11.8 10 00:36 15.08.2019
3650 Clear 23 1017 73 10000 11.8 10 00:18 15.08.2019
3651 Clear 23 1017 73 10000 11.3 10 23:41 14.08.2019
3652 Clear 23 1017 73 10000 11.3 10 23:20 14.08.2019
3653 Clouds 23 1016 73 10000 10.3 10 22:59 14.08.2019
3654 Clouds 24 1016 69 10000 9.8 10 22:40 14.08.2019
3655 Clouds 23 1016 69 10000 9.8 10 22:22 14.08.2019
3656 Clouds 24 1016 61 10000 8.7 360 21:57 14.08.2019
3657 Clouds 24 1016 61 10000 11.3 10 21:38 14.08.2019
3658 Clouds 25 1016 61 10000 11.3 10 21:20 14.08.2019
3659 Clouds 26 1016 61 10000 11.3 10 20:54 14.08.2019
3660 Clouds 26 1016 57 10000 11.8 10 20:36 14.08.2019
3661 Clouds 26 1016 54 10000 11.8 10 20:18 14.08.2019
3662 Clouds 27 1016 54 10000 11.8 20 19:40 14.08.2019
3663 Clouds 27 1016 54 10000 11.8 20 19:22 14.08.2019
3664 Clouds 27 1017 54 10000 11.8 20 18:57 14.08.2019
3665 Clouds 28 1017 51 10000 11.8 20 18:39 14.08.2019
3666 Clouds 28 1017 51 10000 11.8 20 18:20 14.08.2019
3667 Clouds 28 1017 48 10000 11.3 20 17:58 14.08.2019
3668 Clouds 28 1017 51 10000 11.8 10 17:37 14.08.2019
3669 Clouds 28 1017 51 10000 11.8 10 17:19 14.08.2019
3670 Clouds 29 1017 48 10000 11.3 20 16:43 14.08.2019
3671 Clouds 28 1017 51 10000 11.8 20 16:21 14.08.2019
3672 Clouds 28 1017 51 10000 11.8 20 15:59 14.08.2019
3673 Clouds 27 1017 57 10000 12.9 30 15:40 14.08.2019
3674 Clouds 27 1017 57 10000 12.3 20 15:18 14.08.2019
3675 Clouds 27 1018 57 10000 13.4 20 14:41 14.08.2019
3676 Clouds 27 1018 57 10000 13.4 20 14:19 14.08.2019
3677 Clouds 26 1018 57 10000 13.4 20 13:59 14.08.2019
3678 Clouds 26 1018 57 10000 12.3 10 13:41 14.08.2019
3679 Clouds 26 1018 57 10000 12.3 10 13:22 14.08.2019
3680 Clouds 26 1018 57 10000 12.3 10 13:22 14.08.2019
3681 Clouds 26 1018 57 10000 12.3 10 13:22 14.08.2019
3682 Clouds 26 1018 57 10000 11.8 10 12:56 14.08.2019
3683 Clouds 25 1018 61 10000 12.3 20 12:38 14.08.2019
3684 Clouds 25 1018 61 10000 12.3 20 12:20 14.08.2019
3685 Clouds 24 1017 60 10000 11.8 10 11:47 14.08.2019
3686 Clouds 24 1017 60 10000 11.8 10 11:23 14.08.2019
3687 Clouds 24 1017 60 10000 10.8 10 10:59 14.08.2019
3688 Clouds 23 1017 69 10000 10.8 10 10:39 14.08.2019
3689 Clouds 23 1017 69 10000 10.8 10 10:39 14.08.2019
3690 Clouds 23 1017 69 10000 10.8 10 10:21 14.08.2019
3691 Clouds 21 1017 73 10000 10.3 10 09:45 14.08.2019
3692 Clouds 21 1017 73 10000 10.3 10 09:22 14.08.2019
3693 Clouds 21 1017 73 10000 10.8 10 08:49 14.08.2019
3694 Clouds 21 1017 73 10000 10.8 10 08:30 14.08.2019
3695 Clear 21 1016 73 10000 11.3 10 07:57 14.08.2019
3696 Clear 21 1016 73 10000 10.8 10 07:39 14.08.2019
3697 Clear 21 1016 73 10000 10.8 10 07:20 14.08.2019
3698 Clouds 21 1017 73 10000 9.8 10 06:43 14.08.2019
3699 Clouds 21 1017 77 10000 9.3 360 05:47 14.08.2019
3700 Clouds 21 1017 73 10000 9.8 360 04:45 14.08.2019
3701 Clouds 22 1018 73 10000 9.3 360 02:52 14.08.2019
3702 Clouds 22 1018 73 10000 9.8 360 02:25 14.08.2019
3703 Clouds 22 1018 73 10000 10.3 360 01:34 14.08.2019
3704 Clouds 22 1018 68 10000 10.8 360 00:48 14.08.2019
3705 Clouds 23 1017 69 10000 12.3 10 23:47 13.08.2019
3706 Clouds 23 1017 69 10000 12.3 10 23:21 13.08.2019
3707 Clouds 23 1017 64 10000 12.3 360 22:57 13.08.2019
3708 Clouds 23 1017 64 10000 13.4 10 22:39 13.08.2019
3709 Clouds 23 1017 64 10000 13.4 10 22:20 13.08.2019
3710 Clouds 23 1016 64 10000 12.3 360 21:56 13.08.2019
3711 Clouds 24 1016 60 10000 13.9 10 21:37 13.08.2019
3712 Clouds 24 1016 60 10000 13.4 10 21:18 13.08.2019
3713 Clouds 25 1016 57 10000 13.4 360 20:44 13.08.2019
3714 Clouds 25 1016 57 10000 13.4 360 20:20 13.08.2019
3715 Clouds 25 1017 61 10000 13.9 10 19:58 13.08.2019
3716 Clouds 26 1016 57 10000 13.4 360 19:40 13.08.2019
3717 Clouds 25 1016 57 10000 13.4 360 19:21 13.08.2019
3718 Clouds 27 1016 54 10000 13.9 10 18:42 13.08.2019
3719 Clouds 27 1016 54 10000 13.9 10 18:23 13.08.2019
3720 Clouds 26 1016 61 10000 15.9 20 17:58 13.08.2019
3721 Clouds 26 1017 57 10000 15.4 20 17:39 13.08.2019
3722 Clouds 26 1017 57 10000 15.4 20 17:19 13.08.2019
3723 Clouds 26 1017 57 10000 14.9 20 16:56 13.08.2019
3724 Clouds 26 1017 57 10000 14.4 20 16:37 13.08.2019
3725 Clouds 26 1017 57 10000 14.4 20 16:19 13.08.2019
3726 Clouds 27 1018 57 10000 14.4 20 15:39 13.08.2019
3727 Clouds 27 1018 57 10000 14.4 20 15:20 13.08.2019
3728 Clouds 27 1018 61 10000 14.9 20 14:57 13.08.2019
3729 Clouds 27 1018 61 10000 14.9 20 14:57 13.08.2019
3730 Clouds 27 1018 51 10000 13.9 10 14:38 13.08.2019
3731 Clouds 27 1018 51 10000 13.4 10 14:18 13.08.2019
3732 Clouds 26 1018 54 10000 13.4 360 13:41 13.08.2019
3733 Clouds 26 1018 54 10000 13.4 360 13:21 13.08.2019
3734 Clouds 26 1018 50 10000 12.9 360 12:58 13.08.2019
3735 Clouds 26 1018 54 10000 13.9 10 12:40 13.08.2019
3736 Clouds 25 1018 54 10000 13.9 10 12:21 13.08.2019
3737 Clouds 24 1018 57 10000 12.9 360 11:57 13.08.2019
3738 Clouds 24 1018 57 10000 11.3 360 11:37 13.08.2019
3739 Clouds 23 1018 69 10000 13.4 10 11:18 13.08.2019
3740 Clouds 23 1018 69 10000 13.4 10 10:55 13.08.2019
3741 Clouds 23 1018 69 10000 11.3 360 10:36 13.08.2019
3742 Clouds 23 1017 73 10000 10.8 360 10:18 13.08.2019
3743 Clouds 22 1017 73 10000 11.3 10 09:42 13.08.2019
3744 Clouds 22 1017 73 10000 11.3 10 09:23 13.08.2019
3745 Clouds 22 1017 68 10000 11.3 360 08:43 13.08.2019
3746 Clouds 21 1017 68 10000 11.3 360 08:22 13.08.2019
3747 Clouds 21 1017 73 10000 11.3 360 07:56 13.08.2019
3748 Clouds 21 1016 73 10000 12.9 360 07:32 13.08.2019
3749 Clouds 22 1016 73 10000 11.3 360 06:53 13.08.2019
3750 Clouds 22 1017 73 10000 11.3 360 06:34 13.08.2019
3751 Clouds 22 1017 73 10000 10.3 360 05:34 13.08.2019
3752 Clouds 22 1018 68 10000 13.9 10 02:38 13.08.2019
3753 Clouds 22 1018 73 10000 13.9 10 01:58 13.08.2019
3754 Clouds 23 1018 69 10000 13.4 10 00:55 13.08.2019
3755 Clouds 23 1018 69 10000 12.3 10 00:36 13.08.2019
3756 Clouds 23 1018 69 10000 12.3 360 23:49 12.08.2019
3757 Clouds 23 1018 69 10000 12.3 360 23:24 12.08.2019
3758 Clouds 23 1017 69 10000 12.9 10 22:57 12.08.2019
3759 Clouds 23 1017 69 10000 13.4 10 22:38 12.08.2019
3760 Clouds 23 1017 64 10000 13.4 10 22:19 12.08.2019
3761 Clouds 24 1017 64 10000 13.4 10 21:55 12.08.2019
3762 Clouds 24 1016 64 10000 13.9 10 21:36 12.08.2019
3763 Clouds 24 1016 61 10000 12.3 360 21:18 12.08.2019
3764 -273 0 0 0 0 0 20:55 12.08.2019
3765 Clouds 25 1016 61 10000 14.9 10 20:36 12.08.2019
3766 Clouds 25 1016 57 10000 14.9 10 20:18 12.08.2019
3767 Clouds 26 1016 57 10000 14.9 10 19:54 12.08.2019
3768 Clouds 26 1016 51 10000 14.9 360 19:36 12.08.2019
3769 Clouds 26 1016 51 10000 15.4 10 19:18 12.08.2019
3770 Clouds 26 1016 51 10000 15.4 10 18:54 12.08.2019
3771 Clouds 27 1016 51 10000 14.9 10 18:36 12.08.2019
3772 Clouds 26 1016 54 10000 14.4 10 18:18 12.08.2019
3773 Clouds 27 1016 54 10000 14.4 10 17:40 12.08.2019
3774 Clouds 27 1016 54 10000 14.4 10 17:21 12.08.2019
3775 Clouds 27 1017 54 10000 14.9 10 16:56 12.08.2019
3776 Clouds 27 1017 54 10000 14.9 10 16:56 12.08.2019
3777 Clouds 27 1017 54 10000 15.9 20 16:38 12.08.2019
3778 Clouds 26 1017 54 10000 15.9 20 16:19 12.08.2019
3779 Clouds 26 1017 61 10000 15.9 20 15:55 12.08.2019
3780 Clouds 27 1017 51 10000 14.9 10 15:36 12.08.2019
3781 Clouds 27 1017 51 10000 14.9 10 15:36 12.08.2019
3782 Clouds 27 1017 57 10000 16.5 20 15:18 12.08.2019
3783 Clouds 27 1018 51 10000 14.4 10 14:42 12.08.2019
3784 Clouds 26 1018 51 10000 14.4 10 14:23 12.08.2019
3785 Clouds 26 1018 57 10000 14.9 10 13:58 12.08.2019
3786 Clouds 26 1018 57 10000 14.9 10 13:58 12.08.2019
3787 Clouds 26 1018 54 10000 13.9 10 13:40 12.08.2019
3788 Clouds 27 1018 54 10000 13.9 10 13:21 12.08.2019
3789 Clouds 25 1017 57 10000 13.4 10 12:43 12.08.2019
3790 Clouds 25 1017 57 10000 13.4 10 12:43 12.08.2019
3791 Clouds 26 1017 57 10000 13.4 10 12:21 12.08.2019
3792 Clouds 25 1017 61 10000 12.3 360 11:47 12.08.2019
3793 Clouds 24 1017 61 10000 12.3 360 11:29 12.08.2019
3794 Clouds 25 1017 69 10000 12.3 360 10:59 12.08.2019
3795 Clouds 24 1017 64 10000 11.8 360 10:40 12.08.2019
3796 Clouds 24 1017 64 10000 11.8 360 10:21 12.08.2019
3797 Clouds 22 1017 69 10000 10.8 360 09:55 12.08.2019
3798 Clouds 23 1017 69 10000 10.8 360 09:36 12.08.2019
3799 Clouds 23 1017 69 10000 10.8 360 09:36 12.08.2019
3800 Clouds 22 1017 69 10000 10.3 360 09:18 12.08.2019
3801 Clouds 22 1017 69 10000 10.3 360 09:18 12.08.2019
3802 Clouds 22 1016 78 10000 11.3 360 08:40 12.08.2019
3803 Clouds 22 1016 78 10000 11.3 360 08:22 12.08.2019
3804 Clouds 23 1016 69 10000 10.3 360 07:56 12.08.2019
3805 Clouds 23 1016 69 10000 10.8 360 07:35 12.08.2019
3806 Clouds 22 1016 73 10000 10.3 360 06:54 12.08.2019
3807 Clouds 22 1016 69 10000 11.3 360 06:18 12.08.2019
3808 Clouds 22 1017 69 10000 10.8 360 04:26 12.08.2019
3809 Clear 22 1018 56 10000 10.3 360 02:43 12.08.2019
3810 Clouds 23 1018 47 10000 10.3 360 01:42 12.08.2019
3811 Clouds 22 1018 64 10000 10.3 360 01:18 12.08.2019
3812 Clouds 22 1018 64 10000 10.3 360 00:54 12.08.2019
3813 Clouds 23 1018 73 10000 10.8 360 00:36 12.08.2019
3814 Clouds 22 1018 73 10000 11.3 360 00:18 12.08.2019
3815 Clouds 23 1018 69 10000 11.3 360 23:39 11.08.2019
3816 Clouds 23 1018 69 10000 11.3 360 23:39 11.08.2019
3817 Clouds 23 1018 69 10000 11.3 360 23:19 11.08.2019
3818 Clouds 23 1018 73 10000 11.3 360 22:56 11.08.2019
3819 Clouds 24 1018 69 10000 11.3 360 22:37 11.08.2019
3820 Clouds 24 1017 69 10000 12.3 360 22:18 11.08.2019
3821 Clouds 24 1017 69 10000 12.3 360 21:56 11.08.2019
3822 Clouds 24 1017 69 10000 12.9 10 21:38 11.08.2019
3823 Clouds 24 1017 69 10000 12.9 10 21:19 11.08.2019
3824 Clouds 25 1017 61 10000 14.9 10 20:44 11.08.2019
3825 Clouds 25 1017 61 10000 14.9 10 20:23 11.08.2019
3826 -273 0 0 0 0 0 19:56 11.08.2019
3827 Clouds 25 1017 65 10000 14.4 10 19:55 11.08.2019
3828 Clouds 26 1017 61 10000 13.9 20 19:36 11.08.2019
3829 Clouds 26 1017 61 10000 14.9 20 19:18 11.08.2019
3830 Clouds 26 1017 61 10000 14.4 20 18:39 11.08.2019
3831 Clouds 27 1017 61 10000 14.4 20 18:19 11.08.2019
3832 Clouds 27 1017 57 10000 14.9 10 17:54 11.08.2019
3833 Clouds 27 1017 57 10000 15.9 20 17:36 11.08.2019
3834 Clouds 27 1017 61 10000 15.4 20 17:18 11.08.2019
3835 Clouds 27 1017 57 10000 15.4 20 16:40 11.08.2019
3836 Clouds 27 1017 57 10000 15.4 20 16:22 11.08.2019
3837 Clouds 27 1017 61 10000 14.4 10 15:57 11.08.2019
3838 Clouds 27 1018 69 10000 15.9 20 15:39 11.08.2019
3839 Clouds 26 1018 69 10000 16.5 20 15:21 11.08.2019
3840 Clouds 26 1018 69 10000 16.5 20 14:55 11.08.2019
3841 Clouds 27 1018 61 10000 15.9 20 14:37 11.08.2019
3842 Clouds 27 1018 61 10000 15.9 20 14:19 11.08.2019
3843 Clouds 27 1018 61 10000 14.4 10 13:42 11.08.2019
3844 Clouds 27 1018 61 10000 14.4 10 13:23 11.08.2019
3845 Clouds 26 1018 61 10000 13.9 10 12:44 11.08.2019
3846 Clouds 26 1018 61 10000 13.9 10 12:22 11.08.2019
3847 Clouds 26 1019 65 10000 12.9 360 11:41 11.08.2019
3848 Clouds 26 1019 65 10000 12.9 360 11:23 11.08.2019
3849 Clouds 25 1018 69 10000 10.8 360 10:57 11.08.2019
3850 Clouds 24 1019 78 10000 10.3 360 10:39 11.08.2019
3851 Clouds 24 1019 78 10000 10.3 360 10:21 11.08.2019
3852 Clouds 24 1019 83 10000 11.3 10 09:55 11.08.2019
3853 Clouds 23 1018 88 10000 10.3 10 09:37 11.08.2019
3854 Clouds 23 1018 88 10000 10.8 10 09:18 11.08.2019
3855 Clouds 23 1018 88 10000 10.3 360 08:43 11.08.2019
3856 Clouds 22 1018 88 10000 10.3 360 08:25 11.08.2019
3857 Drizzle 22 1018 100 7000 10.3 360 07:49 11.08.2019
3858 Drizzle 22 1018 100 7000 10.3 360 07:21 11.08.2019
3859 Drizzle 23 1017 94 10000 13.4 10 06:39 11.08.2019
3860 Clouds 23 1018 78 10000 12.3 350 05:34 11.08.2019
3861 Clouds 23 1019 88 10000 10.3 360 03:36 11.08.2019
3862 Clouds 24 1019 83 10000 12.3 10 02:46 11.08.2019
3863 Clouds 24 1019 78 10000 12.3 10 01:36 11.08.2019
3864 Clouds 24 1019 78 10000 11.3 360 00:59 11.08.2019
3865 Clouds 24 1019 73 10000 10.3 360 00:41 11.08.2019
3866 Clouds 24 1019 73 10000 10.3 360 00:23 11.08.2019
3867 Clouds 24 1019 73 10000 11.3 360 23:43 10.08.2019
3868 Clouds 24 1019 73 10000 11.3 360 23:23 10.08.2019
3869 Clouds 24 1018 73 10000 12.3 10 22:43 10.08.2019
3870 Clouds 24 1018 73 10000 12.3 10 22:24 10.08.2019
3871 Clouds 25 1018 69 10000 11.8 10 21:57 10.08.2019
3872 Clouds 25 1018 65 10000 12.9 10 21:38 10.08.2019
3873 Clouds 26 1017 61 10000 11.8 20 21:18 10.08.2019
3874 Clouds 26 1017 65 10000 11.3 10 20:42 10.08.2019
3875 Clouds 26 1017 65 10000 11.3 10 20:21 10.08.2019
3876 Clouds 26 1018 65 10000 11.8 10 19:57 10.08.2019
3877 Clouds 27 1018 58 10000 12.3 10 19:38 10.08.2019
3878 Clouds 27 1018 58 10000 12.3 10 19:19 10.08.2019
3879 Clouds 27 1018 61 10000 12.9 20 18:39 10.08.2019
3880 Clouds 27 1018 61 10000 13.4 20 18:21 10.08.2019
3881 Clouds 27 1019 65 10000 12.9 20 17:44 10.08.2019
3882 Clouds 27 1019 65 10000 12.9 20 17:25 10.08.2019
3883 Clouds 27 1019 61 10000 14.4 20 16:47 10.08.2019
3884 Clouds 27 1019 61 10000 14.4 20 16:28 10.08.2019
3885 Clouds 28 1019 61 10000 13.4 30 15:55 10.08.2019
3886 Clouds 27 1019 65 10000 13.9 20 15:26 10.08.2019
3887 Clouds 27 1020 65 10000 12.9 30 14:45 10.08.2019
3888 Clouds 27 1020 65 10000 12.9 30 14:23 10.08.2019
3889 Clouds 27 1020 65 10000 12.3 20 13:57 10.08.2019
3890 Clouds 27 1020 65 10000 12.3 20 13:39 10.08.2019
3891 Clouds 27 1020 65 10000 12.3 20 13:18 10.08.2019
3892 Clouds 27 1020 65 10000 12.3 20 13:18 10.08.2019
3893 Clouds 27 1019 61 10000 10.8 20 12:41 10.08.2019
3894 Clouds 27 1019 61 10000 10.8 20 12:21 10.08.2019
3895 Clouds 27 1019 51 10000 10.3 10 11:56 10.08.2019
3896 Clouds 26 1019 57 10000 9.3 20 11:37 10.08.2019
3897 Clouds 25 1019 57 10000 9.3 20 11:19 10.08.2019
3898 Clouds 25 1018 61 10000 8.2 10 10:38 10.08.2019
3899 Clouds 24 1018 61 10000 8.2 10 10:20 10.08.2019
3900 Clouds 23 1018 69 10000 8.7 20 09:44 10.08.2019
3901 Clouds 22 1018 69 10000 8.7 20 09:25 10.08.2019
3902 Clouds 23 1018 50 10000 7.7 10 08:59 10.08.2019
3903 Clouds 23 1017 57 10000 7.7 360 08:38 10.08.2019
3904 Clouds 23 1017 57 10000 7.7 360 08:19 10.08.2019
3905 Clear 23 1017 60 10000 8.7 10 07:48 10.08.2019
3906 Clear 23 1017 60 10000 8.7 10 07:26 10.08.2019
3907 Clouds 23 1017 69 10000 10.3 10 06:47 10.08.2019
3908 Clouds 22 1017 69 10000 10.3 10 06:18 10.08.2019
3909 Clouds 23 1018 60 10000 8.2 360 05:22 10.08.2019
3910 Clouds 22 1018 78 10000 11.3 10 04:18 10.08.2019
3911 Clouds 23 1019 78 10000 9.3 10 02:51 10.08.2019
3912 Clouds 23 1020 78 10000 9.8 10 01:57 10.08.2019
3913 Clouds 23 1020 78 10000 9.3 10 01:37 10.08.2019
3914 Clouds 23 1020 78 10000 9.3 10 01:19 10.08.2019
3915 Clouds 23 1019 78 10000 9.3 10 00:43 10.08.2019
3916 Clouds 23 1019 78 10000 9.3 10 00:20 10.08.2019
3917 Clouds 23 1019 83 10000 8.2 10 23:41 09.08.2019
3918 Clouds 23 1019 83 10000 8.2 10 23:22 09.08.2019
3919 Clouds 24 1019 73 10000 9.3 10 22:56 09.08.2019
3920 Clouds 24 1019 73 10000 9.3 10 22:56 09.08.2019
3921 Clouds 24 1018 73 10000 8.2 10 22:37 09.08.2019
3922 Clouds 24 1018 73 10000 8.2 10 22:19 09.08.2019
3923 Clouds 24 1018 78 10000 10.3 20 21:41 09.08.2019
3924 Clouds 24 1018 78 10000 10.3 20 21:22 09.08.2019
3925 Clouds 25 1018 78 10000 10.3 30 20:58 09.08.2019
3926 Clouds 25 1017 73 10000 10.8 30 20:39 09.08.2019
3927 Clouds 25 1017 73 10000 10.8 30 20:20 09.08.2019
3928 Clouds 26 1017 73 10000 10.3 30 19:43 09.08.2019
3929 Clouds 26 1017 73 10000 10.3 30 19:23 09.08.2019
3930 Clouds 25 1017 73 10000 12.9 20 18:59 09.08.2019
3931 Clouds 25 1017 73 10000 12.3 30 18:39 09.08.2019
3932 Clouds 25 1017 73 10000 12.3 30 18:20 09.08.2019
3933 Clouds 25 1018 69 10000 9.3 30 17:45 09.08.2019
3934 Clouds 25 1018 69 10000 9.3 30 17:25 09.08.2019
3935 -273 0 0 0 0 0 16:56 09.08.2019
3936 Clouds 25 1018 69 10000 9.8 30 16:37 09.08.2019
3937 Clouds 25 1018 65 10000 10.3 30 16:18 09.08.2019
3938 Clouds 26 1018 69 10000 9.8 30 15:42 09.08.2019
3939 Clouds 26 1018 69 10000 9.8 30 15:21 09.08.2019
3940 Clouds 26 1019 65 10000 8.7 30 14:58 09.08.2019
3941 Clouds 26 1019 69 10000 8.2 30 14:38 09.08.2019
3942 Clouds 25 1019 69 10000 8.2 30 14:20 09.08.2019
3943 Clouds 26 1019 69 10000 9.3 30 13:46 09.08.2019
3944 Clouds 25 1019 69 10000 9.3 30 13:21 09.08.2019
3945 Clouds 25 1019 69 10000 9.3 30 12:56 09.08.2019
3946 Clouds 24 1019 73 10000 9.3 30 12:37 09.08.2019
3947 Clouds 24 1018 73 10000 10.3 30 12:18 09.08.2019
3948 Clouds 24 1018 73 10000 11.3 30 11:41 09.08.2019
3949 Clouds 24 1018 73 10000 11.3 30 11:21 09.08.2019
3950 Clouds 23 1017 78 10000 9.8 20 10:54 09.08.2019
3951 Clouds 23 1017 78 10000 8.7 20 10:36 09.08.2019
3952 Clouds 22 1017 83 10000 9.3 10 10:18 09.08.2019
3953 Clouds 22 1017 83 10000 9.3 10 09:41 09.08.2019
3954 Clouds 22 1017 78 10000 9.3 20 09:19 09.08.2019
3955 Clouds 22 1017 78 10000 9.8 10 08:45 09.08.2019
3956 Clouds 22 1017 78 10000 9.8 10 08:25 09.08.2019
3957 Clouds 22 1017 83 10000 10.3 20 07:56 09.08.2019
3958 Clouds 22 1017 78 10000 8.7 10 07:37 09.08.2019
3959 Clouds 22 1017 78 10000 8.7 10 07:19 09.08.2019
3960 Clouds 22 1017 78 10000 8.7 10 06:44 09.08.2019
3961 Clouds 22 1017 78 10000 8.7 10 06:21 09.08.2019
3962 Clouds 22 1017 83 10000 8.2 10 05:31 09.08.2019
3963 Clouds 22 1018 83 10000 8.2 20 02:28 09.08.2019
3964 Clouds 23 1018 83 10000 8.2 20 01:24 09.08.2019
3965 Clouds 23 1018 78 10000 8.2 20 00:42 09.08.2019
3966 Clouds 23 1018 78 10000 8.2 20 00:23 09.08.2019
3967 Clouds 23 1018 83 10000 8.2 20 23:56 08.08.2019
3968 Clouds 23 1018 83 10000 8.2 20 23:37 08.08.2019
3969 Clouds 23 1017 83 10000 8.2 20 23:18 08.08.2019
3970 Clouds 23 1017 83 10000 8.2 20 22:54 08.08.2019
3971 Clouds 23 1017 83 10000 8.2 20 22:36 08.08.2019
3972 Clouds 23 1017 78 10000 8.2 20 22:18 08.08.2019
3973 Clouds 24 1016 73 10000 8.2 30 21:42 08.08.2019
3974 Clouds 24 1016 73 10000 8.2 30 21:23 08.08.2019
3975 Clear 24 1017 78 10000 7.7 20 20:57 08.08.2019
3976 Clear 24 1016 78 10000 8.2 30 20:39 08.08.2019
3977 Clear 24 1016 78 10000 8.2 30 20:19 08.08.2019
3978 Clear 25 1016 69 10000 9.8 30 19:48 08.08.2019
3979 Clear 25 1016 69 10000 9.8 30 19:28 08.08.2019
3980 Clear 25 1016 69 10000 9.8 30 18:54 08.08.2019
3981 Clouds 25 1016 69 10000 9.3 30 18:36 08.08.2019
3982 Clouds 26 1016 69 10000 8.2 30 18:18 08.08.2019
3983 Clouds 26 1016 65 10000 8.2 40 17:41 08.08.2019
3984 Clouds 26 1016 65 10000 8.2 40 17:23 08.08.2019
3985 -273 0 0 0 0 0 16:56 08.08.2019
3986 Clouds 25 1017 65 10000 6.2 50 16:37 08.08.2019
3987 Clouds 25 1017 65 10000 6.2 50 16:19 08.08.2019
3988 Clouds 26 1017 69 10000 5.7 60 15:56 08.08.2019
3989 Clouds 25 1017 65 10000 6.7 40 15:36 08.08.2019
3990 Clouds 26 1017 69 10000 8.2 40 15:18 08.08.2019
3991 Clouds 26 1017 65 10000 8.2 30 14:37 08.08.2019
3992 Clouds 25 1017 65 10000 7.7 30 14:18 08.08.2019
3993 Clouds 25 1017 65 10000 7.2 40 13:41 08.08.2019
3994 Clouds 25 1017 65 10000 7.2 40 13:23 08.08.2019
3995 Clouds 25 1017 69 10000 7.7 30 12:57 08.08.2019
3996 Clouds 25 1017 69 10000 8.2 40 12:37 08.08.2019
3997 Clouds 25 1017 69 10000 8.2 40 12:37 08.08.2019
3998 Clouds 25 1016 69 10000 8.2 20 12:18 08.08.2019
3999 Clouds 24 1016 69 10000 7.7 20 11:41 08.08.2019
4000 Clouds 24 1016 69 10000 7.7 20 11:23 08.08.2019
4001 Clouds 22 1016 73 10000 7.2 10 10:41 08.08.2019
4002 Clouds 22 1016 73 10000 7.2 10 10:41 08.08.2019
4003 Clouds 22 1016 73 10000 7.2 10 10:22 08.08.2019
4004 Clouds 22 1016 78 10000 5.7 350 09:57 08.08.2019
4005 Clouds 22 1015 78 10000 6.2 10 09:39 08.08.2019
4006 Clouds 21 1015 78 10000 6.2 10 09:19 08.08.2019
4007 Clouds 21 1015 78 10000 6.7 20 08:40 08.08.2019
4008 Clouds 21 1015 78 10000 6.7 20 08:20 08.08.2019
4009 Clouds 21 1015 78 10000 6.7 10 07:42 08.08.2019
4010 Clouds 21 1015 78 10000 6.7 10 07:21 08.08.2019
4011 Clouds 21 1015 78 10000 7.7 10 06:58 08.08.2019
4012 Clouds 21 1015 78 10000 7.7 10 06:40 08.08.2019
4013 Clouds 21 1015 78 10000 6.7 10 05:54 08.08.2019
4014 Clouds 22 1015 78 10000 6.7 360 05:27 08.08.2019
4015 Clouds 22 1016 78 10000 8.2 20 03:54 08.08.2019
4016 Clouds 22 1016 83 10000 7.7 20 03:35 08.08.2019
4017 Clouds 22 1017 78 10000 9.3 10 01:39 08.08.2019
4018 Clouds 23 1017 73 10000 9.3 10 00:45 08.08.2019
4019 Clouds 23 1017 73 10000 7.7 10 00:18 08.08.2019
4020 Clouds 23 1016 78 10000 9.3 20 23:22 07.08.2019
4021 Clouds 23 1015 73 10000 9.3 10 22:59 07.08.2019
4022 Clouds 23 1015 69 10000 8.7 360 22:41 07.08.2019
4023 Clouds 23 1015 69 10000 8.7 360 22:20 07.08.2019
4024 Clouds 24 1015 69 10000 9.3 20 21:56 07.08.2019
4025 Clouds 24 1015 73 10000 9.8 20 21:38 07.08.2019
4026 Clouds 24 1015 73 10000 9.8 20 21:19 07.08.2019
4027 Clouds 24 1015 69 10000 10.3 20 20:56 07.08.2019
4028 Clouds 24 1015 73 10000 11.3 20 20:37 07.08.2019
4029 Clouds 25 1015 73 10000 11.3 20 20:19 07.08.2019
4030 Clouds 26 1015 61 10000 11.3 20 19:40 07.08.2019
4031 Clouds 26 1015 61 10000 11.3 20 19:22 07.08.2019
4032 Clouds 26 1015 65 10000 11.8 30 18:59 07.08.2019
4033 Clouds 26 1016 65 10000 11.8 30 18:39 07.08.2019
4034 Clouds 26 1016 65 10000 11.8 30 18:19 07.08.2019
4035 Clouds 25 1016 65 10000 11.8 30 17:54 07.08.2019
4036 Clouds 26 1016 61 10000 11.8 30 17:36 07.08.2019
4037 Clouds 26 1016 61 10000 11.8 30 17:18 07.08.2019
4038 Clouds 26 1016 61 10000 11.8 30 17:18 07.08.2019
4039 Clouds 25 1016 61 10000 11.8 30 16:55 07.08.2019
4040 Clouds 26 1016 61 10000 11.3 30 16:37 07.08.2019
4041 Clouds 26 1016 61 10000 11.3 30 16:18 07.08.2019
4042 Clouds 26 1016 61 10000 12.9 30 15:42 07.08.2019
4043 Clouds 26 1016 57 10000 12.9 30 15:20 07.08.2019
4044 Clouds 26 1016 57 10000 13.4 30 14:49 07.08.2019
4045 Clouds 26 1016 57 10000 13.4 30 14:30 07.08.2019
4046 Clouds 25 1017 61 10000 12.3 30 13:57 07.08.2019
4047 Clouds 26 1016 61 10000 12.3 20 13:38 07.08.2019
4048 Clouds 26 1016 57 10000 11.8 20 13:19 07.08.2019
4049 Clouds 25 1016 57 10000 11.8 20 12:56 07.08.2019
4050 Clouds 25 1016 65 10000 12.9 20 12:37 07.08.2019
4051 Clouds 25 1016 69 10000 11.3 20 12:19 07.08.2019
4052 Clouds 24 1016 73 10000 10.8 10 11:43 07.08.2019
4053 Clouds 24 1016 73 10000 10.8 10 11:21 07.08.2019
4054 Clouds 24 1016 73 10000 9.8 20 10:58 07.08.2019
4055 Clouds 23 1016 78 10000 8.7 10 10:40 07.08.2019
4056 Clouds 22 1016 78 10000 8.7 10 10:19 07.08.2019
4057 Clouds 21 1015 78 10000 8.2 10 09:46 07.08.2019
4058 Clouds 21 1015 78 10000 8.2 10 09:22 07.08.2019
4059 Clouds 21 1015 78 10000 8.7 10 08:57 07.08.2019
4060 Clouds 21 1015 78 10000 9.3 10 08:39 07.08.2019
4061 Clouds 21 1015 78 10000 9.3 10 08:21 07.08.2019
4062 Clouds 21 1015 78 10000 9.3 10 07:43 07.08.2019
4063 Clouds 21 1015 78 10000 9.3 10 07:21 07.08.2019
4064 Clouds 21 1014 78 10000 8.7 10 06:40 07.08.2019
4065 Clouds 21 1015 73 10000 8.2 10 05:59 07.08.2019
4066 Clouds 21 1015 78 10000 8.2 10 04:58 07.08.2019
4067 Clouds 22 1016 73 10000 9.3 360 03:21 07.08.2019
4068 Clouds 22 1016 78 10000 9.3 360 02:50 07.08.2019
4069 Clouds 22 1016 78 10000 10.3 10 02:22 07.08.2019
4070 Clouds 22 1016 73 10000 10.3 10 01:42 07.08.2019
4071 Clouds 23 1016 73 10000 10.3 10 00:51 07.08.2019
4072 Clouds 23 1016 69 10000 10.3 10 00:22 07.08.2019
4073 Clouds 23 1015 73 10000 10.8 10 23:44 06.08.2019
4074 Clouds 23 1015 73 10000 10.8 10 23:22 06.08.2019
4075 Clouds 23 1015 69 10000 11.8 360 22:58 06.08.2019
4076 Clouds 23 1015 69 10000 11.3 360 22:38 06.08.2019
4077 Clouds 24 1015 69 10000 11.3 360 22:20 06.08.2019
4078 Clouds 24 1015 61 10000 11.3 360 21:43 06.08.2019
4079 Clouds 24 1015 61 10000 11.3 360 21:25 06.08.2019
4080 Clouds 24 1015 61 10000 12.3 350 20:59 06.08.2019
4081 Clouds 25 1015 61 10000 12.3 360 20:40 06.08.2019
4082 Clouds 25 1015 61 10000 12.3 360 20:22 06.08.2019
4083 Clouds 26 1015 54 10000 13.9 10 19:44 06.08.2019
4084 Clouds 26 1015 54 10000 13.9 10 19:26 06.08.2019
4085 Clouds 27 1014 54 10000 13.9 10 18:54 06.08.2019
4086 Clouds 27 1014 54 10000 14.9 10 18:36 06.08.2019
4087 Clouds 28 1015 54 10000 14.9 10 18:18 06.08.2019
4088 Clouds 27 1015 54 10000 14.9 10 17:54 06.08.2019
4089 Clouds 28 1015 51 10000 13.4 10 17:36 06.08.2019
4090 Clouds 27 1015 51 10000 14.9 20 17:18 06.08.2019
4091 Clouds 27 1015 51 10000 14.9 20 17:18 06.08.2019
4092 Clouds 27 1015 51 10000 13.4 10 16:41 06.08.2019
4093 Clouds 27 1015 51 10000 13.4 10 16:21 06.08.2019
4094 Clouds 27 1016 54 10000 14.9 10 15:57 06.08.2019
4095 Clouds 27 1016 51 10000 14.4 10 15:38 06.08.2019
4096 Clouds 27 1016 51 10000 14.4 10 15:20 06.08.2019
4097 Clouds 27 1016 54 10000 13.4 20 14:44 06.08.2019
4098 Clouds 27 1016 54 10000 13.4 20 14:25 06.08.2019
4099 Clouds 27 1016 54 10000 12.9 10 13:58 06.08.2019
4100 Clouds 26 1017 57 10000 12.9 20 13:39 06.08.2019
4101 Clouds 26 1017 57 10000 12.9 20 13:20 06.08.2019
4102 Clouds 26 1017 61 10000 11.8 20 12:57 06.08.2019
4103 Clouds 26 1017 57 10000 11.3 360 12:39 06.08.2019
4104 Clouds 25 1017 57 10000 11.3 360 12:21 06.08.2019
4105 Clouds 24 1017 64 10000 11.8 10 11:42 06.08.2019
4106 Clouds 24 1017 64 10000 11.8 10 11:19 06.08.2019
4107 Clouds 24 1017 69 10000 10.3 360 10:42 06.08.2019
4108 Clouds 24 1017 69 10000 10.3 360 10:42 06.08.2019
4109 Clouds 24 1017 69 10000 10.3 360 10:42 06.08.2019
4110 Clouds 24 1017 69 10000 10.3 360 10:23 06.08.2019
4111 Clouds 23 1017 64 10000 8.2 350 09:58 06.08.2019
4112 Clouds 22 1016 69 10000 8.7 360 09:38 06.08.2019
4113 Clouds 22 1016 69 10000 8.7 360 09:19 06.08.2019
4114 Clouds 22 1016 69 10000 9.3 360 08:42 06.08.2019
4115 Clouds 22 1016 69 10000 9.3 360 08:24 06.08.2019
4116 Clouds 22 1016 69 10000 9.8 360 07:36 06.08.2019
4117 Clouds 22 1016 69 10000 9.8 350 06:53 06.08.2019
4118 Clouds 22 1017 73 10000 10.3 360 06:35 06.08.2019
4119 Clouds 22 1016 73 10000 9.8 360 05:55 06.08.2019
4120 Clouds 22 1017 73 10000 10.8 360 04:32 06.08.2019
4121 Clouds 22 1017 69 10000 10.8 10 01:54 06.08.2019
4122 Clouds 23 1017 64 10000 10.3 360 01:24 06.08.2019
4123 Clouds 22 1017 73 10000 11.8 10 00:30 06.08.2019
4124 Clouds 23 1017 69 10000 10.3 10 23:46 05.08.2019
4125 Clouds 24 1017 69 10000 10.8 10 23:19 05.08.2019
4126 Clouds 23 1017 69 10000 10.3 360 22:41 05.08.2019
4127 Clouds 23 1017 69 10000 10.3 360 22:23 05.08.2019
4128 Clouds 24 1016 69 10000 10.3 360 21:55 05.08.2019
4129 Clouds 24 1016 65 10000 11.8 360 21:36 05.08.2019
4130 Clouds 25 1016 65 10000 11.8 360 21:18 05.08.2019
4131 Clouds 25 1016 65 10000 11.8 360 20:54 05.08.2019
4132 Clouds 25 1016 61 10000 13.4 10 20:36 05.08.2019
4133 Clouds 26 1016 61 10000 11.8 10 20:18 05.08.2019
4134 Clouds 27 1016 61 10000 12.9 20 19:40 05.08.2019
4135 Clouds 26 1016 61 10000 12.9 20 19:21 05.08.2019
4136 Clouds 26 1016 61 10000 13.9 20 18:45 05.08.2019
4137 Clouds 25 1016 61 10000 13.9 20 18:22 05.08.2019
4138 Clouds 25 1016 61 10000 13.9 20 18:22 05.08.2019
4139 Clouds 26 1016 57 10000 13.9 20 17:58 05.08.2019
4140 Clouds 26 1016 57 10000 13.4 20 17:40 05.08.2019
4141 Clouds 26 1016 57 10000 13.4 20 17:22 05.08.2019
4142 Clouds 27 1017 54 10000 12.9 20 16:45 05.08.2019
4143 Clouds 27 1017 54 10000 12.9 20 16:24 05.08.2019
4144 Clouds 27 1017 54 10000 11.3 360 15:44 05.08.2019
4145 Clouds 26 1017 54 10000 11.3 360 15:21 05.08.2019
4146 Clouds 26 1018 54 10000 11.8 10 14:55 05.08.2019
4147 Clouds 26 1018 57 10000 12.3 10 14:37 05.08.2019
4148 Clouds 25 1018 57 10000 12.3 10 14:19 05.08.2019
4149 Clouds 25 1018 57 10000 13.9 30 13:40 05.08.2019
4150 Clouds 26 1018 57 10000 13.9 30 13:20 05.08.2019
4151 Clouds 25 1017 61 10000 13.4 20 12:44 05.08.2019
4152 Clouds 25 1017 61 10000 13.4 20 12:20 05.08.2019
4153 Clouds 24 1017 61 10000 12.9 10 11:45 05.08.2019
4154 Clouds 24 1017 61 10000 12.9 10 11:26 05.08.2019
4155 Clouds 23 1017 73 10000 10.3 10 10:50 05.08.2019
4156 Clouds 23 1017 73 10000 10.3 10 10:32 05.08.2019
4157 Clouds 23 1017 69 10000 8.7 360 09:58 05.08.2019
4158 Clouds 22 1017 64 10000 7.7 360 09:40 05.08.2019
4159 Clouds 22 1017 64 10000 7.7 360 09:21 05.08.2019
4160 Clouds 22 1017 69 10000 8.2 350 08:44 05.08.2019
4161 Clouds 22 1017 69 10000 8.2 350 08:25 05.08.2019
4162 Clouds 22 1017 73 10000 9.3 360 07:53 05.08.2019
4163 Clouds 22 1017 73 10000 8.2 360 07:31 05.08.2019
4164 Clouds 22 1017 73 10000 7.7 360 06:58 05.08.2019
4165 Clouds 22 1017 73 10000 8.2 360 06:27 05.08.2019
4166 Clouds 22 1017 69 10000 8.7 10 05:41 05.08.2019
4167 Clouds 22 1017 69 10000 8.7 10 04:55 05.08.2019
4168 Clouds 22 1017 64 10000 7.7 360 03:56 05.08.2019
4169 Clouds 22 1018 64 10000 9.8 360 03:20 05.08.2019
4170 Clouds 22 1019 64 10000 8.7 360 02:26 05.08.2019
4171 Clouds 23 1019 64 10000 10.3 360 01:32 05.08.2019
4172 Clouds 23 1018 73 10000 10.8 10 00:41 05.08.2019
4173 Clouds 23 1018 73 10000 10.8 10 00:21 05.08.2019
4174 Clouds 23 1018 73 10000 10.8 10 00:21 05.08.2019
4175 Clouds 23 1018 64 10000 11.3 10 23:44 04.08.2019
4176 Clouds 23 1018 64 10000 11.3 10 23:24 04.08.2019
4177 Clouds 23 1018 64 10000 9.8 360 22:58 04.08.2019
4178 Clouds 23 1018 60 10000 9.3 360 22:38 04.08.2019
4179 Clouds 23 1018 60 10000 9.3 360 22:20 04.08.2019
4180 Clouds 24 1018 60 10000 9.8 360 21:59 04.08.2019
4181 Clouds 24 1017 60 10000 11.8 10 21:41 04.08.2019
4182 Clouds 24 1017 60 10000 11.8 10 21:19 04.08.2019
4183 Clouds 25 1017 61 10000 12.9 20 20:43 04.08.2019
4184 Clouds 25 1017 61 10000 12.9 20 20:19 04.08.2019
4185 Clouds 25 1017 57 10000 12.9 20 19:55 04.08.2019
4186 Clouds 26 1017 57 10000 12.9 20 19:36 04.08.2019
4187 Clouds 25 1017 54 10000 14.4 20 19:18 04.08.2019
4188 Clouds 25 1017 54 10000 14.4 20 18:41 04.08.2019
4189 Clouds 25 1017 54 10000 14.9 20 18:20 04.08.2019
4190 Clouds 26 1017 54 10000 14.4 20 17:44 04.08.2019
4191 Clouds 27 1017 54 10000 14.4 20 17:24 04.08.2019
4192 Clouds 27 1017 51 10000 12.9 20 16:50 04.08.2019
4193 Clouds 26 1017 51 10000 12.9 10 16:30 04.08.2019
4194 Clouds 27 1018 54 10000 14.4 30 15:58 04.08.2019
4195 Clouds 26 1018 51 10000 11.8 10 15:38 04.08.2019
4196 Clouds 26 1018 51 10000 11.8 10 15:19 04.08.2019
4197 Clouds 26 1018 47 10000 11.8 20 14:43 04.08.2019
4198 Clouds 26 1018 47 10000 11.8 20 14:25 04.08.2019
4199 Clouds 26 1018 54 10000 12.9 10 13:47 04.08.2019
4200 Clouds 26 1018 54 10000 12.9 10 13:27 04.08.2019
4201 Clouds 26 1018 50 10000 12.3 350 12:57 04.08.2019
4202 Clouds 26 1018 50 10000 12.3 350 12:57 04.08.2019
4203 Clouds 26 1018 50 10000 12.9 10 12:39 04.08.2019
4204 Clouds 25 1018 50 10000 12.9 10 12:21 04.08.2019
4205 Clouds 24 1018 64 10000 10.8 10 11:48 04.08.2019
4206 Clouds 24 1018 64 10000 10.8 10 11:23 04.08.2019
4207 Clouds 23 1018 64 10000 9.8 350 10:48 04.08.2019
4208 Clouds 23 1018 64 10000 9.8 350 10:23 04.08.2019
4209 Clouds 22 1018 73 10000 7.7 360 09:47 04.08.2019
4210 Clouds 21 1018 73 10000 7.7 360 09:26 04.08.2019
4211 Clouds 21 1018 68 10000 8.2 360 08:59 04.08.2019
4212 Clouds 20 1017 73 10000 7.7 350 08:35 04.08.2019
4213 Clouds 20 1017 73 10000 8.2 360 07:55 04.08.2019
4214 Clouds 20 1017 68 10000 6.7 360 07:29 04.08.2019
4215 Clouds 21 1017 64 10000 7.2 360 06:42 04.08.2019
4216 Clouds 21 1017 64 10000 7.2 360 06:19 04.08.2019
4217 Clouds 21 1018 64 10000 9.8 10 03:37 04.08.2019
4218 Clouds 22 1018 64 10000 8.2 360 01:52 04.08.2019
4219 Clouds 22 1019 64 10000 8.7 360 01:32 04.08.2019
4220 Clouds 22 1018 68 10000 9.3 360 00:42 04.08.2019
4221 Clouds 22 1018 68 10000 9.3 360 00:24 04.08.2019
4222 Clouds 23 1018 64 10000 8.7 360 23:55 03.08.2019
4223 Clouds 23 1018 64 10000 8.2 350 23:36 03.08.2019
4224 Clouds 23 1017 64 10000 10.3 360 23:18 03.08.2019
4225 Clouds 23 1017 64 10000 12.3 10 22:39 03.08.2019
4226 Clouds 23 1017 64 10000 12.3 10 22:19 03.08.2019
4227 Clouds 23 1017 60 10000 12.9 10 21:39 03.08.2019
4228 Clouds 23 1017 60 10000 12.9 10 21:39 03.08.2019
4229 Clouds 24 1017 60 10000 12.9 10 21:20 03.08.2019
4230 Clouds 24 1017 57 10000 12.3 10 20:45 03.08.2019
4231 Clouds 24 1017 57 10000 12.3 10 20:24 03.08.2019
4232 Clouds 24 1017 57 10000 13.4 10 19:55 03.08.2019
4233 Clouds 25 1017 57 10000 12.9 10 19:36 03.08.2019
4234 Clouds 25 1017 54 10000 13.4 20 19:18 03.08.2019
4235 Clouds 26 1017 54 10000 14.9 10 18:40 03.08.2019
4236 Clouds 26 1017 54 10000 14.9 10 18:21 03.08.2019
4237 Clouds 28 1018 48 10000 12.9 10 17:42 03.08.2019
4238 Clouds 27 1018 54 10000 14.9 20 17:19 03.08.2019
4239 Clouds 26 1018 54 10000 13.4 20 16:38 03.08.2019
4240 Clouds 25 1018 54 10000 13.4 20 16:20 03.08.2019
4241 Clouds 25 1019 57 10000 13.4 20 15:46 03.08.2019
4242 Clouds 25 1019 57 10000 13.4 20 15:26 03.08.2019
4243 Clouds 25 1018 61 10000 13.9 20 14:48 03.08.2019
4244 Clouds 25 1018 61 10000 13.9 20 14:24 03.08.2019
4245 Clouds 25 1018 57 10000 13.9 20 13:57 03.08.2019
4246 Clouds 25 1019 61 10000 13.4 10 13:37 03.08.2019
4247 Clouds 25 1019 61 10000 13.4 10 13:19 03.08.2019
4248 Clouds 24 1018 60 10000 12.9 10 12:41 03.08.2019
4249 Clouds 24 1018 60 10000 12.9 10 12:23 03.08.2019
4250 Clouds 24 1018 64 10000 12.3 20 11:52 03.08.2019
4251 Clouds 24 1018 60 10000 9.3 10 11:34 03.08.2019
4252 Clouds 22 1018 68 10000 9.8 360 10:47 03.08.2019
4253 Clouds 22 1018 68 10000 9.8 360 10:24 03.08.2019
4254 Clouds 22 1018 68 10000 9.8 360 10:24 03.08.2019
4255 Clouds 22 1017 64 10000 9.8 10 09:45 03.08.2019
4256 Clouds 22 1017 64 10000 9.8 10 09:24 03.08.2019
4257 Clouds 21 1017 68 10000 9.3 10 08:56 03.08.2019
4258 Clouds 21 1017 64 10000 11.8 10 08:24 03.08.2019
4259 Clouds 21 1017 68 10000 10.8 10 07:38 03.08.2019
4260 Clouds 21 1017 68 10000 9.8 20 06:47 03.08.2019
4261 Clouds 21 1017 73 10000 8.7 10 05:59 03.08.2019
4262 Clouds 22 1019 73 10000 9.3 10 02:50 03.08.2019
4263 Clouds 22 1019 73 10000 9.3 20 01:56 03.08.2019
4264 Clouds 22 1019 73 10000 10.8 10 00:57 03.08.2019
4265 Clouds 22 1018 64 10000 10.8 20 00:29 03.08.2019
4266 Clouds 22 1018 69 10000 9.8 10 23:41 02.08.2019
4267 Clouds 22 1018 69 10000 9.8 10 23:20 02.08.2019
4268 Clouds 22 1018 64 10000 12.3 10 22:57 02.08.2019
4269 Clouds 23 1018 69 10000 10.8 360 22:39 02.08.2019
4270 Clouds 23 1018 69 10000 10.8 360 22:20 02.08.2019
4271 Clouds 23 1017 64 10000 11.3 360 21:55 02.08.2019
4272 Clouds 24 1017 60 10000 12.3 10 21:36 02.08.2019
4273 Clouds 24 1017 64 10000 12.3 360 21:18 02.08.2019
4274 Clouds 25 1017 57 10000 13.4 10 20:41 02.08.2019
4275 Clouds 26 1017 57 10000 13.4 10 20:21 02.08.2019
4276 Clouds 26 1017 61 10000 12.9 20 19:49 02.08.2019
4277 Clouds 25 1017 61 10000 14.4 30 19:29 02.08.2019
4278 Clouds 25 1017 57 10000 13.4 30 18:45 02.08.2019
4279 Clouds 25 1017 57 10000 13.4 30 18:27 02.08.2019
4280 Clouds 25 1018 57 10000 13.9 30 17:48 02.08.2019
4281 Clouds 26 1018 57 10000 13.9 30 17:26 02.08.2019
4282 Clouds 25 1018 54 10000 13.9 30 16:59 02.08.2019
4283 Clouds 26 1018 54 10000 13.9 20 16:39 02.08.2019
4284 Clouds 26 1018 54 10000 13.9 20 16:20 02.08.2019
4285 Clouds 26 1019 57 10000 14.4 20 15:45 02.08.2019
4286 Clouds 26 1019 57 10000 14.4 20 15:20 02.08.2019
4287 Clouds 26 1019 54 10000 12.9 30 14:47 02.08.2019
4288 Clouds 25 1019 54 10000 12.9 30 14:19 02.08.2019
4289 Clouds 25 1019 61 10000 12.3 30 13:50 02.08.2019
4290 Clouds 25 1019 61 10000 12.3 30 13:29 02.08.2019
4291 Clouds 24 1019 60 10000 11.8 20 12:47 02.08.2019
4292 Clouds 24 1019 60 10000 11.8 20 12:25 02.08.2019
4293 Clouds 24 1019 60 10000 11.8 30 11:59 02.08.2019
4294 Clouds 24 1018 64 10000 10.8 20 11:40 02.08.2019
4295 Clouds 24 1018 64 10000 10.8 20 11:22 02.08.2019
4296 Clouds 23 1018 68 10000 9.8 20 10:44 02.08.2019
4297 Clouds 22 1018 68 10000 9.8 20 10:24 02.08.2019
4298 Clouds 22 1018 68 10000 10.3 20 09:53 02.08.2019
4299 Clouds 21 1018 73 10000 8.7 10 09:29 02.08.2019
4300 Clouds 20 1018 73 10000 9.8 20 08:54 02.08.2019
4301 Clouds 21 1017 73 10000 7.2 360 08:25 02.08.2019
4302 Clouds 21 1017 68 10000 7.2 360 07:54 02.08.2019
4303 Clouds 21 1017 64 10000 5.7 10 07:35 02.08.2019
4304 Clouds 21 1018 68 10000 8.2 360 06:58 02.08.2019
4305 Clouds 21 1018 68 10000 8.7 10 06:27 02.08.2019
4306 Clouds 21 1017 68 10000 9.3 360 05:41 02.08.2019
4307 Clouds 21 1018 64 10000 10.3 10 03:32 02.08.2019
4308 Clouds 22 1018 68 10000 7.7 360 02:37 02.08.2019
4309 Clouds 22 1018 68 10000 8.7 10 01:30 02.08.2019
4310 Clouds 22 1018 64 10000 11.3 360 00:22 02.08.2019
4311 Clouds 22 1018 64 10000 10.3 360 23:44 01.08.2019
4312 Clouds 22 1018 64 10000 10.3 360 23:23 01.08.2019
4313 Clouds 23 1017 60 10000 11.3 350 22:42 01.08.2019
4314 Clouds 23 1017 60 10000 11.3 350 22:22 01.08.2019
4315 Clouds 23 1017 60 10000 12.3 10 21:55 01.08.2019
4316 Clouds 24 1017 64 10000 10.8 360 21:37 01.08.2019
4317 Clouds 24 1017 60 10000 11.3 10 21:18 01.08.2019
4318 Clouds 25 1016 57 10000 11.8 360 20:43 01.08.2019
4319 Clouds 25 1016 57 10000 11.8 360 20:22 01.08.2019
4320 Clouds 26 1016 54 10000 11.8 10 19:45 01.08.2019
4321 Clouds 26 1016 54 10000 11.8 10 19:23 01.08.2019
4322 Clouds 26 1016 54 10000 11.8 10 19:23 01.08.2019
4323 Clouds 25 1016 50 10000 13.4 20 18:55 01.08.2019
4324 Clouds 25 1016 57 10000 12.9 30 18:36 01.08.2019
4325 Clouds 25 1017 54 10000 13.9 30 18:18 01.08.2019
4326 Clouds 25 1017 54 10000 13.4 30 17:44 01.08.2019
4327 Clouds 25 1017 54 10000 13.4 30 17:26 01.08.2019
4328 Clouds 26 1017 57 10000 14.4 30 16:44 01.08.2019
4329 Clouds 25 1017 57 10000 14.4 30 16:22 01.08.2019
4330 Clouds 26 1017 50 10000 13.9 20 15:45 01.08.2019
4331 Clouds 26 1017 50 10000 13.9 20 15:20 01.08.2019
4332 Clouds 26 1018 54 10000 12.3 20 14:44 01.08.2019
4333 Clouds 26 1018 54 10000 12.3 20 14:22 01.08.2019
4334 Clouds 25 1018 50 10000 12.3 20 13:59 01.08.2019
4335 Clouds 25 1018 54 10000 11.8 30 13:41 01.08.2019
4336 Clouds 25 1018 54 10000 11.8 30 13:21 01.08.2019
4337 Clouds 24 1018 53 10000 11.8 30 12:52 01.08.2019
4338 Clouds 24 1018 53 10000 11.8 30 12:33 01.08.2019
4339 Clouds 24 1018 60 10000 9.8 10 11:58 01.08.2019
4340 Clouds 24 1017 64 10000 10.8 20 11:40 01.08.2019
4341 Clouds 24 1017 64 10000 10.8 20 11:22 01.08.2019
4342 Clouds 23 1017 60 10000 8.2 350 10:43 01.08.2019
4343 Clouds 22 1017 60 10000 8.2 350 10:25 01.08.2019
4344 Clouds 22 1017 60 10000 6.7 350 09:50 01.08.2019
4345 Clouds 21 1017 68 10000 6.7 350 09:24 01.08.2019
4346 Clouds 21 1016 64 10000 7.7 360 08:58 01.08.2019
4347 Clouds 21 1016 64 10000 6.7 360 08:39 01.08.2019
4348 Clouds 21 1016 64 10000 8.7 350 08:18 01.08.2019
4349 Clouds 21 1016 68 10000 9.3 360 07:45 01.08.2019
4350 Clouds 20 1016 68 10000 9.3 360 07:20 01.08.2019
4351 Clouds 20 1016 64 10000 8.7 360 06:39 01.08.2019
4352 Clouds 21 1016 68 10000 7.7 360 05:37 01.08.2019
4353 Clouds 22 1017 64 10000 8.2 360 02:41 01.08.2019
4354 Clouds 22 1017 64 10000 9.8 360 01:45 01.08.2019
4355 Clouds 22 1017 64 10000 9.8 360 00:37 01.08.2019
4356 Clouds 22 1016 64 10000 10.3 360 00:18 01.08.2019
4357 Clouds 22 1016 64 10000 11.3 360 23:42 31.07.2019
4358 Clouds 22 1016 64 10000 11.3 360 23:42 31.07.2019
4359 Clouds 22 1016 64 10000 11.3 360 23:20 31.07.2019
4360 Clouds 22 1015 60 10000 11.3 350 22:46 31.07.2019
4361 Clouds 23 1015 60 10000 11.3 350 22:28 31.07.2019
4362 Clouds 23 1015 64 10000 11.3 360 21:45 31.07.2019
4363 Clouds 23 1015 64 10000 11.3 360 21:24 31.07.2019
4364 Clouds 24 1015 57 10000 11.3 360 20:51 31.07.2019
4365 Clouds 24 1015 60 10000 9.8 360 20:25 31.07.2019
4366 Clouds 24 1015 53 10000 11.8 10 19:58 31.07.2019
4367 Clouds 24 1015 53 10000 11.3 360 19:39 31.07.2019
4368 Clouds 25 1015 53 10000 11.3 360 19:20 31.07.2019
4369 Clouds 25 1015 50 10000 12.3 360 18:40 31.07.2019
4370 Clouds 25 1015 50 10000 12.3 360 18:40 31.07.2019
4371 Clouds 25 1015 50 10000 12.3 360 18:22 31.07.2019
4372 Clouds 25 1016 47 10000 13.9 10 17:45 31.07.2019
4373 Clouds 26 1016 47 10000 12.3 10 17:20 31.07.2019
4374 Clouds 26 1016 47 10000 12.3 10 16:56 31.07.2019
4375 Clouds 25 1016 50 10000 12.3 10 16:37 31.07.2019
4376 Clouds 26 1016 44 10000 11.8 10 16:18 31.07.2019
4377 Clouds 26 1017 47 10000 12.3 10 15:42 31.07.2019
4378 Clouds 26 1017 47 10000 12.3 10 15:23 31.07.2019
4379 Clouds 25 1017 50 10000 13.4 10 14:42 31.07.2019
4380 Clouds 25 1017 50 10000 13.4 10 14:20 31.07.2019
4381 Clouds 25 1017 47 10000 11.8 360 13:56 31.07.2019
4382 Clouds 25 1017 47 10000 11.8 360 13:56 31.07.2019
4383 Clouds 25 1017 50 10000 11.8 10 13:37 31.07.2019
4384 Clouds 25 1017 47 10000 12.9 350 13:19 31.07.2019
4385 Clouds 24 1017 53 10000 10.8 360 12:42 31.07.2019
4386 Clouds 24 1016 57 10000 9.8 360 12:23 31.07.2019
4387 Clouds 23 1017 60 10000 10.8 350 11:40 31.07.2019
4388 Clouds 23 1017 60 10000 10.8 350 11:21 31.07.2019
4389 Clouds 23 1016 56 10000 10.3 360 10:56 31.07.2019
4390 Clouds 23 1016 53 10000 10.3 360 10:38 31.07.2019
4391 Clouds 23 1016 53 10000 10.3 360 10:19 31.07.2019
4392 Clouds 21 1016 64 10000 9.8 350 09:43 31.07.2019
4393 Clouds 21 1016 64 10000 9.8 350 09:23 31.07.2019
4394 Clouds 21 1015 60 10000 9.3 350 08:44 31.07.2019
4395 Clouds 21 1015 60 10000 9.3 350 08:24 31.07.2019
4396 Clouds 21 1015 64 10000 9.8 350 07:48 31.07.2019
4397 Clouds 20 1015 64 10000 9.8 350 07:30 31.07.2019
4398 Clouds 21 1015 64 10000 9.3 360 05:23 31.07.2019
4399 Clouds 21 1016 68 10000 10.3 360 03:56 31.07.2019
4400 Clouds 22 1017 68 10000 10.8 350 00:37 31.07.2019
4401 Clouds 22 1017 68 10000 10.3 350 23:49 30.07.2019
4402 Clouds 22 1017 73 10000 10.3 360 23:27 30.07.2019
4403 Clouds 22 1017 73 10000 10.8 350 22:49 30.07.2019
4404 Clouds 22 1017 73 10000 10.8 350 22:26 30.07.2019
4405 Clouds 23 1017 64 10000 11.3 350 21:59 30.07.2019
4406 Clouds 23 1016 64 10000 11.3 350 21:37 30.07.2019
4407 Clouds 23 1016 64 10000 11.3 350 21:19 30.07.2019
4408 Clouds 24 1016 69 10000 12.9 350 20:55 30.07.2019
4409 Clouds 24 1016 60 10000 12.3 360 20:36 30.07.2019
4410 Clouds 24 1016 60 10000 11.8 360 20:18 30.07.2019
4411 Clouds 25 1016 57 10000 12.3 350 19:42 30.07.2019
4412 Clouds 25 1016 57 10000 12.3 350 19:24 30.07.2019
4413 Clouds 25 1016 57 10000 12.3 360 18:45 30.07.2019
4414 Clouds 25 1016 57 10000 12.3 360 18:21 30.07.2019
4415 Clouds 25 1017 57 10000 12.3 10 17:43 30.07.2019
4416 Clouds 25 1017 57 10000 12.9 340 17:20 30.07.2019
4417 Clouds 25 1017 57 10000 12.9 340 16:55 30.07.2019
4418 Clouds 26 1017 61 10000 12.9 340 16:37 30.07.2019
4419 Clouds 25 1018 61 10000 12.9 360 16:18 30.07.2019
4420 Clouds 26 1018 54 10000 11.8 350 15:39 30.07.2019
4421 Clouds 26 1018 54 10000 11.8 350 15:19 30.07.2019
4422 Clouds 26 1018 53 10000 12.3 360 14:43 30.07.2019
4423 Clouds 26 1018 53 10000 12.3 360 14:43 30.07.2019
4424 Clouds 25 1018 64 10000 10.8 340 14:22 30.07.2019
4425 Clouds 25 1018 64 10000 10.8 340 13:55 30.07.2019
4426 Clouds 25 1018 64 10000 11.8 350 13:36 30.07.2019
4427 Clouds 24 1018 64 10000 11.3 360 13:18 30.07.2019
4428 Clouds 24 1018 73 10000 10.8 10 12:43 30.07.2019
4429 Clouds 24 1018 73 10000 10.8 10 12:24 30.07.2019
4430 Clouds 24 1018 69 10000 11.3 360 11:44 30.07.2019
4431 Clouds 24 1018 69 10000 11.3 360 11:23 30.07.2019
4432 Clouds 24 1018 73 10000 11.3 360 10:55 30.07.2019
4433 Clouds 23 1017 73 10000 10.3 360 10:37 30.07.2019
4434 Clouds 23 1017 73 10000 10.3 360 10:37 30.07.2019
4435 Clouds 24 1017 73 10000 10.3 360 10:19 30.07.2019
4436 Clouds 23 1017 78 10000 9.8 350 09:46 30.07.2019
4437 Clouds 22 1017 78 10000 9.8 350 09:27 30.07.2019
4438 Clouds 22 1017 78 10000 11.8 10 08:35 30.07.2019
4439 Clouds 22 1016 73 10000 9.3 360 07:53 30.07.2019
4440 Clouds 22 1016 64 10000 10.8 340 07:34 30.07.2019
4441 Clouds 22 1016 69 10000 9.8 350 06:52 30.07.2019
4442 Clouds 22 1016 73 10000 8.7 360 06:33 30.07.2019
4443 Clouds 22 1016 73 10000 10.8 360 05:35 30.07.2019
4444 Clouds 22 1017 73 10000 10.3 360 03:32 30.07.2019
4445 Clouds 22 1018 73 10000 10.3 350 01:22 30.07.2019
4446 Clouds 22 1018 73 10000 11.3 360 00:27 30.07.2019
4447 Clouds 23 1017 64 10000 11.3 350 23:57 29.07.2019
4448 Clouds 23 1017 60 10000 11.8 350 23:38 29.07.2019
4449 Clouds 23 1017 60 10000 11.3 360 23:20 29.07.2019
4450 Clouds 23 1017 60 10000 11.3 360 22:54 29.07.2019
4451 Clouds 23 1017 60 10000 11.3 350 22:36 29.07.2019
4452 Clouds 23 1016 60 10000 12.9 360 22:18 29.07.2019
4453 Clouds 24 1016 64 10000 13.4 360 21:41 29.07.2019
4454 Clouds 24 1016 64 10000 13.4 360 21:23 29.07.2019
4455 Clouds 25 1016 57 10000 12.9 360 20:57 29.07.2019
4456 Clouds 25 1016 57 10000 13.9 350 20:38 29.07.2019
4457 Clouds 25 1016 54 10000 13.4 360 20:19 29.07.2019
4458 Clouds 25 1016 54 10000 14.4 360 19:43 29.07.2019
4459 Clouds 25 1016 54 10000 14.4 360 19:22 29.07.2019
4460 Clouds 26 1016 51 10000 14.9 10 18:55 29.07.2019
4461 Clouds 26 1016 51 10000 13.4 10 18:36 29.07.2019
4462 Clouds 26 1016 51 10000 14.9 360 18:18 29.07.2019
4463 Clouds 27 1016 51 10000 13.4 360 17:46 29.07.2019
4464 Clouds 26 1016 51 10000 13.4 360 17:26 29.07.2019
4465 Clouds 27 1016 47 10000 13.9 360 16:46 29.07.2019
4466 Clouds 27 1016 47 10000 13.9 360 16:26 29.07.2019
4467 Clouds 27 1016 47 10000 14.4 20 15:54 29.07.2019
4468 Clouds 26 1017 54 10000 15.4 20 15:35 29.07.2019
4469 Clouds 25 1017 54 10000 14.9 20 14:57 29.07.2019
4470 Clouds 25 1017 57 10000 14.4 20 14:39 29.07.2019
4471 Clouds 25 1017 57 10000 14.4 20 14:21 29.07.2019
4472 Clouds 25 1017 54 10000 12.9 360 13:44 29.07.2019
4473 Clouds 26 1017 54 10000 12.9 360 13:23 29.07.2019
4474 Clouds 25 1017 53 10000 11.8 10 12:45 29.07.2019
4475 Clouds 25 1017 53 10000 11.8 10 12:26 29.07.2019
4476 Clouds 25 1017 53 10000 11.8 10 12:26 29.07.2019
4477 Clouds 24 1016 60 10000 11.8 360 11:45 29.07.2019
4478 Clouds 24 1016 60 10000 11.8 360 11:24 29.07.2019
4479 Clouds 22 1016 64 10000 11.8 10 10:59 29.07.2019
4480 Clouds 22 1016 64 10000 10.8 360 10:40 29.07.2019
4481 Clouds 22 1016 64 10000 10.8 360 10:21 29.07.2019
4482 Clouds 22 1016 68 10000 8.2 360 09:41 29.07.2019
4483 Clouds 22 1015 68 10000 8.2 360 09:21 29.07.2019
4484 Clouds 21 1015 64 10000 9.8 360 08:42 29.07.2019
4485 Clouds 21 1015 64 10000 9.8 360 08:22 29.07.2019
4486 Clouds 21 1015 68 10000 9.8 360 07:45 29.07.2019
4487 Clouds 21 1015 68 10000 9.8 360 07:24 29.07.2019
4488 Clouds 22 1015 64 10000 9.3 360 05:52 29.07.2019
4489 Clouds 22 1015 68 10000 10.8 350 04:59 29.07.2019
4490 Clouds 23 1016 69 10000 9.3 360 02:28 29.07.2019
4491 Clouds 23 1016 69 10000 9.8 360 01:46 29.07.2019
4492 Clouds 23 1016 69 10000 9.8 360 01:24 29.07.2019
4493 Clouds 23 1016 69 10000 10.3 360 00:52 29.07.2019
4494 Clouds 23 1016 73 10000 11.3 360 00:23 29.07.2019
4495 Clouds 23 1015 69 10000 10.8 360 23:41 28.07.2019
4496 Clouds 23 1015 69 10000 10.8 360 23:19 28.07.2019
4497 Clouds 23 1015 69 10000 10.8 350 22:42 28.07.2019
4498 Clouds 23 1015 69 10000 10.8 350 22:23 28.07.2019
4499 Clouds 24 1015 64 10000 12.9 10 21:50 28.07.2019
4500 Clouds 24 1014 64 10000 11.3 10 21:20 28.07.2019
4501 Clouds 25 1013 61 10000 13.9 10 20:49 28.07.2019
4502 Clouds 25 1013 61 10000 13.9 10 20:30 28.07.2019
4503 Clouds 26 1013 57 10000 12.3 360 19:57 28.07.2019
4504 Clouds 26 1013 61 10000 14.4 10 19:38 28.07.2019
4505 Clouds 26 1013 61 10000 14.4 10 19:20 28.07.2019
4506 Clouds 26 1013 57 10000 12.9 360 18:44 28.07.2019
4507 Clouds 26 1013 61 10000 13.4 10 18:25 28.07.2019
4508 Clouds 25 1013 61 10000 14.4 10 17:43 28.07.2019
4509 Clouds 25 1013 61 10000 14.4 10 17:22 28.07.2019
4510 Clouds 26 1013 61 10000 14.9 10 16:59 28.07.2019
4511 Clouds 26 1014 61 10000 13.9 10 16:40 28.07.2019
4512 Clouds 27 1014 61 10000 15.4 20 16:22 28.07.2019
4513 Clouds 27 1014 69 10000 13.9 10 15:43 28.07.2019
4514 Clouds 27 1014 69 10000 13.9 10 15:22 28.07.2019
4515 Clouds 27 1015 65 10000 11.8 360 14:38 28.07.2019
4516 Clouds 26 1015 65 10000 11.8 360 14:20 28.07.2019
4517 Clouds 26 1015 69 10000 11.8 20 13:56 28.07.2019
4518 Clouds 25 1015 65 10000 11.8 10 13:37 28.07.2019
4519 Clouds 25 1015 65 10000 11.8 10 13:19 28.07.2019
4520 Clouds 25 1015 69 10000 11.8 360 12:41 28.07.2019
4521 Clouds 25 1015 69 10000 11.8 360 12:41 28.07.2019
4522 Clouds 25 1015 69 10000 11.8 360 12:23 28.07.2019
4523 Drizzle 24 1015 94 10000 9.8 10 11:48 28.07.2019
4524 Drizzle 24 1015 94 10000 9.8 10 11:27 28.07.2019
4525 Clouds 23 1015 78 10000 9.3 360 10:42 28.07.2019
4526 Clouds 23 1015 78 10000 9.3 360 10:23 28.07.2019
4527 Clouds 23 1015 78 10000 9.3 360 10:23 28.07.2019
4528 Clouds 23 1015 78 10000 9.3 360 10:23 28.07.2019
4529 Clouds 22 1015 83 10000 9.8 350 09:57 28.07.2019
4530 Clouds 22 1015 73 10000 7.7 360 09:38 28.07.2019
4531 Clouds 22 1015 73 10000 7.7 360 09:19 28.07.2019
4532 Clouds 22 1015 73 10000 7.7 360 09:19 28.07.2019
4533 Clouds 22 1014 73 10000 9.8 360 08:41 28.07.2019
4534 Clouds 22 1014 78 10000 10.3 10 08:21 28.07.2019
4535 Clouds 22 1014 83 10000 10.8 10 07:39 28.07.2019
4536 Clouds 22 1014 73 10000 9.8 360 06:47 28.07.2019
4537 Clouds 23 1014 73 10000 9.8 360 06:28 28.07.2019
4538 Clouds 22 1015 78 10000 9.3 360 05:18 28.07.2019
4539 Clouds 22 1017 73 10000 11.8 360 02:24 28.07.2019
4540 Clouds 22 1017 68 10000 11.3 360 01:25 28.07.2019
4541 Clouds 22 1017 73 10000 11.8 360 00:49 28.07.2019
4542 Clouds 22 1017 73 10000 11.3 360 00:24 28.07.2019
4543 Clouds 22 1017 73 10000 11.3 360 23:48 27.07.2019
4544 Clouds 22 1017 73 10000 11.3 360 23:26 27.07.2019
4545 Clouds 23 1016 69 10000 12.9 360 22:42 27.07.2019
4546 Clouds 23 1016 69 10000 12.9 360 22:23 27.07.2019
4547 Clouds 23 1016 64 10000 12.9 360 21:44 27.07.2019
4548 Clouds 24 1016 64 10000 12.9 360 21:22 27.07.2019
4549 Clouds 24 1016 64 10000 12.3 10 20:54 27.07.2019
4550 Clouds 24 1016 60 10000 13.9 10 20:30 27.07.2019
4551 Clouds 25 1016 57 10000 12.9 10 19:58 27.07.2019
4552 Clouds 25 1016 64 10000 13.9 20 19:38 27.07.2019
4553 Clouds 25 1016 64 10000 13.9 20 19:19 27.07.2019
4554 Clouds 26 1016 57 10000 13.9 30 18:46 27.07.2019
4555 Clouds 26 1016 57 10000 13.9 30 18:28 27.07.2019
4556 Clouds 27 1017 57 10000 13.9 20 17:49 27.07.2019
4557 Clouds 27 1017 57 10000 13.9 20 17:31 27.07.2019
4558 Clouds 26 1017 61 10000 14.4 20 16:53 27.07.2019
4559 Clouds 26 1017 61 10000 14.4 30 16:34 27.07.2019
4560 Clouds 27 1017 61 10000 13.9 20 15:56 27.07.2019
4561 Clouds 25 1017 61 10000 13.4 20 15:28 27.07.2019
4562 Clouds 25 1018 61 10000 13.4 10 14:53 27.07.2019
4563 Clouds 25 1018 61 10000 13.4 10 14:34 27.07.2019
4564 Clouds 25 1018 69 10000 13.4 10 13:59 27.07.2019
4565 Clouds 25 1018 64 10000 13.9 10 13:41 27.07.2019
4566 Clouds 25 1018 64 10000 13.9 10 13:21 27.07.2019
4567 Clouds 25 1018 64 10000 14.4 20 12:49 27.07.2019
4568 Clouds 24 1018 64 10000 12.9 10 12:26 27.07.2019
4569 Clouds 23 1018 73 10000 11.3 10 11:46 27.07.2019
4570 Clouds 23 1018 73 10000 11.3 10 11:25 27.07.2019
4571 Clouds 23 1018 73 10000 11.3 10 11:25 27.07.2019
4572 Clouds 23 1017 69 10000 9.8 360 10:57 27.07.2019
4573 Clouds 22 1017 73 10000 12.3 10 10:39 27.07.2019
4574 Clouds 22 1017 78 10000 10.8 360 10:18 27.07.2019
4575 Clouds 22 1016 78 10000 10.8 360 09:40 27.07.2019
4576 Clouds 22 1016 78 10000 10.8 360 09:21 27.07.2019
4577 Clouds 22 1016 78 10000 11.3 360 08:45 27.07.2019
4578 Clouds 22 1016 78 10000 11.3 360 08:25 27.07.2019
4579 Clouds 22 1016 78 10000 12.3 360 07:45 27.07.2019
4580 Clouds 22 1016 78 10000 12.3 360 07:23 27.07.2019
4581 Clouds 22 1016 78 10000 11.8 360 06:55 27.07.2019
4582 Clouds 22 1016 78 10000 10.8 360 06:28 27.07.2019
4583 Clouds 22 1016 78 10000 12.9 360 05:42 27.07.2019
4584 Clouds 22 1016 78 10000 12.3 360 04:54 27.07.2019
4585 Clouds 23 1017 73 10000 12.3 360 03:57 27.07.2019
4586 Clouds 23 1018 78 10000 13.4 360 02:44 27.07.2019
4587 Clouds 23 1018 78 10000 13.4 360 02:24 27.07.2019
4588 Clouds 23 1019 73 10000 12.9 360 01:41 27.07.2019
4589 Clouds 23 1018 78 10000 13.4 10 00:51 27.07.2019
4590 Clouds 24 1018 73 10000 12.3 360 00:31 27.07.2019
4591 Clouds 23 1018 73 10000 13.4 360 23:49 26.07.2019
4592 Clouds 24 1018 73 10000 13.4 360 23:26 26.07.2019
4593 Clouds 24 1017 73 10000 12.9 360 22:45 26.07.2019
4594 Clouds 24 1017 73 10000 12.9 360 22:45 26.07.2019
4595 Clouds 24 1017 73 10000 12.9 360 22:26 26.07.2019
4596 Clouds 24 1017 69 10000 12.3 360 21:56 26.07.2019
4597 Clouds 25 1017 69 10000 12.3 360 21:37 26.07.2019
4598 Clouds 25 1017 69 10000 13.9 360 21:18 26.07.2019
4599 Clouds 26 1017 61 10000 13.4 360 20:40 26.07.2019
4600 Clouds 26 1017 61 10000 13.4 360 20:21 26.07.2019
4601 Clouds 27 1017 54 10000 13.4 360 19:41 26.07.2019
4602 Clouds 27 1017 54 10000 13.4 360 19:22 26.07.2019
4603 Clouds 27 1017 57 10000 12.9 360 18:45 26.07.2019
4604 Clouds 27 1017 57 10000 12.9 360 18:22 26.07.2019
4605 Clouds 27 1017 61 10000 14.9 10 17:58 26.07.2019
4606 Clouds 27 1017 65 10000 13.4 10 17:38 26.07.2019
4607 Clouds 27 1018 65 10000 14.4 20 17:18 26.07.2019
4608 Clouds 26 1018 65 10000 14.4 20 16:55 26.07.2019
4609 Clouds 26 1018 65 10000 14.9 10 16:36 26.07.2019
4610 Clouds 26 1018 65 10000 13.9 10 16:18 26.07.2019
4611 Clouds 26 1018 65 10000 15.4 20 15:45 26.07.2019
4612 Clouds 26 1018 65 10000 15.4 20 15:22 26.07.2019
4613 Clouds 26 1018 65 10000 14.9 20 14:46 26.07.2019
4614 Clouds 26 1018 65 10000 14.9 20 14:25 26.07.2019
4615 Clouds 26 1018 65 10000 14.4 20 13:56 26.07.2019
4616 Clouds 26 1018 69 10000 13.4 10 13:36 26.07.2019
4617 Clouds 25 1018 73 10000 13.9 10 13:18 26.07.2019
4618 Clouds 25 1017 73 10000 14.4 10 12:42 26.07.2019
4619 Clouds 25 1017 73 10000 13.4 10 12:18 26.07.2019
4620 Clouds 24 1017 78 10000 13.9 10 11:39 26.07.2019
4621 Clouds 23 1017 78 10000 13.4 10 11:19 26.07.2019
4622 Clouds 23 1017 73 10000 12.9 10 10:47 26.07.2019
4623 Clouds 23 1017 73 10000 12.9 10 10:28 26.07.2019
4624 Clouds 23 1016 78 10000 14.4 20 09:53 26.07.2019
4625 Clouds 22 1016 78 10000 12.3 20 09:34 26.07.2019
4626 Clouds 22 1015 78 10000 9.3 20 08:42 26.07.2019
4627 Clouds 22 1015 78 10000 9.3 20 08:21 26.07.2019
4628 Clouds 22 1015 78 10000 9.8 10 07:54 26.07.2019
4629 Clouds 22 1016 78 10000 9.3 10 07:27 26.07.2019
4630 Clouds 22 1016 78 10000 11.3 10 06:41 26.07.2019
4631 Clouds 22 1016 73 10000 10.8 10 05:19 26.07.2019
4632 Clouds 23 1017 73 10000 10.8 10 04:21 26.07.2019
4633 Clear 24 1017 64 10000 13.4 350 02:39 26.07.2019
4634 Clouds 24 1017 78 10000 12.3 10 01:35 26.07.2019
4635 Clouds 24 1017 69 10000 11.8 360 00:39 26.07.2019
4636 Clouds 24 1016 69 10000 12.9 360 23:56 25.07.2019
4637 Clouds 25 1016 57 10000 13.9 360 23:23 25.07.2019
4638 Clouds 25 1015 47 10000 12.3 10 22:55 25.07.2019
4639 Clouds 25 1015 34 10000 12.3 10 22:36 25.07.2019
4640 Clouds 26 1015 30 10000 11.3 360 22:18 25.07.2019
4641 Clouds 26 1014 32 10000 11.8 10 21:42 25.07.2019
4642 Clouds 26 1014 32 10000 11.8 10 21:21 25.07.2019
4643 Clouds 27 1014 54 10000 12.9 10 20:47 25.07.2019
4644 Clouds 27 1014 54 10000 12.9 10 20:22 25.07.2019
4645 Clouds 27 1014 54 10000 12.3 20 19:44 25.07.2019
4646 Clouds 28 1014 54 10000 12.3 20 19:25 25.07.2019
4647 Clouds 29 1014 39 10000 11.8 10 18:56 25.07.2019
4648 Clouds 29 1014 42 10000 12.3 10 18:38 25.07.2019
4649 Clouds 28 1014 51 10000 12.9 10 18:19 25.07.2019
4650 Clouds 28 1015 51 10000 13.4 20 17:40 25.07.2019
4651 Clouds 28 1015 51 10000 13.4 20 17:22 25.07.2019
4652 Clouds 28 1015 48 10000 13.4 10 16:43 25.07.2019
4653 Clouds 28 1015 48 10000 13.4 10 16:25 25.07.2019
4654 Clouds 28 1015 54 10000 13.4 20 15:54 25.07.2019
4655 Clouds 29 1016 30 10000 11.8 360 15:21 25.07.2019
4656 Clouds 29 1016 30 10000 11.8 360 14:56 25.07.2019
4657 Clouds 29 1016 37 10000 11.8 20 14:38 25.07.2019
4658 Clouds 28 1016 32 10000 12.3 20 14:18 25.07.2019
4659 Clouds 29 1016 32 10000 11.3 20 13:40 25.07.2019
4660 Clouds 29 1016 32 10000 11.3 20 13:22 25.07.2019
4661 Clouds 29 1016 25 10000 10.8 360 12:35 25.07.2019
4662 Clouds 27 1016 30 10000 10.8 20 11:59 25.07.2019
4663 Clouds 27 1015 24 10000 10.8 10 11:40 25.07.2019
4664 Clouds 27 1015 24 10000 10.8 10 11:22 25.07.2019
4665 Clouds 26 1015 28 10000 9.3 10 10:45 25.07.2019
4666 Clouds 26 1015 28 10000 9.3 10 10:24 25.07.2019
4667 Clouds 24 1015 41 10000 8.2 10 09:46 25.07.2019
4668 Clouds 23 1015 41 10000 8.2 10 09:27 25.07.2019
4669 Clouds 23 1015 41 10000 8.2 10 09:27 25.07.2019
4670 Clouds 23 1015 46 10000 8.2 20 08:53 25.07.2019
4671 Clouds 23 1014 36 10000 8.2 10 08:32 25.07.2019
4672 Clear 23 1014 41 10000 8.7 10 07:40 25.07.2019
4673 Clear 23 1014 38 10000 8.7 360 06:46 25.07.2019
4674 Clear 23 1014 38 10000 8.7 360 06:20 25.07.2019
4675 Clear 23 1014 41 10000 8.2 360 05:36 25.07.2019
4676 Clear 22 1015 41 10000 8.7 360 04:45 25.07.2019
4677 Clear 23 1015 38 10000 8.7 360 02:26 25.07.2019
4678 Clear 23 1015 29 10000 9.8 10 01:21 25.07.2019
4679 Clouds 23 1015 64 10000 10.8 20 00:31 25.07.2019
4680 Clouds 23 1015 69 10000 12.3 20 23:56 24.07.2019
4681 Clouds 23 1015 69 10000 12.9 20 23:38 24.07.2019
4682 Clouds 23 1015 69 10000 12.9 20 23:19 24.07.2019
4683 Clouds 23 1014 73 10000 13.4 20 22:44 24.07.2019
4684 Clouds 23 1014 73 10000 13.4 20 22:22 24.07.2019
4685 Clouds 25 1014 69 10000 12.9 10 21:55 24.07.2019
4686 Clouds 25 1014 69 10000 12.9 10 21:37 24.07.2019
4687 Clouds 25 1014 69 10000 13.4 20 21:18 24.07.2019
4688 Clouds 25 1014 69 10000 14.9 20 20:40 24.07.2019
4689 Clouds 25 1013 65 10000 14.9 20 20:22 24.07.2019
4690 Clouds 25 1013 65 10000 14.9 20 19:57 24.07.2019
4691 Clouds 25 1013 65 10000 14.9 20 19:39 24.07.2019
4692 Clouds 25 1013 65 10000 14.9 20 19:19 24.07.2019
4693 Clouds 26 1013 61 10000 14.9 30 18:42 24.07.2019
4694 Clouds 27 1013 61 10000 14.9 30 18:23 24.07.2019
4695 Clouds 28 1013 45 10000 12.3 10 17:46 24.07.2019
4696 Clouds 28 1013 45 10000 12.3 10 17:20 24.07.2019
4697 Clouds 28 1014 57 10000 13.9 10 16:44 24.07.2019
4698 Clouds 27 1014 57 10000 13.9 10 16:23 24.07.2019
4699 Clouds 26 1015 61 10000 15.4 30 15:59 24.07.2019
4700 Clouds 26 1015 61 10000 13.9 30 15:36 24.07.2019
4701 Clouds 26 1015 57 10000 13.4 20 15:18 24.07.2019
4702 Clouds 26 1015 61 10000 13.9 30 14:43 24.07.2019
4703 Clouds 26 1015 57 10000 12.9 20 14:19 24.07.2019
4704 Clouds 25 1016 65 10000 12.9 20 13:39 24.07.2019
4705 Clouds 25 1016 65 10000 12.3 20 13:19 24.07.2019
4706 Clouds 25 1016 65 10000 12.3 20 12:51 24.07.2019
4707 Clouds 25 1016 65 10000 12.3 20 12:51 24.07.2019
4708 Clouds 24 1016 64 10000 12.9 30 12:33 24.07.2019
4709 Clouds 24 1015 64 10000 11.8 20 11:40 24.07.2019
4710 Clouds 24 1015 64 10000 11.8 20 11:21 24.07.2019
4711 Clouds 22 1015 73 10000 11.8 10 10:47 24.07.2019
4712 Clouds 22 1015 73 10000 11.8 10 10:26 24.07.2019
4713 Clouds 22 1014 68 10000 11.3 10 09:52 24.07.2019
4714 Clouds 20 1014 73 10000 10.3 10 09:26 24.07.2019
4715 Clouds 20 1015 77 10000 10.3 10 08:58 24.07.2019
4716 Clouds 20 1014 77 10000 10.8 20 08:35 24.07.2019
4717 Clouds 20 1014 77 10000 11.3 10 07:52 24.07.2019
4718 Clouds 21 1014 77 10000 12.3 10 07:31 24.07.2019
4719 Clouds 21 1014 77 10000 12.3 10 07:31 24.07.2019
4720 Clouds 21 1014 73 10000 13.4 10 06:49 24.07.2019
4721 Clouds 20 1014 73 10000 13.4 10 06:23 24.07.2019
4722 Clouds 21 1016 73 10000 10.8 360 02:56 24.07.2019
4723 Clouds 22 1016 68 10000 11.3 360 01:47 24.07.2019
4724 Clouds 22 1017 68 10000 11.3 360 00:57 24.07.2019
4725 Clouds 22 1017 73 10000 11.3 360 00:24 24.07.2019
4726 Clouds 22 1016 68 10000 13.9 10 23:46 23.07.2019
4727 Clouds 22 1016 68 10000 13.9 10 23:25 23.07.2019
4728 Clouds 22 1016 68 10000 13.9 10 23:25 23.07.2019
4729 Clouds 22 1015 68 10000 12.3 10 22:56 23.07.2019
4730 Clouds 22 1015 68 10000 13.9 10 22:36 23.07.2019
4731 Clouds 22 1015 69 10000 13.4 10 22:18 23.07.2019
4732 Clouds 22 1015 69 10000 13.4 10 22:18 23.07.2019
4733 Clouds 23 1015 64 10000 13.9 360 21:43 23.07.2019
4734 Clouds 23 1015 64 10000 13.9 360 21:25 23.07.2019
4735 Clouds 24 1015 57 10000 12.9 10 20:48 23.07.2019
4736 Clouds 25 1015 57 10000 12.9 10 20:29 23.07.2019
4737 Clouds 25 1015 61 10000 15.4 20 19:43 23.07.2019
4738 Clouds 25 1015 61 10000 15.4 20 19:24 23.07.2019
4739 Clouds 25 1015 61 10000 13.9 10 18:55 23.07.2019
4740 Clouds 26 1016 57 10000 14.9 20 18:37 23.07.2019
4741 Clouds 25 1016 61 10000 14.9 30 18:19 23.07.2019
4742 Clouds 26 1016 57 10000 13.9 20 17:41 23.07.2019
4743 Clouds 25 1016 61 10000 14.9 20 17:20 23.07.2019
4744 Clouds 25 1016 61 10000 14.9 30 16:42 23.07.2019
4745 Clouds 25 1016 61 10000 14.9 30 16:24 23.07.2019
4746 Clouds 25 1017 61 10000 14.4 20 15:48 23.07.2019
4747 Clouds 25 1017 61 10000 14.4 20 15:29 23.07.2019
4748 Clouds 25 1017 57 10000 13.9 20 14:41 23.07.2019
4749 Clouds 25 1017 57 10000 13.9 20 14:23 23.07.2019
4750 Clouds 25 1017 61 10000 13.9 20 14:00 23.07.2019
4751 Clouds 24 1017 61 10000 13.4 10 13:41 23.07.2019
4752 Clouds 24 1017 61 10000 13.4 10 13:23 23.07.2019
4753 Clouds 24 1017 60 10000 12.3 10 12:49 23.07.2019
4754 Clouds 24 1017 60 10000 12.3 10 12:28 23.07.2019
4755 Clouds 24 1017 60 10000 12.3 20 11:59 23.07.2019
4756 Clouds 23 1017 64 10000 12.3 360 11:40 23.07.2019
4757 Clouds 23 1017 64 10000 12.3 360 11:20 23.07.2019
4758 Clouds 22 1016 68 10000 11.3 360 10:42 23.07.2019
4759 Clouds 22 1016 68 10000 11.3 360 10:22 23.07.2019
4760 Clouds 21 1016 73 10000 9.8 360 09:42 23.07.2019
4761 Clouds 21 1016 73 10000 9.8 360 09:20 23.07.2019
4762 Clouds 21 1016 68 10000 9.8 360 08:44 23.07.2019
4763 Clouds 21 1016 68 10000 9.8 360 08:20 23.07.2019
4764 Clouds 20 1016 73 10000 10.8 360 07:56 23.07.2019
4765 Clouds 21 1016 73 10000 10.8 360 07:37 23.07.2019
4766 Clouds 20 1016 73 10000 11.3 360 06:50 23.07.2019
4767 Clouds 21 1016 73 10000 11.8 360 06:31 23.07.2019
4768 Clouds 22 1017 68 10000 11.3 360 03:55 23.07.2019
4769 Clouds 22 1018 68 10000 11.3 360 01:35 23.07.2019
4770 Clouds 22 1018 68 10000 12.3 360 00:31 23.07.2019
4771 Clouds 22 1018 68 10000 12.9 10 23:56 22.07.2019
4772 Clouds 22 1017 73 10000 12.3 360 23:38 22.07.2019
4773 Clouds 22 1017 73 10000 10.8 360 23:18 22.07.2019
4774 Clouds 22 1017 68 10000 12.3 10 22:44 22.07.2019
4775 Clouds 22 1017 68 10000 12.3 10 22:22 22.07.2019
4776 Clouds 23 1017 69 10000 12.3 10 21:43 22.07.2019
4777 Clouds 23 1017 69 10000 12.3 10 21:23 22.07.2019
4778 Clouds 23 1017 69 10000 12.3 10 20:53 22.07.2019
4779 Clouds 24 1017 64 10000 13.4 20 20:33 22.07.2019
4780 Clouds 24 1017 64 10000 12.9 20 19:58 22.07.2019
4781 Clouds 24 1017 61 10000 13.4 20 19:40 22.07.2019
4782 Clouds 25 1017 61 10000 13.4 20 19:20 22.07.2019
4783 Clouds 25 1017 61 10000 14.4 20 18:47 22.07.2019
4784 Clouds 25 1017 61 10000 14.4 20 18:28 22.07.2019
4785 Clouds 25 1017 65 10000 14.4 20 17:57 22.07.2019
4786 Clouds 26 1017 57 10000 13.9 20 17:38 22.07.2019
4787 Clouds 26 1017 57 10000 13.9 20 17:19 22.07.2019
4788 Clouds 26 1018 57 10000 14.9 20 16:40 22.07.2019
4789 Clouds 26 1018 57 10000 14.9 20 16:21 22.07.2019
4790 Clouds 25 1018 61 10000 14.9 30 15:44 22.07.2019
4791 Clouds 25 1018 61 10000 14.9 30 15:20 22.07.2019
4792 Clouds 25 1019 61 10000 13.9 30 14:44 22.07.2019
4793 Clouds 26 1019 61 10000 13.9 30 14:25 22.07.2019
4794 Clouds 25 1019 61 10000 13.9 20 13:52 22.07.2019
4795 Clouds 25 1019 61 10000 13.9 20 13:32 22.07.2019
4796 Clouds 25 1019 61 10000 13.9 20 12:55 22.07.2019
4797 Clouds 24 1019 64 10000 11.3 10 12:32 22.07.2019
4798 Clouds 24 1019 60 10000 11.8 360 11:57 22.07.2019
4799 Clouds 24 1019 60 10000 11.3 10 11:39 22.07.2019
4800 Clouds 23 1019 68 10000 11.8 360 11:19 22.07.2019
4801 Clouds 23 1018 68 10000 10.3 10 10:38 22.07.2019
4802 Clouds 22 1018 68 10000 9.8 360 10:19 22.07.2019
4803 Clouds 22 1018 68 10000 10.3 360 09:40 22.07.2019
4804 Clouds 21 1018 68 10000 10.3 360 09:21 22.07.2019
4805 Clouds 21 1018 73 10000 11.3 10 08:40 22.07.2019
4806 Clouds 20 1018 73 10000 11.3 10 08:22 22.07.2019
4807 Clouds 21 1018 68 10000 9.3 360 07:53 22.07.2019
4808 Clouds 21 1018 68 10000 10.8 360 07:27 22.07.2019
4809 Clouds 21 1018 73 10000 10.3 10 05:30 22.07.2019
4810 Clouds 21 1019 73 10000 10.3 10 03:45 22.07.2019
4811 Clouds 22 1020 73 10000 10.3 10 01:44 22.07.2019
4812 Clouds 22 1020 73 10000 10.3 10 00:50 22.07.2019
4813 Clouds 22 1020 78 10000 9.3 10 00:22 22.07.2019
4814 Clouds 22 1020 78 10000 9.3 10 23:50 21.07.2019
4815 Clouds 22 1019 73 10000 10.3 10 22:59 21.07.2019
4816 Clouds 22 1019 69 10000 10.8 10 22:41 21.07.2019
4817 Clouds 22 1019 69 10000 10.8 10 22:41 21.07.2019
4818 Clouds 23 1019 69 10000 10.8 10 22:21 21.07.2019
4819 Clouds 23 1018 69 10000 11.8 10 21:55 21.07.2019
4820 Clouds 24 1019 69 10000 11.8 20 21:36 21.07.2019
4821 Clouds 24 1018 64 10000 12.3 20 21:18 21.07.2019
4822 Clouds 24 1018 64 10000 12.9 20 20:41 21.07.2019
4823 Clouds 24 1018 64 10000 12.9 20 20:23 21.07.2019
4824 Clouds 25 1018 64 10000 12.9 20 19:53 21.07.2019
4825 Clouds 26 1018 65 10000 13.9 20 19:29 21.07.2019
4826 Clouds 26 1018 61 10000 13.9 20 18:56 21.07.2019
4827 Clouds 26 1018 61 10000 14.4 20 18:37 21.07.2019
4828 Clouds 26 1018 57 10000 14.4 20 18:19 21.07.2019
4829 Clouds 26 1019 61 10000 13.4 20 17:40 21.07.2019
4830 Clouds 26 1019 61 10000 13.4 20 17:19 21.07.2019
4831 Clouds 25 1019 57 10000 12.3 20 16:42 21.07.2019
4832 Clouds 25 1019 57 10000 12.3 20 16:24 21.07.2019
4833 Clouds 26 1019 61 10000 13.9 20 15:43 21.07.2019
4834 Clouds 26 1019 61 10000 13.9 20 15:22 21.07.2019
4835 Clouds 26 1019 61 10000 13.9 20 14:53 21.07.2019
4836 Clouds 25 1019 61 10000 14.4 30 14:25 21.07.2019
4837 Clouds 24 1019 69 10000 14.4 30 13:57 21.07.2019
4838 Clouds 24 1019 69 10000 14.4 30 13:57 21.07.2019
4839 Clouds 25 1019 65 10000 13.4 30 13:39 21.07.2019
4840 Clouds 25 1019 65 10000 13.4 30 13:19 21.07.2019
4841 Clouds 24 1019 65 10000 12.3 20 12:40 21.07.2019
4842 Clouds 24 1019 65 10000 12.3 20 12:40 21.07.2019
4843 Clouds 24 1019 65 10000 12.3 20 12:21 21.07.2019
4844 Clouds 24 1019 69 10000 11.3 10 11:45 21.07.2019
4845 Clouds 23 1019 69 10000 11.3 10 11:26 21.07.2019
4846 Clouds 22 1019 69 10000 9.3 10 10:47 21.07.2019
4847 Clouds 23 1019 69 10000 9.3 10 10:25 21.07.2019
4848 Clouds 22 1019 78 10000 9.3 10 09:55 21.07.2019
4849 Clouds 22 1019 73 10000 8.7 360 09:35 21.07.2019
4850 Clouds 22 1019 73 10000 9.3 10 08:49 21.07.2019
4851 Clouds 22 1018 73 10000 9.3 10 08:30 21.07.2019
4852 Clouds 22 1018 78 10000 10.3 10 07:53 21.07.2019
4853 Clouds 22 1018 73 10000 10.8 10 07:18 21.07.2019
4854 Clouds 22 1018 73 10000 11.3 10 06:34 21.07.2019
4855 Clouds 22 1019 69 10000 10.3 360 03:51 21.07.2019
4856 Clouds 23 1020 73 10000 10.8 10 01:53 21.07.2019
4857 Clouds 22 1019 69 10000 10.3 360 00:46 21.07.2019
4858 Clouds 22 1019 69 10000 10.3 360 00:21 21.07.2019
4859 Clouds 22 1019 73 10000 10.8 10 23:45 20.07.2019
4860 Clouds 22 1019 73 10000 10.8 10 23:25 20.07.2019
4861 Clouds 23 1019 69 10000 11.3 10 22:55 20.07.2019
4862 Clouds 23 1018 69 10000 12.3 360 22:37 20.07.2019
4863 Clouds 23 1018 64 10000 12.9 10 22:18 20.07.2019
4864 Clouds 23 1017 64 10000 11.3 360 21:40 20.07.2019
4865 Clouds 23 1017 64 10000 11.3 360 21:22 20.07.2019
4866 Clouds 24 1017 61 10000 11.3 360 20:43 20.07.2019
4867 Clouds 24 1017 61 10000 11.3 360 20:21 20.07.2019
4868 Clouds 25 1017 57 10000 12.9 10 19:49 20.07.2019
4869 Clouds 25 1017 57 10000 12.9 10 19:26 20.07.2019
4870 Clouds 26 1017 57 10000 12.9 20 18:46 20.07.2019
4871 Clouds 25 1017 57 10000 12.9 20 18:24 20.07.2019
4872 Clouds 26 1017 57 10000 14.9 20 17:56 20.07.2019
4873 Clouds 26 1017 57 10000 13.9 30 17:26 20.07.2019
4874 Clouds 26 1018 57 10000 13.4 20 16:46 20.07.2019
4875 Clouds 26 1018 57 10000 13.4 20 16:28 20.07.2019
4876 Clouds 26 1018 57 10000 12.9 20 15:59 20.07.2019
4877 Clouds 26 1019 61 10000 10.8 30 15:41 20.07.2019
4878 Clouds 25 1019 61 10000 10.8 30 15:21 20.07.2019
4879 Clouds 25 1019 57 10000 11.3 30 14:49 20.07.2019
4880 Clouds 25 1019 57 10000 11.3 30 14:29 20.07.2019
4881 Clouds 24 1019 61 10000 10.8 10 13:57 20.07.2019
4882 Clouds 23 1019 69 10000 10.8 10 13:37 20.07.2019
4883 Clouds 24 1018 64 10000 11.8 10 13:19 20.07.2019
4884 Clouds 24 1018 69 10000 10.3 10 12:44 20.07.2019
4885 Clouds 23 1018 73 10000 9.3 10 12:18 20.07.2019
4886 Clouds 22 1018 73 10000 10.3 360 11:41 20.07.2019
4887 Clouds 22 1018 73 10000 10.3 360 11:20 20.07.2019
4888 Clouds 21 1017 78 10000 10.3 10 10:41 20.07.2019
4889 Clouds 21 1017 78 10000 10.3 10 10:22 20.07.2019
4890 Clouds 22 1016 78 10000 7.7 360 09:46 20.07.2019
4891 Clouds 21 1016 78 10000 7.7 360 09:24 20.07.2019
4892 Clouds 21 1016 78 10000 11.8 360 08:49 20.07.2019
4893 Clouds 20 1016 78 10000 11.8 360 08:22 20.07.2019
4894 Clouds 20 1016 73 10000 9.3 360 07:34 20.07.2019
4895 Clouds 20 1016 73 10000 9.8 360 06:43 20.07.2019
4896 Clouds 21 1016 68 10000 9.8 10 05:21 20.07.2019
4897 Clouds 21 1016 73 10000 10.3 10 04:31 20.07.2019
4898 Clouds 21 1017 69 10000 9.8 360 01:30 20.07.2019
4899 Clouds 21 1017 69 10000 9.8 360 01:30 20.07.2019
4900 Clouds 21 1017 69 10000 9.8 360 00:50 20.07.2019
4901 Clouds 21 1017 64 10000 11.3 360 00:28 20.07.2019
4902 Clouds 22 1016 64 10000 11.3 360 23:56 19.07.2019
4903 Clouds 21 1016 69 10000 10.3 360 23:37 19.07.2019
4904 Drizzle 21 1016 64 10000 9.3 360 23:18 19.07.2019
4905 Clouds 21 1016 69 10000 10.8 360 22:40 19.07.2019
4906 Clouds 22 1016 69 10000 10.8 360 22:20 19.07.2019
4907 Clouds 23 1015 64 10000 11.8 10 21:43 19.07.2019
4908 Clouds 22 1015 64 10000 11.8 10 21:24 19.07.2019
4909 Clouds 23 1015 61 10000 12.9 360 20:44 19.07.2019
4910 Clouds 24 1015 61 10000 12.9 360 20:25 19.07.2019
4911 Clouds 24 1015 54 10000 13.4 10 19:40 19.07.2019
4912 Clouds 24 1015 54 10000 13.4 10 19:19 19.07.2019
4913 Clouds 25 1015 54 10000 13.9 10 18:41 19.07.2019
4914 Clouds 25 1016 51 10000 14.4 10 18:19 19.07.2019
4915 Clouds 25 1016 51 10000 14.4 10 18:19 19.07.2019
4916 Clouds 25 1016 51 10000 12.9 360 17:46 19.07.2019
4917 Clouds 25 1016 51 10000 12.9 360 17:25 19.07.2019
4918 Clouds 25 1016 47 10000 13.4 360 16:48 19.07.2019
4919 Clouds 26 1016 47 10000 13.4 360 16:25 19.07.2019
4920 Clouds 26 1016 54 10000 15.9 10 15:49 19.07.2019
4921 Clouds 25 1016 54 10000 15.9 10 15:30 19.07.2019
4922 Clouds 26 1017 50 10000 14.4 10 14:56 19.07.2019
4923 Clouds 25 1017 50 10000 12.9 360 14:38 19.07.2019
4924 Clouds 25 1017 50 10000 12.9 360 14:19 19.07.2019
4925 Clouds 25 1017 50 10000 11.8 360 13:43 19.07.2019
4926 Clouds 25 1017 50 10000 11.8 360 13:43 19.07.2019
4927 Clouds 24 1017 50 10000 11.8 360 13:23 19.07.2019
4928 Clouds 23 1017 50 10000 12.3 350 12:49 19.07.2019
4929 Clouds 22 1017 57 10000 12.3 360 12:30 19.07.2019
4930 Clouds 23 1016 60 10000 11.8 360 11:48 19.07.2019
4931 Clouds 21 1016 60 10000 11.8 360 11:20 19.07.2019
4932 Clouds 23 1016 60 10000 11.8 360 10:58 19.07.2019
4933 Clouds 22 1016 60 10000 9.3 360 10:40 19.07.2019
4934 Clouds 22 1016 60 10000 9.3 360 10:20 19.07.2019
4935 Clouds 22 1016 68 10000 8.7 360 09:44 19.07.2019
4936 Clouds 21 1016 68 10000 8.7 360 09:22 19.07.2019
4937 Clouds 21 1016 64 10000 8.7 360 08:56 19.07.2019
4938 Clouds 21 1016 64 10000 8.7 360 08:56 19.07.2019
4939 Clouds 21 1015 56 10000 6.7 350 08:38 19.07.2019
4940 Clouds 21 1015 68 10000 10.8 360 07:42 19.07.2019
4941 Clouds 21 1015 68 10000 10.8 360 07:23 19.07.2019
4942 Clouds 21 1016 64 10000 8.2 360 05:39 19.07.2019
4943 Clouds 20 1017 64 10000 9.8 360 01:59 19.07.2019
4944 Clouds 22 1017 64 10000 10.8 360 00:59 19.07.2019
4945 Clouds 20 1017 60 10000 11.3 350 00:25 19.07.2019
4946 Clouds 22 1016 60 10000 12.9 350 23:42 18.07.2019
4947 Clouds 20 1016 60 10000 12.9 350 23:23 18.07.2019
4948 Clouds 22 1016 64 10000 11.8 360 22:58 18.07.2019
4949 Clouds 21 1016 56 10000 11.3 360 22:39 18.07.2019
4950 Clouds 21 1016 56 10000 11.3 360 22:39 18.07.2019
4951 Clouds 21 1016 56 10000 12.3 360 22:18 18.07.2019
4952 Clouds 22 1016 60 10000 10.8 360 21:40 18.07.2019
4953 Clouds 22 1016 60 10000 10.8 360 21:20 18.07.2019
4954 Clouds 23 1016 60 10000 11.8 360 20:49 18.07.2019
4955 Clouds 24 1016 60 10000 11.8 360 20:27 18.07.2019
4956 Clouds 24 1016 57 10000 13.4 360 19:52 18.07.2019
4957 Clouds 24 1016 53 10000 13.4 360 19:30 18.07.2019
4958 Clouds 25 1016 50 10000 14.4 360 18:57 18.07.2019
4959 Clouds 25 1016 53 10000 14.4 10 18:24 18.07.2019
4960 Clouds 25 1016 50 10000 12.9 10 17:57 18.07.2019
4961 Clouds 25 1016 50 10000 12.3 10 17:39 18.07.2019
4962 Clouds 25 1016 54 10000 13.4 10 17:19 18.07.2019
4963 Clouds 25 1016 54 10000 13.4 10 16:53 18.07.2019
4964 Clouds 25 1017 47 10000 13.4 10 16:29 18.07.2019
4965 Clouds 25 1017 53 10000 13.9 10 15:58 18.07.2019
4966 Clouds 25 1017 50 10000 13.4 10 15:36 18.07.2019
4967 Clouds 25 1017 53 10000 13.4 10 14:57 18.07.2019
4968 Clouds 24 1017 57 10000 15.9 20 14:38 18.07.2019
4969 Clouds 25 1018 53 10000 12.9 10 14:20 18.07.2019
4970 Clouds 25 1018 53 10000 12.3 10 13:43 18.07.2019
4971 Clouds 24 1018 53 10000 12.3 10 13:22 18.07.2019
4972 Clouds 23 1018 60 10000 11.8 360 12:48 18.07.2019
4973 Clouds 23 1018 60 10000 10.3 360 12:21 18.07.2019
4974 Clouds 22 1018 64 10000 11.3 360 11:52 18.07.2019
4975 Clouds 22 1018 64 10000 11.3 360 11:33 18.07.2019
4976 Clouds 22 1018 64 10000 11.3 360 11:33 18.07.2019
4977 Clouds 22 1018 64 10000 11.8 10 10:53 18.07.2019
4978 Clouds 21 1018 64 10000 10.8 360 10:35 18.07.2019
4979 Clouds 21 1018 64 10000 9.8 360 09:47 18.07.2019
4980 Clouds 22 1018 64 10000 9.8 360 09:24 18.07.2019
4981 Clouds 21 1017 68 10000 12.3 350 08:50 18.07.2019
4982 Clouds 21 1017 68 10000 12.9 360 08:20 18.07.2019
4983 Clouds 22 1017 60 10000 12.3 360 07:45 18.07.2019
4984 Clouds 21 1017 60 10000 12.3 360 07:26 18.07.2019
4985 Clouds 21 1017 68 10000 12.9 360 06:40 18.07.2019
4986 Clouds 21 1017 68 10000 12.3 360 05:36 18.07.2019
4987 Clouds 22 1019 68 10000 11.8 360 03:23 18.07.2019
4988 Clouds 22 1019 68 10000 10.3 360 01:52 18.07.2019
4989 Clouds 22 1019 68 10000 11.3 360 01:18 18.07.2019
4990 Clouds 22 1019 68 10000 10.8 360 23:54 17.07.2019
4991 Clouds 22 1019 68 10000 10.8 360 23:20 17.07.2019
4992 Clouds 22 1019 73 10000 12.3 10 22:56 17.07.2019
4993 Clouds 23 1018 69 10000 10.8 10 22:38 17.07.2019
4994 Clouds 23 1018 69 10000 11.3 360 22:19 17.07.2019
4995 Clouds 23 1018 69 10000 12.3 10 21:45 17.07.2019
4996 Clouds 23 1018 69 10000 12.3 10 21:26 17.07.2019
4997 Clouds 23 1018 69 10000 12.9 10 20:58 17.07.2019
4998 Clouds 24 1018 64 10000 13.4 10 20:39 17.07.2019
4999 Clouds 25 1018 61 10000 14.4 10 20:21 17.07.2019
5000 Clouds 25 1018 65 10000 14.4 20 19:44 17.07.2019
5001 Clouds 26 1018 65 10000 14.4 20 19:23 17.07.2019
5002 Clouds 26 1018 57 10000 13.4 10 18:59 17.07.2019
5003 Clouds 25 1018 61 10000 14.4 20 18:40 17.07.2019
5004 Clouds 25 1018 65 10000 13.9 10 18:20 17.07.2019
5005 Clouds 25 1019 65 10000 13.4 10 17:50 17.07.2019
5006 Clouds 26 1019 65 10000 13.4 10 17:26 17.07.2019
5007 Clouds 27 1019 61 10000 14.4 20 16:55 17.07.2019
5008 Clouds 25 1019 65 10000 13.9 20 16:37 17.07.2019
5009 Clouds 26 1019 65 10000 13.9 20 16:18 17.07.2019
5010 Clouds 25 1019 65 10000 13.9 20 15:44 17.07.2019
5011 Clouds 25 1019 65 10000 13.4 10 15:25 17.07.2019
5012 Clouds 25 1019 65 10000 13.4 20 14:54 17.07.2019
5013 Clouds 25 1019 69 10000 12.9 10 14:36 17.07.2019
5014 Clouds 25 1019 69 10000 12.9 10 14:18 17.07.2019
5015 Clouds 25 1020 69 10000 12.9 10 13:40 17.07.2019
5016 Clouds 25 1020 69 10000 12.9 10 13:20 17.07.2019
5017 Clouds 24 1019 69 10000 13.9 10 12:40 17.07.2019
5018 Clouds 23 1019 69 10000 13.9 10 12:20 17.07.2019
5019 Clouds 23 1019 73 10000 12.9 10 11:45 17.07.2019
5020 Clouds 23 1019 73 10000 12.9 10 11:45 17.07.2019
5021 Clouds 23 1019 69 10000 11.8 10 11:21 17.07.2019
5022 Clouds 23 1018 69 10000 11.8 10 10:50 17.07.2019
5023 Clouds 22 1018 78 10000 11.8 10 10:29 17.07.2019
5024 Clouds 22 1018 78 10000 12.3 10 09:58 17.07.2019
5025 Clouds 22 1018 78 10000 11.8 10 09:39 17.07.2019
5026 Clouds 22 1018 78 10000 11.8 10 09:20 17.07.2019
5027 Clouds 22 1018 78 10000 11.3 10 08:41 17.07.2019
5028 Clouds 22 1018 78 10000 11.3 10 08:22 17.07.2019
5029 Clouds 22 1017 78 10000 11.3 10 07:48 17.07.2019
5030 Clouds 22 1017 78 10000 11.3 10 07:23 17.07.2019
5031 Clouds 22 1017 78 10000 10.3 10 06:49 17.07.2019
5032 Clouds 22 1017 78 10000 10.8 10 06:29 17.07.2019
5033 Clouds 22 1017 78 10000 10.8 360 05:47 17.07.2019
5034 Clouds 22 1017 73 10000 10.3 360 05:25 17.07.2019
5035 Clouds 22 1017 78 10000 10.3 360 04:32 17.07.2019
5036 Clouds 22 1018 78 10000 12.3 10 02:52 17.07.2019
5037 Clouds 22 1018 78 10000 12.3 10 01:59 17.07.2019
5038 Clouds 23 1018 69 10000 11.3 10 01:25 17.07.2019
5039 Clouds 23 1018 69 10000 10.8 360 00:47 17.07.2019
5040 Clouds 22 1017 73 10000 11.8 10 00:24 17.07.2019
5041 Clouds 23 1017 69 10000 11.3 360 23:57 16.07.2019
5042 Clouds 22 1017 73 10000 13.4 10 23:30 16.07.2019
5043 Clouds 23 1016 69 10000 13.9 10 22:58 16.07.2019
5044 Clouds 23 1016 69 10000 12.9 360 22:40 16.07.2019
5045 Clouds 23 1016 69 10000 12.9 360 22:20 16.07.2019
5046 Clouds 23 1016 73 10000 11.8 360 21:45 16.07.2019
5047 Clouds 24 1015 69 10000 13.9 10 21:21 16.07.2019
5048 Clouds 24 1015 69 10000 13.9 20 20:58 16.07.2019
5049 Clouds 25 1015 69 10000 13.9 10 20:38 16.07.2019
5050 Clouds 25 1015 69 10000 13.9 10 20:20 16.07.2019
5051 Clouds 25 1015 61 10000 13.4 10 19:47 16.07.2019
5052 Clouds 26 1015 65 10000 13.9 10 19:27 16.07.2019
5053 -273 0 0 0 0 0 18:56 16.07.2019
5054 Clouds 27 1015 65 10000 14.4 20 18:37 16.07.2019
5055 Clouds 26 1015 65 10000 14.4 20 18:19 16.07.2019
5056 Clouds 27 1015 65 10000 15.4 30 17:40 16.07.2019
5057 Clouds 26 1015 65 10000 15.4 30 17:20 16.07.2019
5058 Clouds 27 1015 57 10000 15.4 10 16:43 16.07.2019
5059 Clouds 26 1015 61 10000 15.4 20 16:21 16.07.2019
5060 Clouds 26 1015 61 10000 14.9 10 15:42 16.07.2019
5061 Clouds 27 1015 61 10000 14.9 10 15:21 16.07.2019
5062 Clouds 26 1016 61 10000 14.9 10 14:59 16.07.2019
5063 Clouds 26 1015 61 10000 15.4 20 14:41 16.07.2019
5064 Clouds 25 1015 61 10000 15.4 20 14:23 16.07.2019
5065 Clouds 25 1015 61 10000 16.5 20 13:45 16.07.2019
5066 Clouds 25 1016 61 10000 14.9 10 13:26 16.07.2019
5067 Clouds 24 1016 69 10000 14.9 20 12:55 16.07.2019
5068 Clouds 23 1016 69 10000 14.4 10 12:37 16.07.2019
5069 Clouds 23 1016 69 10000 14.4 10 12:19 16.07.2019
5070 Clouds 23 1015 69 10000 12.9 10 11:43 16.07.2019
5071 Clouds 23 1015 69 10000 12.9 10 11:23 16.07.2019
5072 Clouds 23 1015 69 10000 12.3 360 10:56 16.07.2019
5073 Clouds 22 1015 73 10000 11.8 360 10:37 16.07.2019
5074 Clouds 22 1015 73 10000 11.8 360 10:18 16.07.2019
5075 Clouds 22 1015 73 10000 11.8 360 10:18 16.07.2019
5076 Clouds 22 1015 73 10000 11.8 360 10:18 16.07.2019
5077 Clouds 22 1014 73 10000 13.9 10 09:42 16.07.2019
5078 Clouds 22 1014 73 10000 13.9 10 09:19 16.07.2019
5079 Clouds 21 1014 73 10000 13.9 10 08:43 16.07.2019
5080 Clouds 21 1014 73 10000 11.8 360 08:22 16.07.2019
5081 Clouds 21 1014 73 10000 11.8 360 08:22 16.07.2019
5082 Clouds 22 1014 73 10000 11.8 360 07:48 16.07.2019
5083 Clouds 22 1014 73 10000 12.3 10 07:30 16.07.2019
5084 Clouds 22 1014 73 10000 11.8 10 06:49 16.07.2019
5085 Clouds 22 1014 73 10000 11.8 360 06:31 16.07.2019
5086 Clouds 22 1014 73 10000 12.3 360 05:42 16.07.2019
5087 Clouds 22 1014 73 10000 12.3 360 05:24 16.07.2019
5088 Clouds 22 1014 73 10000 11.8 360 04:23 16.07.2019
5089 Clouds 22 1015 78 10000 11.8 10 03:21 16.07.2019
5090 Clouds 23 1015 78 10000 11.8 10 02:31 16.07.2019
5091 Clouds 22 1016 73 10000 12.3 360 01:49 16.07.2019
5092 Clouds 23 1016 69 10000 12.9 360 00:49 16.07.2019
5093 Clouds 23 1015 73 10000 13.4 10 00:22 16.07.2019
5094 Clouds 23 1015 73 10000 12.3 360 23:53 15.07.2019
5095 Clouds 23 1015 73 10000 13.9 360 23:34 15.07.2019
5096 Clouds 23 1015 69 10000 13.4 360 22:55 15.07.2019
5097 Clouds 23 1015 69 10000 13.9 10 22:36 15.07.2019
5098 Clouds 23 1015 69 10000 13.9 10 22:18 15.07.2019
5099 Clouds 23 1015 69 10000 13.9 10 22:18 15.07.2019
5100 Clouds 25 1014 69 10000 14.4 350 21:42 15.07.2019
5101 Clouds 25 1014 69 10000 14.4 350 21:20 15.07.2019
5102 Clouds 25 1014 69 10000 14.9 360 20:57 15.07.2019
5103 Clouds 25 1014 69 10000 14.9 360 20:57 15.07.2019
5104 Clouds 26 1014 65 10000 14.9 10 20:38 15.07.2019
5105 Clouds 25 1014 65 10000 14.9 10 20:20 15.07.2019
5106 Clouds 25 1014 65 10000 14.4 10 19:43 15.07.2019
5107 Clouds 25 1014 65 10000 15.4 10 19:22 15.07.2019
5108 Clouds 26 1014 61 10000 15.4 10 18:57 15.07.2019
5109 Clouds 26 1014 61 10000 15.4 10 18:37 15.07.2019
5110 Clouds 26 1014 61 10000 15.4 10 18:18 15.07.2019
5111 Clouds 26 1014 61 10000 15.4 10 18:18 15.07.2019
5112 Clouds 26 1014 61 10000 15.4 10 18:18 15.07.2019
5113 Clouds 26 1014 57 10000 15.9 10 17:44 15.07.2019
5114 Clouds 26 1014 61 10000 15.4 360 17:26 15.07.2019
5115 Clouds 27 1015 57 10000 16.5 10 16:59 15.07.2019
5116 Clouds 27 1015 57 10000 16.5 10 16:59 15.07.2019
5117 Clouds 27 1015 61 10000 14.9 10 16:39 15.07.2019
5118 Clouds 27 1015 57 10000 16.5 10 16:20 15.07.2019
5119 Clouds 27 1015 57 10000 16.5 10 15:55 15.07.2019
5120 Clouds 27 1015 57 10000 14.9 10 15:37 15.07.2019
5121 Clouds 27 1015 57 10000 14.9 10 15:19 15.07.2019
5122 Clouds 27 1015 57 10000 15.4 20 14:43 15.07.2019
5123 Clouds 27 1015 57 10000 15.4 20 14:23 15.07.2019
5124 Clouds 26 1015 54 10000 13.9 10 13:51 15.07.2019
5125 Clouds 26 1015 57 10000 14.4 10 13:22 15.07.2019
5126 Clouds 26 1016 57 10000 13.4 360 12:58 15.07.2019
5127 Clouds 26 1016 61 10000 13.9 10 12:40 15.07.2019
5128 Clouds 25 1016 61 10000 13.9 10 12:20 15.07.2019
5129 Clouds 24 1016 69 10000 12.9 360 11:42 15.07.2019
5130 Clouds 24 1016 69 10000 12.9 360 11:24 15.07.2019
5131 Clouds 23 1016 64 10000 10.8 360 10:45 15.07.2019
5132 Clouds 23 1016 73 10000 11.8 360 10:27 15.07.2019
5133 Clouds 23 1015 73 10000 10.3 360 09:48 15.07.2019
5134 Clouds 22 1015 73 10000 10.8 360 09:28 15.07.2019
5135 Clouds 22 1015 78 10000 11.8 360 08:59 15.07.2019
5136 Clouds 22 1015 73 10000 11.3 360 08:41 15.07.2019
5137 Clouds 22 1015 73 10000 11.3 360 08:23 15.07.2019
5138 Clouds 22 1014 69 10000 12.3 350 07:38 15.07.2019
5139 Clouds 21 1014 73 10000 10.8 360 06:59 15.07.2019
5140 Clouds 22 1014 78 10000 11.8 360 06:38 15.07.2019
5141 Clouds 22 1015 73 10000 11.8 10 05:44 15.07.2019
5142 Clouds 22 1015 73 10000 10.3 10 05:22 15.07.2019
5143 Clouds 22 1015 78 10000 11.8 10 04:41 15.07.2019
5144 Clouds 22 1016 78 10000 11.3 360 03:35 15.07.2019
5145 Clouds 22 1016 78 10000 12.9 10 02:37 15.07.2019
5146 Clouds 22 1016 73 10000 12.3 360 01:41 15.07.2019
5147 Clouds 23 1016 73 10000 12.3 360 01:23 15.07.2019
5148 Clouds 22 1016 78 10000 12.9 10 00:48 15.07.2019
5149 Clouds 23 1016 73 10000 11.8 360 00:19 15.07.2019
5150 Clouds 23 1016 73 10000 10.8 360 23:43 14.07.2019
5151 Clouds 23 1016 73 10000 12.3 360 23:22 14.07.2019
5152 Clouds 23 1016 73 10000 12.3 360 22:59 14.07.2019
5153 Clouds 23 1016 73 10000 12.9 360 22:40 14.07.2019
5154 Clouds 23 1016 73 10000 12.9 360 22:21 14.07.2019
5155 Clouds 24 1016 69 10000 13.4 10 21:58 14.07.2019
5156 Clouds 24 1016 69 10000 12.3 360 21:39 14.07.2019
5157 Clouds 24 1016 69 10000 12.3 360 21:18 14.07.2019
5158 Clouds 25 1016 65 10000 12.3 360 20:54 14.07.2019
5159 Clouds 25 1016 61 10000 12.3 10 20:36 14.07.2019
5160 Clouds 25 1016 61 10000 12.3 10 20:18 14.07.2019
5161 Clouds 25 1016 61 10000 14.4 10 19:41 14.07.2019
5162 Clouds 26 1016 61 10000 14.4 10 19:22 14.07.2019
5163 Clouds 26 1016 65 10000 15.4 10 18:45 14.07.2019
5164 Clouds 26 1016 73 10000 15.9 20 18:27 14.07.2019
5165 Clouds 25 1016 73 10000 16.5 20 17:59 14.07.2019
5166 Clouds 26 1016 69 10000 15.4 20 17:39 14.07.2019
5167 Clouds 26 1016 69 10000 15.4 20 17:18 14.07.2019
5168 Clouds 26 1016 69 10000 15.9 20 16:46 14.07.2019
5169 Clouds 26 1016 69 10000 13.9 20 16:23 14.07.2019
5170 Clouds 26 1017 61 10000 13.9 10 15:49 14.07.2019
5171 Clouds 26 1017 65 10000 14.4 10 15:27 14.07.2019
5172 Clouds 26 1017 65 10000 13.9 20 14:48 14.07.2019
5173 Clouds 26 1017 65 10000 14.4 10 14:21 14.07.2019
5174 Clouds 26 1017 57 10000 14.4 10 13:47 14.07.2019
5175 Clouds 25 1017 65 10000 13.9 10 13:25 14.07.2019
5176 Clouds 24 1017 73 10000 13.9 20 12:58 14.07.2019
5177 Clouds 24 1017 69 10000 12.9 10 12:40 14.07.2019
5178 Clouds 24 1017 69 10000 12.9 10 12:19 14.07.2019
5179 Clouds 24 1017 73 10000 12.9 10 11:50 14.07.2019
5180 Clouds 23 1017 69 10000 12.9 360 11:22 14.07.2019
5181 Clouds 23 1017 73 10000 13.4 10 10:46 14.07.2019
5182 Clouds 22 1016 78 10000 12.9 10 10:21 14.07.2019
5183 Clouds 21 1016 88 10000 12.3 10 09:49 14.07.2019
5184 Clouds 21 1016 88 10000 12.3 10 09:30 14.07.2019
5185 Clouds 21 1016 94 10000 10.8 20 08:48 14.07.2019
5186 Clouds 21 1016 88 10000 11.8 10 08:30 14.07.2019
5187 Clouds 21 1016 94 10000 11.3 20 07:43 14.07.2019
5188 Clouds 21 1016 88 10000 11.3 10 07:21 14.07.2019
5189 Clouds 21 1016 88 10000 11.3 360 05:46 14.07.2019
5190 Clouds 22 1017 78 10000 9.3 10 03:58 14.07.2019
5191 Clouds 22 1018 88 10000 12.3 10 03:39 14.07.2019
5192 Clouds 21 1018 88 10000 12.3 10 03:21 14.07.2019
5193 Clouds 22 1018 73 10000 10.3 360 02:23 14.07.2019
5194 Clouds 22 1019 73 10000 11.3 10 01:53 14.07.2019
5195 Clouds 23 1019 73 10000 10.8 360 01:27 14.07.2019
5196 Clouds 22 1018 69 10000 10.3 360 00:41 14.07.2019
5197 Clouds 22 1018 69 10000 10.3 360 00:20 14.07.2019
5198 Clouds 23 1018 69 10000 11.8 360 23:57 13.07.2019
5199 Clouds 23 1018 73 10000 11.3 10 23:38 13.07.2019
5200 Clouds 23 1018 73 10000 11.3 10 23:20 13.07.2019
5201 Clouds 23 1018 73 10000 12.3 10 22:41 13.07.2019
5202 Clouds 23 1018 73 10000 12.3 10 22:21 13.07.2019
5203 Clouds 23 1017 69 10000 12.9 10 21:48 13.07.2019
5204 Clouds 24 1017 64 10000 12.9 10 21:21 13.07.2019
5205 Clouds 24 1017 69 10000 13.4 10 20:51 13.07.2019
5206 Clouds 25 1017 61 10000 13.4 10 20:33 13.07.2019
5207 Clouds 25 1016 65 10000 14.4 20 19:50 13.07.2019
5208 Clouds 26 1017 61 10000 13.4 20 19:30 13.07.2019
5209 Clouds 26 1017 61 10000 14.4 20 18:47 13.07.2019
5210 Clouds 27 1017 57 10000 13.4 20 18:28 13.07.2019
5211 Clouds 26 1017 61 10000 13.4 20 17:56 13.07.2019
5212 Clouds 26 1017 61 10000 13.4 20 17:56 13.07.2019
5213 Clouds 26 1017 61 10000 14.9 30 17:37 13.07.2019
5214 Clouds 26 1017 61 10000 14.9 30 17:18 13.07.2019
5215 Clouds 26 1017 61 10000 13.9 30 16:42 13.07.2019
5216 Clouds 26 1017 61 10000 13.9 30 16:23 13.07.2019
5217 Clouds 25 1018 65 10000 14.4 30 15:46 13.07.2019
5218 Clouds 26 1018 61 10000 13.9 30 15:23 13.07.2019
5219 Clouds 26 1018 61 10000 13.4 30 14:46 13.07.2019
5220 Clouds 25 1018 65 10000 13.4 30 14:26 13.07.2019
5221 Clouds 26 1018 61 10000 12.9 30 13:56 13.07.2019
5222 Clouds 25 1019 65 10000 12.3 20 13:37 13.07.2019
5223 Clouds 25 1019 65 10000 12.3 20 13:18 13.07.2019
5224 Clouds 24 1018 65 10000 11.8 20 12:40 13.07.2019
5225 Clouds 24 1018 65 10000 11.8 20 12:40 13.07.2019
5226 Clouds 24 1018 65 10000 11.8 20 12:22 13.07.2019
5227 Clouds 24 1018 65 10000 11.8 20 12:22 13.07.2019
5228 Clouds 24 1018 65 10000 11.3 20 11:52 13.07.2019
5229 Clouds 23 1018 69 10000 11.8 20 11:19 13.07.2019
5230 Clouds 23 1018 73 10000 8.7 10 10:45 13.07.2019
5231 Clouds 23 1018 73 10000 8.7 10 10:24 13.07.2019
5232 Clouds 22 1018 73 10000 7.2 360 09:59 13.07.2019
5233 Clouds 22 1018 73 10000 8.2 360 09:40 13.07.2019
5234 Clouds 21 1018 73 10000 8.2 360 09:18 13.07.2019
5235 Clouds 20 1017 77 10000 7.2 360 08:36 13.07.2019
5236 Clouds 20 1017 77 10000 7.2 360 08:18 13.07.2019
5237 Clouds 21 1017 77 10000 9.8 10 07:30 13.07.2019
5238 Clear 21 1017 77 10000 8.2 10 06:49 13.07.2019
5239 Clear 21 1016 78 10000 9.8 10 05:59 13.07.2019
5240 Clear 21 1017 78 10000 9.8 10 05:29 13.07.2019
5241 Clouds 21 1018 73 10000 7.7 10 04:24 13.07.2019
5242 Clouds 21 1018 78 10000 8.2 10 03:57 13.07.2019
5243 Clouds 21 1018 73 10000 8.2 10 03:38 13.07.2019
5244 Clouds 22 1019 73 10000 7.7 10 01:58 13.07.2019
5245 Clouds 21 1019 78 10000 8.7 10 01:39 13.07.2019
5246 Clouds 21 1019 78 10000 8.7 10 01:18 13.07.2019
5247 Clouds 22 1019 73 10000 8.2 10 00:51 13.07.2019
5248 Clouds 22 1019 69 10000 9.3 360 00:19 13.07.2019
5249 Clouds 22 1019 73 10000 7.7 360 23:46 12.07.2019
5250 Clouds 23 1018 69 10000 8.7 360 23:28 12.07.2019
5251 Clouds 23 1018 73 10000 10.8 20 22:46 12.07.2019
5252 Clouds 23 1018 73 10000 10.8 20 22:24 12.07.2019
5253 Clouds 23 1017 64 10000 10.8 20 21:43 12.07.2019
5254 Clouds 23 1017 64 10000 10.8 20 21:22 12.07.2019
5255 Clear 23 1017 57 10000 10.3 20 20:56 12.07.2019
5256 Clear 23 1017 57 10000 11.3 20 20:38 12.07.2019
5257 Clear 24 1017 57 10000 11.3 20 20:19 12.07.2019
5258 Clear 24 1017 65 10000 12.3 30 19:42 12.07.2019
5259 Clear 24 1017 65 10000 12.3 30 19:23 12.07.2019
5260 Clear 24 1017 65 10000 12.3 30 18:44 12.07.2019
5261 Clear 25 1017 65 10000 12.9 30 18:21 12.07.2019
5262 Clear 25 1017 65 10000 13.4 30 17:51 12.07.2019
5263 Clear 25 1018 65 10000 12.9 30 17:28 12.07.2019
5264 Clear 25 1018 61 10000 12.9 30 16:48 12.07.2019
5265 Clear 25 1018 65 10000 12.3 30 16:22 12.07.2019
5266 Clouds 26 1018 61 10000 12.3 30 15:43 12.07.2019
5267 Clouds 26 1018 61 10000 12.3 30 15:22 12.07.2019
5268 Clouds 25 1018 65 10000 11.3 30 14:58 12.07.2019
5269 Clouds 25 1018 65 10000 11.8 30 14:39 12.07.2019
5270 Clouds 25 1018 65 10000 11.8 30 14:20 12.07.2019
5271 Clouds 25 1018 65 10000 10.8 30 13:43 12.07.2019
5272 Clouds 24 1018 65 10000 10.8 30 13:20 12.07.2019
5273 Clouds 23 1018 64 10000 9.8 30 12:41 12.07.2019
5274 Clouds 23 1018 64 10000 9.8 30 12:21 12.07.2019
5275 Clouds 23 1018 64 10000 9.3 30 11:45 12.07.2019
5276 Clouds 23 1018 60 10000 9.3 20 11:24 12.07.2019
5277 Clouds 23 1018 64 10000 9.3 10 10:55 12.07.2019
5278 Clouds 23 1018 64 10000 7.7 20 10:37 12.07.2019
5279 Clouds 23 1018 64 10000 7.7 20 10:18 12.07.2019
5280 Clouds 22 1018 60 10000 6.2 10 09:46 12.07.2019
5281 Clouds 19 1017 68 10000 5.7 10 09:23 12.07.2019
5282 Clouds 20 1017 68 10000 5.1 10 08:42 12.07.2019
5283 Clouds 20 1017 68 10000 5.1 10 08:42 12.07.2019
5284 Clouds 19 1017 68 10000 5.1 10 08:20 12.07.2019
5285 Clouds 20 1017 73 10000 5.7 360 07:47 12.07.2019
5286 Clouds 20 1017 73 10000 5.7 360 07:27 12.07.2019
5287 Clouds 21 1017 68 10000 4.6 360 06:29 12.07.2019
5288 Clouds 20 1017 73 10000 5.1 360 05:50 12.07.2019
5289 Clouds 21 1017 73 10000 6.7 360 03:46 12.07.2019
5290 Clouds 22 1018 73 10000 6.2 360 01:48 12.07.2019
5291 Clouds 20 1018 73 10000 6.7 360 01:28 12.07.2019
5292 Clouds 20 1017 73 10000 8.2 360 00:34 12.07.2019
5293 Clouds 21 1017 69 10000 7.2 360 23:54 11.07.2019
5294 Clouds 21 1017 69 10000 7.7 360 23:36 11.07.2019
5295 Clouds 21 1017 69 10000 7.7 360 23:18 11.07.2019
5296 Clouds 21 1017 64 10000 7.7 360 22:41 11.07.2019
5297 Clouds 21 1017 64 10000 7.7 360 22:22 11.07.2019
5298 -273 0 0 0 0 0 21:43 11.07.2019
5299 Clouds 23 1016 69 10000 9.8 20 21:20 11.07.2019
5300 Clouds 23 1016 57 10000 8.2 360 20:56 11.07.2019
5301 Clouds 23 1016 57 10000 10.8 20 20:38 11.07.2019
5302 Clouds 23 1016 57 10000 10.8 20 20:19 11.07.2019
5303 Clouds 23 1016 61 10000 10.8 30 19:47 11.07.2019
5304 Clouds 23 1015 65 10000 12.3 30 19:25 11.07.2019
5305 Clouds 24 1016 61 10000 11.3 30 18:54 11.07.2019
5306 Clouds 24 1015 61 10000 12.9 30 18:36 11.07.2019
5307 Clouds 24 1015 61 10000 12.9 30 18:18 11.07.2019
5308 Clouds 24 1016 57 10000 12.9 30 17:41 11.07.2019
5309 Clouds 24 1016 57 10000 12.9 30 17:23 11.07.2019
5310 Clouds 24 1015 47 10000 12.9 20 16:51 11.07.2019
5311 Clouds 24 1015 47 10000 12.9 20 16:23 11.07.2019
5312 Clouds 24 1016 47 10000 13.4 20 15:54 11.07.2019
5313 Clouds 24 1016 47 10000 13.4 20 15:54 11.07.2019
5314 Clouds 24 1016 47 10000 13.4 20 15:54 11.07.2019
5315 Clouds 24 1016 47 10000 11.3 20 15:36 11.07.2019
5316 Clouds 24 1016 47 10000 11.3 20 15:18 11.07.2019
5317 Clouds 26 1016 47 10000 11.3 10 14:43 11.07.2019
5318 Clouds 26 1016 47 10000 11.3 10 14:21 11.07.2019
5319 Clouds 25 1016 47 10000 10.8 20 13:47 11.07.2019
5320 Clouds 25 1016 54 10000 9.8 360 13:28 11.07.2019
5321 Clouds 25 1016 50 10000 9.3 10 12:45 11.07.2019
5322 Clouds 24 1016 53 10000 9.3 360 12:27 11.07.2019
5323 Clouds 24 1016 53 10000 9.3 360 11:55 11.07.2019
5324 Clouds 24 1016 57 10000 8.2 360 11:37 11.07.2019
5325 Clouds 24 1016 57 10000 8.2 360 11:18 11.07.2019
5326 Clouds 23 1016 64 10000 8.2 10 10:45 11.07.2019
5327 Clouds 23 1016 64 10000 6.7 10 10:19 11.07.2019
5328 Clouds 23 1016 64 10000 6.7 10 10:19 11.07.2019
5329 Clouds 21 1016 73 10000 5.1 10 09:44 11.07.2019
5330 Clouds 21 1016 68 10000 4.1 350 09:26 11.07.2019
5331 Clouds 21 1016 73 10000 4.1 360 08:52 11.07.2019
5332 Clouds 20 1016 73 10000 4.6 360 08:26 11.07.2019
5333 Clouds 21 1016 73 10000 5.7 360 07:52 11.07.2019
5334 Clouds 21 1015 73 10000 4.6 360 07:34 11.07.2019
5335 Clouds 21 1015 68 10000 5.1 360 06:41 11.07.2019
5336 Clouds 22 1016 73 10000 5.7 10 05:51 11.07.2019
5337 Clouds 22 1016 68 10000 5.1 350 05:29 11.07.2019
5338 Clouds 21 1016 73 10000 5.1 360 04:54 11.07.2019
5339 Clouds 20 1017 73 10000 6.2 350 02:41 11.07.2019
5340 Clouds 22 1017 73 10000 6.2 360 01:27 11.07.2019
5341 Clouds 20 1017 73 10000 8.7 10 00:27 11.07.2019
5342 Clouds 20 1016 73 10000 8.2 360 23:37 10.07.2019
5343 Clouds 20 1016 73 10000 8.2 360 23:18 10.07.2019
5344 Clouds 21 1016 69 10000 7.7 360 22:44 10.07.2019
5345 Clouds 20 1016 64 10000 8.7 350 22:20 10.07.2019
5346 Clouds 20 1016 64 10000 10.3 360 21:45 10.07.2019
5347 Clouds 24 1015 60 10000 9.8 360 21:26 10.07.2019
5348 Clouds 22 1015 60 10000 10.3 10 20:56 10.07.2019
5349 Clouds 22 1015 60 10000 10.3 10 20:56 10.07.2019
5350 Clouds 22 1015 53 10000 11.8 350 20:38 10.07.2019
5351 Clouds 22 1015 53 10000 11.8 350 20:18 10.07.2019
5352 Clouds 22 1015 57 10000 11.3 360 19:45 10.07.2019
5353 Clouds 23 1015 50 10000 12.3 360 19:22 10.07.2019
5354 Clouds 24 1015 50 10000 11.3 360 18:55 10.07.2019
5355 Clouds 24 1015 50 10000 12.3 10 18:37 10.07.2019
5356 Clouds 24 1015 50 10000 12.3 10 18:19 10.07.2019
5357 Clouds 24 1015 54 10000 13.4 20 17:41 10.07.2019
5358 Clouds 25 1015 54 10000 13.4 20 17:20 10.07.2019
5359 Clouds 25 1016 51 10000 12.9 20 16:22 10.07.2019
5360 Clouds 25 1016 51 10000 12.9 20 15:59 10.07.2019
5361 Clouds 25 1017 47 10000 11.3 20 15:41 10.07.2019
5362 Clouds 25 1017 47 10000 11.3 20 15:19 10.07.2019
5363 Clouds 25 1017 47 10000 11.3 20 15:19 10.07.2019
5364 Clouds 25 1017 44 10000 10.3 360 14:40 10.07.2019
5365 Clouds 25 1017 44 10000 10.3 360 14:22 10.07.2019
5366 Clouds 25 1017 53 10000 10.3 360 13:44 10.07.2019
5367 Clouds 25 1017 53 10000 10.8 10 13:19 10.07.2019
5368 Clouds 24 1017 53 10000 10.8 10 12:55 10.07.2019
5369 Clouds 24 1017 60 10000 11.3 350 12:37 10.07.2019
5370 Clouds 24 1017 53 10000 9.3 360 12:18 10.07.2019
5371 Clouds 23 1017 57 10000 9.8 350 11:43 10.07.2019
5372 Clouds 23 1017 57 10000 9.8 350 11:21 10.07.2019
5373 Clouds 22 1017 64 10000 9.8 350 10:41 10.07.2019
5374 Clouds 22 1017 64 10000 9.8 350 10:20 10.07.2019
5375 Clouds 22 1017 68 10000 7.2 360 09:44 10.07.2019
5376 Clouds 22 1017 68 10000 7.2 360 09:21 10.07.2019
5377 Clouds 20 1016 73 10000 8.7 360 08:50 10.07.2019
5378 Clouds 21 1016 77 10000 8.2 360 08:29 10.07.2019
5379 Clouds 20 1016 77 10000 8.7 10 07:54 10.07.2019
5380 Clouds 21 1016 68 10000 8.2 360 07:31 10.07.2019
5381 Clouds 21 1016 68 10000 7.2 350 06:42 10.07.2019
5382 Clouds 21 1017 73 10000 7.7 10 05:59 10.07.2019
5383 Clouds 21 1017 73 10000 7.7 350 04:36 10.07.2019
5384 Clouds 22 1018 68 10000 7.2 360 03:38 10.07.2019
5385 Clouds 22 1019 68 10000 9.8 360 00:45 10.07.2019
5386 Clouds 22 1018 73 10000 10.3 10 23:59 09.07.2019
5387 Clouds 22 1018 69 10000 9.3 360 23:39 09.07.2019
5388 Clouds 22 1018 69 10000 9.3 360 23:21 09.07.2019
5389 Clouds 23 1018 69 10000 10.8 360 22:40 09.07.2019
5390 Clouds 23 1018 69 10000 10.8 360 22:22 09.07.2019
5391 Clouds 23 1018 64 10000 10.3 360 21:55 09.07.2019
5392 Clouds 23 1017 60 10000 10.8 360 21:36 09.07.2019
5393 Clouds 24 1017 60 10000 10.8 360 21:18 09.07.2019
5394 Clouds 24 1017 64 10000 10.8 10 20:42 09.07.2019
5395 Clouds 24 1017 64 10000 10.8 10 20:24 09.07.2019
5396 Clouds 25 1017 57 10000 12.9 10 19:39 09.07.2019
5397 Clouds 25 1017 57 10000 12.9 10 19:20 09.07.2019
5398 Clouds 25 1017 57 10000 13.4 20 18:44 09.07.2019
5399 Clouds 25 1017 61 10000 12.9 20 18:23 09.07.2019
5400 Clouds 25 1017 61 10000 13.4 20 17:54 09.07.2019
5401 Clouds 25 1017 57 10000 14.4 20 17:36 09.07.2019
5402 Clouds 25 1017 57 10000 14.4 20 17:18 09.07.2019
5403 Clouds 25 1018 54 10000 13.9 20 16:41 09.07.2019
5404 Clouds 25 1018 54 10000 13.9 20 16:23 09.07.2019
5405 Clouds 26 1018 54 10000 12.3 20 15:44 09.07.2019
5406 Clouds 26 1018 57 10000 13.4 20 15:26 09.07.2019
5407 Clouds 25 1019 54 10000 12.3 20 14:47 09.07.2019
5408 Clouds 25 1019 50 10000 12.3 20 14:24 09.07.2019
5409 Clouds 25 1019 57 10000 13.4 20 13:59 09.07.2019
5410 Clouds 25 1019 53 10000 11.8 10 13:39 09.07.2019
5411 Clouds 25 1019 53 10000 11.8 10 13:20 09.07.2019
5412 Clouds 25 1019 53 10000 12.3 10 12:40 09.07.2019
5413 Clouds 24 1019 53 10000 12.3 10 12:19 09.07.2019
5414 Clouds 24 1019 53 10000 11.8 360 11:57 09.07.2019
5415 Clouds 24 1019 60 10000 10.8 360 11:38 09.07.2019
5416 Clouds 24 1019 60 10000 10.8 360 11:20 09.07.2019
5417 Clouds 23 1019 60 10000 10.8 360 10:48 09.07.2019
5418 Clouds 22 1019 64 10000 10.3 360 10:26 09.07.2019
5419 Clouds 21 1018 73 10000 9.3 360 09:39 09.07.2019
5420 Clouds 21 1018 73 10000 9.3 360 09:20 09.07.2019
5421 Clouds 21 1018 73 10000 9.3 360 09:20 09.07.2019
5422 Clouds 20 1019 73 10000 8.7 360 08:45 09.07.2019
5423 Clouds 20 1018 73 10000 8.7 360 08:21 09.07.2019
5424 Clouds 20 1018 73 10000 7.7 360 03:52 05.07.2019
5425 Clouds 21 1018 73 10000 7.7 360 03:24 05.07.2019
5426 Clouds 21 1018 73 10000 7.7 360 03:24 05.07.2019
5427 Clouds 21 1018 68 10000 8.7 350 02:54 05.07.2019
5428 Clouds 21 1018 68 10000 8.2 360 02:36 05.07.2019
5429 Clouds 21 1018 73 10000 8.7 10 01:37 05.07.2019
5430 Clouds 21 1018 68 10000 8.2 360 00:54 05.07.2019
5431 Clear 21 1018 73 10000 9.3 360 00:33 05.07.2019
5432 Clouds 22 1018 68 10000 8.7 350 23:47 04.07.2019
5433 Clouds 22 1018 64 10000 8.7 360 23:20 04.07.2019
5434 Clouds 22 1017 68 10000 9.3 10 22:43 04.07.2019
5435 Clouds 22 1017 68 10000 9.3 10 22:24 04.07.2019
5436 Clouds 22 1017 64 10000 11.3 20 21:55 04.07.2019
5437 Clouds 23 1017 69 10000 11.3 20 21:36 04.07.2019
5438 Clouds 23 1017 69 10000 11.3 20 21:18 04.07.2019
5439 Clouds 23 1017 69 10000 12.3 30 20:38 04.07.2019
5440 Clouds 24 1017 69 10000 12.3 30 20:20 04.07.2019
5441 Clouds 25 1017 57 10000 11.8 20 19:42 04.07.2019
5442 Clouds 25 1017 57 10000 11.8 20 19:22 04.07.2019
5443 Clouds 24 1017 60 10000 12.9 30 18:57 04.07.2019
5444 Clouds 24 1017 60 10000 13.4 30 18:38 04.07.2019
5445 Clouds 25 1017 60 10000 13.4 30 18:20 04.07.2019
5446 Clouds 25 1017 57 10000 12.9 30 17:43 04.07.2019
5447 Clouds 24 1017 60 10000 12.9 20 17:19 04.07.2019
5448 Clouds 25 1018 57 10000 11.3 20 15:57 04.07.2019
5449 Clouds 25 1018 53 10000 11.8 10 15:39 04.07.2019
5450 Clouds 25 1018 53 10000 11.8 10 15:19 04.07.2019
5451 Clouds 25 1018 60 10000 12.3 20 14:44 04.07.2019
5452 Clouds 25 1018 64 10000 11.3 20 14:25 04.07.2019
5453 Clouds 24 1018 57 10000 10.3 20 13:59 04.07.2019
5454 Clouds 24 1018 57 10000 11.8 20 13:41 04.07.2019
5455 Clouds 24 1018 57 10000 11.8 20 13:22 04.07.2019
5456 Clouds 23 1018 64 10000 11.3 20 12:40 04.07.2019
5457 Clouds 23 1018 64 10000 11.3 20 12:21 04.07.2019
5458 Clouds 23 1018 60 10000 9.8 360 11:57 04.07.2019
5459 Clouds 22 1018 64 10000 9.8 350 11:37 04.07.2019
5460 Clouds 22 1018 64 10000 9.8 350 11:19 04.07.2019
5461 Clouds 21 1017 73 10000 9.3 350 10:40 04.07.2019
5462 Clouds 21 1017 73 10000 9.3 350 10:20 04.07.2019
5463 Clouds 21 1017 77 10000 8.2 10 09:41 04.07.2019
5464 Clouds 21 1017 77 10000 8.2 10 09:21 04.07.2019
5465 Clouds 20 1017 73 10000 7.2 360 08:56 04.07.2019
5466 Clouds 20 1017 68 10000 8.2 360 08:22 04.07.2019
5467 Clouds 21 1017 73 10000 8.2 350 07:43 04.07.2019
5468 Clouds 20 1017 73 10000 8.2 350 07:22 04.07.2019
5469 Clouds 20 1016 64 10000 8.7 360 06:39 04.07.2019
5470 Clouds 20 1016 68 10000 8.2 360 05:50 04.07.2019
5471 Clouds 21 1017 64 10000 8.2 360 05:31 04.07.2019
5472 Clouds 21 1018 73 10000 9.3 360 02:41 04.07.2019
5473 Clouds 22 1018 68 10000 9.8 360 01:41 04.07.2019
5474 Clouds 22 1018 68 10000 9.8 360 01:19 04.07.2019
5475 Clouds 22 1018 73 10000 10.3 10 23:56 03.07.2019
5476 Clouds 22 1017 73 10000 11.8 10 23:36 03.07.2019
5477 Clouds 22 1017 73 10000 11.8 10 23:18 03.07.2019
5478 Clouds 23 1017 60 10000 8.2 360 22:39 03.07.2019
5479 Clouds 23 1017 60 10000 8.2 360 22:21 03.07.2019
5480 Clouds 23 1017 64 10000 10.8 10 21:58 03.07.2019
5481 Clouds 23 1017 69 10000 11.8 20 21:38 03.07.2019
5482 Clouds 23 1017 69 10000 11.8 20 21:20 03.07.2019
5483 Clouds 24 1017 57 10000 12.3 10 20:42 03.07.2019
5484 Clouds 24 1017 57 10000 12.3 10 20:23 03.07.2019
5485 Clouds 24 1016 57 10000 14.4 10 19:50 03.07.2019
5486 Clouds 25 1016 57 10000 13.9 10 19:32 03.07.2019
5487 Clouds 25 1017 53 10000 13.9 20 18:48 03.07.2019
5488 Clouds 25 1017 61 10000 14.4 20 18:27 03.07.2019
5489 Clouds 25 1017 57 10000 14.4 20 17:55 03.07.2019
5490 Clouds 25 1017 57 10000 14.4 20 17:55 03.07.2019
5491 Clouds 25 1017 54 10000 13.4 20 17:36 03.07.2019
5492 Clouds 25 1017 54 10000 13.4 20 17:18 03.07.2019
5493 Clouds 25 1017 54 10000 13.4 20 16:43 03.07.2019
5494 Clouds 25 1017 54 10000 13.4 20 16:20 03.07.2019
5495 Clouds 26 1017 50 10000 14.4 20 15:47 03.07.2019
5496 Clouds 25 1018 47 10000 14.4 20 15:29 03.07.2019
5497 Clouds 25 1018 50 10000 14.4 20 14:53 03.07.2019
5498 Clouds 25 1018 50 10000 13.4 20 14:26 03.07.2019
5499 Clouds 25 1018 47 10000 13.9 20 13:59 03.07.2019
5500 Clouds 25 1018 50 10000 12.9 10 13:34 03.07.2019
5501 Clouds 25 1018 53 10000 14.9 20 12:54 03.07.2019
5502 Clouds 24 1018 53 10000 14.4 20 12:21 03.07.2019
5503 Clouds 24 1018 57 10000 13.4 20 11:58 03.07.2019
5504 Clouds 23 1018 64 10000 11.3 360 11:40 03.07.2019
5505 Clouds 23 1018 64 10000 11.3 360 11:21 03.07.2019
5506 Clouds 22 1018 64 10000 9.3 360 10:42 03.07.2019
5507 Clouds 22 1018 64 10000 9.3 360 10:23 03.07.2019
5508 Clouds 21 1017 64 10000 11.8 10 09:43 03.07.2019
5509 Clouds 21 1017 64 10000 11.8 10 09:21 03.07.2019
5510 Clouds 20 1017 68 10000 10.3 360 08:53 03.07.2019
5511 Clouds 20 1016 68 10000 10.3 360 08:33 03.07.2019
5512 Clouds 20 1017 73 10000 9.3 360 07:57 03.07.2019
5513 Clouds 20 1016 73 10000 9.3 360 07:37 03.07.2019
5514 Clouds 21 1016 73 10000 9.3 360 06:55 03.07.2019
5515 Clouds 21 1017 64 10000 10.3 10 05:56 03.07.2019
5516 Clouds 21 1017 64 10000 11.3 10 05:24 03.07.2019
5517 Clouds 21 1017 64 10000 10.3 360 03:55 03.07.2019
5518 Clouds 22 1018 64 10000 10.3 360 02:47 03.07.2019
5519 Clouds 22 1017 64 10000 12.9 360 01:37 03.07.2019
5520 Clouds 22 1018 60 10000 12.9 10 01:19 03.07.2019
5521 Clouds 22 1018 68 10000 12.3 10 00:40 03.07.2019
5522 Clouds 22 1018 64 10000 12.3 10 23:54 02.07.2019
5523 Clouds 22 1018 68 10000 10.8 10 23:36 02.07.2019
5524 Clouds 22 1018 68 10000 10.8 10 23:18 02.07.2019
5525 Clouds 22 1017 64 10000 11.8 10 22:41 02.07.2019
5526 Clouds 22 1017 64 10000 11.8 10 22:22 02.07.2019
5527 Clouds 22 1017 64 10000 12.9 10 21:57 02.07.2019
5528 Clouds 23 1017 60 10000 13.4 20 21:38 02.07.2019
5529 Clouds 23 1017 60 10000 13.4 20 21:19 02.07.2019
5530 Clouds 24 1017 57 10000 13.4 10 20:42 02.07.2019
5531 Clouds 24 1017 57 10000 13.4 10 20:24 02.07.2019
5532 Clouds 24 1017 57 10000 14.4 10 19:59 02.07.2019
5533 Clouds 24 1017 57 10000 15.4 20 19:40 02.07.2019
5534 Clouds 25 1017 53 10000 14.9 10 19:20 02.07.2019
5535 Clouds 25 1017 53 10000 14.9 20 18:45 02.07.2019
5536 Clouds 25 1017 53 10000 14.9 20 18:18 02.07.2019
5537 Clouds 25 1017 53 10000 15.4 20 17:41 02.07.2019
5538 Clouds 25 1017 53 10000 15.4 20 17:21 02.07.2019
5539 Clouds 25 1018 54 10000 13.9 10 16:47 02.07.2019
5540 Clouds 25 1018 53 10000 13.4 10 16:29 02.07.2019
5541 Clouds 25 1018 57 10000 14.4 10 15:44 02.07.2019
5542 Clouds 25 1018 57 10000 13.4 10 15:25 02.07.2019
5543 Clouds 25 1018 50 10000 15.4 20 14:51 02.07.2019
5544 Clouds 25 1018 53 10000 14.4 20 14:33 02.07.2019
5545 Clouds 25 1018 50 10000 14.9 20 13:47 02.07.2019
5546 Clouds 25 1018 50 10000 14.4 10 13:23 02.07.2019
5547 Clouds 24 1018 57 10000 13.4 360 12:59 02.07.2019
5548 Clouds 23 1018 60 10000 14.9 10 12:41 02.07.2019
5549 Clouds 23 1018 60 10000 13.4 360 12:18 02.07.2019
5550 Clouds 23 1018 60 10000 11.8 360 11:42 02.07.2019
5551 Clouds 23 1018 60 10000 11.8 360 11:21 02.07.2019
5552 Clouds 22 1018 64 10000 12.9 10 10:47 02.07.2019
5553 Clouds 22 1018 60 10000 12.3 10 10:26 02.07.2019
5554 Clouds 21 1018 68 10000 12.3 10 09:46 02.07.2019
5555 Clouds 21 1018 64 10000 10.8 350 09:22 02.07.2019
5556 Clouds 21 1018 64 10000 11.8 360 08:43 02.07.2019
5557 Clouds 21 1018 64 10000 11.8 360 08:23 02.07.2019
5558 Clouds 21 1018 64 10000 9.8 360 07:54 02.07.2019
5559 Clouds 21 1018 60 10000 10.8 360 07:21 02.07.2019
5560 Clouds 21 1018 64 10000 11.3 10 06:51 02.07.2019
5561 Clouds 21 1018 64 10000 11.3 10 06:30 02.07.2019
5562 Clouds 21 1018 68 10000 12.3 10 04:58 02.07.2019
5563 Clouds 21 1019 68 10000 12.9 10 02:26 02.07.2019
5564 Clouds 22 1020 68 10000 11.3 10 23:55 01.07.2019
5565 Clouds 22 1020 68 10000 10.8 10 23:24 01.07.2019
5566 Clouds 22 1020 68 10000 10.8 10 22:47 01.07.2019
5567 Clouds 22 1019 68 10000 12.3 10 22:27 01.07.2019
5568 Clouds 23 1019 64 10000 11.3 10 21:48 01.07.2019
5569 Clouds 23 1019 64 10000 11.8 10 21:28 01.07.2019
5570 Clouds 23 1019 64 10000 12.3 10 20:53 01.07.2019
5571 Clouds 23 1019 64 10000 12.3 10 20:53 01.07.2019
5572 Clouds 24 1019 64 10000 12.3 10 20:23 01.07.2019
5573 Clouds 24 1019 60 10000 12.9 10 19:59 01.07.2019
5574 Clouds 24 1019 53 10000 13.4 360 19:41 01.07.2019
5575 Clouds 25 1019 53 10000 13.4 360 19:23 01.07.2019
5576 Clouds 25 1019 53 10000 14.4 10 18:53 01.07.2019
5577 Clouds 25 1019 53 10000 14.9 20 18:31 01.07.2019
5578 Clouds 25 1020 57 10000 15.4 10 18:00 01.07.2019
5579 Clouds 25 1019 53 10000 16.5 20 17:41 01.07.2019
5580 Clouds 25 1019 53 10000 16.5 20 17:21 01.07.2019
5581 Clouds 26 1020 54 10000 14.4 20 16:47 01.07.2019
5582 Clouds 25 1020 54 10000 14.4 20 16:26 01.07.2019
5583 Clouds 25 1020 54 10000 14.4 20 16:26 01.07.2019
5584 Clouds 25 1020 50 10000 13.9 20 15:55 01.07.2019
5585 Clouds 25 1020 53 10000 15.4 20 15:36 01.07.2019
5586 Clouds 25 1020 53 10000 16.5 20 15:18 01.07.2019
5587 Clouds 25 1020 57 10000 15.4 20 14:42 01.07.2019
5588 Clouds 24 1021 60 10000 14.4 20 14:19 01.07.2019
5589 Clouds 24 1020 57 10000 14.9 20 13:41 01.07.2019
5590 Clouds 24 1021 60 10000 13.4 10 13:22 01.07.2019
5591 Clouds 24 1020 57 10000 13.9 10 12:46 01.07.2019
5592 Clouds 24 1020 57 10000 13.9 10 12:27 01.07.2019
5593 Clouds 23 1020 64 10000 14.4 10 11:59 01.07.2019
5594 Clouds 23 1020 60 10000 14.4 10 11:39 01.07.2019
5595 Clouds 23 1020 60 10000 12.3 360 11:19 01.07.2019
5596 Clouds 22 1020 64 10000 10.3 360 10:46 01.07.2019
5597 Clouds 22 1020 64 10000 10.8 360 10:22 01.07.2019
5598 Clouds 21 1020 68 10000 10.3 10 09:45 01.07.2019
5599 Clouds 21 1020 68 10000 10.8 10 09:27 01.07.2019
5600 Clouds 20 1020 68 10000 10.8 10 08:59 01.07.2019
5601 Clouds 20 1019 68 10000 12.3 10 08:35 01.07.2019
5602 Clouds 20 1019 73 10000 8.7 360 07:37 01.07.2019
5603 Clouds 20 1019 73 10000 9.8 360 06:51 01.07.2019
5604 Clouds 21 1019 73 10000 10.3 10 05:34 01.07.2019
5605 Clouds 22 1021 68 10000 9.8 360 01:27 01.07.2019
5606 Clouds 22 1021 68 10000 8.7 360 00:44 01.07.2019
5607 Clouds 22 1021 68 10000 8.7 360 00:22 01.07.2019
5608 Clouds 22 1020 64 10000 11.3 10 23:39 30.06.2019
5609 Clouds 22 1020 64 10000 11.3 10 23:18 30.06.2019
5610 Clouds 22 1020 68 10000 10.3 10 22:39 30.06.2019
5611 Clouds 23 1020 64 10000 11.3 10 22:19 30.06.2019
5612 Clouds 23 1020 64 10000 10.8 360 21:41 30.06.2019
5613 Clouds 23 1020 64 10000 10.8 10 21:19 30.06.2019
5614 Clouds 23 1020 64 10000 10.8 10 20:54 30.06.2019
5615 Clouds 24 1020 60 10000 11.3 10 20:36 30.06.2019
5616 Clouds 24 1020 64 10000 11.8 20 20:18 30.06.2019
5617 Clouds 24 1020 60 10000 12.9 20 19:42 30.06.2019
5618 Clouds 24 1020 60 10000 12.9 20 19:24 30.06.2019
5619 Clouds 25 1020 57 10000 12.9 20 18:26 30.06.2019
5620 -273 0 0 0 0 0 17:56 30.06.2019
5621 Clouds 25 1020 57 10000 12.9 30 17:37 30.06.2019
5622 Clouds 25 1020 50 10000 12.9 20 17:18 30.06.2019
5623 Clouds 25 1020 53 10000 12.9 20 16:44 30.06.2019
5624 Clouds 25 1020 53 10000 12.9 20 16:25 30.06.2019
5625 Clouds 25 1020 57 10000 12.9 20 15:37 30.06.2019
5626 Clouds 25 1021 57 10000 12.9 10 15:18 30.06.2019
5627 Clouds 25 1021 57 10000 12.9 10 14:50 30.06.2019
5628 Clouds 25 1021 57 10000 11.8 20 14:29 30.06.2019
5629 Clouds 25 1021 57 10000 11.3 10 13:47 30.06.2019
5630 Clouds 25 1021 57 10000 11.3 10 13:28 30.06.2019
5631 Clouds 24 1021 60 10000 11.3 20 12:52 30.06.2019
5632 Clouds 24 1021 60 10000 11.3 20 12:28 30.06.2019
5633 Clouds 24 1021 57 10000 10.3 10 11:58 30.06.2019
5634 Clouds 23 1020 57 10000 9.8 10 11:38 30.06.2019
5635 Clouds 23 1020 57 10000 9.8 10 11:38 30.06.2019
5636 Clouds 23 1021 60 10000 8.7 360 11:19 30.06.2019
5637 Clouds 23 1020 68 10000 8.2 350 10:44 30.06.2019
5638 Clouds 22 1020 73 10000 7.2 350 10:19 30.06.2019
5639 Clouds 21 1020 73 10000 7.2 350 09:57 30.06.2019
5640 Clouds 21 1020 73 10000 6.7 350 09:37 30.06.2019
5641 Clouds 21 1019 68 10000 6.7 350 09:18 30.06.2019
5642 Clouds 20 1019 73 10000 6.2 350 08:39 30.06.2019
5643 Clouds 20 1019 73 10000 5.7 360 08:19 30.06.2019
5644 Clouds 20 1019 73 10000 5.7 360 07:40 30.06.2019
5645 Clouds 20 1019 73 10000 5.7 360 07:21 30.06.2019
5646 Clouds 20 1019 73 10000 8.2 10 06:23 30.06.2019
5647 Clouds 21 1020 73 10000 5.7 360 03:27 30.06.2019
5648 Clouds 21 1020 68 10000 6.7 10 01:50 30.06.2019
5649 Clouds 22 1020 73 10000 8.7 10 00:39 30.06.2019
5650 Clouds 22 1020 68 10000 7.7 360 00:19 30.06.2019
5651 Clouds 22 1019 64 10000 7.2 360 23:39 29.06.2019
5652 Clouds 22 1019 64 10000 8.2 360 23:20 29.06.2019
5653 Clouds 23 1019 60 10000 8.7 360 22:42 29.06.2019
5654 Clouds 23 1019 60 10000 8.7 360 22:22 29.06.2019
5655 Clouds 23 1018 60 10000 8.2 10 21:54 29.06.2019
5656 Clouds 24 1018 60 10000 8.7 20 21:24 29.06.2019
5657 Clouds 24 1018 57 10000 10.8 20 20:46 29.06.2019
5658 Clouds 25 1018 57 10000 10.8 20 20:28 29.06.2019
5659 Clouds 25 1018 57 10000 11.3 30 19:55 29.06.2019
5660 Clouds 25 1018 57 10000 11.3 30 19:36 29.06.2019
5661 Clouds 25 1018 50 10000 10.8 20 19:18 29.06.2019
5662 Clouds 25 1018 53 10000 11.3 20 18:44 29.06.2019
5663 Clouds 25 1018 53 10000 11.3 20 18:22 29.06.2019
5664 Clouds 25 1018 54 10000 11.3 20 17:37 29.06.2019
5665 Clouds 25 1018 57 10000 10.8 20 17:19 29.06.2019
5666 Clouds 25 1018 50 10000 9.3 20 16:42 29.06.2019
5667 Clouds 25 1019 57 10000 10.3 30 15:59 29.06.2019
5668 Clouds 24 1019 53 10000 10.8 30 15:31 29.06.2019
5669 Clouds 25 1019 53 10000 9.8 20 14:46 29.06.2019
5670 Clouds 25 1019 53 10000 9.8 20 14:27 29.06.2019
5671 Clouds 25 1019 53 10000 9.8 20 14:27 29.06.2019
5672 Clouds 25 1019 50 10000 9.8 20 13:54 29.06.2019
5673 Clouds 25 1019 50 10000 9.3 20 13:27 29.06.2019
5674 Clouds 24 1019 53 10000 9.8 30 12:59 29.06.2019
5675 Clouds 24 1018 57 10000 9.3 30 12:38 29.06.2019
5676 Clouds 24 1018 50 10000 7.7 10 12:20 29.06.2019
5677 Clouds 23 1018 53 10000 7.2 10 11:42 29.06.2019
5678 Clouds 23 1018 53 10000 7.2 10 11:23 29.06.2019
5679 Clouds 22 1018 64 10000 6.7 360 10:49 29.06.2019
5680 Clouds 22 1018 64 10000 6.7 360 10:21 29.06.2019
5681 Clouds 21 1018 68 10000 5.1 360 09:55 29.06.2019
5682 Clouds 20 1018 68 10000 6.2 360 08:55 29.06.2019
5683 Clouds 20 1017 72 10000 5.1 360 08:30 29.06.2019
5684 Clouds 20 1017 72 10000 4.6 350 07:45 29.06.2019
5685 Clouds 20 1017 72 10000 5.1 350 06:49 29.06.2019
5686 Clouds 20 1017 72 10000 5.1 350 06:25 29.06.2019
5687 Clouds 20 1018 64 10000 5.1 350 03:55 29.06.2019
5688 Clouds 21 1018 68 10000 7.7 350 01:42 29.06.2019
5689 Clouds 22 1018 68 10000 6.7 10 00:41 29.06.2019
5690 Clouds 22 1018 68 10000 7.2 10 23:39 28.06.2019
5691 Clouds 22 1018 68 10000 7.2 10 23:20 28.06.2019
5692 Clouds 22 1018 60 10000 7.2 360 22:47 28.06.2019
5693 Clouds 23 1018 60 10000 7.7 360 21:59 28.06.2019
5694 Clouds 24 1017 57 10000 8.2 360 21:37 28.06.2019
5695 Clouds 24 1017 57 10000 10.3 10 21:18 28.06.2019
5696 Clouds 24 1017 60 10000 9.8 20 20:40 28.06.2019
5697 Clouds 24 1017 60 10000 10.8 20 20:19 28.06.2019
5698 Clouds 24 1017 60 10000 10.8 30 19:38 28.06.2019
5699 Clouds 24 1017 60 10000 10.8 30 19:20 28.06.2019
5700 Clouds 24 1018 60 10000 11.3 30 18:41 28.06.2019
5701 Clouds 24 1018 53 10000 10.3 20 18:21 28.06.2019
5702 Clouds 23 1018 57 10000 11.3 30 17:41 28.06.2019
5703 Clouds 23 1018 57 10000 11.3 30 17:23 28.06.2019
5704 Clouds 24 1018 57 10000 11.8 30 16:46 28.06.2019
5705 Clouds 24 1018 57 10000 11.8 30 16:18 28.06.2019
5706 Clouds 24 1018 53 10000 11.8 30 15:40 28.06.2019
5707 Clouds 24 1018 57 10000 12.3 30 15:18 28.06.2019
5708 Clouds 24 1018 50 10000 11.8 30 14:39 28.06.2019
5709 Clouds 25 1018 50 10000 11.8 30 14:21 28.06.2019
5710 Clouds 24 1018 53 10000 10.8 30 13:46 28.06.2019
5711 Clouds 25 1018 53 10000 10.8 30 13:27 28.06.2019
5712 Clouds 24 1018 53 10000 10.3 30 12:51 28.06.2019
5713 Clouds 24 1018 53 10000 9.3 30 12:32 28.06.2019
5714 Clouds 23 1018 60 10000 9.3 10 11:29 28.06.2019
5715 Clouds 23 1018 60 10000 9.3 10 10:58 28.06.2019
5716 Clouds 22 1018 64 10000 7.2 360 10:38 28.06.2019
5717 Clouds 21 1018 68 10000 6.7 360 10:18 28.06.2019
5718 Clouds 21 1017 68 10000 6.2 360 09:43 28.06.2019
5719 Clouds 21 1017 68 10000 6.2 360 09:24 28.06.2019
5720 Clouds 21 1017 68 10000 6.2 360 08:42 28.06.2019
5721 Clouds 20 1017 68 10000 6.2 360 08:23 28.06.2019
5722 Clouds 21 1017 73 10000 4.6 350 07:42 28.06.2019
5723 Clouds 20 1017 73 10000 4.6 360 06:52 28.06.2019
5724 Clouds 20 1018 73 10000 6.7 360 03:57 28.06.2019
5725 Clouds 22 1019 68 10000 8.7 10 00:46 28.06.2019
5726 Clouds 22 1019 68 10000 7.2 360 00:19 28.06.2019
5727 Clouds 22 1019 68 10000 7.7 360 23:43 27.06.2019
5728 Clouds 22 1019 68 10000 7.7 360 23:22 27.06.2019
5729 Clouds 22 1018 64 10000 7.7 10 22:43 27.06.2019
5730 Clouds 22 1018 64 10000 7.7 10 22:25 27.06.2019
5731 Clouds 23 1018 60 10000 7.2 360 21:58 27.06.2019
5732 Clouds 23 1018 60 10000 9.3 360 21:39 27.06.2019
5733 Clouds 23 1018 60 10000 9.3 360 21:20 27.06.2019
5734 Clouds 24 1018 64 10000 9.8 30 20:46 27.06.2019
5735 Clouds 24 1018 64 10000 9.8 30 20:28 27.06.2019
5736 Clouds 24 1018 61 10000 10.3 30 19:48 27.06.2019
5737 Clouds 24 1018 61 10000 10.3 30 19:29 27.06.2019
5738 Clouds 24 1018 61 10000 10.3 30 18:52 27.06.2019
5739 Clouds 24 1018 61 10000 10.8 30 18:30 27.06.2019
5740 Clouds 24 1018 61 10000 11.3 30 17:55 27.06.2019
5741 Clouds 24 1019 57 10000 11.3 30 17:36 27.06.2019
5742 Clouds 24 1019 57 10000 11.3 30 17:18 27.06.2019
5743 Clouds 24 1019 53 10000 10.3 30 16:38 27.06.2019
5744 Clouds 24 1019 61 10000 11.3 30 16:18 27.06.2019
5745 Clouds 23 1019 64 10000 10.3 30 15:45 27.06.2019
5746 Clouds 24 1019 64 10000 10.3 30 15:22 27.06.2019
5747 Clouds 24 1020 57 10000 11.3 30 14:46 27.06.2019
5748 Clouds 24 1020 57 10000 11.3 30 14:28 27.06.2019
5749 Clouds 24 1020 60 10000 10.3 20 13:49 27.06.2019
5750 Clouds 24 1020 60 10000 10.3 20 13:31 27.06.2019
5751 Clouds 24 1020 60 10000 9.8 20 12:55 27.06.2019
5752 Clouds 24 1019 61 10000 10.3 20 12:35 27.06.2019
5753 Clouds 24 1019 53 10000 8.7 20 11:59 27.06.2019
5754 Clouds 23 1019 53 10000 7.2 360 11:39 27.06.2019
5755 Clouds 22 1019 60 10000 7.7 360 11:20 27.06.2019
5756 Clouds 23 1019 60 10000 8.7 10 10:45 27.06.2019
5757 Clouds 22 1019 60 10000 8.7 10 10:22 27.06.2019
5758 Clouds 22 1019 64 10000 6.2 360 09:54 27.06.2019
5759 Clouds 21 1019 68 10000 5.1 360 09:22 27.06.2019
5760 Clouds 21 1019 73 10000 5.7 350 08:52 27.06.2019
5761 Clouds 21 1019 73 10000 5.7 350 08:31 27.06.2019
5762 Clouds 21 1018 68 10000 6.7 350 07:57 27.06.2019
5763 Clouds 21 1018 68 10000 5.1 360 07:30 27.06.2019
5764 Clouds 21 1019 68 10000 5.1 350 06:51 27.06.2019
5765 Clouds 21 1019 68 10000 5.1 350 04:27 27.06.2019
5766 Clouds 22 1020 64 10000 7.2 350 02:44 27.06.2019
5767 Clouds 22 1020 68 10000 8.2 360 01:48 27.06.2019
5768 Clouds 22 1020 68 10000 7.7 360 00:57 27.06.2019
5769 Clouds 22 1020 68 10000 7.7 360 00:38 27.06.2019
5770 Clouds 22 1020 68 10000 7.7 360 00:18 27.06.2019
5771 Clouds 22 1019 68 10000 8.2 360 23:38 26.06.2019
5772 Clouds 22 1019 68 10000 8.7 10 23:19 26.06.2019
5773 Clouds 23 1019 64 10000 9.3 360 22:41 26.06.2019
5774 Clouds 23 1019 64 10000 9.3 360 22:23 26.06.2019
5775 Clouds 23 1019 64 10000 7.7 360 21:55 26.06.2019
5776 Clouds 24 1019 60 10000 9.8 10 21:37 26.06.2019
5777 Clouds 24 1018 64 10000 11.8 20 21:19 26.06.2019
5778 Clouds 24 1018 64 10000 11.8 20 20:43 26.06.2019
5779 Clouds 24 1018 64 10000 11.8 20 20:25 26.06.2019
5780 Clouds 25 1018 61 10000 12.3 20 19:48 26.06.2019
5781 Clouds 25 1018 61 10000 12.3 20 19:30 26.06.2019
5782 Clouds 25 1019 61 10000 11.3 30 18:54 26.06.2019
5783 Clouds 25 1019 61 10000 11.8 30 18:36 26.06.2019
5784 Clouds 25 1019 61 10000 11.3 30 18:18 26.06.2019
5785 Clouds 25 1019 61 10000 11.3 30 17:41 26.06.2019
5786 Clouds 25 1019 61 10000 11.3 30 17:23 26.06.2019
5787 Clouds 25 1019 61 10000 11.3 30 16:50 26.06.2019
5788 Clouds 25 1019 61 10000 11.3 30 16:28 26.06.2019
5789 Clouds 25 1020 61 10000 11.3 30 15:48 26.06.2019
5790 Clouds 25 1020 61 10000 11.3 30 15:27 26.06.2019
5791 Clouds 25 1020 65 10000 9.3 30 14:42 26.06.2019
5792 Clouds 25 1020 65 10000 9.8 30 14:21 26.06.2019
5793 Clouds 24 1020 69 10000 9.3 30 13:45 26.06.2019
5794 Clouds 25 1020 69 10000 9.3 30 13:21 26.06.2019
5795 Clouds 23 1020 73 10000 8.2 20 12:45 26.06.2019
5796 Clouds 24 1020 73 10000 8.2 20 12:26 26.06.2019
5797 Clouds 23 1020 73 10000 8.2 20 11:55 26.06.2019
5798 Clouds 23 1020 78 10000 8.2 10 11:24 26.06.2019
5799 -273 0 0 0 0 0 10:49 26.06.2019
5800 Clouds 23 1020 78 10000 8.2 10 10:31 26.06.2019
5801 Clouds 23 1019 64 10000 6.7 10 09:51 26.06.2019
5802 Clouds 22 1019 68 10000 6.2 10 09:27 26.06.2019
5803 Clouds 21 1019 73 10000 5.1 10 08:52 26.06.2019
5804 Clouds 21 1018 73 10000 5.7 360 08:21 26.06.2019
5805 Clouds 21 1018 77 10000 5.7 10 07:55 26.06.2019
5806 Clouds 21 1018 77 10000 5.1 360 07:35 26.06.2019
5807 Clouds 22 1018 78 10000 6.2 10 06:32 26.06.2019
5808 Clouds 23 1019 78 10000 6.2 360 01:36 26.06.2019
5809 Clouds 23 1019 78 10000 6.7 10 00:32 26.06.2019
5810 Clouds 23 1018 78 10000 5.7 360 23:49 25.06.2019
5811 Clouds 23 1018 78 10000 5.7 360 23:31 25.06.2019
5812 Clouds 24 1018 69 10000 5.1 350 22:59 25.06.2019
5813 Clouds 24 1018 69 10000 5.1 360 22:41 25.06.2019
5814 Clouds 24 1018 69 10000 5.1 360 22:22 25.06.2019
5815 Clouds 24 1017 69 10000 6.7 350 21:46 25.06.2019
5816 Clouds 24 1017 69 10000 6.7 350 21:24 25.06.2019
5817 Clouds 24 1017 73 10000 7.7 10 20:48 25.06.2019
5818 Clouds 24 1017 73 10000 7.7 10 20:48 25.06.2019
5819 Clouds 24 1017 73 10000 7.7 10 20:48 25.06.2019
5820 Clouds 24 1017 73 10000 7.7 10 20:48 25.06.2019
5821 Clouds 24 1017 73 10000 7.7 10 20:24 25.06.2019
5822 Clouds 25 1017 69 10000 7.2 20 19:56 25.06.2019
5823 Clouds 25 1017 69 10000 7.2 20 19:56 25.06.2019
5824 Clouds 25 1017 65 10000 6.2 10 19:37 25.06.2019
5825 Clouds 25 1017 65 10000 6.2 10 19:19 25.06.2019
5826 Clouds 25 1018 65 10000 6.2 30 18:41 25.06.2019
5827 Clouds 25 1018 65 10000 4.6 10 18:22 25.06.2019
5828 -273 0 0 0 0 0 17:43 25.06.2019
5829 -273 0 0 0 0 0 17:43 25.06.2019
5830 -273 0 0 0 0 0 17:22 25.06.2019
5831 Clouds 25 1018 65 10000 4.6 20 17:22 25.06.2019
5832 Clouds 25 1018 65 10000 4.6 20 17:22 25.06.2019
5833 Clouds 25 1018 65 10000 4.6 20 17:22 25.06.2019
5834 Clouds 25 1018 73 10000 4.6 20 16:43 25.06.2019
5835 Clouds 25 1018 73 10000 4.6 20 16:25 25.06.2019
5836 Clouds 25 1018 78 10000 7.2 30 15:43 25.06.2019
5837 Clouds 24 1018 78 10000 7.2 30 15:25 25.06.2019
5838 Clouds 24 1018 73 10000 7.2 30 14:57 25.06.2019
5839 Clouds 24 1018 78 10000 7.2 40 14:37 25.06.2019
5840 Clouds 25 1018 69 10000 7.7 40 13:59 25.06.2019
5841 Clouds 25 1018 69 10000 7.2 20 13:39 25.06.2019
5842 Clouds 25 1017 69 10000 7.7 20 13:19 25.06.2019
5843 Clouds 25 1017 73 10000 7.7 30 12:39 25.06.2019
5844 Clouds 24 1017 73 10000 7.7 30 12:21 25.06.2019
5845 Clouds 24 1017 78 10000 6.7 30 11:44 25.06.2019
5846 Clouds 24 1017 78 10000 6.7 30 11:22 25.06.2019
5847 Clouds 24 1017 69 10000 1.5 70 10:48 25.06.2019
5848 Clouds 23 1017 73 10000 1.75 14.266 10:24 25.06.2019
5849 Clouds 23 1017 73 10000 1.75 14.266 10:24 25.06.2019
5850 Clouds 23 1017 73 10000 1.75 14.266 09:56 25.06.2019
5851 Clouds 22 1016 78 10000 1 230 09:38 25.06.2019
5852 Clouds 21 1016 83 10000 1.01 347.256 09:19 25.06.2019
5853 Clouds 20 1016 88 10000 1.01 347.256 08:48 25.06.2019
5854 Clouds 20 1016 88 10000 1.27 346.293 08:28 25.06.2019
5855 Clear 20 1016 88 10000 1.27 346.293 07:43 25.06.2019
5856 Clear 20 1016 88 10000 1.27 346.293 07:23 25.06.2019
5857 Clear 20 1016 88 10000 1 310 06:42 25.06.2019
5858 Clear 22 1016 88 10000 1.32 343.84 04:30 25.06.2019
5859 Clear 22 1017 94 10000 1 0 02:25 25.06.2019
5860 Clouds 23 1017 83 10000 4.6 10 00:38 25.06.2019
5861 Clouds 23 1017 83 10000 4.6 360 00:18 25.06.2019
5862 Clouds 23 1017 78 10000 4.6 10 23:43 24.06.2019
5863 Clouds 24 1017 78 10000 4.6 10 23:25 24.06.2019
5864 Clouds 24 1016 78 10000 2.1 40 22:45 24.06.2019
5865 Clouds 24 1016 78 10000 2.1 40 22:45 24.06.2019
5866 Clouds 24 1016 78 10000 1 0 22:19 24.06.2019
5867 Clouds 24 1016 73 10000 1 0 21:42 24.06.2019
5868 Clouds 24 1016 73 10000 3.1 160 21:20 24.06.2019
5869 Clouds 25 1016 73 10000 3.1 160 20:59 24.06.2019
5870 Clouds 24 1016 83 10000 4.6 160 20:40 24.06.2019
5871 Clouds 25 1016 74 10000 6.2 160 20:21 24.06.2019
5872 Clouds 25 1016 78 10000 7.2 160 19:46 24.06.2019
5873 Clouds 25 1016 78 10000 7.2 160 19:24 24.06.2019
5874 Clouds 25 1016 78 10000 7.2 160 19:24 24.06.2019
5875 Clouds 25 1016 69 10000 7.2 160 18:48 24.06.2019
5876 Clouds 25 1016 69 10000 7.2 160 18:30 24.06.2019
5877 Clouds 24 1016 73 10000 8.2 160 17:58 24.06.2019
5878 Clouds 25 1016 65 10000 7.7 160 17:36 24.06.2019
5879 Clouds 25 1016 65 10000 8.2 160 16:56 24.06.2019
5880 Clouds 26 1016 57 10000 7.7 160 16:37 24.06.2019
5881 Clouds 25 1016 73 10000 8.7 160 16:18 24.06.2019
5882 Clouds 25 1016 73 10000 8.2 160 15:39 24.06.2019
5883 Clouds 25 1016 73 10000 8.2 160 15:20 24.06.2019
5884 Clouds 25 1016 73 10000 7.2 160 14:34 24.06.2019
5885 Clouds 25 1017 69 10000 6.7 160 13:54 24.06.2019
5886 Clouds 25 1017 69 10000 6.7 160 13:54 24.06.2019
5887 Clouds 24 1017 78 10000 6.2 160 13:31 24.06.2019
5888 Clouds 24 1017 78 10000 6.2 160 13:31 24.06.2019
5889 Clouds 24 1017 73 10000 4.6 160 12:45 24.06.2019
5890 Clouds 24 1017 78 10000 4.6 160 12:22 24.06.2019
5891 Clouds 24 1017 78 10000 4.6 160 11:58 24.06.2019
5892 Clouds 24 1017 78 10000 4.6 160 11:58 24.06.2019
5893 Clouds 24 1017 78 10000 3.6 160 11:40 24.06.2019
5894 Clouds 24 1017 73 10000 2.1 200 11:20 24.06.2019
5895 Clouds 23 1016 78 10000 3.1 220 10:46 24.06.2019
5896 Clouds 23 1016 78 10000 3.1 220 10:25 24.06.2019
5897 Clouds 22 1016 77 10000 1.5 220 09:49 24.06.2019
5898 Clouds 21 1016 77 10000 1.5 220 09:22 24.06.2019
5899 Clouds 21 1016 77 10000 1 0 08:52 24.06.2019
5900 Clouds 20 1016 82 10000 0.29 257.6 08:25 24.06.2019
5901 Clouds 20 1015 88 10000 0.5 220 07:45 24.06.2019
5902 Clouds 20 1015 88 10000 0.5 220 07:26 24.06.2019
5903 Clouds 21 1016 88 10000 1.5 230 06:39 24.06.2019
5904 Clouds 21 1016 88 10000 1 220 06:19 24.06.2019
5905 Clouds 21 1016 88 10000 0.61 293.174 04:59 24.06.2019
5906 Clouds 21 1016 88 10000 1.5 250 04:24 24.06.2019
5907 Clouds 21 1017 94 10000 1.25 352.142 02:56 24.06.2019
5908 Clouds 22 1018 88 10000 1 130 02:20 24.06.2019
5909 Clouds 22 1017 88 10000 0.5 0 01:49 24.06.2019
5910 Clouds 22 1017 88 10000 0.5 0 01:21 24.06.2019
5911 Clouds 22 1017 88 10000 1.5 90 00:39 24.06.2019
5912 Clouds 22 1017 88 10000 1.5 100 00:19 24.06.2019
5913 Clouds 23 1017 83 10000 1.5 100 23:44 23.06.2019
5914 Clouds 23 1017 83 10000 1.5 100 23:22 23.06.2019
5915 Clouds 23 1016 83 10000 2.1 70 22:43 23.06.2019
5916 Clouds 23 1016 83 10000 2.1 60 22:20 23.06.2019
5917 Clouds 23 1016 83 10000 2.1 90 21:44 23.06.2019
5918 Clouds 23 1016 83 10000 2.1 90 21:25 23.06.2019
5919 Clouds 23 1016 78 10000 2.6 110 20:58 23.06.2019
5920 Clouds 23 1016 78 10000 3.1 100 20:40 23.06.2019
5921 Clouds 24 1016 78 10000 3.1 100 20:21 23.06.2019
5922 Clouds 23 1016 78 10000 2.6 140 19:43 23.06.2019
5923 Clouds 24 1016 78 10000 2.6 140 19:21 23.06.2019
5924 Clouds 23 1016 78 10000 2.6 130 18:52 23.06.2019
5925 Clouds 23 1016 69 10000 2.1 130 18:22 23.06.2019
5926 Clouds 23 1017 73 10000 2.6 0 17:50 23.06.2019
5927 Clouds 23 1017 73 10000 2.6 0 17:25 23.06.2019
5928 Clouds 24 1017 83 10000 2.6 120 16:55 23.06.2019
5929 Clouds 24 1017 73 10000 2.6 130 16:36 23.06.2019
5930 Clouds 24 1017 73 10000 2.6 140 16:18 23.06.2019
5931 Clouds 24 1017 73 10000 3.1 110 15:40 23.06.2019
5932 Clouds 24 1017 73 10000 3.1 110 15:19 23.06.2019
5933 Clouds 24 1017 69 10000 3.1 90 14:40 23.06.2019
5934 Clouds 24 1017 69 10000 3.1 90 14:22 23.06.2019
5935 Clouds 24 1017 73 10000 4.1 70 13:56 23.06.2019
5936 Clouds 25 1017 61 10000 5.1 40 13:36 23.06.2019
5937 Clouds 24 1017 61 10000 5.7 40 13:18 23.06.2019
5938 Clouds 25 1017 57 10000 6.7 40 12:42 23.06.2019
5939 Clouds 24 1017 57 10000 6.7 40 12:21 23.06.2019
5940 Clouds 24 1017 61 10000 5.1 30 11:50 23.06.2019
5941 Clouds 23 1017 61 10000 5.1 30 11:29 23.06.2019
5942 Clouds 23 1017 69 10000 4.6 20 10:53 23.06.2019
5943 Clouds 22 1017 69 10000 5.7 10 10:22 23.06.2019
5944 Clouds 22 1017 64 10000 4.1 350 09:59 23.06.2019
5945 Clouds 20 1016 77 10000 2.1 350 09:25 23.06.2019
5946 Clouds 20 1016 77 10000 2.6 340 08:55 23.06.2019
5947 Clouds 20 1016 77 10000 2.6 340 08:37 23.06.2019
5948 Clouds 20 1016 77 10000 2.1 360 08:18 23.06.2019
5949 Clouds 20 1016 73 10000 2.6 360 07:48 23.06.2019
5950 Clouds 21 1016 77 10000 3.6 360 07:19 23.06.2019
5951 Clouds 21 1016 77 10000 3.6 360 06:53 23.06.2019
5952 Clouds 21 1016 77 10000 3.6 360 05:53 23.06.2019
5953 Clouds 22 1018 68 10000 4.1 360 02:52 23.06.2019
5954 Clouds 21 1018 68 10000 5.7 360 01:43 23.06.2019
5955 Clouds 21 1018 68 10000 5.7 360 01:24 23.06.2019
5956 Clouds 21 1018 64 10000 6.2 360 00:34 23.06.2019
5957 Clouds 21 1017 64 10000 6.2 360 23:52 22.06.2019
5958 Clouds 21 1017 64 10000 6.2 360 23:26 22.06.2019
5959 Clouds 22 1017 64 10000 8.2 360 22:47 22.06.2019
5960 Clouds 22 1017 64 10000 8.2 360 22:29 22.06.2019
5961 Clouds 22 1017 64 10000 7.7 10 21:59 22.06.2019
5962 Clouds 22 1017 60 10000 8.7 360 21:36 22.06.2019
5963 Clouds 23 1016 57 10000 9.3 10 21:18 22.06.2019
5964 Clouds 24 1016 53 10000 9.8 10 20:46 22.06.2019
5965 Clouds 24 1016 53 10000 9.8 10 20:24 22.06.2019
5966 Clouds 24 1016 50 10000 10.8 10 19:42 22.06.2019
5967 Clouds 24 1016 50 10000 10.8 10 19:22 22.06.2019
5968 Clouds 25 1016 54 10000 10.8 10 18:44 22.06.2019
5969 Clouds 25 1016 54 10000 10.8 10 18:25 22.06.2019
5970 Clouds 25 1017 54 10000 12.9 30 17:46 22.06.2019
5971 Clouds 25 1017 54 10000 12.9 30 17:28 22.06.2019
5972 Clouds 25 1017 54 10000 12.3 30 16:47 22.06.2019
5973 Clouds 25 1017 54 10000 12.3 30 16:24 22.06.2019
5974 Clouds 24 1018 57 10000 10.8 30 15:49 22.06.2019
5975 Clouds 24 1018 57 10000 10.8 30 15:29 22.06.2019
5976 Clouds 24 1018 60 10000 10.8 30 14:52 22.06.2019
5977 Clouds 24 1018 60 10000 11.3 30 14:33 22.06.2019
5978 Clouds 24 1019 60 10000 10.3 40 13:58 22.06.2019
5979 Clouds 24 1019 53 10000 10.8 30 13:40 22.06.2019
5980 Clouds 24 1019 57 10000 11.3 30 13:19 22.06.2019
5981 Clouds 23 1019 60 10000 9.3 10 12:47 22.06.2019
5982 Clouds 23 1019 60 10000 9.3 10 12:29 22.06.2019
5983 Clouds 22 1019 68 10000 7.2 360 11:46 22.06.2019
5984 Clouds 22 1019 68 10000 7.2 360 11:27 22.06.2019
5985 Clouds 21 1019 68 10000 5.7 360 10:47 22.06.2019
5986 Clouds 21 1019 64 10000 4.6 360 10:19 22.06.2019
5987 Clouds 21 1018 64 10000 5.1 340 09:42 22.06.2019
5988 Clouds 20 1018 72 10000 5.7 350 08:56 22.06.2019
5989 Clouds 20 1018 72 10000 6.2 350 08:37 22.06.2019
5990 Clouds 20 1018 72 10000 5.1 360 07:56 22.06.2019
5991 Clouds 20 1018 68 10000 6.2 350 07:30 22.06.2019
5992 Clouds 20 1018 68 10000 6.7 350 06:46 22.06.2019
5993 Clouds 20 1018 72 10000 8.2 10 04:38 22.06.2019
5994 Clouds 21 1019 68 10000 7.2 350 02:27 22.06.2019
5995 Clouds 21 1019 73 10000 8.2 360 00:57 22.06.2019
5996 Clouds 21 1019 73 10000 5.7 360 00:31 22.06.2019
5997 Clouds 22 1019 68 10000 7.2 360 23:50 21.06.2019
5998 Clouds 22 1018 64 10000 8.2 360 23:24 21.06.2019
5999 Clouds 22 1018 64 10000 8.2 360 22:58 21.06.2019
6000 Clouds 22 1018 64 10000 8.2 360 22:58 21.06.2019
6001 -273 0 0 0 0 0 22:58 21.06.2019
6002 Clouds 22 1018 64 10000 9.3 10 22:39 21.06.2019
6003 Clouds 22 1018 60 10000 9.8 10 22:20 21.06.2019
6004 Clouds 22 1018 64 10000 11.3 10 21:40 21.06.2019
6005 Clouds 23 1018 60 10000 10.8 10 21:21 21.06.2019
6006 Clouds 24 1018 57 10000 10.8 20 20:48 21.06.2019
6007 Clouds 24 1018 57 10000 10.8 20 20:26 21.06.2019
6008 Clouds 23 1018 57 10000 10.8 10 19:54 21.06.2019
6009 Clouds 23 1018 60 10000 12.3 30 19:22 21.06.2019
6010 Clouds 23 1018 53 10000 12.9 30 18:41 21.06.2019
6011 Clouds 24 1018 53 10000 12.9 30 18:23 21.06.2019
6012 Clouds 24 1018 57 10000 13.4 30 17:31 21.06.2019
6013 Clouds 24 1019 61 10000 12.9 30 16:59 21.06.2019
6014 Clouds 24 1019 61 10000 12.9 30 16:37 21.06.2019
6015 Clouds 24 1019 61 10000 12.9 30 16:18 21.06.2019
6016 Clouds 24 1019 61 10000 12.9 30 15:37 21.06.2019
6017 Clouds 24 1019 60 10000 11.8 30 14:57 21.06.2019
6018 Clouds 24 1019 61 10000 11.8 30 14:39 21.06.2019
6019 Clouds 24 1020 64 10000 13.4 30 14:20 21.06.2019
6020 Clouds 24 1020 50 10000 9.3 360 13:40 21.06.2019
6021 Clouds 24 1020 50 10000 9.8 360 13:22 21.06.2019
6022 Clouds 24 1020 50 10000 9.8 360 12:51 21.06.2019
6023 Clouds 23 1020 64 10000 9.8 10 12:23 21.06.2019
6024 Clouds 23 1020 64 10000 9.8 10 11:55 21.06.2019
6025 Clouds 22 1019 60 10000 11.8 10 11:37 21.06.2019
6026 Clouds 22 1019 64 10000 9.8 360 11:19 21.06.2019
6027 Clouds 22 1019 68 10000 8.2 360 10:42 21.06.2019
6028 Clouds 22 1019 68 10000 8.2 360 10:20 21.06.2019
6029 Clouds 22 1019 68 10000 8.2 360 10:20 21.06.2019
6030 Clouds 21 1019 68 10000 7.2 360 09:43 21.06.2019
6031 Clouds 21 1019 68 10000 7.2 360 09:23 21.06.2019
6032 Clouds 20 1019 68 10000 7.2 360 08:56 21.06.2019
6033 Clouds 20 1019 68 10000 6.7 350 08:37 21.06.2019
6034 Clouds 20 1018 73 10000 5.7 10 08:18 21.06.2019
6035 Clouds 21 1018 73 10000 7.2 360 07:42 21.06.2019
6036 Clouds 21 1018 68 10000 7.7 350 07:19 21.06.2019
6037 Clouds 21 1018 64 10000 7.2 350 06:29 21.06.2019
6038 Clouds 20 1019 64 10000 6.2 350 05:48 21.06.2019
6039 Clouds 21 1019 68 10000 7.7 350 04:48 21.06.2019
6040 Clouds 21 1020 68 10000 6.2 350 03:47 21.06.2019
6041 Clouds 21 1020 68 10000 6.2 350 03:24 21.06.2019
6042 Clouds 21 1020 73 10000 6.7 360 02:34 21.06.2019
6043 Clouds 22 1020 73 10000 7.2 360 01:32 21.06.2019
6044 Clouds 22 1020 68 10000 6.2 360 00:36 21.06.2019
6045 Clouds 22 1020 68 10000 8.2 360 23:57 20.06.2019
6046 Clouds 22 1019 68 10000 9.3 10 23:39 20.06.2019
6047 Clouds 22 1019 64 10000 7.7 360 23:19 20.06.2019
6048 Clouds 22 1019 64 10000 9.3 360 22:41 20.06.2019
6049 Clouds 22 1019 64 10000 9.3 360 22:23 20.06.2019
6050 Clouds 22 1019 64 10000 9.3 360 22:23 20.06.2019
6051 Clouds 22 1019 69 10000 9.8 10 21:56 20.06.2019
6052 Clouds 23 1019 64 10000 9.3 360 21:37 20.06.2019
6053 Clouds 23 1018 60 10000 9.8 360 21:19 20.06.2019
6054 Clouds 23 1018 60 10000 9.8 360 21:19 20.06.2019
6055 Clouds 24 1018 57 10000 10.8 360 20:41 20.06.2019
6056 Clouds 24 1018 57 10000 10.8 360 20:23 20.06.2019
6057 Clouds 24 1018 54 10000 10.3 20 19:45 20.06.2019
6058 Clouds 25 1018 54 10000 11.3 20 19:19 20.06.2019
6059 Clouds 24 1018 54 10000 11.3 20 18:58 20.06.2019
6060 Clouds 24 1018 50 10000 12.3 20 18:40 20.06.2019
6061 Clouds 25 1018 50 10000 12.3 20 18:21 20.06.2019
6062 Clouds 24 1018 65 10000 11.3 30 17:46 20.06.2019
6063 Clouds 24 1018 65 10000 11.3 30 17:27 20.06.2019
6064 Clouds 24 1019 65 10000 11.8 30 16:44 20.06.2019
6065 Clouds 25 1019 61 10000 11.3 30 16:19 20.06.2019
6066 Clouds 25 1019 61 10000 11.3 30 15:56 20.06.2019
6067 Clouds 25 1019 61 10000 10.8 30 15:37 20.06.2019
6068 Clouds 24 1019 65 10000 11.3 30 15:18 20.06.2019
6069 Clouds 24 1019 65 10000 11.3 30 14:42 20.06.2019
6070 Clouds 24 1020 65 10000 11.3 30 14:21 20.06.2019
6071 Clouds 24 1020 69 10000 11.3 30 13:40 20.06.2019
6072 Clouds 24 1020 65 10000 11.3 30 13:19 20.06.2019
6073 Clouds 24 1020 65 10000 10.8 30 12:44 20.06.2019
6074 Clouds 24 1020 65 10000 10.8 30 12:22 20.06.2019
6075 Clouds 23 1020 61 10000 9.8 30 11:44 20.06.2019
6076 Clouds 23 1020 61 10000 9.8 30 11:23 20.06.2019
6077 Clouds 23 1019 69 10000 7.7 10 10:47 20.06.2019
6078 Clouds 23 1019 69 10000 7.7 10 10:47 20.06.2019
6079 Clouds 23 1019 69 10000 7.7 10 10:25 20.06.2019
6080 Clouds 21 1019 68 10000 6.7 360 09:58 20.06.2019
6081 Clouds 21 1019 73 10000 6.7 10 09:38 20.06.2019
6082 Clouds 20 1019 73 10000 6.7 10 09:20 20.06.2019
6083 Clouds 20 1019 68 10000 5.1 10 08:45 20.06.2019
6084 Clouds 20 1019 68 10000 5.1 10 08:26 20.06.2019
6085 Clouds 20 1019 68 10000 4.6 360 07:51 20.06.2019
6086 Clouds 20 1019 68 10000 4.6 360 07:27 20.06.2019
6087 Clouds 20 1019 68 10000 5.7 360 06:25 20.06.2019
6088 Clouds 21 1020 77 10000 5.7 10 03:55 20.06.2019
6089 Clouds 21 1020 83 10000 1 0 02:29 20.06.2019
6090 Clouds 22 1020 60 10000 4.1 10 00:33 20.06.2019
6091 Clouds 22 1019 64 10000 5.1 10 23:49 19.06.2019
6092 Clouds 22 1019 64 10000 5.1 10 23:30 19.06.2019
6093 Clouds 22 1019 69 10000 7.7 30 22:49 19.06.2019
6094 Clouds 22 1019 69 10000 7.7 30 22:49 19.06.2019
6095 Clouds 22 1019 69 10000 7.7 30 22:26 19.06.2019
6096 Clouds 22 1019 69 10000 8.7 20 21:58 19.06.2019
6097 Clouds 23 1018 64 10000 9.3 30 21:40 19.06.2019
6098 Clouds 23 1018 64 10000 9.3 30 21:21 19.06.2019
6099 Clouds 23 1018 64 10000 10.3 30 20:42 19.06.2019
6100 Clouds 24 1018 64 10000 10.3 30 20:21 19.06.2019
6101 Clouds 24 1018 61 10000 10.8 30 19:51 19.06.2019
6102 Clouds 24 1019 61 10000 9.3 30 19:29 19.06.2019
6103 Clouds 24 1018 65 10000 10.8 30 18:57 19.06.2019
6104 Clouds 24 1019 69 10000 12.3 30 18:28 19.06.2019
6105 Clouds 24 1019 65 10000 12.3 30 17:53 19.06.2019
6106 Clouds 24 1019 65 10000 10.8 30 17:33 19.06.2019
6107 Clouds 25 1019 65 10000 10.3 30 16:57 19.06.2019
6108 Clouds 24 1019 69 10000 10.3 30 16:38 19.06.2019
6109 Clouds 25 1020 65 10000 9.8 40 16:20 19.06.2019
6110 Clouds 24 1020 69 10000 9.8 40 15:47 19.06.2019
6111 Clouds 24 1020 69 10000 9.8 40 15:25 19.06.2019
6112 Clouds 24 1020 65 10000 8.7 40 14:48 19.06.2019
6113 Clouds 24 1020 65 10000 8.7 40 14:29 19.06.2019
6114 Clouds 24 1020 69 10000 8.7 40 13:56 19.06.2019
6115 Clouds 23 1020 69 10000 9.3 40 13:37 19.06.2019
6116 Clouds 24 1020 65 10000 8.7 30 13:19 19.06.2019
6117 Clouds 24 1020 69 10000 8.2 30 12:42 19.06.2019
6118 Clouds 24 1019 73 10000 7.2 30 12:20 19.06.2019
6119 Clouds 23 1019 73 10000 7.2 30 11:43 19.06.2019
6120 Clouds 23 1019 73 10000 6.7 30 11:24 19.06.2019
6121 Clouds 22 1019 73 10000 6.7 30 10:51 19.06.2019
6122 Clouds 22 1019 78 10000 6.2 20 10:32 19.06.2019
6123 Clouds 22 1019 73 10000 5.1 10 09:58 19.06.2019
6124 Clouds 21 1019 78 10000 5.1 20 09:38 19.06.2019
6125 Clouds 21 1019 88 10000 4.6 10 09:19 19.06.2019
6126 Clouds 21 1018 88 10000 4.6 20 08:48 19.06.2019
6127 Clouds 21 1018 88 10000 4.6 20 08:27 19.06.2019
6128 Clouds 21 1018 88 10000 4.1 20 07:46 19.06.2019
6129 Clouds 21 1018 88 10000 4.1 20 07:23 19.06.2019
6130 Clouds 21 1018 83 10000 4.6 30 06:44 19.06.2019
6131 Clouds 21 1018 83 10000 4.6 30 06:22 19.06.2019
6132 Clouds 21 1018 88 10000 3.6 10 05:41 19.06.2019
6133 Clouds 22 1018 69 10000 5.1 20 04:18 19.06.2019
6134 Clouds 22 1019 69 10000 3.6 10 03:18 19.06.2019
6135 Clouds 22 1019 73 10000 3.6 360 01:48 19.06.2019
6136 Clouds 23 1019 69 10000 2.6 350 00:57 19.06.2019
6137 Clouds 23 1019 69 10000 4.1 10 00:39 19.06.2019
6138 Clouds 22 1019 83 10000 3.6 30 00:19 19.06.2019
6139 Clouds 22 1019 83 10000 2.6 360 23:46 18.06.2019
6140 Clouds 22 1019 83 10000 2.6 360 23:25 18.06.2019
6141 Clouds 22 1019 78 10000 3.1 30 22:43 18.06.2019
6142 Clouds 22 1019 78 10000 3.1 30 22:24 18.06.2019
6143 Clouds 23 1019 78 10000 2.1 50 21:56 18.06.2019
6144 Clouds 23 1018 78 10000 2.6 40 21:37 18.06.2019
6145 Clouds 23 1018 78 10000 1 0 21:19 18.06.2019
6146 Clouds 23 1018 78 10000 1.5 130 20:42 18.06.2019
6147 Clouds 23 1018 78 10000 1.5 130 20:23 18.06.2019
6148 Clouds 23 1018 73 10000 2.1 0 19:41 18.06.2019
6149 Clouds 23 1018 73 10000 2.1 0 19:23 18.06.2019
6150 Clouds 23 1018 73 10000 2.1 130 18:56 18.06.2019
6151 Clouds 23 1019 73 10000 2.6 160 18:26 18.06.2019
6152 Clouds 23 1019 73 10000 3.6 160 17:57 18.06.2019
6153 Clouds 24 1019 73 10000 3.6 160 17:38 18.06.2019
6154 Clouds 24 1019 69 10000 4.1 160 17:19 18.06.2019
6155 Clouds 24 1019 69 10000 3.1 170 16:42 18.06.2019
6156 Clouds 23 1019 73 10000 3.1 160 16:22 18.06.2019
6157 Clouds 24 1019 73 10000 3.6 140 15:43 18.06.2019
6158 Clouds 24 1019 73 10000 3.1 140 15:23 18.06.2019
6159 Clouds 24 1019 73 10000 3.1 140 14:58 18.06.2019
6160 Clouds 24 1019 78 10000 3.6 140 14:39 18.06.2019
6161 Clouds 23 1019 78 10000 2.6 140 14:19 18.06.2019
6162 Clouds 24 1019 78 10000 2.6 140 13:52 18.06.2019
6163 Clouds 23 1019 78 10000 2.6 140 13:31 18.06.2019
6164 Clouds 23 1019 73 10000 2.6 120 12:47 18.06.2019
6165 Clouds 23 1019 73 10000 2.6 120 12:29 18.06.2019
6166 Clouds 23 1019 73 10000 2.6 110 11:56 18.06.2019
6167 Clouds 22 1019 73 10000 2.6 100 11:38 18.06.2019
6168 Clouds 22 1018 73 10000 2.1 80 11:20 18.06.2019
6169 Clouds 22 1018 73 10000 1.5 80 10:43 18.06.2019
6170 Clouds 22 1018 73 10000 1.5 80 10:22 18.06.2019
6171 Clear 22 1018 68 10000 1 0 09:52 18.06.2019
6172 Clear 21 1018 68 10000 1 0 09:25 18.06.2019
6173 Clear 20 1018 72 10000 1.5 250 08:58 18.06.2019
6174 Clear 20 1018 72 10000 1.5 260 08:39 18.06.2019
6175 Clear 20 1017 72 10000 1.5 250 08:20 18.06.2019
6176 Clear 20 1017 72 10000 2.1 270 07:27 18.06.2019
6177 Clear 20 1017 72 10000 1.5 280 06:57 18.06.2019
6178 Clear 20 1017 72 10000 1.5 300 05:27 18.06.2019
6179 Clear 20 1017 72 10000 1.5 300 05:27 18.06.2019
6180 Clear 20 1018 72 10000 1.5 310 04:22 18.06.2019
6181 Clear 20 1019 77 10000 2.1 320 02:50 18.06.2019
6182 Clear 21 1019 77 10000 2.6 320 01:28 18.06.2019
6183 Clear 21 1019 77 10000 1.5 290 00:58 18.06.2019
6184 Clear 21 1019 77 10000 1 0 00:39 18.06.2019
6185 Clouds 21 1019 78 10000 2.1 190 00:21 18.06.2019
6186 Clouds 22 1019 73 10000 2.1 170 23:38 17.06.2019
6187 Clouds 22 1019 78 10000 3.1 160 23:19 17.06.2019
6188 Clouds 22 1019 78 10000 3.1 150 22:41 17.06.2019
6189 Clouds 22 1019 78 10000 3.1 150 22:21 17.06.2019
6190 Clouds 22 1018 78 10000 3.1 150 21:46 17.06.2019
6191 Clouds 22 1018 78 10000 3.1 140 21:24 17.06.2019
6192 Clouds 22 1018 78 10000 3.1 150 21:24 17.06.2019
6193 Clouds 22 1019 73 10000 3.1 140 20:44 17.06.2019
6194 Clouds 23 1019 73 10000 3.1 140 20:26 17.06.2019
6195 Clouds 23 1019 69 10000 3.6 140 19:58 17.06.2019
6196 Clouds 22 1019 73 10000 3.1 130 19:40 17.06.2019
6197 Clouds 22 1019 73 10000 3.1 130 19:21 17.06.2019
6198 Clouds 23 1019 68 10000 3.6 130 18:39 17.06.2019
6199 Clouds 23 1019 69 10000 3.6 140 18:18 17.06.2019
6200 Clouds 23 1019 69 10000 3.6 140 17:59 17.06.2019
6201 Clouds 23 1019 64 10000 4.1 130 17:39 17.06.2019
6202 Clouds 23 1019 64 10000 4.1 130 17:21 17.06.2019
6203 Clouds 22 1019 68 10000 3.6 130 16:43 17.06.2019
6204 Clouds 23 1019 68 10000 3.6 130 16:24 17.06.2019
6205 Clouds 23 1019 64 10000 3.6 130 15:55 17.06.2019
6206 Clouds 23 1020 64 10000 3.6 130 15:36 17.06.2019
6207 Clouds 23 1020 64 10000 3.6 130 15:18 17.06.2019
6208 Clouds 22 1020 68 10000 3.1 100 15:18 17.06.2019
6209 Clouds 22 1020 68 10000 3.1 110 14:42 17.06.2019
6210 Clouds 22 1020 68 10000 3.1 110 14:22 17.06.2019
6211 Clouds 22 1020 68 10000 3.1 100 13:44 17.06.2019
6212 Clouds 21 1020 68 10000 3.1 100 13:21 17.06.2019
6213 Clouds 22 1020 68 10000 2.6 90 12:47 17.06.2019
6214 Clouds 21 1020 73 10000 3.1 100 12:24 17.06.2019
6215 Clouds 21 1020 68 10000 2.6 80 11:45 17.06.2019
6216 Clouds 21 1020 68 10000 2.6 80 11:26 17.06.2019
6217 Clouds 21 1019 68 10000 2.1 80 10:56 17.06.2019
6218 Clouds 21 1019 68 10000 1 0 10:38 17.06.2019
6219 Clouds 21 1019 68 10000 1 0 10:20 17.06.2019
6220 Clouds 19 1019 72 10000 2.1 300 09:39 17.06.2019
6221 Clouds 19 1019 72 10000 2.1 300 09:20 17.06.2019
6222 Clouds 19 1019 72 10000 2.6 310 08:41 17.06.2019
6223 Clouds 18 1019 72 10000 2.6 310 08:22 17.06.2019
6224 Clouds 18 1019 72 10000 2.1 290 07:40 17.06.2019
6225 Clouds 18 1019 72 10000 2.1 290 07:21 17.06.2019
6226 Clouds 18 1019 72 10000 2.6 270 06:34 17.06.2019
6227 Clear 18 1020 68 10000 3.1 300 05:44 17.06.2019
6228 Clear 19 1020 68 10000 2.1 310 04:34 17.06.2019
6229 Clear 19 1021 68 10000 2.1 310 03:35 17.06.2019
6230 Clear 18 1021 72 10000 2.1 320 02:58 17.06.2019
6231 Clear 19 1022 68 10000 2.6 330 02:39 17.06.2019
6232 Clear 19 1021 72 10000 2.6 330 01:41 17.06.2019
6233 Clouds 19 1021 72 10000 2.6 330 00:59 17.06.2019
6234 Clouds 20 1021 72 10000 4.6 20 00:41 17.06.2019
6235 Clouds 20 1021 72 10000 4.6 20 00:21 17.06.2019
6236 Clouds 20 1021 68 10000 4.6 10 23:40 16.06.2019
6237 Clouds 20 1021 68 10000 4.6 10 23:21 16.06.2019
6238 Clouds 20 1021 68 10000 5.7 20 22:47 16.06.2019
6239 Clouds 20 1020 68 10000 5.7 20 22:21 16.06.2019
6240 Clouds 21 1020 68 10000 6.2 30 21:59 16.06.2019
6241 Clouds 21 1020 68 10000 6.7 30 21:40 16.06.2019
6242 Clouds 21 1020 68 10000 6.7 30 21:40 16.06.2019
6243 Clouds 21 1020 68 10000 6.7 30 21:21 16.06.2019
6244 Clouds 22 1020 64 10000 6.7 30 20:56 16.06.2019
6245 Clouds 22 1020 64 10000 6.7 30 20:37 16.06.2019
6246 Clouds 22 1020 64 10000 6.7 30 20:18 16.06.2019
6247 Clouds 22 1020 64 10000 6.7 30 19:40 16.06.2019
6248 Clouds 22 1020 64 10000 6.7 30 19:22 16.06.2019
6249 Clouds 22 1020 60 10000 6.7 50 18:58 16.06.2019
6250 Clouds 23 1020 60 10000 6.2 50 18:39 16.06.2019
6251 Clouds 23 1020 60 10000 6.2 50 18:20 16.06.2019
6252 Clouds 23 1020 60 10000 6.2 50 17:46 16.06.2019
6253 Clouds 22 1020 60 10000 6.2 40 17:22 16.06.2019
6254 Clouds 22 1021 60 10000 6.2 40 16:57 16.06.2019
6255 Clouds 22 1021 60 10000 6.2 40 16:57 16.06.2019
6256 Clouds 22 1021 60 10000 5.7 50 16:38 16.06.2019
6257 Clouds 22 1021 60 10000 5.7 50 16:20 16.06.2019
6258 Clouds 22 1021 60 10000 5.1 50 15:42 16.06.2019
6259 Clouds 22 1021 60 10000 5.1 50 15:23 16.06.2019
6260 Clouds 22 1022 64 10000 5.1 60 14:43 16.06.2019
6261 Clouds 22 1022 64 10000 5.1 60 14:23 16.06.2019
6262 Clouds 22 1022 64 10000 5.1 60 13:52 16.06.2019
6263 Clouds 22 1022 64 10000 5.7 60 13:26 16.06.2019
6264 Clouds 22 1021 60 10000 5.7 40 12:57 16.06.2019
6265 Clouds 22 1021 60 10000 5.7 40 12:57 16.06.2019
6266 Clouds 22 1021 60 10000 5.7 40 12:38 16.06.2019
6267 Clouds 22 1021 60 10000 5.7 40 12:18 16.06.2019
6268 Clouds 22 1021 64 10000 5.7 40 11:44 16.06.2019
6269 Clouds 21 1021 64 10000 5.1 30 11:19 16.06.2019
6270 Clouds 20 1021 68 10000 4.1 20 10:45 16.06.2019
6271 Clouds 20 1021 64 10000 3.1 350 10:21 16.06.2019
6272 Clouds 19 1021 68 10000 2.1 320 09:48 16.06.2019
6273 Clouds 18 1020 72 10000 2.6 300 09:26 16.06.2019
6274 Clouds 18 1020 72 10000 2.6 310 08:57 16.06.2019
6275 Clouds 18 1020 72 10000 3.1 300 08:38 16.06.2019
6276 Clouds 18 1020 72 10000 3.1 300 08:18 16.06.2019
6277 Clouds 18 1019 72 10000 3.1 310 07:42 16.06.2019
6278 Clouds 18 1019 72 10000 2.6 310 06:57 16.06.2019
6279 Clouds 19 1019 68 10000 2.1 310 06:30 16.06.2019
6280 Clouds 19 1020 72 10000 2.6 350 05:40 16.06.2019
6281 Clouds 19 1020 68 10000 3.1 30 04:36 16.06.2019
6282 Clouds 20 1020 68 10000 3.1 20 03:53 16.06.2019
6283 Clouds 20 1021 68 10000 3.1 10 03:30 16.06.2019
6284 Clouds 20 1021 68 10000 4.1 30 01:59 16.06.2019
6285 Clouds 20 1021 68 10000 5.1 20 01:40 16.06.2019
6286 Clouds 20 1021 68 10000 5.1 20 01:21 16.06.2019
6287 Clouds 20 1021 68 10000 5.7 20 00:39 16.06.2019
6288 Clouds 20 1021 68 10000 5.7 20 00:19 16.06.2019
6289 Clouds 20 1020 68 10000 6.2 20 23:42 15.06.2019
6290 Clouds 20 1020 68 10000 6.2 20 23:22 15.06.2019
6291 Clouds 20 1020 68 10000 6.2 20 22:49 15.06.2019
6292 Clouds 20 1020 68 10000 6.7 30 22:26 15.06.2019
6293 Clouds 21 1020 60 10000 6.7 20 21:47 15.06.2019
6294 Clouds 21 1020 64 10000 6.7 30 21:29 15.06.2019
6295 Clouds 21 1019 64 10000 6.2 30 20:56 15.06.2019
6296 Clouds 21 1019 64 10000 7.2 30 20:36 15.06.2019
6297 Clouds 20 1019 64 10000 7.2 30 20:18 15.06.2019
6298 Clouds 21 1019 60 10000 6.2 30 19:40 15.06.2019
6299 Clouds 21 1019 60 10000 6.2 30 19:22 15.06.2019
6300 Clouds 21 1020 64 10000 5.1 30 18:39 15.06.2019
6301 Clouds 21 1020 64 10000 5.1 30 18:20 15.06.2019
6302 Clouds 22 1020 56 10000 4.1 30 17:43 15.06.2019
6303 Clouds 22 1020 56 10000 4.1 30 17:43 15.06.2019
6304 Clouds 21 1020 56 10000 4.1 30 17:21 15.06.2019
6305 Clouds 22 1020 60 10000 4.6 40 16:46 15.06.2019
6306 Clouds 21 1020 60 10000 4.6 60 16:19 15.06.2019
6307 Clouds 21 1021 60 10000 5.7 50 15:43 15.06.2019
6308 Clouds 22 1021 60 10000 5.7 50 15:23 15.06.2019
6309 Clouds 22 1021 60 10000 5.1 40 14:42 15.06.2019
6310 Clouds 22 1021 60 10000 5.1 40 14:19 15.06.2019
6311 Clouds 22 1021 56 10000 6.2 40 13:56 15.06.2019
6312 Clouds 22 1021 56 10000 6.2 60 13:38 15.06.2019
6313 -273 0 0 0 0 0 13:38 15.06.2019
6314 Clouds 22 1021 56 10000 6.2 60 13:18 15.06.2019
6315 Clouds 22 1021 56 10000 5.7 50 12:44 15.06.2019
6316 Clouds 22 1021 56 10000 5.7 60 12:23 15.06.2019
6317 Clouds 23 1021 43 10000 4.6 40 11:49 15.06.2019
6318 Clouds 22 1020 49 10000 4.1 40 11:30 15.06.2019
6319 Clouds 21 1020 46 10000 4.6 360 10:46 15.06.2019
6320 Clouds 20 1020 56 10000 5.7 20 10:25 15.06.2019
6321 Clouds 20 1020 68 10000 6.2 40 09:48 15.06.2019
6322 Clouds 20 1020 64 10000 5.7 40 09:27 15.06.2019
6323 Clouds 19 1019 60 10000 4.6 40 08:56 15.06.2019
6324 Clouds 19 1020 64 10000 4.1 20 08:38 15.06.2019
6325 Clouds 19 1020 64 10000 4.1 20 08:18 15.06.2019
6326 -273 0 0 0 0 0 08:18 15.06.2019
6327 Clouds 19 1020 72 10000 4.1 350 07:26 15.06.2019
6328 Clouds 19 1020 72 10000 4.1 350 07:26 15.06.2019
6329 Clouds 19 1020 68 10000 3.6 350 06:48 15.06.2019
6330 Clouds 19 1020 68 10000 3.1 350 06:28 15.06.2019
6331 Clouds 19 1020 68 10000 4.1 350 05:39 15.06.2019
6332 Clouds 19 1020 68 10000 4.1 350 04:52 15.06.2019
6333 Clouds 19 1020 64 10000 4.6 10 04:20 15.06.2019
6334 Clouds 19 1020 60 10000 3.6 350 03:22 15.06.2019
6335 Clouds 19 1021 68 10000 3.1 350 02:34 15.06.2019
6336 Clouds 19 1021 68 10000 3.6 340 01:57 15.06.2019
6337 Clouds 19 1021 68 10000 3.6 340 01:24 15.06.2019
6338 Clouds 20 1021 68 10000 4.1 360 00:42 15.06.2019
6339 Clouds 20 1021 68 10000 4.1 360 00:23 15.06.2019
6340 Clouds 20 1021 64 10000 5.1 10 23:46 14.06.2019
6341 Clouds 20 1021 64 10000 6.2 20 23:20 14.06.2019
6342 Clouds 21 1020 64 10000 6.7 20 22:41 14.06.2019
6343 Clouds 21 1020 64 10000 6.7 20 22:21 14.06.2019
6344 Clouds 21 1020 64 10000 6.7 20 21:48 14.06.2019
6345 Clouds 21 1020 68 10000 7.2 20 21:28 14.06.2019
6346 Clouds 21 1020 60 10000 7.7 30 20:55 14.06.2019
6347 Clouds 22 1020 56 10000 7.2 20 20:36 14.06.2019
6348 Clouds 22 1020 56 10000 7.2 20 20:18 14.06.2019
6349 Clouds 22 1020 56 10000 7.7 30 19:39 14.06.2019
6350 Clouds 22 1020 56 10000 7.7 30 19:19 14.06.2019
6351 Clouds 22 1020 53 10000 7.2 30 18:45 14.06.2019
6352 Clouds 22 1020 56 10000 6.2 30 18:27 14.06.2019
6353 Clouds 21 1020 68 10000 4.6 30 17:58 14.06.2019
6354 Clouds 21 1020 64 10000 4.1 40 17:40 14.06.2019
6355 Clouds 21 1020 64 10000 4.1 40 17:21 14.06.2019
6356 Clouds 21 1020 64 10000 4.6 30 16:48 14.06.2019
6357 -273 0 0 0 0 0 16:23 14.06.2019
6358 Clouds 22 1020 56 10000 7.2 40 15:59 14.06.2019
6359 Clouds 22 1020 64 10000 6.7 30 15:39 14.06.2019
6360 Clouds 22 1020 64 10000 6.7 30 15:19 14.06.2019
6361 Clouds 22 1020 64 10000 6.7 30 15:19 14.06.2019
6362 Clouds 22 1021 64 10000 5.7 20 14:43 14.06.2019
6363 Clouds 21 1021 64 10000 5.7 20 14:25 14.06.2019
6364 Clouds 21 1021 64 10000 6.7 30 13:46 14.06.2019
6365 Clouds 22 1020 64 10000 5.1 30 13:27 14.06.2019
6366 Clouds 21 1020 64 10000 5.1 20 12:55 14.06.2019
6367 Clouds 21 1020 64 10000 4.1 10 12:36 14.06.2019
6368 Clouds 21 1020 64 10000 4.1 10 12:36 14.06.2019
6369 Clouds 21 1020 68 10000 4.6 10 12:18 14.06.2019
6370 Clouds 21 1020 64 10000 4.6 20 11:42 14.06.2019
6371 Clouds 21 1020 64 10000 4.6 20 11:23 14.06.2019
6372 Clouds 20 1020 64 10000 5.1 10 10:47 14.06.2019
6373 Clouds 20 1019 60 10000 4.1 10 10:21 14.06.2019
6374 Clouds 19 1019 64 10000 3.6 350 09:55 14.06.2019
6375 Clouds 18 1019 68 10000 3.1 340 09:33 14.06.2019
6376 Clouds 18 1019 72 10000 3.1 340 08:48 14.06.2019
6377 Clouds 18 1019 72 10000 3.1 340 08:21 14.06.2019
6378 Clouds 18 1018 72 10000 3.1 340 07:55 14.06.2019
6379 Clouds 18 1018 72 10000 3.6 340 07:23 14.06.2019
6380 Clouds 18 1018 68 10000 3.6 340 06:53 14.06.2019
6381 -273 0 0 0 0 0 06:19 14.06.2019
6382 Clouds 18 1018 63 10000 3.6 350 05:42 14.06.2019
6383 Clouds 19 1018 63 10000 4.1 350 04:51 14.06.2019
6384 Clouds 19 1018 68 10000 4.1 340 04:23 14.06.2019
6385 Clouds 19 1018 64 10000 4.6 350 03:38 14.06.2019
6386 Clouds 20 1018 64 10000 4.6 350 03:19 14.06.2019
6387 Clouds 20 1019 64 10000 4.6 350 02:36 14.06.2019
6388 Clouds 20 1019 68 10000 5.1 360 01:39 14.06.2019
6389 Clouds 20 1019 68 10000 5.1 360 01:39 14.06.2019
6390 Clouds 20 1019 64 10000 5.7 360 00:37 14.06.2019
6391 Clouds 20 1019 64 10000 5.7 360 00:19 14.06.2019
6392 Clouds 20 1019 64 10000 4.6 360 23:49 13.06.2019
6393 Clouds 20 1019 64 10000 5.7 350 23:25 13.06.2019
6394 Clouds 21 1018 60 10000 6.7 10 22:41 13.06.2019
6395 Clouds 21 1018 60 10000 6.7 10 22:22 13.06.2019
6396 Clouds 21 1018 60 10000 7.7 10 21:59 13.06.2019
6397 Clouds 22 1017 56 10000 8.2 20 21:37 13.06.2019
6398 Clouds 22 1017 56 10000 8.2 20 21:18 13.06.2019
6399 Clouds 22 1017 56 10000 8.7 20 20:44 13.06.2019
6400 Clouds 22 1017 56 10000 8.7 20 20:20 13.06.2019
6401 Clouds 22 1017 53 10000 10.8 30 19:43 13.06.2019
6402 Clouds 22 1017 53 10000 10.8 30 19:25 13.06.2019
6403 Clouds 22 1016 56 10000 11.8 30 18:59 13.06.2019
6404 Clouds 23 1017 53 10000 11.8 30 18:40 13.06.2019
6405 Clouds 23 1017 53 10000 11.8 30 18:22 13.06.2019
6406 Clouds 23 1016 50 10000 12.9 30 17:44 13.06.2019
6407 Clouds 23 1017 47 10000 13.4 30 17:21 13.06.2019
6408 Clouds 23 1017 44 10000 13.4 20 16:58 13.06.2019
6409 Clouds 23 1017 44 10000 12.9 30 16:38 13.06.2019
6410 Clouds 23 1017 44 10000 12.9 30 16:18 13.06.2019
6411 Clouds 23 1017 47 10000 12.9 30 15:40 13.06.2019
6412 Clouds 23 1017 47 10000 12.9 30 15:22 13.06.2019
6413 Clouds 23 1017 44 10000 11.3 30 14:49 13.06.2019
6414 Clouds 23 1017 44 10000 11.8 20 14:31 13.06.2019
6415 Clouds 23 1017 44 10000 11.8 20 14:31 13.06.2019
6416 Clouds 23 1017 44 10000 9.8 10 13:54 13.06.2019
6417 Clouds 22 1017 56 10000 9.3 40 13:36 13.06.2019
6418 Clouds 21 1017 56 10000 9.3 40 13:18 13.06.2019
6419 Clouds 22 1017 53 10000 6.7 350 12:40 13.06.2019
6420 Clouds 21 1017 53 10000 6.7 350 12:21 13.06.2019
6421 Clouds 21 1017 53 10000 7.2 10 11:44 13.06.2019
6422 Clouds 21 1017 56 10000 5.7 340 11:25 13.06.2019
6423 Clouds 21 1017 56 10000 5.7 340 10:49 13.06.2019
6424 Clouds 21 1016 60 10000 6.2 350 10:30 13.06.2019
6425 Clouds 20 1016 64 10000 6.7 340 09:55 13.06.2019
6426 Clouds 20 1016 64 10000 6.7 340 09:55 13.06.2019
6427 Clouds 20 1016 64 10000 6.7 340 09:55 13.06.2019
6428 Clouds 20 1016 60 10000 5.7 350 09:36 13.06.2019
6429 Clouds 20 1016 60 10000 5.7 350 09:18 13.06.2019
6430 Clouds 20 1015 64 10000 5.1 350 08:43 13.06.2019
6431 Clouds 19 1015 64 10000 5.1 350 08:22 13.06.2019
6432 Clouds 19 1015 72 10000 6.7 360 07:41 13.06.2019
6433 Clouds 19 1015 72 10000 6.7 360 07:22 13.06.2019
6434 Clouds 19 1015 68 10000 4.6 340 06:45 13.06.2019
6435 Clouds 19 1015 72 10000 5.1 340 06:22 13.06.2019
6436 Clouds 19 1015 72 10000 5.7 340 05:52 13.06.2019
6437 Clouds 19 1015 68 10000 6.7 360 05:34 13.06.2019
6438 Clouds 20 1016 64 10000 6.2 350 03:50 13.06.2019
6439 Clouds 20 1016 60 10000 5.7 350 02:22 13.06.2019
6440 Clouds 20 1016 68 10000 6.2 360 00:44 13.06.2019
6441 Clouds 20 1016 68 10000 7.7 360 23:38 12.06.2019
6442 Clouds 20 1016 68 10000 7.7 360 23:20 12.06.2019
6443 Clouds 21 1015 64 10000 8.2 360 22:41 12.06.2019
6444 Clouds 21 1015 64 10000 8.2 360 22:22 12.06.2019
6445 Clouds 21 1015 68 10000 8.7 360 21:47 12.06.2019
6446 Clouds 22 1014 68 10000 8.7 10 21:29 12.06.2019
6447 Clouds 23 1014 64 10000 8.7 360 20:50 12.06.2019
6448 Clouds 23 1014 64 10000 10.8 20 20:31 12.06.2019
6449 Clouds 23 1014 60 10000 12.9 20 19:59 12.06.2019
6450 Clouds 23 1014 57 10000 10.3 10 19:41 12.06.2019
6451 Clouds 23 1014 57 10000 10.3 10 19:22 12.06.2019
6452 Clouds 23 1014 60 10000 11.8 20 18:51 12.06.2019
6453 Clouds 23 1014 47 10000 10.8 20 18:29 12.06.2019
6454 Clouds 23 1014 47 10000 10.8 20 18:29 12.06.2019
6455 Clouds 23 1014 47 10000 11.3 30 17:58 12.06.2019
6456 Clouds 24 1014 44 10000 10.8 20 17:39 12.06.2019
6457 Clouds 26 1014 44 10000 10.8 20 17:18 12.06.2019
6458 Clouds 23 1015 57 10000 12.3 20 16:40 12.06.2019
6459 Clouds 23 1015 57 10000 12.3 20 16:22 12.06.2019
6460 Clouds 23 1015 60 10000 9.8 360 15:47 12.06.2019
6461 Clouds 23 1015 50 10000 9.8 10 15:29 12.06.2019
6462 Clouds 22 1016 64 10000 9.3 360 14:42 12.06.2019
6463 Clouds 22 1016 64 10000 9.3 360 14:22 12.06.2019
6464 Clouds 21 1016 68 10000 11.3 10 13:42 12.06.2019
6465 Clouds 21 1016 68 10000 11.3 10 13:20 12.06.2019
6466 Clouds 22 1016 68 10000 9.3 360 12:56 12.06.2019
6467 Clouds 21 1016 73 10000 9.8 340 12:38 12.06.2019
6468 Clouds 21 1016 73 10000 9.8 340 12:19 12.06.2019
6469 Drizzle 20 1015 82 8000 8.2 360 11:45 12.06.2019
6470 Clouds 20 1015 82 10000 8.7 10 11:27 12.06.2019
6471 Clouds 20 1015 100 10000 7.7 360 10:50 12.06.2019
6472 Clouds 20 1015 93 10000 7.2 360 10:26 12.06.2019
6473 Drizzle 20 1015 82 9000 8.2 360 09:45 12.06.2019
6474 Clouds 20 1014 72 10000 7.2 340 09:23 12.06.2019
6475 Clouds 20 1014 72 10000 9.3 340 08:55 12.06.2019
6476 Clouds 20 1014 72 10000 7.7 340 08:21 12.06.2019
6477 Clouds 19 1014 82 10000 8.7 350 07:45 12.06.2019
6478 Drizzle 19 1014 82 10000 5.7 360 06:54 12.06.2019
6479 Drizzle 19 1015 93 7000 9.8 10 05:27 12.06.2019
6480 Clouds 20 1015 88 10000 8.2 350 04:34 12.06.2019
6481 Clouds 21 1016 73 10000 8.7 360 01:32 12.06.2019
6482 Clouds 21 1016 68 10000 8.2 360 00:40 12.06.2019
6483 Clouds 21 1016 73 10000 9.8 360 23:48 11.06.2019
6484 Clouds 21 1016 68 10000 8.7 360 23:29 11.06.2019
6485 Clouds 21 1016 68 10000 11.3 360 22:44 11.06.2019
6486 Clouds 21 1016 68 10000 11.3 360 22:20 11.06.2019
6487 Clouds 22 1016 64 10000 10.3 360 21:57 11.06.2019
6488 Clouds 22 1016 60 10000 10.3 360 21:38 11.06.2019
6489 Clouds 22 1016 60 10000 10.3 360 21:20 11.06.2019
6490 Clouds 23 1016 60 10000 10.8 350 20:48 11.06.2019
6491 Clouds 23 1016 64 10000 10.8 10 20:26 11.06.2019
6492 Clouds 22 1016 64 10000 11.8 10 19:56 11.06.2019
6493 Clouds 23 1016 64 10000 12.3 20 19:36 11.06.2019
6494 Clouds 23 1016 60 10000 11.3 360 18:58 11.06.2019
6495 Clouds 24 1016 60 10000 11.8 360 18:23 11.06.2019
6496 Clouds 24 1016 57 10000 11.8 360 17:57 11.06.2019
6497 Clouds 23 1016 60 10000 11.8 10 17:39 11.06.2019
6498 Clouds 24 1016 60 10000 11.8 10 17:19 11.06.2019
6499 Clouds 23 1017 60 10000 12.3 10 16:42 11.06.2019
6500 Clouds 23 1017 60 10000 12.3 10 16:23 11.06.2019
6501 Clouds 22 1018 68 10000 11.8 10 15:43 11.06.2019
6502 Clouds 23 1018 68 10000 11.8 10 15:24 11.06.2019
6503 Drizzle 23 1018 77 9000 13.4 20 14:54 11.06.2019
6504 Clouds 23 1018 68 10000 11.8 360 14:23 11.06.2019
6505 Clouds 22 1018 88 10000 10.8 20 13:57 11.06.2019
6506 Clouds 22 1018 68 10000 10.8 20 13:37 11.06.2019
6507 Clouds 22 1018 68 10000 10.8 20 13:18 11.06.2019
6508 Clouds 22 1018 60 10000 9.3 360 12:40 11.06.2019
6509 Clouds 21 1018 60 10000 9.3 360 12:21 11.06.2019
6510 Clouds 21 1018 64 10000 10.8 360 11:41 11.06.2019
6511 Clouds 21 1018 64 10000 10.8 360 11:21 11.06.2019
6512 Clouds 21 1018 64 10000 10.8 360 10:50 11.06.2019
6513 Clouds 20 1018 68 10000 9.8 360 10:26 11.06.2019
6514 Clouds 20 1018 68 10000 10.3 360 09:51 11.06.2019
6515 Clouds 20 1018 68 10000 9.8 360 09:25 11.06.2019
6516 Clouds 19 1018 68 10000 9.8 360 08:49 11.06.2019
6517 Clouds 19 1017 77 10000 9.3 360 08:30 11.06.2019
6518 Clouds 19 1017 72 10000 8.2 360 07:57 11.06.2019
6519 Clouds 20 1017 68 10000 9.3 360 07:31 11.06.2019
6520 Clouds 20 1018 68 10000 9.3 360 06:51 11.06.2019
6521 Clouds 20 1018 68 10000 8.2 360 05:20 11.06.2019
6522 Clouds 20 1019 72 10000 10.3 350 03:55 11.06.2019
6523 Clouds 20 1020 72 10000 9.8 360 01:43 11.06.2019
6524 Clouds 20 1020 72 10000 9.8 360 00:49 11.06.2019
6525 Clouds 20 1020 72 10000 10.8 10 00:23 11.06.2019
6526 Clouds 21 1019 68 10000 10.3 360 23:41 10.06.2019
6527 Clouds 21 1019 68 10000 9.3 360 22:59 10.06.2019
6528 Clouds 21 1019 68 10000 10.3 360 22:41 10.06.2019
6529 Clouds 21 1019 68 10000 10.3 360 22:23 10.06.2019
6530 Clouds 21 1019 77 10000 11.8 20 21:41 10.06.2019
6531 Clouds 21 1019 77 10000 11.8 20 21:23 10.06.2019
6532 Clouds 23 1019 60 10000 9.3 360 20:57 10.06.2019
6533 Clouds 23 1019 60 10000 10.3 20 20:38 10.06.2019
6534 Clouds 23 1019 60 10000 10.3 20 20:19 10.06.2019
6535 Clouds 23 1019 60 10000 11.3 10 19:43 10.06.2019
6536 Clouds 23 1019 60 10000 11.3 10 19:22 10.06.2019
6537 Clouds 23 1019 56 10000 13.9 20 18:56 10.06.2019
6538 Clouds 23 1019 50 10000 13.9 20 18:38 10.06.2019
6539 Clouds 24 1019 50 10000 13.9 20 18:19 10.06.2019
6540 Clouds 24 1020 57 10000 12.9 10 17:41 10.06.2019
6541 Clouds 24 1020 57 10000 12.9 10 17:22 10.06.2019
6542 Clouds 24 1020 50 10000 12.9 360 16:46 10.06.2019
6543 Clouds 24 1020 47 10000 11.3 360 16:28 10.06.2019
6544 Clouds 24 1021 53 10000 12.3 20 15:56 10.06.2019
6545 Clouds 24 1021 57 10000 12.9 30 15:37 10.06.2019
6546 Clouds 24 1021 57 10000 12.9 30 15:19 10.06.2019
6547 Clouds 23 1021 60 10000 12.3 30 14:40 10.06.2019
6548 Clouds 23 1021 60 10000 12.3 30 14:21 10.06.2019
6549 Clouds 23 1022 60 10000 11.8 10 13:45 10.06.2019
6550 Clouds 22 1022 64 10000 11.8 10 13:23 10.06.2019
6551 Clouds 23 1022 56 10000 11.3 10 12:45 10.06.2019
6552 Clouds 22 1022 56 10000 11.3 10 12:27 10.06.2019
6553 Clouds 21 1022 60 10000 10.3 360 11:49 10.06.2019
6554 Clouds 21 1022 68 10000 9.8 10 11:30 10.06.2019
6555 Clouds 21 1022 64 10000 9.8 10 10:58 10.06.2019
6556 Clouds 20 1022 68 10000 10.3 360 10:38 10.06.2019
6557 Clouds 20 1022 68 10000 10.3 360 10:18 10.06.2019
6558 Clouds 20 1022 68 10000 10.3 10 09:47 10.06.2019
6559 Clouds 20 1022 68 10000 9.3 10 09:28 10.06.2019
6560 Clouds 20 1022 64 10000 10.8 10 08:46 10.06.2019
6561 Clouds 19 1022 68 10000 10.3 10 08:26 10.06.2019
6562 Clouds 19 1021 68 10000 10.3 10 07:26 10.06.2019
6563 Clouds 20 1022 68 10000 10.3 360 04:41 10.06.2019
6564 Clouds 20 1023 68 10000 10.8 10 02:19 10.06.2019
6565 Clouds 20 1023 68 10000 10.8 10 01:32 10.06.2019
6566 Clouds 20 1023 68 10000 11.3 10 00:59 10.06.2019
6567 Clouds 21 1023 64 10000 9.8 10 00:31 10.06.2019
6568 Clouds 20 1023 68 10000 11.3 10 23:45 09.06.2019
6569 Clouds 20 1022 60 10000 10.8 360 23:21 09.06.2019
6570 Clouds 20 1022 64 10000 11.8 10 22:45 09.06.2019
6571 Clouds 20 1022 64 10000 13.4 10 22:25 09.06.2019
6572 Clouds 21 1022 60 10000 13.4 10 21:46 09.06.2019
6573 Clouds 21 1022 60 10000 12.9 20 21:28 09.06.2019
6574 Clouds 21 1022 60 10000 13.4 10 20:58 09.06.2019
6575 Clouds 21 1022 56 10000 13.9 20 20:40 09.06.2019
6576 Clouds 22 1022 56 10000 13.9 20 20:21 09.06.2019
6577 Clouds 23 1022 56 10000 14.4 20 19:42 09.06.2019
6578 Clouds 23 1022 56 10000 14.4 20 19:18 09.06.2019
6579 Clouds 23 1022 49 10000 13.9 20 18:43 09.06.2019
6580 Clouds 23 1022 49 10000 13.9 20 18:24 09.06.2019
6581 Clouds 23 1022 49 10000 14.4 20 17:50 09.06.2019
6582 Clouds 23 1022 53 10000 14.4 30 17:30 09.06.2019
6583 Clouds 23 1022 49 10000 12.9 20 16:58 09.06.2019
6584 Clouds 23 1022 49 10000 12.9 20 16:58 09.06.2019
6585 Clouds 24 1022 47 10000 14.4 20 16:39 09.06.2019
6586 Clouds 24 1022 47 10000 14.4 20 16:20 09.06.2019
6587 Clouds 24 1022 47 10000 14.4 20 16:20 09.06.2019
6588 Clouds 23 1023 46 10000 13.4 30 15:49 09.06.2019
6589 Clouds 23 1023 49 10000 13.4 30 15:28 09.06.2019
6590 Clouds 23 1023 49 10000 12.9 30 14:51 09.06.2019
6591 Clouds 23 1023 49 10000 12.9 30 14:51 09.06.2019
6592 Clouds 23 1024 49 10000 11.8 20 14:33 09.06.2019
6593 Clouds 23 1024 49 10000 10.8 10 13:57 09.06.2019
6594 Clouds 23 1023 46 10000 11.3 20 13:38 09.06.2019
6595 Clouds 22 1023 53 10000 10.8 10 12:55 09.06.2019
6596 Clouds 22 1023 56 10000 11.8 20 12:34 09.06.2019
6597 Clouds 21 1023 64 10000 10.3 360 11:49 09.06.2019
6598 Clouds 21 1023 64 10000 10.3 10 11:30 09.06.2019
6599 -273 0 0 0 0 0 10:58 09.06.2019
6600 -273 0 0 0 0 0 10:58 09.06.2019
6601 Clouds 22 1023 56 10000 8.2 10 10:38 09.06.2019
6602 Clouds 21 1023 56 10000 8.2 10 10:19 09.06.2019
6603 Clouds 21 1023 56 10000 8.2 10 10:19 09.06.2019
6604 Clouds 21 1022 60 10000 8.2 360 09:38 09.06.2019
6605 Clouds 20 1022 60 10000 8.2 360 09:19 09.06.2019
6606 Clouds 20 1022 60 10000 7.2 10 08:43 09.06.2019
6607 Clouds 20 1022 56 10000 8.7 20 07:52 09.06.2019
6608 Clouds 20 1022 64 10000 6.7 10 06:44 09.06.2019
6609 Clouds 20 1022 60 10000 8.2 10 05:55 09.06.2019
6610 Clouds 20 1023 64 10000 8.2 10 02:55 09.06.2019
6611 Clouds 20 1023 64 10000 8.7 360 01:37 09.06.2019
6612 Clouds 20 1023 64 10000 8.7 360 01:37 09.06.2019
6613 Clouds 20 1023 64 10000 8.7 360 01:37 09.06.2019
6614 Clouds 20 1023 64 10000 8.7 360 01:18 09.06.2019
6615 Clouds 20 1023 64 10000 9.8 10 00:29 09.06.2019
6616 Clouds 21 1022 60 10000 11.3 10 23:41 08.06.2019
6617 Clouds 21 1022 60 10000 11.3 10 23:22 08.06.2019
6618 Clouds 21 1021 60 10000 10.8 10 22:45 08.06.2019
6619 Clouds 22 1021 60 10000 10.8 10 22:26 08.06.2019
6620 Clouds 22 1021 60 10000 10.8 20 21:58 08.06.2019
6621 Clouds 22 1021 68 10000 11.3 10 21:39 08.06.2019
6622 Clouds 22 1021 68 10000 11.3 10 21:20 08.06.2019
6623 Clouds 22 1021 64 10000 11.3 20 20:43 08.06.2019
6624 Clouds 23 1021 64 10000 11.3 20 20:24 08.06.2019
6625 Clouds 23 1020 64 10000 12.9 30 19:43 08.06.2019
6626 Clouds 23 1020 64 10000 12.9 30 19:23 08.06.2019
6627 Clouds 24 1020 56 10000 12.9 30 18:59 08.06.2019
6628 Clouds 23 1021 60 10000 12.9 30 18:40 08.06.2019
6629 Clouds 24 1021 60 10000 12.9 30 18:20 08.06.2019
6630 Clouds 23 1021 60 10000 11.8 30 17:42 08.06.2019
6631 Clouds 24 1021 60 10000 11.8 30 17:19 08.06.2019
6632 Clouds 24 1021 64 10000 11.3 30 16:45 08.06.2019
6633 Clouds 23 1021 64 10000 10.8 20 16:26 08.06.2019
6634 Clouds 23 1021 64 10000 10.3 20 15:42 08.06.2019
6635 Clouds 23 1021 64 10000 10.3 20 15:22 08.06.2019
6636 Clouds 23 1022 68 10000 10.3 20 14:47 08.06.2019
6637 Clouds 23 1022 68 10000 10.3 20 14:27 08.06.2019
6638 Clouds 23 1022 68 10000 8.2 20 13:40 08.06.2019
6639 Clouds 23 1022 73 10000 8.2 30 12:52 08.06.2019
6640 Clouds 23 1021 68 10000 7.7 20 12:32 08.06.2019
6641 Clouds 22 1021 68 10000 9.3 30 11:44 08.06.2019
6642 Clouds 22 1021 68 10000 9.3 30 11:44 08.06.2019
6643 Clouds 22 1021 73 10000 8.2 20 11:25 08.06.2019
6644 Clouds 21 1021 77 10000 7.7 20 10:46 08.06.2019
6645 Clouds 21 1021 73 10000 8.2 20 10:24 08.06.2019
6646 Clouds 21 1021 77 10000 7.7 20 09:52 08.06.2019
6647 Clouds 20 1021 77